<?xml version="1.0" encoding="UTF-8" standalone="no" ?>
<gpx xmlns="http://www.topografix.com/GPX/1/1" xmlns:xsi="http://www.w3.org/2001/XMLSchema-instance" xsi:schemaLocation="http://www.topografix.com/GPX/1/1 http://www.topografix.com/GPX/1/1/gpx.xsd" version="1.1" creator="VisuGPX - https://www.visugpx.com">
  <metadata>
    <name>Le Bon St Arnoult 2023 - 55km</name>
    <desc><![CDATA[Randonnée "Le Bon Saint Arnoult 2023" parcours 55km
- dénivelé barométrique: 875m]]></desc>
  </metadata>
  <trk>
    <name><![CDATA[2023-09-03 08:30]]></name>
    <desc><![CDATA[<p>Heure de départ: 08:30 3 sept. 2023<br/>Heure d'arrivée: 12:53 3 sept. 2023<br/>Distance: 55,2 km (04:23)<br/>Temps déplacement: 03:46<br/>Vitesse moyenne: 12,6 km/h<br/>Vitesse moyenne mouv.: 14,65 km/h<br/>Vitesse Max.: 44,13 km/h<br/>Altitude minimale: 91 m<br/>Altitude maximale: 180 m<br/>Vitesse de montée: 535,9 m/h<br/>Vitesse de descente: -528,5 m/h<br/>Gain d'altitude: 1114 m<br/>Perte d'altitude: -1118 m<br/>Temps de montée: 02:04<br/>Temps de descente: 02:06<br/></p><hr align="center" width="480" style="height: 2px; width: 517px"/>]]></desc>
    <trkseg>
      <trkpt lat="48.57475" lon="1.95362">
        <ele>111.1</ele>
        <time>2023-09-03T06:30:20Z</time>
      </trkpt>
      <trkpt lat="48.5747" lon="1.9535">
        <ele>111</ele>
        <time>2023-09-03T06:35:10Z</time>
      </trkpt>
      <trkpt lat="48.57464" lon="1.95339">
        <ele>111</ele>
        <time>2023-09-03T06:35:14Z</time>
      </trkpt>
      <trkpt lat="48.57453" lon="1.95338">
        <ele>111</ele>
        <time>2023-09-03T06:35:18Z</time>
      </trkpt>
      <trkpt lat="48.57445" lon="1.95352">
        <ele>111</ele>
        <time>2023-09-03T06:35:22Z</time>
      </trkpt>
      <trkpt lat="48.5744" lon="1.95365">
        <ele>110.7</ele>
        <time>2023-09-03T06:35:25Z</time>
      </trkpt>
      <trkpt lat="48.57431" lon="1.95375">
        <ele>110.3</ele>
        <time>2023-09-03T06:35:28Z</time>
      </trkpt>
      <trkpt lat="48.5742" lon="1.95379">
        <ele>110</ele>
        <time>2023-09-03T06:35:31Z</time>
      </trkpt>
      <trkpt lat="48.57409" lon="1.95382">
        <ele>109.7</ele>
        <time>2023-09-03T06:35:35Z</time>
      </trkpt>
      <trkpt lat="48.57399" lon="1.95386">
        <ele>109.4</ele>
        <time>2023-09-03T06:35:39Z</time>
      </trkpt>
      <trkpt lat="48.5739" lon="1.95378">
        <ele>109</ele>
        <time>2023-09-03T06:35:42Z</time>
      </trkpt>
      <trkpt lat="48.57384" lon="1.95363">
        <ele>108.8</ele>
        <time>2023-09-03T06:35:45Z</time>
      </trkpt>
      <trkpt lat="48.57379" lon="1.95344">
        <ele>109</ele>
        <time>2023-09-03T06:35:48Z</time>
      </trkpt>
      <trkpt lat="48.57374" lon="1.95332">
        <ele>109</ele>
        <time>2023-09-03T06:35:50Z</time>
      </trkpt>
      <trkpt lat="48.57369" lon="1.95321">
        <ele>108.9</ele>
        <time>2023-09-03T06:35:52Z</time>
      </trkpt>
      <trkpt lat="48.57363" lon="1.9531">
        <ele>108.9</ele>
        <time>2023-09-03T06:35:54Z</time>
      </trkpt>
      <trkpt lat="48.57355" lon="1.95295">
        <ele>109.1</ele>
        <time>2023-09-03T06:35:57Z</time>
      </trkpt>
      <trkpt lat="48.57349" lon="1.95281">
        <ele>109.5</ele>
        <time>2023-09-03T06:36:00Z</time>
      </trkpt>
      <trkpt lat="48.57347" lon="1.95264">
        <ele>109.5</ele>
        <time>2023-09-03T06:36:03Z</time>
      </trkpt>
      <trkpt lat="48.57341" lon="1.95247">
        <ele>109.3</ele>
        <time>2023-09-03T06:36:06Z</time>
      </trkpt>
      <trkpt lat="48.57335" lon="1.9523">
        <ele>109.1</ele>
        <time>2023-09-03T06:36:09Z</time>
      </trkpt>
      <trkpt lat="48.5733" lon="1.95213">
        <ele>109.3</ele>
        <time>2023-09-03T06:36:12Z</time>
      </trkpt>
      <trkpt lat="48.57325" lon="1.95198">
        <ele>109.6</ele>
        <time>2023-09-03T06:36:15Z</time>
      </trkpt>
      <trkpt lat="48.5732" lon="1.95183">
        <ele>109.7</ele>
        <time>2023-09-03T06:36:18Z</time>
      </trkpt>
      <trkpt lat="48.57316" lon="1.95166">
        <ele>110</ele>
        <time>2023-09-03T06:36:21Z</time>
      </trkpt>
      <trkpt lat="48.57311" lon="1.9515">
        <ele>110.1</ele>
        <time>2023-09-03T06:36:24Z</time>
      </trkpt>
      <trkpt lat="48.57306" lon="1.95134">
        <ele>110.2</ele>
        <time>2023-09-03T06:36:27Z</time>
      </trkpt>
      <trkpt lat="48.57301" lon="1.95119">
        <ele>110.5</ele>
        <time>2023-09-03T06:36:30Z</time>
      </trkpt>
      <trkpt lat="48.57297" lon="1.95105">
        <ele>110.7</ele>
        <time>2023-09-03T06:36:33Z</time>
      </trkpt>
      <trkpt lat="48.57293" lon="1.9509">
        <ele>110.5</ele>
        <time>2023-09-03T06:36:36Z</time>
      </trkpt>
      <trkpt lat="48.57288" lon="1.95074">
        <ele>110.7</ele>
        <time>2023-09-03T06:36:39Z</time>
      </trkpt>
      <trkpt lat="48.57283" lon="1.95059">
        <ele>111</ele>
        <time>2023-09-03T06:36:42Z</time>
      </trkpt>
      <trkpt lat="48.57276" lon="1.95044">
        <ele>110.9</ele>
        <time>2023-09-03T06:36:45Z</time>
      </trkpt>
      <trkpt lat="48.57271" lon="1.95029">
        <ele>110.8</ele>
        <time>2023-09-03T06:36:48Z</time>
      </trkpt>
      <trkpt lat="48.57267" lon="1.95015">
        <ele>111.1</ele>
        <time>2023-09-03T06:36:51Z</time>
      </trkpt>
      <trkpt lat="48.57261" lon="1.95002">
        <ele>111.4</ele>
        <time>2023-09-03T06:36:54Z</time>
      </trkpt>
      <trkpt lat="48.57258" lon="1.94989">
        <ele>111.8</ele>
        <time>2023-09-03T06:36:58Z</time>
      </trkpt>
      <trkpt lat="48.57258" lon="1.94975">
        <ele>112.5</ele>
        <time>2023-09-03T06:37:04Z</time>
      </trkpt>
      <trkpt lat="48.5727" lon="1.94967">
        <ele>113.7</ele>
        <time>2023-09-03T06:37:08Z</time>
      </trkpt>
      <trkpt lat="48.57281" lon="1.94962">
        <ele>114.5</ele>
        <time>2023-09-03T06:37:11Z</time>
      </trkpt>
      <trkpt lat="48.57293" lon="1.94956">
        <ele>115.4</ele>
        <time>2023-09-03T06:37:15Z</time>
      </trkpt>
      <trkpt lat="48.57304" lon="1.94957">
        <ele>116</ele>
        <time>2023-09-03T06:37:18Z</time>
      </trkpt>
      <trkpt lat="48.57315" lon="1.94961">
        <ele>116.3</ele>
        <time>2023-09-03T06:37:21Z</time>
      </trkpt>
      <trkpt lat="48.57325" lon="1.94965">
        <ele>116.7</ele>
        <time>2023-09-03T06:37:24Z</time>
      </trkpt>
      <trkpt lat="48.57335" lon="1.94965">
        <ele>117.3</ele>
        <time>2023-09-03T06:37:27Z</time>
      </trkpt>
      <trkpt lat="48.57346" lon="1.9496">
        <ele>117.9</ele>
        <time>2023-09-03T06:37:30Z</time>
      </trkpt>
      <trkpt lat="48.57355" lon="1.94954">
        <ele>118.4</ele>
        <time>2023-09-03T06:37:33Z</time>
      </trkpt>
      <trkpt lat="48.57364" lon="1.9495">
        <ele>118.7</ele>
        <time>2023-09-03T06:37:36Z</time>
      </trkpt>
      <trkpt lat="48.57374" lon="1.94945">
        <ele>118.5</ele>
        <time>2023-09-03T06:37:39Z</time>
      </trkpt>
      <trkpt lat="48.57384" lon="1.9494">
        <ele>118.1</ele>
        <time>2023-09-03T06:37:42Z</time>
      </trkpt>
      <trkpt lat="48.57397" lon="1.94934">
        <ele>117.5</ele>
        <time>2023-09-03T06:37:45Z</time>
      </trkpt>
      <trkpt lat="48.57411" lon="1.94938">
        <ele>116.9</ele>
        <time>2023-09-03T06:37:47Z</time>
      </trkpt>
      <trkpt lat="48.57419" lon="1.94946">
        <ele>116.1</ele>
        <time>2023-09-03T06:37:49Z</time>
      </trkpt>
      <trkpt lat="48.57426" lon="1.94956">
        <ele>116.4</ele>
        <time>2023-09-03T06:37:53Z</time>
      </trkpt>
      <trkpt lat="48.57431" lon="1.9497">
        <ele>116.6</ele>
        <time>2023-09-03T06:38:08Z</time>
      </trkpt>
      <trkpt lat="48.57441" lon="1.94973">
        <ele>117.6</ele>
        <time>2023-09-03T06:38:12Z</time>
      </trkpt>
      <trkpt lat="48.57451" lon="1.9497">
        <ele>117.8</ele>
        <time>2023-09-03T06:38:15Z</time>
      </trkpt>
      <trkpt lat="48.57462" lon="1.94954">
        <ele>117.4</ele>
        <time>2023-09-03T06:38:18Z</time>
      </trkpt>
      <trkpt lat="48.57469" lon="1.94944">
        <ele>117.1</ele>
        <time>2023-09-03T06:38:20Z</time>
      </trkpt>
      <trkpt lat="48.57476" lon="1.94932">
        <ele>117</ele>
        <time>2023-09-03T06:38:22Z</time>
      </trkpt>
      <trkpt lat="48.57483" lon="1.9492">
        <ele>117</ele>
        <time>2023-09-03T06:38:25Z</time>
      </trkpt>
      <trkpt lat="48.57491" lon="1.94907">
        <ele>117.4</ele>
        <time>2023-09-03T06:38:28Z</time>
      </trkpt>
      <trkpt lat="48.57501" lon="1.949">
        <ele>117.6</ele>
        <time>2023-09-03T06:38:31Z</time>
      </trkpt>
      <trkpt lat="48.57511" lon="1.94896">
        <ele>117.7</ele>
        <time>2023-09-03T06:38:34Z</time>
      </trkpt>
      <trkpt lat="48.57523" lon="1.94894">
        <ele>117.8</ele>
        <time>2023-09-03T06:38:37Z</time>
      </trkpt>
      <trkpt lat="48.57534" lon="1.94901">
        <ele>117.6</ele>
        <time>2023-09-03T06:38:40Z</time>
      </trkpt>
      <trkpt lat="48.57547" lon="1.94901">
        <ele>117.6</ele>
        <time>2023-09-03T06:38:43Z</time>
      </trkpt>
      <trkpt lat="48.57556" lon="1.94887">
        <ele>118</ele>
        <time>2023-09-03T06:38:46Z</time>
      </trkpt>
      <trkpt lat="48.57562" lon="1.94877">
        <ele>118</ele>
        <time>2023-09-03T06:38:48Z</time>
      </trkpt>
      <trkpt lat="48.5757" lon="1.9487">
        <ele>118</ele>
        <time>2023-09-03T06:38:50Z</time>
      </trkpt>
      <trkpt lat="48.57579" lon="1.94866">
        <ele>118</ele>
        <time>2023-09-03T06:38:52Z</time>
      </trkpt>
      <trkpt lat="48.57589" lon="1.94862">
        <ele>118.2</ele>
        <time>2023-09-03T06:38:54Z</time>
      </trkpt>
      <trkpt lat="48.57598" lon="1.94859">
        <ele>118.6</ele>
        <time>2023-09-03T06:38:56Z</time>
      </trkpt>
      <trkpt lat="48.57606" lon="1.94854">
        <ele>118.9</ele>
        <time>2023-09-03T06:38:58Z</time>
      </trkpt>
      <trkpt lat="48.57619" lon="1.94848">
        <ele>119.1</ele>
        <time>2023-09-03T06:39:01Z</time>
      </trkpt>
      <trkpt lat="48.57629" lon="1.94845">
        <ele>119.4</ele>
        <time>2023-09-03T06:39:03Z</time>
      </trkpt>
      <trkpt lat="48.57637" lon="1.94839">
        <ele>119.8</ele>
        <time>2023-09-03T06:39:05Z</time>
      </trkpt>
      <trkpt lat="48.57646" lon="1.94835">
        <ele>119.9</ele>
        <time>2023-09-03T06:39:07Z</time>
      </trkpt>
      <trkpt lat="48.57659" lon="1.94829">
        <ele>120</ele>
        <time>2023-09-03T06:39:10Z</time>
      </trkpt>
      <trkpt lat="48.57668" lon="1.94825">
        <ele>120</ele>
        <time>2023-09-03T06:39:12Z</time>
      </trkpt>
      <trkpt lat="48.5768" lon="1.9482">
        <ele>120.2</ele>
        <time>2023-09-03T06:39:15Z</time>
      </trkpt>
      <trkpt lat="48.57693" lon="1.94816">
        <ele>120.6</ele>
        <time>2023-09-03T06:39:18Z</time>
      </trkpt>
      <trkpt lat="48.57701" lon="1.9481">
        <ele>120.9</ele>
        <time>2023-09-03T06:39:20Z</time>
      </trkpt>
      <trkpt lat="48.5771" lon="1.94798">
        <ele>121.3</ele>
        <time>2023-09-03T06:39:23Z</time>
      </trkpt>
      <trkpt lat="48.57718" lon="1.94788">
        <ele>121.6</ele>
        <time>2023-09-03T06:39:26Z</time>
      </trkpt>
      <trkpt lat="48.5773" lon="1.94786">
        <ele>121.8</ele>
        <time>2023-09-03T06:39:30Z</time>
      </trkpt>
      <trkpt lat="48.5774" lon="1.94795">
        <ele>121.8</ele>
        <time>2023-09-03T06:39:33Z</time>
      </trkpt>
      <trkpt lat="48.5775" lon="1.94806">
        <ele>122</ele>
        <time>2023-09-03T06:39:36Z</time>
      </trkpt>
      <trkpt lat="48.57761" lon="1.94816">
        <ele>121.6</ele>
        <time>2023-09-03T06:39:39Z</time>
      </trkpt>
      <trkpt lat="48.57771" lon="1.94819">
        <ele>121.5</ele>
        <time>2023-09-03T06:39:42Z</time>
      </trkpt>
      <trkpt lat="48.57779" lon="1.94808">
        <ele>121.9</ele>
        <time>2023-09-03T06:39:45Z</time>
      </trkpt>
      <trkpt lat="48.57779" lon="1.94795">
        <ele>122.4</ele>
        <time>2023-09-03T06:39:48Z</time>
      </trkpt>
      <trkpt lat="48.57775" lon="1.94782">
        <ele>122.8</ele>
        <time>2023-09-03T06:39:51Z</time>
      </trkpt>
      <trkpt lat="48.57772" lon="1.94768">
        <ele>123.1</ele>
        <time>2023-09-03T06:39:54Z</time>
      </trkpt>
      <trkpt lat="48.57766" lon="1.94753">
        <ele>123.5</ele>
        <time>2023-09-03T06:39:58Z</time>
      </trkpt>
      <trkpt lat="48.5776" lon="1.94741">
        <ele>123.7</ele>
        <time>2023-09-03T06:40:03Z</time>
      </trkpt>
      <trkpt lat="48.57752" lon="1.94732">
        <ele>123.7</ele>
        <time>2023-09-03T06:40:07Z</time>
      </trkpt>
      <trkpt lat="48.57747" lon="1.94716">
        <ele>124.1</ele>
        <time>2023-09-03T06:40:11Z</time>
      </trkpt>
      <trkpt lat="48.57743" lon="1.94701">
        <ele>124.5</ele>
        <time>2023-09-03T06:40:14Z</time>
      </trkpt>
      <trkpt lat="48.57737" lon="1.94682">
        <ele>125</ele>
        <time>2023-09-03T06:40:17Z</time>
      </trkpt>
      <trkpt lat="48.57732" lon="1.94669">
        <ele>125.3</ele>
        <time>2023-09-03T06:40:19Z</time>
      </trkpt>
      <trkpt lat="48.57729" lon="1.94657">
        <ele>125.5</ele>
        <time>2023-09-03T06:40:21Z</time>
      </trkpt>
      <trkpt lat="48.57725" lon="1.94638">
        <ele>126</ele>
        <time>2023-09-03T06:40:24Z</time>
      </trkpt>
      <trkpt lat="48.57721" lon="1.9462">
        <ele>126</ele>
        <time>2023-09-03T06:40:27Z</time>
      </trkpt>
      <trkpt lat="48.57718" lon="1.94607">
        <ele>126</ele>
        <time>2023-09-03T06:40:29Z</time>
      </trkpt>
      <trkpt lat="48.57713" lon="1.94595">
        <ele>126.3</ele>
        <time>2023-09-03T06:40:31Z</time>
      </trkpt>
      <trkpt lat="48.57709" lon="1.94583">
        <ele>126.5</ele>
        <time>2023-09-03T06:40:33Z</time>
      </trkpt>
      <trkpt lat="48.57704" lon="1.94572">
        <ele>126.7</ele>
        <time>2023-09-03T06:40:35Z</time>
      </trkpt>
      <trkpt lat="48.577" lon="1.94559">
        <ele>127.1</ele>
        <time>2023-09-03T06:40:37Z</time>
      </trkpt>
      <trkpt lat="48.57695" lon="1.94543">
        <ele>127.5</ele>
        <time>2023-09-03T06:40:40Z</time>
      </trkpt>
      <trkpt lat="48.5769" lon="1.94528">
        <ele>127.8</ele>
        <time>2023-09-03T06:40:43Z</time>
      </trkpt>
      <trkpt lat="48.57683" lon="1.94513">
        <ele>127.8</ele>
        <time>2023-09-03T06:40:45Z</time>
      </trkpt>
      <trkpt lat="48.57678" lon="1.945">
        <ele>128</ele>
        <time>2023-09-03T06:40:47Z</time>
      </trkpt>
      <trkpt lat="48.57671" lon="1.94486">
        <ele>128.5</ele>
        <time>2023-09-03T06:40:49Z</time>
      </trkpt>
      <trkpt lat="48.57666" lon="1.9447">
        <ele>129.1</ele>
        <time>2023-09-03T06:40:52Z</time>
      </trkpt>
      <trkpt lat="48.57661" lon="1.94457">
        <ele>129.5</ele>
        <time>2023-09-03T06:40:55Z</time>
      </trkpt>
      <trkpt lat="48.57654" lon="1.94442">
        <ele>130.1</ele>
        <time>2023-09-03T06:40:58Z</time>
      </trkpt>
      <trkpt lat="48.57646" lon="1.94425">
        <ele>130.2</ele>
        <time>2023-09-03T06:41:01Z</time>
      </trkpt>
      <trkpt lat="48.5764" lon="1.94413">
        <ele>130.3</ele>
        <time>2023-09-03T06:41:04Z</time>
      </trkpt>
      <trkpt lat="48.57631" lon="1.94405">
        <ele>130.8</ele>
        <time>2023-09-03T06:41:08Z</time>
      </trkpt>
      <trkpt lat="48.57618" lon="1.9439">
        <ele>130.5</ele>
        <time>2023-09-03T06:41:11Z</time>
      </trkpt>
      <trkpt lat="48.57611" lon="1.94379">
        <ele>130</ele>
        <time>2023-09-03T06:41:13Z</time>
      </trkpt>
      <trkpt lat="48.57604" lon="1.94366">
        <ele>130.1</ele>
        <time>2023-09-03T06:41:15Z</time>
      </trkpt>
      <trkpt lat="48.57595" lon="1.94356">
        <ele>130.6</ele>
        <time>2023-09-03T06:41:17Z</time>
      </trkpt>
      <trkpt lat="48.57589" lon="1.94344">
        <ele>131.6</ele>
        <time>2023-09-03T06:41:19Z</time>
      </trkpt>
      <trkpt lat="48.57585" lon="1.94329">
        <ele>132.4</ele>
        <time>2023-09-03T06:41:21Z</time>
      </trkpt>
      <trkpt lat="48.57579" lon="1.94318">
        <ele>133.3</ele>
        <time>2023-09-03T06:41:23Z</time>
      </trkpt>
      <trkpt lat="48.57574" lon="1.94304">
        <ele>134</ele>
        <time>2023-09-03T06:41:25Z</time>
      </trkpt>
      <trkpt lat="48.57569" lon="1.9429">
        <ele>133.7</ele>
        <time>2023-09-03T06:41:27Z</time>
      </trkpt>
      <trkpt lat="48.57563" lon="1.94277">
        <ele>133.2</ele>
        <time>2023-09-03T06:41:29Z</time>
      </trkpt>
      <trkpt lat="48.57558" lon="1.94264">
        <ele>132.1</ele>
        <time>2023-09-03T06:41:31Z</time>
      </trkpt>
      <trkpt lat="48.57552" lon="1.9425">
        <ele>130.9</ele>
        <time>2023-09-03T06:41:33Z</time>
      </trkpt>
      <trkpt lat="48.57547" lon="1.94238">
        <ele>130.3</ele>
        <time>2023-09-03T06:41:35Z</time>
      </trkpt>
      <trkpt lat="48.57541" lon="1.94226">
        <ele>129.6</ele>
        <time>2023-09-03T06:41:37Z</time>
      </trkpt>
      <trkpt lat="48.57537" lon="1.94213">
        <ele>129.2</ele>
        <time>2023-09-03T06:41:40Z</time>
      </trkpt>
      <trkpt lat="48.57541" lon="1.94197">
        <ele>129.1</ele>
        <time>2023-09-03T06:41:46Z</time>
      </trkpt>
      <trkpt lat="48.57538" lon="1.94179">
        <ele>128.7</ele>
        <time>2023-09-03T06:41:49Z</time>
      </trkpt>
      <trkpt lat="48.57532" lon="1.94166">
        <ele>128.1</ele>
        <time>2023-09-03T06:41:51Z</time>
      </trkpt>
      <trkpt lat="48.57526" lon="1.94154">
        <ele>128</ele>
        <time>2023-09-03T06:41:53Z</time>
      </trkpt>
      <trkpt lat="48.57521" lon="1.94142">
        <ele>128</ele>
        <time>2023-09-03T06:41:55Z</time>
      </trkpt>
      <trkpt lat="48.57515" lon="1.94128">
        <ele>128.2</ele>
        <time>2023-09-03T06:41:57Z</time>
      </trkpt>
      <trkpt lat="48.57509" lon="1.94116">
        <ele>128.3</ele>
        <time>2023-09-03T06:41:59Z</time>
      </trkpt>
      <trkpt lat="48.57503" lon="1.94104">
        <ele>128.3</ele>
        <time>2023-09-03T06:42:01Z</time>
      </trkpt>
      <trkpt lat="48.57497" lon="1.94091">
        <ele>128.6</ele>
        <time>2023-09-03T06:42:03Z</time>
      </trkpt>
      <trkpt lat="48.57491" lon="1.94078">
        <ele>128.9</ele>
        <time>2023-09-03T06:42:05Z</time>
      </trkpt>
      <trkpt lat="48.57486" lon="1.94065">
        <ele>129.1</ele>
        <time>2023-09-03T06:42:07Z</time>
      </trkpt>
      <trkpt lat="48.57481" lon="1.94052">
        <ele>129.4</ele>
        <time>2023-09-03T06:42:09Z</time>
      </trkpt>
      <trkpt lat="48.57476" lon="1.94039">
        <ele>129.6</ele>
        <time>2023-09-03T06:42:11Z</time>
      </trkpt>
      <trkpt lat="48.5747" lon="1.94026">
        <ele>129.8</ele>
        <time>2023-09-03T06:42:13Z</time>
      </trkpt>
      <trkpt lat="48.57465" lon="1.94015">
        <ele>129.7</ele>
        <time>2023-09-03T06:42:15Z</time>
      </trkpt>
      <trkpt lat="48.57459" lon="1.93998">
        <ele>129.7</ele>
        <time>2023-09-03T06:42:18Z</time>
      </trkpt>
      <trkpt lat="48.57453" lon="1.93985">
        <ele>130</ele>
        <time>2023-09-03T06:42:20Z</time>
      </trkpt>
      <trkpt lat="48.57446" lon="1.93968">
        <ele>131.2</ele>
        <time>2023-09-03T06:42:23Z</time>
      </trkpt>
      <trkpt lat="48.5744" lon="1.93952">
        <ele>131.5</ele>
        <time>2023-09-03T06:42:26Z</time>
      </trkpt>
      <trkpt lat="48.57438" lon="1.93939">
        <ele>132.1</ele>
        <time>2023-09-03T06:42:29Z</time>
      </trkpt>
      <trkpt lat="48.57436" lon="1.93923">
        <ele>133</ele>
        <time>2023-09-03T06:42:34Z</time>
      </trkpt>
      <trkpt lat="48.57441" lon="1.93907">
        <ele>133.8</ele>
        <time>2023-09-03T06:42:38Z</time>
      </trkpt>
      <trkpt lat="48.57447" lon="1.93895">
        <ele>134</ele>
        <time>2023-09-03T06:42:41Z</time>
      </trkpt>
      <trkpt lat="48.57448" lon="1.9388">
        <ele>134</ele>
        <time>2023-09-03T06:42:44Z</time>
      </trkpt>
      <trkpt lat="48.57448" lon="1.93863">
        <ele>134.1</ele>
        <time>2023-09-03T06:42:47Z</time>
      </trkpt>
      <trkpt lat="48.57453" lon="1.93848">
        <ele>134.6</ele>
        <time>2023-09-03T06:42:50Z</time>
      </trkpt>
      <trkpt lat="48.57458" lon="1.93831">
        <ele>135</ele>
        <time>2023-09-03T06:42:53Z</time>
      </trkpt>
      <trkpt lat="48.57462" lon="1.93815">
        <ele>135</ele>
        <time>2023-09-03T06:42:56Z</time>
      </trkpt>
      <trkpt lat="48.57466" lon="1.93799">
        <ele>135.2</ele>
        <time>2023-09-03T06:42:59Z</time>
      </trkpt>
      <trkpt lat="48.57471" lon="1.93783">
        <ele>135.8</ele>
        <time>2023-09-03T06:43:02Z</time>
      </trkpt>
      <trkpt lat="48.57475" lon="1.93767">
        <ele>136</ele>
        <time>2023-09-03T06:43:05Z</time>
      </trkpt>
      <trkpt lat="48.57478" lon="1.9375">
        <ele>136.2</ele>
        <time>2023-09-03T06:43:08Z</time>
      </trkpt>
      <trkpt lat="48.57479" lon="1.93734">
        <ele>137.4</ele>
        <time>2023-09-03T06:43:11Z</time>
      </trkpt>
      <trkpt lat="48.57481" lon="1.9372">
        <ele>138.5</ele>
        <time>2023-09-03T06:43:14Z</time>
      </trkpt>
      <trkpt lat="48.57481" lon="1.93701">
        <ele>139.8</ele>
        <time>2023-09-03T06:43:18Z</time>
      </trkpt>
      <trkpt lat="48.5748" lon="1.93686">
        <ele>140.9</ele>
        <time>2023-09-03T06:43:21Z</time>
      </trkpt>
      <trkpt lat="48.57484" lon="1.9367">
        <ele>142.1</ele>
        <time>2023-09-03T06:43:24Z</time>
      </trkpt>
      <trkpt lat="48.57488" lon="1.93655">
        <ele>143.4</ele>
        <time>2023-09-03T06:43:27Z</time>
      </trkpt>
      <trkpt lat="48.57488" lon="1.93638">
        <ele>144.6</ele>
        <time>2023-09-03T06:43:30Z</time>
      </trkpt>
      <trkpt lat="48.57488" lon="1.93619">
        <ele>146</ele>
        <time>2023-09-03T06:43:33Z</time>
      </trkpt>
      <trkpt lat="48.5749" lon="1.93603">
        <ele>147.2</ele>
        <time>2023-09-03T06:43:36Z</time>
      </trkpt>
      <trkpt lat="48.57491" lon="1.93589">
        <ele>148.3</ele>
        <time>2023-09-03T06:43:39Z</time>
      </trkpt>
      <trkpt lat="48.57493" lon="1.93571">
        <ele>149.4</ele>
        <time>2023-09-03T06:43:42Z</time>
      </trkpt>
      <trkpt lat="48.57496" lon="1.93553">
        <ele>150.3</ele>
        <time>2023-09-03T06:43:45Z</time>
      </trkpt>
      <trkpt lat="48.57503" lon="1.93537">
        <ele>151.4</ele>
        <time>2023-09-03T06:43:48Z</time>
      </trkpt>
      <trkpt lat="48.57508" lon="1.93521">
        <ele>152.4</ele>
        <time>2023-09-03T06:43:52Z</time>
      </trkpt>
      <trkpt lat="48.57516" lon="1.93508">
        <ele>153</ele>
        <time>2023-09-03T06:43:56Z</time>
      </trkpt>
      <trkpt lat="48.57522" lon="1.93497">
        <ele>153.4</ele>
        <time>2023-09-03T06:43:59Z</time>
      </trkpt>
      <trkpt lat="48.57529" lon="1.93488">
        <ele>153.7</ele>
        <time>2023-09-03T06:44:02Z</time>
      </trkpt>
      <trkpt lat="48.57536" lon="1.93475">
        <ele>154.2</ele>
        <time>2023-09-03T06:44:06Z</time>
      </trkpt>
      <trkpt lat="48.57542" lon="1.93461">
        <ele>154.2</ele>
        <time>2023-09-03T06:44:10Z</time>
      </trkpt>
      <trkpt lat="48.57545" lon="1.93448">
        <ele>154.1</ele>
        <time>2023-09-03T06:44:14Z</time>
      </trkpt>
      <trkpt lat="48.57549" lon="1.93432">
        <ele>154.2</ele>
        <time>2023-09-03T06:44:19Z</time>
      </trkpt>
      <trkpt lat="48.57555" lon="1.93418">
        <ele>153.9</ele>
        <time>2023-09-03T06:44:23Z</time>
      </trkpt>
      <trkpt lat="48.57563" lon="1.93406">
        <ele>155</ele>
        <time>2023-09-03T06:44:27Z</time>
      </trkpt>
      <trkpt lat="48.57569" lon="1.93395">
        <ele>156.2</ele>
        <time>2023-09-03T06:44:31Z</time>
      </trkpt>
      <trkpt lat="48.57576" lon="1.93383">
        <ele>157.7</ele>
        <time>2023-09-03T06:44:36Z</time>
      </trkpt>
      <trkpt lat="48.57583" lon="1.93371">
        <ele>159</ele>
        <time>2023-09-03T06:44:42Z</time>
      </trkpt>
      <trkpt lat="48.57591" lon="1.9336">
        <ele>160</ele>
        <time>2023-09-03T06:44:47Z</time>
      </trkpt>
      <trkpt lat="48.57599" lon="1.93352">
        <ele>160.5</ele>
        <time>2023-09-03T06:44:51Z</time>
      </trkpt>
      <trkpt lat="48.57606" lon="1.9334">
        <ele>160.9</ele>
        <time>2023-09-03T06:44:55Z</time>
      </trkpt>
      <trkpt lat="48.57614" lon="1.93331">
        <ele>161.1</ele>
        <time>2023-09-03T06:44:59Z</time>
      </trkpt>
      <trkpt lat="48.57622" lon="1.9332">
        <ele>161.5</ele>
        <time>2023-09-03T06:45:04Z</time>
      </trkpt>
      <trkpt lat="48.5763" lon="1.9331">
        <ele>161.9</ele>
        <time>2023-09-03T06:45:08Z</time>
      </trkpt>
      <trkpt lat="48.57638" lon="1.93303">
        <ele>162.1</ele>
        <time>2023-09-03T06:45:12Z</time>
      </trkpt>
      <trkpt lat="48.57649" lon="1.93297">
        <ele>162.3</ele>
        <time>2023-09-03T06:45:16Z</time>
      </trkpt>
      <trkpt lat="48.57658" lon="1.93289">
        <ele>162.6</ele>
        <time>2023-09-03T06:45:20Z</time>
      </trkpt>
      <trkpt lat="48.57668" lon="1.93279">
        <ele>163</ele>
        <time>2023-09-03T06:45:24Z</time>
      </trkpt>
      <trkpt lat="48.57677" lon="1.93268">
        <ele>163.4</ele>
        <time>2023-09-03T06:45:28Z</time>
      </trkpt>
      <trkpt lat="48.57685" lon="1.9326">
        <ele>163.6</ele>
        <time>2023-09-03T06:45:31Z</time>
      </trkpt>
      <trkpt lat="48.57693" lon="1.93253">
        <ele>163.9</ele>
        <time>2023-09-03T06:45:34Z</time>
      </trkpt>
      <trkpt lat="48.57702" lon="1.93244">
        <ele>163.8</ele>
        <time>2023-09-03T06:45:37Z</time>
      </trkpt>
      <trkpt lat="48.57712" lon="1.93234">
        <ele>163.7</ele>
        <time>2023-09-03T06:45:40Z</time>
      </trkpt>
      <trkpt lat="48.57723" lon="1.93224">
        <ele>163.9</ele>
        <time>2023-09-03T06:45:43Z</time>
      </trkpt>
      <trkpt lat="48.5773" lon="1.93215">
        <ele>164</ele>
        <time>2023-09-03T06:45:45Z</time>
      </trkpt>
      <trkpt lat="48.57739" lon="1.93207">
        <ele>164</ele>
        <time>2023-09-03T06:45:47Z</time>
      </trkpt>
      <trkpt lat="48.57746" lon="1.93199">
        <ele>164</ele>
        <time>2023-09-03T06:45:49Z</time>
      </trkpt>
      <trkpt lat="48.57754" lon="1.93191">
        <ele>164</ele>
        <time>2023-09-03T06:45:51Z</time>
      </trkpt>
      <trkpt lat="48.57762" lon="1.93184">
        <ele>164</ele>
        <time>2023-09-03T06:45:53Z</time>
      </trkpt>
      <trkpt lat="48.57771" lon="1.93178">
        <ele>164</ele>
        <time>2023-09-03T06:45:55Z</time>
      </trkpt>
      <trkpt lat="48.57779" lon="1.93171">
        <ele>164</ele>
        <time>2023-09-03T06:45:57Z</time>
      </trkpt>
      <trkpt lat="48.57787" lon="1.93162">
        <ele>164.1</ele>
        <time>2023-09-03T06:45:59Z</time>
      </trkpt>
      <trkpt lat="48.57795" lon="1.93154">
        <ele>164.3</ele>
        <time>2023-09-03T06:46:01Z</time>
      </trkpt>
      <trkpt lat="48.57803" lon="1.93146">
        <ele>164.7</ele>
        <time>2023-09-03T06:46:03Z</time>
      </trkpt>
      <trkpt lat="48.57812" lon="1.93139">
        <ele>164.8</ele>
        <time>2023-09-03T06:46:05Z</time>
      </trkpt>
      <trkpt lat="48.5782" lon="1.93132">
        <ele>164.3</ele>
        <time>2023-09-03T06:46:07Z</time>
      </trkpt>
      <trkpt lat="48.57829" lon="1.93123">
        <ele>164.1</ele>
        <time>2023-09-03T06:46:09Z</time>
      </trkpt>
      <trkpt lat="48.57836" lon="1.93116">
        <ele>164</ele>
        <time>2023-09-03T06:46:11Z</time>
      </trkpt>
      <trkpt lat="48.57845" lon="1.93108">
        <ele>164</ele>
        <time>2023-09-03T06:46:13Z</time>
      </trkpt>
      <trkpt lat="48.57856" lon="1.93097">
        <ele>164.4</ele>
        <time>2023-09-03T06:46:16Z</time>
      </trkpt>
      <trkpt lat="48.57865" lon="1.9309">
        <ele>164.6</ele>
        <time>2023-09-03T06:46:18Z</time>
      </trkpt>
      <trkpt lat="48.57873" lon="1.93083">
        <ele>164.6</ele>
        <time>2023-09-03T06:46:20Z</time>
      </trkpt>
      <trkpt lat="48.57882" lon="1.93076">
        <ele>164.4</ele>
        <time>2023-09-03T06:46:22Z</time>
      </trkpt>
      <trkpt lat="48.57891" lon="1.93068">
        <ele>164.5</ele>
        <time>2023-09-03T06:46:24Z</time>
      </trkpt>
      <trkpt lat="48.579" lon="1.93061">
        <ele>164.5</ele>
        <time>2023-09-03T06:46:26Z</time>
      </trkpt>
      <trkpt lat="48.57909" lon="1.93053">
        <ele>164.2</ele>
        <time>2023-09-03T06:46:28Z</time>
      </trkpt>
      <trkpt lat="48.57917" lon="1.93045">
        <ele>164</ele>
        <time>2023-09-03T06:46:30Z</time>
      </trkpt>
      <trkpt lat="48.57926" lon="1.93037">
        <ele>164</ele>
        <time>2023-09-03T06:46:32Z</time>
      </trkpt>
      <trkpt lat="48.57935" lon="1.9303">
        <ele>164</ele>
        <time>2023-09-03T06:46:34Z</time>
      </trkpt>
      <trkpt lat="48.57944" lon="1.93023">
        <ele>164</ele>
        <time>2023-09-03T06:46:36Z</time>
      </trkpt>
      <trkpt lat="48.57954" lon="1.93019">
        <ele>164</ele>
        <time>2023-09-03T06:46:38Z</time>
      </trkpt>
      <trkpt lat="48.57964" lon="1.93012">
        <ele>164</ele>
        <time>2023-09-03T06:46:40Z</time>
      </trkpt>
      <trkpt lat="48.57973" lon="1.93006">
        <ele>164</ele>
        <time>2023-09-03T06:46:42Z</time>
      </trkpt>
      <trkpt lat="48.57983" lon="1.93001">
        <ele>164</ele>
        <time>2023-09-03T06:46:44Z</time>
      </trkpt>
      <trkpt lat="48.57993" lon="1.92995">
        <ele>164</ele>
        <time>2023-09-03T06:46:46Z</time>
      </trkpt>
      <trkpt lat="48.58004" lon="1.92989">
        <ele>163.9</ele>
        <time>2023-09-03T06:46:48Z</time>
      </trkpt>
      <trkpt lat="48.58014" lon="1.92984">
        <ele>163.8</ele>
        <time>2023-09-03T06:46:50Z</time>
      </trkpt>
      <trkpt lat="48.58028" lon="1.92977">
        <ele>163.8</ele>
        <time>2023-09-03T06:46:53Z</time>
      </trkpt>
      <trkpt lat="48.58037" lon="1.92972">
        <ele>163.7</ele>
        <time>2023-09-03T06:46:55Z</time>
      </trkpt>
      <trkpt lat="48.58046" lon="1.92965">
        <ele>163.5</ele>
        <time>2023-09-03T06:46:57Z</time>
      </trkpt>
      <trkpt lat="48.58057" lon="1.9296">
        <ele>163.4</ele>
        <time>2023-09-03T06:46:59Z</time>
      </trkpt>
      <trkpt lat="48.58065" lon="1.92954">
        <ele>163.4</ele>
        <time>2023-09-03T06:47:01Z</time>
      </trkpt>
      <trkpt lat="48.58075" lon="1.92949">
        <ele>163.3</ele>
        <time>2023-09-03T06:47:03Z</time>
      </trkpt>
      <trkpt lat="48.58083" lon="1.92941">
        <ele>163</ele>
        <time>2023-09-03T06:47:05Z</time>
      </trkpt>
      <trkpt lat="48.58093" lon="1.92936">
        <ele>163</ele>
        <time>2023-09-03T06:47:07Z</time>
      </trkpt>
      <trkpt lat="48.58102" lon="1.92931">
        <ele>163</ele>
        <time>2023-09-03T06:47:09Z</time>
      </trkpt>
      <trkpt lat="48.58111" lon="1.92925">
        <ele>163</ele>
        <time>2023-09-03T06:47:11Z</time>
      </trkpt>
      <trkpt lat="48.58119" lon="1.92919">
        <ele>163</ele>
        <time>2023-09-03T06:47:13Z</time>
      </trkpt>
      <trkpt lat="48.58129" lon="1.92914">
        <ele>163</ele>
        <time>2023-09-03T06:47:15Z</time>
      </trkpt>
      <trkpt lat="48.5814" lon="1.9291">
        <ele>163</ele>
        <time>2023-09-03T06:47:17Z</time>
      </trkpt>
      <trkpt lat="48.5815" lon="1.92905">
        <ele>163</ele>
        <time>2023-09-03T06:47:19Z</time>
      </trkpt>
      <trkpt lat="48.58161" lon="1.92899">
        <ele>163</ele>
        <time>2023-09-03T06:47:21Z</time>
      </trkpt>
      <trkpt lat="48.58172" lon="1.92893">
        <ele>162.8</ele>
        <time>2023-09-03T06:47:23Z</time>
      </trkpt>
      <trkpt lat="48.58182" lon="1.92888">
        <ele>162.4</ele>
        <time>2023-09-03T06:47:25Z</time>
      </trkpt>
      <trkpt lat="48.58189" lon="1.92878">
        <ele>162.1</ele>
        <time>2023-09-03T06:47:29Z</time>
      </trkpt>
      <trkpt lat="48.58198" lon="1.92877">
        <ele>162</ele>
        <time>2023-09-03T06:47:36Z</time>
      </trkpt>
      <trkpt lat="48.58208" lon="1.92874">
        <ele>162</ele>
        <time>2023-09-03T06:47:40Z</time>
      </trkpt>
      <trkpt lat="48.58218" lon="1.92874">
        <ele>162</ele>
        <time>2023-09-03T06:47:43Z</time>
      </trkpt>
      <trkpt lat="48.58226" lon="1.92882">
        <ele>162</ele>
        <time>2023-09-03T06:47:45Z</time>
      </trkpt>
      <trkpt lat="48.58237" lon="1.92892">
        <ele>162</ele>
        <time>2023-09-03T06:47:48Z</time>
      </trkpt>
      <trkpt lat="48.58246" lon="1.929">
        <ele>162</ele>
        <time>2023-09-03T06:47:50Z</time>
      </trkpt>
      <trkpt lat="48.58256" lon="1.92909">
        <ele>162</ele>
        <time>2023-09-03T06:47:52Z</time>
      </trkpt>
      <trkpt lat="48.58266" lon="1.9292">
        <ele>162</ele>
        <time>2023-09-03T06:47:54Z</time>
      </trkpt>
      <trkpt lat="48.58274" lon="1.92933">
        <ele>162</ele>
        <time>2023-09-03T06:47:56Z</time>
      </trkpt>
      <trkpt lat="48.58281" lon="1.92948">
        <ele>161.9</ele>
        <time>2023-09-03T06:47:58Z</time>
      </trkpt>
      <trkpt lat="48.5829" lon="1.9296">
        <ele>161.6</ele>
        <time>2023-09-03T06:48:00Z</time>
      </trkpt>
      <trkpt lat="48.58313" lon="1.92968">
        <ele>161</ele>
        <time>2023-09-03T06:48:02Z</time>
      </trkpt>
      <trkpt lat="48.5832" lon="1.9298">
        <ele>161</ele>
        <time>2023-09-03T06:48:04Z</time>
      </trkpt>
      <trkpt lat="48.58331" lon="1.92991">
        <ele>161</ele>
        <time>2023-09-03T06:48:06Z</time>
      </trkpt>
      <trkpt lat="48.58339" lon="1.93003">
        <ele>161</ele>
        <time>2023-09-03T06:48:08Z</time>
      </trkpt>
      <trkpt lat="48.5835" lon="1.93006">
        <ele>161</ele>
        <time>2023-09-03T06:48:10Z</time>
      </trkpt>
      <trkpt lat="48.58364" lon="1.93004">
        <ele>161</ele>
        <time>2023-09-03T06:48:12Z</time>
      </trkpt>
      <trkpt lat="48.58377" lon="1.92994">
        <ele>161</ele>
        <time>2023-09-03T06:48:15Z</time>
      </trkpt>
      <trkpt lat="48.58388" lon="1.92984">
        <ele>161</ele>
        <time>2023-09-03T06:48:18Z</time>
      </trkpt>
      <trkpt lat="48.58399" lon="1.92988">
        <ele>161.4</ele>
        <time>2023-09-03T06:48:20Z</time>
      </trkpt>
      <trkpt lat="48.58406" lon="1.93003">
        <ele>161.6</ele>
        <time>2023-09-03T06:48:23Z</time>
      </trkpt>
      <trkpt lat="48.58411" lon="1.93017">
        <ele>161.8</ele>
        <time>2023-09-03T06:48:25Z</time>
      </trkpt>
      <trkpt lat="48.58417" lon="1.93031">
        <ele>162</ele>
        <time>2023-09-03T06:48:27Z</time>
      </trkpt>
      <trkpt lat="48.58422" lon="1.93043">
        <ele>162.2</ele>
        <time>2023-09-03T06:48:29Z</time>
      </trkpt>
      <trkpt lat="48.58427" lon="1.93056">
        <ele>162.4</ele>
        <time>2023-09-03T06:48:31Z</time>
      </trkpt>
      <trkpt lat="48.58434" lon="1.93071">
        <ele>162.6</ele>
        <time>2023-09-03T06:48:33Z</time>
      </trkpt>
      <trkpt lat="48.58443" lon="1.93083">
        <ele>162.9</ele>
        <time>2023-09-03T06:48:35Z</time>
      </trkpt>
      <trkpt lat="48.58449" lon="1.93096">
        <ele>163.2</ele>
        <time>2023-09-03T06:48:37Z</time>
      </trkpt>
      <trkpt lat="48.58456" lon="1.9311">
        <ele>163.4</ele>
        <time>2023-09-03T06:48:39Z</time>
      </trkpt>
      <trkpt lat="48.58459" lon="1.93123">
        <ele>163.5</ele>
        <time>2023-09-03T06:48:41Z</time>
      </trkpt>
      <trkpt lat="48.58464" lon="1.93136">
        <ele>163.7</ele>
        <time>2023-09-03T06:48:43Z</time>
      </trkpt>
      <trkpt lat="48.58468" lon="1.93151">
        <ele>163.9</ele>
        <time>2023-09-03T06:48:45Z</time>
      </trkpt>
      <trkpt lat="48.58474" lon="1.93165">
        <ele>164</ele>
        <time>2023-09-03T06:48:47Z</time>
      </trkpt>
      <trkpt lat="48.5848" lon="1.9318">
        <ele>164</ele>
        <time>2023-09-03T06:48:49Z</time>
      </trkpt>
      <trkpt lat="48.58486" lon="1.93195">
        <ele>164</ele>
        <time>2023-09-03T06:48:51Z</time>
      </trkpt>
      <trkpt lat="48.58491" lon="1.9321">
        <ele>163.4</ele>
        <time>2023-09-03T06:48:53Z</time>
      </trkpt>
      <trkpt lat="48.58497" lon="1.93226">
        <ele>162.9</ele>
        <time>2023-09-03T06:48:55Z</time>
      </trkpt>
      <trkpt lat="48.58503" lon="1.93241">
        <ele>162.3</ele>
        <time>2023-09-03T06:48:57Z</time>
      </trkpt>
      <trkpt lat="48.58509" lon="1.93256">
        <ele>161.9</ele>
        <time>2023-09-03T06:48:59Z</time>
      </trkpt>
      <trkpt lat="48.5852" lon="1.93274">
        <ele>161.4</ele>
        <time>2023-09-03T06:49:01Z</time>
      </trkpt>
      <trkpt lat="48.58529" lon="1.93294">
        <ele>160.4</ele>
        <time>2023-09-03T06:49:03Z</time>
      </trkpt>
      <trkpt lat="48.58534" lon="1.93316">
        <ele>159.4</ele>
        <time>2023-09-03T06:49:05Z</time>
      </trkpt>
      <trkpt lat="48.5854" lon="1.93336">
        <ele>158.5</ele>
        <time>2023-09-03T06:49:07Z</time>
      </trkpt>
      <trkpt lat="48.58547" lon="1.93355">
        <ele>157.5</ele>
        <time>2023-09-03T06:49:09Z</time>
      </trkpt>
      <trkpt lat="48.58553" lon="1.93372">
        <ele>156.3</ele>
        <time>2023-09-03T06:49:11Z</time>
      </trkpt>
      <trkpt lat="48.58562" lon="1.93387">
        <ele>155.1</ele>
        <time>2023-09-03T06:49:13Z</time>
      </trkpt>
      <trkpt lat="48.58577" lon="1.93402">
        <ele>154.5</ele>
        <time>2023-09-03T06:49:15Z</time>
      </trkpt>
      <trkpt lat="48.58583" lon="1.93412">
        <ele>154.2</ele>
        <time>2023-09-03T06:49:17Z</time>
      </trkpt>
      <trkpt lat="48.58593" lon="1.93419">
        <ele>153.9</ele>
        <time>2023-09-03T06:49:18Z</time>
      </trkpt>
      <trkpt lat="48.58606" lon="1.93422">
        <ele>153.8</ele>
        <time>2023-09-03T06:49:21Z</time>
      </trkpt>
      <trkpt lat="48.58616" lon="1.93422">
        <ele>153.7</ele>
        <time>2023-09-03T06:49:23Z</time>
      </trkpt>
      <trkpt lat="48.58626" lon="1.9342">
        <ele>153.4</ele>
        <time>2023-09-03T06:49:25Z</time>
      </trkpt>
      <trkpt lat="48.58639" lon="1.93418">
        <ele>153</ele>
        <time>2023-09-03T06:49:27Z</time>
      </trkpt>
      <trkpt lat="48.58654" lon="1.93411">
        <ele>153.1</ele>
        <time>2023-09-03T06:49:29Z</time>
      </trkpt>
      <trkpt lat="48.58663" lon="1.93409">
        <ele>153</ele>
        <time>2023-09-03T06:49:30Z</time>
      </trkpt>
      <trkpt lat="48.58671" lon="1.934">
        <ele>153</ele>
        <time>2023-09-03T06:49:32Z</time>
      </trkpt>
      <trkpt lat="48.58681" lon="1.93391">
        <ele>153</ele>
        <time>2023-09-03T06:49:34Z</time>
      </trkpt>
      <trkpt lat="48.58691" lon="1.93386">
        <ele>153</ele>
        <time>2023-09-03T06:49:36Z</time>
      </trkpt>
      <trkpt lat="48.58707" lon="1.93382">
        <ele>152.5</ele>
        <time>2023-09-03T06:49:38Z</time>
      </trkpt>
      <trkpt lat="48.58719" lon="1.93373">
        <ele>152.1</ele>
        <time>2023-09-03T06:49:40Z</time>
      </trkpt>
      <trkpt lat="48.58734" lon="1.93364">
        <ele>151.6</ele>
        <time>2023-09-03T06:49:42Z</time>
      </trkpt>
      <trkpt lat="48.58744" lon="1.93355">
        <ele>151</ele>
        <time>2023-09-03T06:49:44Z</time>
      </trkpt>
      <trkpt lat="48.58757" lon="1.93346">
        <ele>150.3</ele>
        <time>2023-09-03T06:49:46Z</time>
      </trkpt>
      <trkpt lat="48.58766" lon="1.93339">
        <ele>150.1</ele>
        <time>2023-09-03T06:49:47Z</time>
      </trkpt>
      <trkpt lat="48.58779" lon="1.9333">
        <ele>149.8</ele>
        <time>2023-09-03T06:49:49Z</time>
      </trkpt>
      <trkpt lat="48.58789" lon="1.93324">
        <ele>149.4</ele>
        <time>2023-09-03T06:49:50Z</time>
      </trkpt>
      <trkpt lat="48.58803" lon="1.93312">
        <ele>149</ele>
        <time>2023-09-03T06:49:52Z</time>
      </trkpt>
      <trkpt lat="48.58817" lon="1.93301">
        <ele>148.6</ele>
        <time>2023-09-03T06:49:54Z</time>
      </trkpt>
      <trkpt lat="48.58826" lon="1.93296">
        <ele>148.3</ele>
        <time>2023-09-03T06:49:55Z</time>
      </trkpt>
      <trkpt lat="48.58838" lon="1.93289">
        <ele>147.8</ele>
        <time>2023-09-03T06:49:57Z</time>
      </trkpt>
      <trkpt lat="48.58848" lon="1.93279">
        <ele>147.5</ele>
        <time>2023-09-03T06:49:59Z</time>
      </trkpt>
      <trkpt lat="48.58856" lon="1.9327">
        <ele>147.2</ele>
        <time>2023-09-03T06:50:01Z</time>
      </trkpt>
      <trkpt lat="48.58859" lon="1.93254">
        <ele>147.1</ele>
        <time>2023-09-03T06:50:03Z</time>
      </trkpt>
      <trkpt lat="48.58863" lon="1.9324">
        <ele>146.9</ele>
        <time>2023-09-03T06:50:05Z</time>
      </trkpt>
      <trkpt lat="48.5887" lon="1.93225">
        <ele>146.7</ele>
        <time>2023-09-03T06:50:08Z</time>
      </trkpt>
      <trkpt lat="48.58879" lon="1.93209">
        <ele>146.4</ele>
        <time>2023-09-03T06:50:10Z</time>
      </trkpt>
      <trkpt lat="48.58883" lon="1.93193">
        <ele>146.2</ele>
        <time>2023-09-03T06:50:12Z</time>
      </trkpt>
      <trkpt lat="48.58893" lon="1.93181">
        <ele>145.9</ele>
        <time>2023-09-03T06:50:14Z</time>
      </trkpt>
      <trkpt lat="48.58901" lon="1.93165">
        <ele>146.1</ele>
        <time>2023-09-03T06:50:16Z</time>
      </trkpt>
      <trkpt lat="48.58904" lon="1.93151">
        <ele>146.6</ele>
        <time>2023-09-03T06:50:18Z</time>
      </trkpt>
      <trkpt lat="48.58906" lon="1.93134">
        <ele>147.3</ele>
        <time>2023-09-03T06:50:20Z</time>
      </trkpt>
      <trkpt lat="48.58906" lon="1.93111">
        <ele>148.6</ele>
        <time>2023-09-03T06:50:22Z</time>
      </trkpt>
      <trkpt lat="48.58903" lon="1.93092">
        <ele>149.2</ele>
        <time>2023-09-03T06:50:24Z</time>
      </trkpt>
      <trkpt lat="48.58897" lon="1.93075">
        <ele>149.3</ele>
        <time>2023-09-03T06:50:26Z</time>
      </trkpt>
      <trkpt lat="48.58901" lon="1.93059">
        <ele>149.5</ele>
        <time>2023-09-03T06:50:28Z</time>
      </trkpt>
      <trkpt lat="48.58901" lon="1.93042">
        <ele>149.4</ele>
        <time>2023-09-03T06:50:30Z</time>
      </trkpt>
      <trkpt lat="48.58904" lon="1.93025">
        <ele>149.6</ele>
        <time>2023-09-03T06:50:32Z</time>
      </trkpt>
      <trkpt lat="48.58904" lon="1.93006">
        <ele>149.6</ele>
        <time>2023-09-03T06:50:34Z</time>
      </trkpt>
      <trkpt lat="48.58908" lon="1.92993">
        <ele>149.7</ele>
        <time>2023-09-03T06:50:36Z</time>
      </trkpt>
      <trkpt lat="48.58911" lon="1.92972">
        <ele>149.8</ele>
        <time>2023-09-03T06:50:39Z</time>
      </trkpt>
      <trkpt lat="48.58914" lon="1.92954">
        <ele>149.9</ele>
        <time>2023-09-03T06:50:41Z</time>
      </trkpt>
      <trkpt lat="48.58922" lon="1.92938">
        <ele>150</ele>
        <time>2023-09-03T06:50:43Z</time>
      </trkpt>
      <trkpt lat="48.58925" lon="1.9292">
        <ele>150</ele>
        <time>2023-09-03T06:50:45Z</time>
      </trkpt>
      <trkpt lat="48.5893" lon="1.92901">
        <ele>149.4</ele>
        <time>2023-09-03T06:50:47Z</time>
      </trkpt>
      <trkpt lat="48.58936" lon="1.92882">
        <ele>149</ele>
        <time>2023-09-03T06:50:49Z</time>
      </trkpt>
      <trkpt lat="48.58943" lon="1.9287">
        <ele>149</ele>
        <time>2023-09-03T06:50:51Z</time>
      </trkpt>
      <trkpt lat="48.58946" lon="1.92855">
        <ele>148.8</ele>
        <time>2023-09-03T06:50:53Z</time>
      </trkpt>
      <trkpt lat="48.58945" lon="1.92833">
        <ele>148</ele>
        <time>2023-09-03T06:50:55Z</time>
      </trkpt>
      <trkpt lat="48.58949" lon="1.92818">
        <ele>147.4</ele>
        <time>2023-09-03T06:50:57Z</time>
      </trkpt>
      <trkpt lat="48.58953" lon="1.92801">
        <ele>146.7</ele>
        <time>2023-09-03T06:50:59Z</time>
      </trkpt>
      <trkpt lat="48.58962" lon="1.92782">
        <ele>145.3</ele>
        <time>2023-09-03T06:51:01Z</time>
      </trkpt>
      <trkpt lat="48.58972" lon="1.92765">
        <ele>144.5</ele>
        <time>2023-09-03T06:51:03Z</time>
      </trkpt>
      <trkpt lat="48.58978" lon="1.92747">
        <ele>143.6</ele>
        <time>2023-09-03T06:51:05Z</time>
      </trkpt>
      <trkpt lat="48.58984" lon="1.92737">
        <ele>142.6</ele>
        <time>2023-09-03T06:51:06Z</time>
      </trkpt>
      <trkpt lat="48.58993" lon="1.92719">
        <ele>141.2</ele>
        <time>2023-09-03T06:51:08Z</time>
      </trkpt>
      <trkpt lat="48.58995" lon="1.92706">
        <ele>140.7</ele>
        <time>2023-09-03T06:51:10Z</time>
      </trkpt>
      <trkpt lat="48.59002" lon="1.92687">
        <ele>140</ele>
        <time>2023-09-03T06:51:12Z</time>
      </trkpt>
      <trkpt lat="48.59006" lon="1.92669">
        <ele>140</ele>
        <time>2023-09-03T06:51:14Z</time>
      </trkpt>
      <trkpt lat="48.5901" lon="1.92651">
        <ele>140.4</ele>
        <time>2023-09-03T06:51:16Z</time>
      </trkpt>
      <trkpt lat="48.59012" lon="1.92634">
        <ele>140.8</ele>
        <time>2023-09-03T06:51:18Z</time>
      </trkpt>
      <trkpt lat="48.59009" lon="1.92616">
        <ele>141.5</ele>
        <time>2023-09-03T06:51:20Z</time>
      </trkpt>
      <trkpt lat="48.59013" lon="1.92596">
        <ele>142.1</ele>
        <time>2023-09-03T06:51:22Z</time>
      </trkpt>
      <trkpt lat="48.59013" lon="1.92576">
        <ele>142.5</ele>
        <time>2023-09-03T06:51:24Z</time>
      </trkpt>
      <trkpt lat="48.59014" lon="1.92561">
        <ele>142.5</ele>
        <time>2023-09-03T06:51:26Z</time>
      </trkpt>
      <trkpt lat="48.59017" lon="1.92543">
        <ele>142.8</ele>
        <time>2023-09-03T06:51:28Z</time>
      </trkpt>
      <trkpt lat="48.59025" lon="1.92526">
        <ele>143.1</ele>
        <time>2023-09-03T06:51:30Z</time>
      </trkpt>
      <trkpt lat="48.59032" lon="1.92511">
        <ele>142.9</ele>
        <time>2023-09-03T06:51:32Z</time>
      </trkpt>
      <trkpt lat="48.59042" lon="1.92495">
        <ele>142.6</ele>
        <time>2023-09-03T06:51:34Z</time>
      </trkpt>
      <trkpt lat="48.59046" lon="1.92478">
        <ele>142.9</ele>
        <time>2023-09-03T06:51:36Z</time>
      </trkpt>
      <trkpt lat="48.59049" lon="1.92457">
        <ele>143.5</ele>
        <time>2023-09-03T06:51:38Z</time>
      </trkpt>
      <trkpt lat="48.59058" lon="1.92442">
        <ele>144.1</ele>
        <time>2023-09-03T06:51:40Z</time>
      </trkpt>
      <trkpt lat="48.59061" lon="1.92425">
        <ele>144.7</ele>
        <time>2023-09-03T06:51:42Z</time>
      </trkpt>
      <trkpt lat="48.59063" lon="1.92411">
        <ele>145.3</ele>
        <time>2023-09-03T06:51:44Z</time>
      </trkpt>
      <trkpt lat="48.59061" lon="1.92394">
        <ele>146</ele>
        <time>2023-09-03T06:51:46Z</time>
      </trkpt>
      <trkpt lat="48.59061" lon="1.9238">
        <ele>146.7</ele>
        <time>2023-09-03T06:51:48Z</time>
      </trkpt>
      <trkpt lat="48.59065" lon="1.92365">
        <ele>147.8</ele>
        <time>2023-09-03T06:51:51Z</time>
      </trkpt>
      <trkpt lat="48.5907" lon="1.92351">
        <ele>148.4</ele>
        <time>2023-09-03T06:51:55Z</time>
      </trkpt>
      <trkpt lat="48.5907" lon="1.92332">
        <ele>149</ele>
        <time>2023-09-03T06:51:59Z</time>
      </trkpt>
      <trkpt lat="48.59068" lon="1.92314">
        <ele>149.7</ele>
        <time>2023-09-03T06:52:02Z</time>
      </trkpt>
      <trkpt lat="48.59068" lon="1.92294">
        <ele>150.2</ele>
        <time>2023-09-03T06:52:05Z</time>
      </trkpt>
      <trkpt lat="48.59068" lon="1.92277">
        <ele>150.5</ele>
        <time>2023-09-03T06:52:08Z</time>
      </trkpt>
      <trkpt lat="48.59068" lon="1.92259">
        <ele>150.6</ele>
        <time>2023-09-03T06:52:11Z</time>
      </trkpt>
      <trkpt lat="48.59067" lon="1.9224">
        <ele>150.6</ele>
        <time>2023-09-03T06:52:14Z</time>
      </trkpt>
      <trkpt lat="48.59068" lon="1.92224">
        <ele>150.5</ele>
        <time>2023-09-03T06:52:17Z</time>
      </trkpt>
      <trkpt lat="48.59071" lon="1.9221">
        <ele>150</ele>
        <time>2023-09-03T06:52:19Z</time>
      </trkpt>
      <trkpt lat="48.59074" lon="1.92196">
        <ele>149.4</ele>
        <time>2023-09-03T06:52:21Z</time>
      </trkpt>
      <trkpt lat="48.59075" lon="1.92176">
        <ele>148.8</ele>
        <time>2023-09-03T06:52:23Z</time>
      </trkpt>
      <trkpt lat="48.59076" lon="1.92156">
        <ele>148.6</ele>
        <time>2023-09-03T06:52:25Z</time>
      </trkpt>
      <trkpt lat="48.59076" lon="1.92139">
        <ele>148.5</ele>
        <time>2023-09-03T06:52:27Z</time>
      </trkpt>
      <trkpt lat="48.59078" lon="1.92119">
        <ele>148.4</ele>
        <time>2023-09-03T06:52:29Z</time>
      </trkpt>
      <trkpt lat="48.59079" lon="1.92095">
        <ele>148.3</ele>
        <time>2023-09-03T06:52:31Z</time>
      </trkpt>
      <trkpt lat="48.5908" lon="1.92071">
        <ele>148.2</ele>
        <time>2023-09-03T06:52:33Z</time>
      </trkpt>
      <trkpt lat="48.5908" lon="1.92051">
        <ele>148.1</ele>
        <time>2023-09-03T06:52:35Z</time>
      </trkpt>
      <trkpt lat="48.59079" lon="1.92033">
        <ele>148.3</ele>
        <time>2023-09-03T06:52:37Z</time>
      </trkpt>
      <trkpt lat="48.59079" lon="1.92018">
        <ele>148.3</ele>
        <time>2023-09-03T06:52:39Z</time>
      </trkpt>
      <trkpt lat="48.59078" lon="1.92003">
        <ele>148.4</ele>
        <time>2023-09-03T06:52:41Z</time>
      </trkpt>
      <trkpt lat="48.59073" lon="1.91989">
        <ele>149.1</ele>
        <time>2023-09-03T06:52:43Z</time>
      </trkpt>
      <trkpt lat="48.59074" lon="1.91975">
        <ele>149.6</ele>
        <time>2023-09-03T06:52:46Z</time>
      </trkpt>
      <trkpt lat="48.59071" lon="1.9196">
        <ele>150.3</ele>
        <time>2023-09-03T06:52:49Z</time>
      </trkpt>
      <trkpt lat="48.59072" lon="1.91944">
        <ele>150.9</ele>
        <time>2023-09-03T06:52:53Z</time>
      </trkpt>
      <trkpt lat="48.59069" lon="1.9193">
        <ele>151.8</ele>
        <time>2023-09-03T06:52:56Z</time>
      </trkpt>
      <trkpt lat="48.59067" lon="1.91914">
        <ele>152.9</ele>
        <time>2023-09-03T06:52:59Z</time>
      </trkpt>
      <trkpt lat="48.59067" lon="1.91898">
        <ele>153.5</ele>
        <time>2023-09-03T06:53:03Z</time>
      </trkpt>
      <trkpt lat="48.59068" lon="1.91882">
        <ele>153.8</ele>
        <time>2023-09-03T06:53:07Z</time>
      </trkpt>
      <trkpt lat="48.59064" lon="1.91866">
        <ele>154.6</ele>
        <time>2023-09-03T06:53:11Z</time>
      </trkpt>
      <trkpt lat="48.59064" lon="1.9185">
        <ele>154.8</ele>
        <time>2023-09-03T06:53:15Z</time>
      </trkpt>
      <trkpt lat="48.59065" lon="1.91832">
        <ele>154.6</ele>
        <time>2023-09-03T06:53:19Z</time>
      </trkpt>
      <trkpt lat="48.59062" lon="1.91815">
        <ele>155.2</ele>
        <time>2023-09-03T06:53:22Z</time>
      </trkpt>
      <trkpt lat="48.59056" lon="1.91799">
        <ele>155.9</ele>
        <time>2023-09-03T06:53:25Z</time>
      </trkpt>
      <trkpt lat="48.59055" lon="1.91782">
        <ele>156</ele>
        <time>2023-09-03T06:53:29Z</time>
      </trkpt>
      <trkpt lat="48.59058" lon="1.91766">
        <ele>156.2</ele>
        <time>2023-09-03T06:53:33Z</time>
      </trkpt>
      <trkpt lat="48.59057" lon="1.91748">
        <ele>157</ele>
        <time>2023-09-03T06:53:37Z</time>
      </trkpt>
      <trkpt lat="48.59051" lon="1.91731">
        <ele>158.8</ele>
        <time>2023-09-03T06:53:40Z</time>
      </trkpt>
      <trkpt lat="48.59046" lon="1.91717">
        <ele>159.9</ele>
        <time>2023-09-03T06:53:43Z</time>
      </trkpt>
      <trkpt lat="48.59042" lon="1.91704">
        <ele>160.6</ele>
        <time>2023-09-03T06:53:46Z</time>
      </trkpt>
      <trkpt lat="48.59041" lon="1.9169">
        <ele>161.2</ele>
        <time>2023-09-03T06:53:49Z</time>
      </trkpt>
      <trkpt lat="48.59042" lon="1.91673">
        <ele>161.8</ele>
        <time>2023-09-03T06:53:53Z</time>
      </trkpt>
      <trkpt lat="48.59041" lon="1.91658">
        <ele>162.2</ele>
        <time>2023-09-03T06:53:56Z</time>
      </trkpt>
      <trkpt lat="48.59041" lon="1.91643">
        <ele>162.5</ele>
        <time>2023-09-03T06:53:59Z</time>
      </trkpt>
      <trkpt lat="48.59044" lon="1.91627">
        <ele>162.9</ele>
        <time>2023-09-03T06:54:02Z</time>
      </trkpt>
      <trkpt lat="48.5905" lon="1.91614">
        <ele>163.1</ele>
        <time>2023-09-03T06:54:05Z</time>
      </trkpt>
      <trkpt lat="48.59054" lon="1.91601">
        <ele>163.4</ele>
        <time>2023-09-03T06:54:08Z</time>
      </trkpt>
      <trkpt lat="48.59056" lon="1.91585">
        <ele>163.9</ele>
        <time>2023-09-03T06:54:12Z</time>
      </trkpt>
      <trkpt lat="48.5906" lon="1.9157">
        <ele>164.5</ele>
        <time>2023-09-03T06:54:15Z</time>
      </trkpt>
      <trkpt lat="48.59067" lon="1.91557">
        <ele>165</ele>
        <time>2023-09-03T06:54:18Z</time>
      </trkpt>
      <trkpt lat="48.59072" lon="1.91538">
        <ele>165</ele>
        <time>2023-09-03T06:54:21Z</time>
      </trkpt>
      <trkpt lat="48.59078" lon="1.91525">
        <ele>165.1</ele>
        <time>2023-09-03T06:54:23Z</time>
      </trkpt>
      <trkpt lat="48.59084" lon="1.91507">
        <ele>165.7</ele>
        <time>2023-09-03T06:54:26Z</time>
      </trkpt>
      <trkpt lat="48.59085" lon="1.91491">
        <ele>165.9</ele>
        <time>2023-09-03T06:54:29Z</time>
      </trkpt>
      <trkpt lat="48.59095" lon="1.91487">
        <ele>165.6</ele>
        <time>2023-09-03T06:54:36Z</time>
      </trkpt>
      <trkpt lat="48.59106" lon="1.91497">
        <ele>165.2</ele>
        <time>2023-09-03T06:54:40Z</time>
      </trkpt>
      <trkpt lat="48.59119" lon="1.91508">
        <ele>163.9</ele>
        <time>2023-09-03T06:54:43Z</time>
      </trkpt>
      <trkpt lat="48.59128" lon="1.91516">
        <ele>162.6</ele>
        <time>2023-09-03T06:54:45Z</time>
      </trkpt>
      <trkpt lat="48.59137" lon="1.91525">
        <ele>161.3</ele>
        <time>2023-09-03T06:54:47Z</time>
      </trkpt>
      <trkpt lat="48.59144" lon="1.91536">
        <ele>159.8</ele>
        <time>2023-09-03T06:54:49Z</time>
      </trkpt>
      <trkpt lat="48.59155" lon="1.91548">
        <ele>157.4</ele>
        <time>2023-09-03T06:54:51Z</time>
      </trkpt>
      <trkpt lat="48.59167" lon="1.9156">
        <ele>155</ele>
        <time>2023-09-03T06:54:53Z</time>
      </trkpt>
      <trkpt lat="48.59178" lon="1.91571">
        <ele>153.8</ele>
        <time>2023-09-03T06:54:55Z</time>
      </trkpt>
      <trkpt lat="48.5919" lon="1.9158">
        <ele>152.5</ele>
        <time>2023-09-03T06:54:57Z</time>
      </trkpt>
      <trkpt lat="48.59203" lon="1.91585">
        <ele>151.4</ele>
        <time>2023-09-03T06:55:00Z</time>
      </trkpt>
      <trkpt lat="48.59215" lon="1.91598">
        <ele>150.5</ele>
        <time>2023-09-03T06:55:02Z</time>
      </trkpt>
      <trkpt lat="48.59224" lon="1.91612">
        <ele>150</ele>
        <time>2023-09-03T06:55:04Z</time>
      </trkpt>
      <trkpt lat="48.59228" lon="1.91626">
        <ele>150.3</ele>
        <time>2023-09-03T06:55:06Z</time>
      </trkpt>
      <trkpt lat="48.59234" lon="1.91643">
        <ele>150.6</ele>
        <time>2023-09-03T06:55:08Z</time>
      </trkpt>
      <trkpt lat="48.59237" lon="1.91661">
        <ele>150.5</ele>
        <time>2023-09-03T06:55:10Z</time>
      </trkpt>
      <trkpt lat="48.59244" lon="1.91682">
        <ele>150.6</ele>
        <time>2023-09-03T06:55:13Z</time>
      </trkpt>
      <trkpt lat="48.5925" lon="1.91699">
        <ele>151</ele>
        <time>2023-09-03T06:55:15Z</time>
      </trkpt>
      <trkpt lat="48.59255" lon="1.91717">
        <ele>151.2</ele>
        <time>2023-09-03T06:55:17Z</time>
      </trkpt>
      <trkpt lat="48.59261" lon="1.91736">
        <ele>150.9</ele>
        <time>2023-09-03T06:55:19Z</time>
      </trkpt>
      <trkpt lat="48.59266" lon="1.91753">
        <ele>150.5</ele>
        <time>2023-09-03T06:55:21Z</time>
      </trkpt>
      <trkpt lat="48.59268" lon="1.91769">
        <ele>150</ele>
        <time>2023-09-03T06:55:23Z</time>
      </trkpt>
      <trkpt lat="48.59276" lon="1.91785">
        <ele>149.7</ele>
        <time>2023-09-03T06:55:25Z</time>
      </trkpt>
      <trkpt lat="48.59274" lon="1.91807">
        <ele>148.8</ele>
        <time>2023-09-03T06:55:27Z</time>
      </trkpt>
      <trkpt lat="48.59281" lon="1.91828">
        <ele>148.3</ele>
        <time>2023-09-03T06:55:29Z</time>
      </trkpt>
      <trkpt lat="48.59292" lon="1.91845">
        <ele>148.1</ele>
        <time>2023-09-03T06:55:31Z</time>
      </trkpt>
      <trkpt lat="48.593" lon="1.91864">
        <ele>147.6</ele>
        <time>2023-09-03T06:55:33Z</time>
      </trkpt>
      <trkpt lat="48.59306" lon="1.91876">
        <ele>146.9</ele>
        <time>2023-09-03T06:55:34Z</time>
      </trkpt>
      <trkpt lat="48.59315" lon="1.91896">
        <ele>146.1</ele>
        <time>2023-09-03T06:55:36Z</time>
      </trkpt>
      <trkpt lat="48.59323" lon="1.91916">
        <ele>145.6</ele>
        <time>2023-09-03T06:55:38Z</time>
      </trkpt>
      <trkpt lat="48.59327" lon="1.91937">
        <ele>144.5</ele>
        <time>2023-09-03T06:55:40Z</time>
      </trkpt>
      <trkpt lat="48.59332" lon="1.91956">
        <ele>143.6</ele>
        <time>2023-09-03T06:55:42Z</time>
      </trkpt>
      <trkpt lat="48.59335" lon="1.91977">
        <ele>142.9</ele>
        <time>2023-09-03T06:55:44Z</time>
      </trkpt>
      <trkpt lat="48.59337" lon="1.91997">
        <ele>142.1</ele>
        <time>2023-09-03T06:55:46Z</time>
      </trkpt>
      <trkpt lat="48.5934" lon="1.92016">
        <ele>141.4</ele>
        <time>2023-09-03T06:55:48Z</time>
      </trkpt>
      <trkpt lat="48.59345" lon="1.92036">
        <ele>140.9</ele>
        <time>2023-09-03T06:55:50Z</time>
      </trkpt>
      <trkpt lat="48.5935" lon="1.92054">
        <ele>140.4</ele>
        <time>2023-09-03T06:55:52Z</time>
      </trkpt>
      <trkpt lat="48.59352" lon="1.92074">
        <ele>140.1</ele>
        <time>2023-09-03T06:55:54Z</time>
      </trkpt>
      <trkpt lat="48.59354" lon="1.92093">
        <ele>139.7</ele>
        <time>2023-09-03T06:55:56Z</time>
      </trkpt>
      <trkpt lat="48.59358" lon="1.92109">
        <ele>139.2</ele>
        <time>2023-09-03T06:55:58Z</time>
      </trkpt>
      <trkpt lat="48.59355" lon="1.9213">
        <ele>139.2</ele>
        <time>2023-09-03T06:56:00Z</time>
      </trkpt>
      <trkpt lat="48.59359" lon="1.92151">
        <ele>139.1</ele>
        <time>2023-09-03T06:56:02Z</time>
      </trkpt>
      <trkpt lat="48.59363" lon="1.9217">
        <ele>139.1</ele>
        <time>2023-09-03T06:56:04Z</time>
      </trkpt>
      <trkpt lat="48.59368" lon="1.92187">
        <ele>139.7</ele>
        <time>2023-09-03T06:56:06Z</time>
      </trkpt>
      <trkpt lat="48.59373" lon="1.92201">
        <ele>140</ele>
        <time>2023-09-03T06:56:08Z</time>
      </trkpt>
      <trkpt lat="48.5938" lon="1.92217">
        <ele>140</ele>
        <time>2023-09-03T06:56:10Z</time>
      </trkpt>
      <trkpt lat="48.59383" lon="1.92238">
        <ele>139.6</ele>
        <time>2023-09-03T06:56:12Z</time>
      </trkpt>
      <trkpt lat="48.59387" lon="1.92258">
        <ele>139.1</ele>
        <time>2023-09-03T06:56:14Z</time>
      </trkpt>
      <trkpt lat="48.59396" lon="1.92278">
        <ele>139</ele>
        <time>2023-09-03T06:56:16Z</time>
      </trkpt>
      <trkpt lat="48.59401" lon="1.92298">
        <ele>138.7</ele>
        <time>2023-09-03T06:56:18Z</time>
      </trkpt>
      <trkpt lat="48.59408" lon="1.9232">
        <ele>138.3</ele>
        <time>2023-09-03T06:56:20Z</time>
      </trkpt>
      <trkpt lat="48.59412" lon="1.92339">
        <ele>138.3</ele>
        <time>2023-09-03T06:56:22Z</time>
      </trkpt>
      <trkpt lat="48.59416" lon="1.92362">
        <ele>139</ele>
        <time>2023-09-03T06:56:24Z</time>
      </trkpt>
      <trkpt lat="48.59419" lon="1.92381">
        <ele>138.9</ele>
        <time>2023-09-03T06:56:26Z</time>
      </trkpt>
      <trkpt lat="48.59426" lon="1.92398">
        <ele>138.7</ele>
        <time>2023-09-03T06:56:28Z</time>
      </trkpt>
      <trkpt lat="48.5943" lon="1.92415">
        <ele>138.5</ele>
        <time>2023-09-03T06:56:30Z</time>
      </trkpt>
      <trkpt lat="48.59435" lon="1.92431">
        <ele>138.3</ele>
        <time>2023-09-03T06:56:32Z</time>
      </trkpt>
      <trkpt lat="48.59438" lon="1.92451">
        <ele>138.2</ele>
        <time>2023-09-03T06:56:34Z</time>
      </trkpt>
      <trkpt lat="48.59441" lon="1.92467">
        <ele>138.1</ele>
        <time>2023-09-03T06:56:36Z</time>
      </trkpt>
      <trkpt lat="48.59443" lon="1.92483">
        <ele>138</ele>
        <time>2023-09-03T06:56:38Z</time>
      </trkpt>
      <trkpt lat="48.59448" lon="1.92499">
        <ele>137.9</ele>
        <time>2023-09-03T06:56:40Z</time>
      </trkpt>
      <trkpt lat="48.59454" lon="1.92515">
        <ele>137.3</ele>
        <time>2023-09-03T06:56:42Z</time>
      </trkpt>
      <trkpt lat="48.59461" lon="1.92533">
        <ele>136.9</ele>
        <time>2023-09-03T06:56:44Z</time>
      </trkpt>
      <trkpt lat="48.59466" lon="1.9255">
        <ele>136.4</ele>
        <time>2023-09-03T06:56:46Z</time>
      </trkpt>
      <trkpt lat="48.59469" lon="1.92567">
        <ele>136.1</ele>
        <time>2023-09-03T06:56:48Z</time>
      </trkpt>
      <trkpt lat="48.59475" lon="1.92586">
        <ele>135.8</ele>
        <time>2023-09-03T06:56:50Z</time>
      </trkpt>
      <trkpt lat="48.59477" lon="1.92605">
        <ele>135.1</ele>
        <time>2023-09-03T06:56:52Z</time>
      </trkpt>
      <trkpt lat="48.59481" lon="1.92624">
        <ele>134.2</ele>
        <time>2023-09-03T06:56:54Z</time>
      </trkpt>
      <trkpt lat="48.59487" lon="1.9264">
        <ele>133.4</ele>
        <time>2023-09-03T06:56:56Z</time>
      </trkpt>
      <trkpt lat="48.59488" lon="1.92658">
        <ele>132.7</ele>
        <time>2023-09-03T06:56:58Z</time>
      </trkpt>
      <trkpt lat="48.59497" lon="1.92678">
        <ele>132.1</ele>
        <time>2023-09-03T06:57:00Z</time>
      </trkpt>
      <trkpt lat="48.595" lon="1.92693">
        <ele>132</ele>
        <time>2023-09-03T06:57:01Z</time>
      </trkpt>
      <trkpt lat="48.59503" lon="1.92717">
        <ele>131.2</ele>
        <time>2023-09-03T06:57:03Z</time>
      </trkpt>
      <trkpt lat="48.59508" lon="1.92738">
        <ele>130.4</ele>
        <time>2023-09-03T06:57:05Z</time>
      </trkpt>
      <trkpt lat="48.59514" lon="1.92761">
        <ele>130</ele>
        <time>2023-09-03T06:57:07Z</time>
      </trkpt>
      <trkpt lat="48.59518" lon="1.92782">
        <ele>129.9</ele>
        <time>2023-09-03T06:57:09Z</time>
      </trkpt>
      <trkpt lat="48.59522" lon="1.92802">
        <ele>129.1</ele>
        <time>2023-09-03T06:57:11Z</time>
      </trkpt>
      <trkpt lat="48.59526" lon="1.92822">
        <ele>129</ele>
        <time>2023-09-03T06:57:13Z</time>
      </trkpt>
      <trkpt lat="48.59531" lon="1.92838">
        <ele>129.1</ele>
        <time>2023-09-03T06:57:15Z</time>
      </trkpt>
      <trkpt lat="48.59534" lon="1.92854">
        <ele>129.2</ele>
        <time>2023-09-03T06:57:17Z</time>
      </trkpt>
      <trkpt lat="48.59535" lon="1.92871">
        <ele>129.3</ele>
        <time>2023-09-03T06:57:20Z</time>
      </trkpt>
      <trkpt lat="48.59542" lon="1.92886">
        <ele>129.5</ele>
        <time>2023-09-03T06:57:25Z</time>
      </trkpt>
      <trkpt lat="48.59545" lon="1.92903">
        <ele>129.3</ele>
        <time>2023-09-03T06:57:29Z</time>
      </trkpt>
      <trkpt lat="48.59549" lon="1.92916">
        <ele>129</ele>
        <time>2023-09-03T06:57:33Z</time>
      </trkpt>
      <trkpt lat="48.59554" lon="1.92933">
        <ele>129</ele>
        <time>2023-09-03T06:57:46Z</time>
      </trkpt>
      <trkpt lat="48.59558" lon="1.92948">
        <ele>129</ele>
        <time>2023-09-03T06:57:48Z</time>
      </trkpt>
      <trkpt lat="48.59565" lon="1.9296">
        <ele>129</ele>
        <time>2023-09-03T06:57:50Z</time>
      </trkpt>
      <trkpt lat="48.5957" lon="1.92975">
        <ele>129</ele>
        <time>2023-09-03T06:57:52Z</time>
      </trkpt>
      <trkpt lat="48.59578" lon="1.92991">
        <ele>129</ele>
        <time>2023-09-03T06:57:54Z</time>
      </trkpt>
      <trkpt lat="48.59585" lon="1.93006">
        <ele>128.8</ele>
        <time>2023-09-03T06:57:56Z</time>
      </trkpt>
      <trkpt lat="48.59595" lon="1.93025">
        <ele>128.1</ele>
        <time>2023-09-03T06:57:58Z</time>
      </trkpt>
      <trkpt lat="48.59603" lon="1.93042">
        <ele>128</ele>
        <time>2023-09-03T06:58:00Z</time>
      </trkpt>
      <trkpt lat="48.59608" lon="1.9306">
        <ele>127.9</ele>
        <time>2023-09-03T06:58:02Z</time>
      </trkpt>
      <trkpt lat="48.59614" lon="1.9308">
        <ele>127.1</ele>
        <time>2023-09-03T06:58:04Z</time>
      </trkpt>
      <trkpt lat="48.59622" lon="1.93097">
        <ele>126.8</ele>
        <time>2023-09-03T06:58:06Z</time>
      </trkpt>
      <trkpt lat="48.59629" lon="1.93118">
        <ele>126.3</ele>
        <time>2023-09-03T06:58:08Z</time>
      </trkpt>
      <trkpt lat="48.59637" lon="1.93135">
        <ele>126.1</ele>
        <time>2023-09-03T06:58:10Z</time>
      </trkpt>
      <trkpt lat="48.59643" lon="1.93151">
        <ele>125.5</ele>
        <time>2023-09-03T06:58:12Z</time>
      </trkpt>
      <trkpt lat="48.59649" lon="1.93168">
        <ele>125</ele>
        <time>2023-09-03T06:58:14Z</time>
      </trkpt>
      <trkpt lat="48.59653" lon="1.93185">
        <ele>124.7</ele>
        <time>2023-09-03T06:58:16Z</time>
      </trkpt>
      <trkpt lat="48.5966" lon="1.932">
        <ele>124.4</ele>
        <time>2023-09-03T06:58:18Z</time>
      </trkpt>
      <trkpt lat="48.59668" lon="1.93217">
        <ele>124.8</ele>
        <time>2023-09-03T06:58:20Z</time>
      </trkpt>
      <trkpt lat="48.59676" lon="1.93235">
        <ele>124.7</ele>
        <time>2023-09-03T06:58:22Z</time>
      </trkpt>
      <trkpt lat="48.59682" lon="1.93253">
        <ele>124.5</ele>
        <time>2023-09-03T06:58:24Z</time>
      </trkpt>
      <trkpt lat="48.59685" lon="1.93271">
        <ele>124.3</ele>
        <time>2023-09-03T06:58:26Z</time>
      </trkpt>
      <trkpt lat="48.59691" lon="1.93288">
        <ele>123.8</ele>
        <time>2023-09-03T06:58:28Z</time>
      </trkpt>
      <trkpt lat="48.59697" lon="1.93306">
        <ele>122.9</ele>
        <time>2023-09-03T06:58:30Z</time>
      </trkpt>
      <trkpt lat="48.59703" lon="1.9332">
        <ele>122.7</ele>
        <time>2023-09-03T06:58:32Z</time>
      </trkpt>
      <trkpt lat="48.5971" lon="1.93333">
        <ele>122.4</ele>
        <time>2023-09-03T06:58:34Z</time>
      </trkpt>
      <trkpt lat="48.59718" lon="1.93347">
        <ele>122.2</ele>
        <time>2023-09-03T06:58:36Z</time>
      </trkpt>
      <trkpt lat="48.59725" lon="1.93356">
        <ele>122</ele>
        <time>2023-09-03T06:58:38Z</time>
      </trkpt>
      <trkpt lat="48.59733" lon="1.93367">
        <ele>122</ele>
        <time>2023-09-03T06:58:40Z</time>
      </trkpt>
      <trkpt lat="48.59738" lon="1.93381">
        <ele>122</ele>
        <time>2023-09-03T06:58:42Z</time>
      </trkpt>
      <trkpt lat="48.59744" lon="1.93393">
        <ele>122</ele>
        <time>2023-09-03T06:58:44Z</time>
      </trkpt>
      <trkpt lat="48.59744" lon="1.93413">
        <ele>122</ele>
        <time>2023-09-03T06:58:47Z</time>
      </trkpt>
      <trkpt lat="48.5975" lon="1.93423">
        <ele>122</ele>
        <time>2023-09-03T06:58:49Z</time>
      </trkpt>
      <trkpt lat="48.59753" lon="1.93436">
        <ele>121.9</ele>
        <time>2023-09-03T06:58:51Z</time>
      </trkpt>
      <trkpt lat="48.59755" lon="1.9345">
        <ele>121.8</ele>
        <time>2023-09-03T06:58:53Z</time>
      </trkpt>
      <trkpt lat="48.59762" lon="1.93461">
        <ele>121.6</ele>
        <time>2023-09-03T06:58:56Z</time>
      </trkpt>
      <trkpt lat="48.59768" lon="1.93476">
        <ele>121.2</ele>
        <time>2023-09-03T06:58:59Z</time>
      </trkpt>
      <trkpt lat="48.59775" lon="1.93489">
        <ele>120.5</ele>
        <time>2023-09-03T06:59:03Z</time>
      </trkpt>
      <trkpt lat="48.59784" lon="1.935">
        <ele>120</ele>
        <time>2023-09-03T06:59:06Z</time>
      </trkpt>
      <trkpt lat="48.59791" lon="1.93513">
        <ele>120</ele>
        <time>2023-09-03T06:59:09Z</time>
      </trkpt>
      <trkpt lat="48.59792" lon="1.93527">
        <ele>120</ele>
        <time>2023-09-03T06:59:12Z</time>
      </trkpt>
      <trkpt lat="48.59792" lon="1.93543">
        <ele>120</ele>
        <time>2023-09-03T06:59:16Z</time>
      </trkpt>
      <trkpt lat="48.59792" lon="1.93557">
        <ele>120</ele>
        <time>2023-09-03T06:59:20Z</time>
      </trkpt>
      <trkpt lat="48.59793" lon="1.93573">
        <ele>120</ele>
        <time>2023-09-03T06:59:24Z</time>
      </trkpt>
      <trkpt lat="48.59793" lon="1.93587">
        <ele>120</ele>
        <time>2023-09-03T06:59:27Z</time>
      </trkpt>
      <trkpt lat="48.59793" lon="1.93603">
        <ele>120</ele>
        <time>2023-09-03T06:59:30Z</time>
      </trkpt>
      <trkpt lat="48.59797" lon="1.93618">
        <ele>120</ele>
        <time>2023-09-03T06:59:33Z</time>
      </trkpt>
      <trkpt lat="48.59799" lon="1.93637">
        <ele>120</ele>
        <time>2023-09-03T06:59:36Z</time>
      </trkpt>
      <trkpt lat="48.59802" lon="1.93655">
        <ele>120</ele>
        <time>2023-09-03T06:59:39Z</time>
      </trkpt>
      <trkpt lat="48.59807" lon="1.93673">
        <ele>120</ele>
        <time>2023-09-03T06:59:42Z</time>
      </trkpt>
      <trkpt lat="48.59807" lon="1.93689">
        <ele>120</ele>
        <time>2023-09-03T06:59:45Z</time>
      </trkpt>
      <trkpt lat="48.59808" lon="1.93707">
        <ele>120</ele>
        <time>2023-09-03T06:59:48Z</time>
      </trkpt>
      <trkpt lat="48.59809" lon="1.93725">
        <ele>119.9</ele>
        <time>2023-09-03T06:59:51Z</time>
      </trkpt>
      <trkpt lat="48.59814" lon="1.93742">
        <ele>119.3</ele>
        <time>2023-09-03T06:59:54Z</time>
      </trkpt>
      <trkpt lat="48.59817" lon="1.93759">
        <ele>119</ele>
        <time>2023-09-03T06:59:57Z</time>
      </trkpt>
      <trkpt lat="48.59819" lon="1.93776">
        <ele>119</ele>
        <time>2023-09-03T07:00:00Z</time>
      </trkpt>
      <trkpt lat="48.59824" lon="1.93794">
        <ele>119</ele>
        <time>2023-09-03T07:00:03Z</time>
      </trkpt>
      <trkpt lat="48.59827" lon="1.93806">
        <ele>119</ele>
        <time>2023-09-03T07:00:05Z</time>
      </trkpt>
      <trkpt lat="48.5983" lon="1.93826">
        <ele>119</ele>
        <time>2023-09-03T07:00:08Z</time>
      </trkpt>
      <trkpt lat="48.59833" lon="1.93843">
        <ele>119</ele>
        <time>2023-09-03T07:00:11Z</time>
      </trkpt>
      <trkpt lat="48.59837" lon="1.93861">
        <ele>119</ele>
        <time>2023-09-03T07:00:14Z</time>
      </trkpt>
      <trkpt lat="48.59844" lon="1.93875">
        <ele>119</ele>
        <time>2023-09-03T07:00:17Z</time>
      </trkpt>
      <trkpt lat="48.59852" lon="1.93886">
        <ele>119</ele>
        <time>2023-09-03T07:00:20Z</time>
      </trkpt>
      <trkpt lat="48.59854" lon="1.93903">
        <ele>119</ele>
        <time>2023-09-03T07:00:23Z</time>
      </trkpt>
      <trkpt lat="48.5985" lon="1.9392">
        <ele>119</ele>
        <time>2023-09-03T07:00:26Z</time>
      </trkpt>
      <trkpt lat="48.59847" lon="1.93935">
        <ele>119</ele>
        <time>2023-09-03T07:00:29Z</time>
      </trkpt>
      <trkpt lat="48.59849" lon="1.9395">
        <ele>119</ele>
        <time>2023-09-03T07:00:33Z</time>
      </trkpt>
      <trkpt lat="48.59848" lon="1.93965">
        <ele>119</ele>
        <time>2023-09-03T07:00:38Z</time>
      </trkpt>
      <trkpt lat="48.59841" lon="1.93978">
        <ele>119</ele>
        <time>2023-09-03T07:00:44Z</time>
      </trkpt>
      <trkpt lat="48.59836" lon="1.93989">
        <ele>119</ele>
        <time>2023-09-03T07:00:48Z</time>
      </trkpt>
      <trkpt lat="48.59831" lon="1.94003">
        <ele>119</ele>
        <time>2023-09-03T07:00:52Z</time>
      </trkpt>
      <trkpt lat="48.59829" lon="1.94017">
        <ele>119</ele>
        <time>2023-09-03T07:00:55Z</time>
      </trkpt>
      <trkpt lat="48.59825" lon="1.94036">
        <ele>118.8</ele>
        <time>2023-09-03T07:00:58Z</time>
      </trkpt>
      <trkpt lat="48.5982" lon="1.94055">
        <ele>118.5</ele>
        <time>2023-09-03T07:01:01Z</time>
      </trkpt>
      <trkpt lat="48.59816" lon="1.94069">
        <ele>118.3</ele>
        <time>2023-09-03T07:01:03Z</time>
      </trkpt>
      <trkpt lat="48.59812" lon="1.94086">
        <ele>118</ele>
        <time>2023-09-03T07:01:05Z</time>
      </trkpt>
      <trkpt lat="48.59809" lon="1.94106">
        <ele>118</ele>
        <time>2023-09-03T07:01:08Z</time>
      </trkpt>
      <trkpt lat="48.59804" lon="1.94117">
        <ele>118.1</ele>
        <time>2023-09-03T07:01:10Z</time>
      </trkpt>
      <trkpt lat="48.598" lon="1.9413">
        <ele>118.2</ele>
        <time>2023-09-03T07:01:12Z</time>
      </trkpt>
      <trkpt lat="48.59796" lon="1.94143">
        <ele>118.4</ele>
        <time>2023-09-03T07:01:14Z</time>
      </trkpt>
      <trkpt lat="48.59789" lon="1.94158">
        <ele>118.6</ele>
        <time>2023-09-03T07:01:16Z</time>
      </trkpt>
      <trkpt lat="48.59788" lon="1.94173">
        <ele>118.6</ele>
        <time>2023-09-03T07:01:18Z</time>
      </trkpt>
      <trkpt lat="48.59786" lon="1.94188">
        <ele>118.7</ele>
        <time>2023-09-03T07:01:20Z</time>
      </trkpt>
      <trkpt lat="48.59779" lon="1.94199">
        <ele>118.9</ele>
        <time>2023-09-03T07:01:22Z</time>
      </trkpt>
      <trkpt lat="48.59775" lon="1.94217">
        <ele>119</ele>
        <time>2023-09-03T07:01:25Z</time>
      </trkpt>
      <trkpt lat="48.5977" lon="1.94229">
        <ele>119</ele>
        <time>2023-09-03T07:01:27Z</time>
      </trkpt>
      <trkpt lat="48.59763" lon="1.94239">
        <ele>119</ele>
        <time>2023-09-03T07:01:29Z</time>
      </trkpt>
      <trkpt lat="48.59759" lon="1.94252">
        <ele>119</ele>
        <time>2023-09-03T07:01:31Z</time>
      </trkpt>
      <trkpt lat="48.59756" lon="1.94265">
        <ele>119</ele>
        <time>2023-09-03T07:01:33Z</time>
      </trkpt>
      <trkpt lat="48.59755" lon="1.94281">
        <ele>119</ele>
        <time>2023-09-03T07:01:36Z</time>
      </trkpt>
      <trkpt lat="48.59749" lon="1.94297">
        <ele>119</ele>
        <time>2023-09-03T07:01:39Z</time>
      </trkpt>
      <trkpt lat="48.59742" lon="1.94313">
        <ele>119.1</ele>
        <time>2023-09-03T07:01:42Z</time>
      </trkpt>
      <trkpt lat="48.59736" lon="1.94324">
        <ele>119.3</ele>
        <time>2023-09-03T07:01:44Z</time>
      </trkpt>
      <trkpt lat="48.59729" lon="1.94335">
        <ele>119.7</ele>
        <time>2023-09-03T07:01:46Z</time>
      </trkpt>
      <trkpt lat="48.5972" lon="1.94348">
        <ele>119.5</ele>
        <time>2023-09-03T07:01:49Z</time>
      </trkpt>
      <trkpt lat="48.59712" lon="1.9436">
        <ele>119.4</ele>
        <time>2023-09-03T07:01:51Z</time>
      </trkpt>
      <trkpt lat="48.59706" lon="1.94371">
        <ele>119.6</ele>
        <time>2023-09-03T07:01:53Z</time>
      </trkpt>
      <trkpt lat="48.59699" lon="1.94384">
        <ele>119.8</ele>
        <time>2023-09-03T07:01:56Z</time>
      </trkpt>
      <trkpt lat="48.59692" lon="1.94396">
        <ele>120</ele>
        <time>2023-09-03T07:01:59Z</time>
      </trkpt>
      <trkpt lat="48.59682" lon="1.94406">
        <ele>120</ele>
        <time>2023-09-03T07:02:02Z</time>
      </trkpt>
      <trkpt lat="48.59675" lon="1.94421">
        <ele>120</ele>
        <time>2023-09-03T07:02:05Z</time>
      </trkpt>
      <trkpt lat="48.59666" lon="1.94429">
        <ele>120</ele>
        <time>2023-09-03T07:02:09Z</time>
      </trkpt>
      <trkpt lat="48.59657" lon="1.94437">
        <ele>120.4</ele>
        <time>2023-09-03T07:02:12Z</time>
      </trkpt>
      <trkpt lat="48.59649" lon="1.94449">
        <ele>120.6</ele>
        <time>2023-09-03T07:02:14Z</time>
      </trkpt>
      <trkpt lat="48.59639" lon="1.94455">
        <ele>121</ele>
        <time>2023-09-03T07:02:17Z</time>
      </trkpt>
      <trkpt lat="48.59629" lon="1.94465">
        <ele>121.1</ele>
        <time>2023-09-03T07:02:20Z</time>
      </trkpt>
      <trkpt lat="48.59618" lon="1.94476">
        <ele>121</ele>
        <time>2023-09-03T07:02:23Z</time>
      </trkpt>
      <trkpt lat="48.59608" lon="1.94486">
        <ele>121.1</ele>
        <time>2023-09-03T07:02:26Z</time>
      </trkpt>
      <trkpt lat="48.59596" lon="1.94494">
        <ele>121.5</ele>
        <time>2023-09-03T07:02:29Z</time>
      </trkpt>
      <trkpt lat="48.59588" lon="1.94508">
        <ele>121.6</ele>
        <time>2023-09-03T07:02:32Z</time>
      </trkpt>
      <trkpt lat="48.59577" lon="1.94519">
        <ele>121.6</ele>
        <time>2023-09-03T07:02:35Z</time>
      </trkpt>
      <trkpt lat="48.59566" lon="1.94524">
        <ele>121.7</ele>
        <time>2023-09-03T07:02:38Z</time>
      </trkpt>
      <trkpt lat="48.59557" lon="1.94532">
        <ele>121.9</ele>
        <time>2023-09-03T07:02:41Z</time>
      </trkpt>
      <trkpt lat="48.59548" lon="1.94545">
        <ele>122.3</ele>
        <time>2023-09-03T07:02:44Z</time>
      </trkpt>
      <trkpt lat="48.59539" lon="1.94551">
        <ele>122.6</ele>
        <time>2023-09-03T07:02:48Z</time>
      </trkpt>
      <trkpt lat="48.59529" lon="1.94561">
        <ele>122.8</ele>
        <time>2023-09-03T07:02:55Z</time>
      </trkpt>
      <trkpt lat="48.5952" lon="1.94566">
        <ele>122.7</ele>
        <time>2023-09-03T07:02:58Z</time>
      </trkpt>
      <trkpt lat="48.59511" lon="1.94579">
        <ele>122.7</ele>
        <time>2023-09-03T07:03:01Z</time>
      </trkpt>
      <trkpt lat="48.59504" lon="1.9459">
        <ele>122.7</ele>
        <time>2023-09-03T07:03:02Z</time>
      </trkpt>
      <trkpt lat="48.59492" lon="1.94598">
        <ele>122.6</ele>
        <time>2023-09-03T07:03:05Z</time>
      </trkpt>
      <trkpt lat="48.59484" lon="1.94603">
        <ele>122.7</ele>
        <time>2023-09-03T07:03:07Z</time>
      </trkpt>
      <trkpt lat="48.59472" lon="1.94613">
        <ele>122.9</ele>
        <time>2023-09-03T07:03:09Z</time>
      </trkpt>
      <trkpt lat="48.59464" lon="1.94622">
        <ele>122.7</ele>
        <time>2023-09-03T07:03:11Z</time>
      </trkpt>
      <trkpt lat="48.59453" lon="1.94632">
        <ele>122.8</ele>
        <time>2023-09-03T07:03:13Z</time>
      </trkpt>
      <trkpt lat="48.59445" lon="1.94641">
        <ele>123</ele>
        <time>2023-09-03T07:03:15Z</time>
      </trkpt>
      <trkpt lat="48.59436" lon="1.9465">
        <ele>123</ele>
        <time>2023-09-03T07:03:17Z</time>
      </trkpt>
      <trkpt lat="48.59426" lon="1.94658">
        <ele>123</ele>
        <time>2023-09-03T07:03:20Z</time>
      </trkpt>
      <trkpt lat="48.59416" lon="1.94666">
        <ele>123</ele>
        <time>2023-09-03T07:03:23Z</time>
      </trkpt>
      <trkpt lat="48.59408" lon="1.94673">
        <ele>123.3</ele>
        <time>2023-09-03T07:03:25Z</time>
      </trkpt>
      <trkpt lat="48.594" lon="1.94681">
        <ele>123.6</ele>
        <time>2023-09-03T07:03:27Z</time>
      </trkpt>
      <trkpt lat="48.5939" lon="1.94691">
        <ele>124</ele>
        <time>2023-09-03T07:03:30Z</time>
      </trkpt>
      <trkpt lat="48.59381" lon="1.94702">
        <ele>123.8</ele>
        <time>2023-09-03T07:03:33Z</time>
      </trkpt>
      <trkpt lat="48.59374" lon="1.94711">
        <ele>123.7</ele>
        <time>2023-09-03T07:03:35Z</time>
      </trkpt>
      <trkpt lat="48.59363" lon="1.94721">
        <ele>123.9</ele>
        <time>2023-09-03T07:03:38Z</time>
      </trkpt>
      <trkpt lat="48.59352" lon="1.94729">
        <ele>124.3</ele>
        <time>2023-09-03T07:03:41Z</time>
      </trkpt>
      <trkpt lat="48.59341" lon="1.94736">
        <ele>124.4</ele>
        <time>2023-09-03T07:03:44Z</time>
      </trkpt>
      <trkpt lat="48.59332" lon="1.94747">
        <ele>124.1</ele>
        <time>2023-09-03T07:03:47Z</time>
      </trkpt>
      <trkpt lat="48.59325" lon="1.94761">
        <ele>124.2</ele>
        <time>2023-09-03T07:03:49Z</time>
      </trkpt>
      <trkpt lat="48.59314" lon="1.94771">
        <ele>124.2</ele>
        <time>2023-09-03T07:03:52Z</time>
      </trkpt>
      <trkpt lat="48.59303" lon="1.94778">
        <ele>124.1</ele>
        <time>2023-09-03T07:03:55Z</time>
      </trkpt>
      <trkpt lat="48.59295" lon="1.94784">
        <ele>124.3</ele>
        <time>2023-09-03T07:03:57Z</time>
      </trkpt>
      <trkpt lat="48.59288" lon="1.94794">
        <ele>124.3</ele>
        <time>2023-09-03T07:03:59Z</time>
      </trkpt>
      <trkpt lat="48.59278" lon="1.94807">
        <ele>124</ele>
        <time>2023-09-03T07:04:02Z</time>
      </trkpt>
      <trkpt lat="48.5927" lon="1.94816">
        <ele>124.2</ele>
        <time>2023-09-03T07:04:04Z</time>
      </trkpt>
      <trkpt lat="48.5926" lon="1.94828">
        <ele>124.1</ele>
        <time>2023-09-03T07:04:07Z</time>
      </trkpt>
      <trkpt lat="48.59252" lon="1.94836">
        <ele>124</ele>
        <time>2023-09-03T07:04:09Z</time>
      </trkpt>
      <trkpt lat="48.59245" lon="1.94847">
        <ele>124.2</ele>
        <time>2023-09-03T07:04:11Z</time>
      </trkpt>
      <trkpt lat="48.59238" lon="1.94857">
        <ele>124.4</ele>
        <time>2023-09-03T07:04:13Z</time>
      </trkpt>
      <trkpt lat="48.5923" lon="1.94868">
        <ele>124.7</ele>
        <time>2023-09-03T07:04:15Z</time>
      </trkpt>
      <trkpt lat="48.59223" lon="1.94878">
        <ele>125</ele>
        <time>2023-09-03T07:04:17Z</time>
      </trkpt>
      <trkpt lat="48.59215" lon="1.94888">
        <ele>125</ele>
        <time>2023-09-03T07:04:19Z</time>
      </trkpt>
      <trkpt lat="48.59208" lon="1.94899">
        <ele>124.8</ele>
        <time>2023-09-03T07:04:21Z</time>
      </trkpt>
      <trkpt lat="48.592" lon="1.9491">
        <ele>124.8</ele>
        <time>2023-09-03T07:04:23Z</time>
      </trkpt>
      <trkpt lat="48.59192" lon="1.9492">
        <ele>125.1</ele>
        <time>2023-09-03T07:04:25Z</time>
      </trkpt>
      <trkpt lat="48.59185" lon="1.94929">
        <ele>125.3</ele>
        <time>2023-09-03T07:04:27Z</time>
      </trkpt>
      <trkpt lat="48.59178" lon="1.94939">
        <ele>125.6</ele>
        <time>2023-09-03T07:04:29Z</time>
      </trkpt>
      <trkpt lat="48.59172" lon="1.94949">
        <ele>125.8</ele>
        <time>2023-09-03T07:04:31Z</time>
      </trkpt>
      <trkpt lat="48.59165" lon="1.94959">
        <ele>126</ele>
        <time>2023-09-03T07:04:33Z</time>
      </trkpt>
      <trkpt lat="48.59157" lon="1.94972">
        <ele>126</ele>
        <time>2023-09-03T07:04:35Z</time>
      </trkpt>
      <trkpt lat="48.59149" lon="1.94983">
        <ele>125.9</ele>
        <time>2023-09-03T07:04:38Z</time>
      </trkpt>
      <trkpt lat="48.59143" lon="1.94993">
        <ele>125.9</ele>
        <time>2023-09-03T07:04:40Z</time>
      </trkpt>
      <trkpt lat="48.59136" lon="1.95007">
        <ele>126</ele>
        <time>2023-09-03T07:04:43Z</time>
      </trkpt>
      <trkpt lat="48.59127" lon="1.95017">
        <ele>126</ele>
        <time>2023-09-03T07:04:46Z</time>
      </trkpt>
      <trkpt lat="48.5912" lon="1.9503">
        <ele>126</ele>
        <time>2023-09-03T07:04:49Z</time>
      </trkpt>
      <trkpt lat="48.59111" lon="1.9504">
        <ele>126</ele>
        <time>2023-09-03T07:04:52Z</time>
      </trkpt>
      <trkpt lat="48.59103" lon="1.95052">
        <ele>126.3</ele>
        <time>2023-09-03T07:04:55Z</time>
      </trkpt>
      <trkpt lat="48.59095" lon="1.95062">
        <ele>126.4</ele>
        <time>2023-09-03T07:04:57Z</time>
      </trkpt>
      <trkpt lat="48.59085" lon="1.95074">
        <ele>126.3</ele>
        <time>2023-09-03T07:05:00Z</time>
      </trkpt>
      <trkpt lat="48.59078" lon="1.95084">
        <ele>126.2</ele>
        <time>2023-09-03T07:05:02Z</time>
      </trkpt>
      <trkpt lat="48.59071" lon="1.95095">
        <ele>126.4</ele>
        <time>2023-09-03T07:05:04Z</time>
      </trkpt>
      <trkpt lat="48.59064" lon="1.95106">
        <ele>126.7</ele>
        <time>2023-09-03T07:05:06Z</time>
      </trkpt>
      <trkpt lat="48.59058" lon="1.95117">
        <ele>126.7</ele>
        <time>2023-09-03T07:05:08Z</time>
      </trkpt>
      <trkpt lat="48.59052" lon="1.95131">
        <ele>126.4</ele>
        <time>2023-09-03T07:05:11Z</time>
      </trkpt>
      <trkpt lat="48.59067" lon="1.95148">
        <ele>125.9</ele>
        <time>2023-09-03T07:05:14Z</time>
      </trkpt>
      <trkpt lat="48.59081" lon="1.95157">
        <ele>125.4</ele>
        <time>2023-09-03T07:05:16Z</time>
      </trkpt>
      <trkpt lat="48.59091" lon="1.95168">
        <ele>125</ele>
        <time>2023-09-03T07:05:18Z</time>
      </trkpt>
      <trkpt lat="48.59102" lon="1.95177">
        <ele>124.6</ele>
        <time>2023-09-03T07:05:20Z</time>
      </trkpt>
      <trkpt lat="48.59114" lon="1.95188">
        <ele>124.2</ele>
        <time>2023-09-03T07:05:22Z</time>
      </trkpt>
      <trkpt lat="48.59126" lon="1.95199">
        <ele>123.9</ele>
        <time>2023-09-03T07:05:24Z</time>
      </trkpt>
      <trkpt lat="48.59136" lon="1.95211">
        <ele>123.5</ele>
        <time>2023-09-03T07:05:26Z</time>
      </trkpt>
      <trkpt lat="48.59147" lon="1.9522">
        <ele>123.1</ele>
        <time>2023-09-03T07:05:28Z</time>
      </trkpt>
      <trkpt lat="48.59157" lon="1.95233">
        <ele>123</ele>
        <time>2023-09-03T07:05:30Z</time>
      </trkpt>
      <trkpt lat="48.59168" lon="1.95242">
        <ele>123</ele>
        <time>2023-09-03T07:05:32Z</time>
      </trkpt>
      <trkpt lat="48.59179" lon="1.95254">
        <ele>122.5</ele>
        <time>2023-09-03T07:05:34Z</time>
      </trkpt>
      <trkpt lat="48.59192" lon="1.95264">
        <ele>122</ele>
        <time>2023-09-03T07:05:36Z</time>
      </trkpt>
      <trkpt lat="48.59202" lon="1.95274">
        <ele>122</ele>
        <time>2023-09-03T07:05:38Z</time>
      </trkpt>
      <trkpt lat="48.59215" lon="1.95293">
        <ele>121.6</ele>
        <time>2023-09-03T07:05:41Z</time>
      </trkpt>
      <trkpt lat="48.59225" lon="1.95301">
        <ele>121.1</ele>
        <time>2023-09-03T07:05:43Z</time>
      </trkpt>
      <trkpt lat="48.59237" lon="1.95312">
        <ele>121</ele>
        <time>2023-09-03T07:05:45Z</time>
      </trkpt>
      <trkpt lat="48.59247" lon="1.95323">
        <ele>121</ele>
        <time>2023-09-03T07:05:47Z</time>
      </trkpt>
      <trkpt lat="48.59258" lon="1.95335">
        <ele>120.7</ele>
        <time>2023-09-03T07:05:49Z</time>
      </trkpt>
      <trkpt lat="48.59268" lon="1.95344">
        <ele>120.2</ele>
        <time>2023-09-03T07:05:51Z</time>
      </trkpt>
      <trkpt lat="48.59277" lon="1.95353">
        <ele>120</ele>
        <time>2023-09-03T07:05:53Z</time>
      </trkpt>
      <trkpt lat="48.59286" lon="1.95362">
        <ele>119.7</ele>
        <time>2023-09-03T07:05:55Z</time>
      </trkpt>
      <trkpt lat="48.59297" lon="1.95373">
        <ele>119.3</ele>
        <time>2023-09-03T07:05:58Z</time>
      </trkpt>
      <trkpt lat="48.59308" lon="1.95382">
        <ele>119</ele>
        <time>2023-09-03T07:06:01Z</time>
      </trkpt>
      <trkpt lat="48.59316" lon="1.95389">
        <ele>119</ele>
        <time>2023-09-03T07:06:03Z</time>
      </trkpt>
      <trkpt lat="48.59325" lon="1.954">
        <ele>118.7</ele>
        <time>2023-09-03T07:06:05Z</time>
      </trkpt>
      <trkpt lat="48.59332" lon="1.95408">
        <ele>118.3</ele>
        <time>2023-09-03T07:06:07Z</time>
      </trkpt>
      <trkpt lat="48.59343" lon="1.95418">
        <ele>117.7</ele>
        <time>2023-09-03T07:06:09Z</time>
      </trkpt>
      <trkpt lat="48.59354" lon="1.95426">
        <ele>117.3</ele>
        <time>2023-09-03T07:06:11Z</time>
      </trkpt>
      <trkpt lat="48.59364" lon="1.95437">
        <ele>116.9</ele>
        <time>2023-09-03T07:06:13Z</time>
      </trkpt>
      <trkpt lat="48.59374" lon="1.95448">
        <ele>116.5</ele>
        <time>2023-09-03T07:06:15Z</time>
      </trkpt>
      <trkpt lat="48.59382" lon="1.95458">
        <ele>116.1</ele>
        <time>2023-09-03T07:06:17Z</time>
      </trkpt>
      <trkpt lat="48.59394" lon="1.9547">
        <ele>116</ele>
        <time>2023-09-03T07:06:19Z</time>
      </trkpt>
      <trkpt lat="48.59406" lon="1.95479">
        <ele>116</ele>
        <time>2023-09-03T07:06:21Z</time>
      </trkpt>
      <trkpt lat="48.59417" lon="1.95488">
        <ele>116</ele>
        <time>2023-09-03T07:06:23Z</time>
      </trkpt>
      <trkpt lat="48.59426" lon="1.95498">
        <ele>116</ele>
        <time>2023-09-03T07:06:25Z</time>
      </trkpt>
      <trkpt lat="48.59438" lon="1.9551">
        <ele>115.6</ele>
        <time>2023-09-03T07:06:27Z</time>
      </trkpt>
      <trkpt lat="48.59451" lon="1.95521">
        <ele>115.4</ele>
        <time>2023-09-03T07:06:29Z</time>
      </trkpt>
      <trkpt lat="48.5946" lon="1.95531">
        <ele>115.5</ele>
        <time>2023-09-03T07:06:31Z</time>
      </trkpt>
      <trkpt lat="48.5947" lon="1.95541">
        <ele>115.5</ele>
        <time>2023-09-03T07:06:33Z</time>
      </trkpt>
      <trkpt lat="48.5948" lon="1.95549">
        <ele>115.4</ele>
        <time>2023-09-03T07:06:35Z</time>
      </trkpt>
      <trkpt lat="48.59489" lon="1.95557">
        <ele>115.6</ele>
        <time>2023-09-03T07:06:36Z</time>
      </trkpt>
      <trkpt lat="48.59499" lon="1.95566">
        <ele>115.6</ele>
        <time>2023-09-03T07:06:38Z</time>
      </trkpt>
      <trkpt lat="48.59506" lon="1.95576">
        <ele>115.3</ele>
        <time>2023-09-03T07:06:41Z</time>
      </trkpt>
      <trkpt lat="48.59515" lon="1.95583">
        <ele>115</ele>
        <time>2023-09-03T07:06:44Z</time>
      </trkpt>
      <trkpt lat="48.59522" lon="1.95595">
        <ele>115</ele>
        <time>2023-09-03T07:06:51Z</time>
      </trkpt>
      <trkpt lat="48.59529" lon="1.95605">
        <ele>115.1</ele>
        <time>2023-09-03T07:06:54Z</time>
      </trkpt>
      <trkpt lat="48.59537" lon="1.95614">
        <ele>115.4</ele>
        <time>2023-09-03T07:06:58Z</time>
      </trkpt>
      <trkpt lat="48.59545" lon="1.95621">
        <ele>115.8</ele>
        <time>2023-09-03T07:07:01Z</time>
      </trkpt>
      <trkpt lat="48.59557" lon="1.9563">
        <ele>116</ele>
        <time>2023-09-03T07:07:04Z</time>
      </trkpt>
      <trkpt lat="48.59567" lon="1.95641">
        <ele>116</ele>
        <time>2023-09-03T07:07:07Z</time>
      </trkpt>
      <trkpt lat="48.59578" lon="1.95649">
        <ele>116</ele>
        <time>2023-09-03T07:07:10Z</time>
      </trkpt>
      <trkpt lat="48.59592" lon="1.95649">
        <ele>116</ele>
        <time>2023-09-03T07:07:13Z</time>
      </trkpt>
      <trkpt lat="48.59602" lon="1.95648">
        <ele>116</ele>
        <time>2023-09-03T07:07:15Z</time>
      </trkpt>
      <trkpt lat="48.59611" lon="1.95643">
        <ele>116</ele>
        <time>2023-09-03T07:07:17Z</time>
      </trkpt>
      <trkpt lat="48.59622" lon="1.9564">
        <ele>116</ele>
        <time>2023-09-03T07:07:19Z</time>
      </trkpt>
      <trkpt lat="48.59633" lon="1.9564">
        <ele>116</ele>
        <time>2023-09-03T07:07:21Z</time>
      </trkpt>
      <trkpt lat="48.59643" lon="1.95643">
        <ele>116</ele>
        <time>2023-09-03T07:07:23Z</time>
      </trkpt>
      <trkpt lat="48.59652" lon="1.95646">
        <ele>116.1</ele>
        <time>2023-09-03T07:07:25Z</time>
      </trkpt>
      <trkpt lat="48.59662" lon="1.95649">
        <ele>116.3</ele>
        <time>2023-09-03T07:07:27Z</time>
      </trkpt>
      <trkpt lat="48.59675" lon="1.95655">
        <ele>116.7</ele>
        <time>2023-09-03T07:07:30Z</time>
      </trkpt>
      <trkpt lat="48.59684" lon="1.95662">
        <ele>116.9</ele>
        <time>2023-09-03T07:07:33Z</time>
      </trkpt>
      <trkpt lat="48.59696" lon="1.95666">
        <ele>117.1</ele>
        <time>2023-09-03T07:07:36Z</time>
      </trkpt>
      <trkpt lat="48.59707" lon="1.9567">
        <ele>117.6</ele>
        <time>2023-09-03T07:07:39Z</time>
      </trkpt>
      <trkpt lat="48.59719" lon="1.95672">
        <ele>118.1</ele>
        <time>2023-09-03T07:07:42Z</time>
      </trkpt>
      <trkpt lat="48.59731" lon="1.95679">
        <ele>118.6</ele>
        <time>2023-09-03T07:07:45Z</time>
      </trkpt>
      <trkpt lat="48.59741" lon="1.95686">
        <ele>118.9</ele>
        <time>2023-09-03T07:07:48Z</time>
      </trkpt>
      <trkpt lat="48.59754" lon="1.95692">
        <ele>119.1</ele>
        <time>2023-09-03T07:07:51Z</time>
      </trkpt>
      <trkpt lat="48.59767" lon="1.95695">
        <ele>119.6</ele>
        <time>2023-09-03T07:07:54Z</time>
      </trkpt>
      <trkpt lat="48.59777" lon="1.95698">
        <ele>120</ele>
        <time>2023-09-03T07:07:56Z</time>
      </trkpt>
      <trkpt lat="48.59786" lon="1.95701">
        <ele>120.3</ele>
        <time>2023-09-03T07:07:59Z</time>
      </trkpt>
      <trkpt lat="48.59797" lon="1.95697">
        <ele>120.7</ele>
        <time>2023-09-03T07:08:03Z</time>
      </trkpt>
      <trkpt lat="48.59807" lon="1.95692">
        <ele>120.9</ele>
        <time>2023-09-03T07:08:06Z</time>
      </trkpt>
      <trkpt lat="48.59819" lon="1.95691">
        <ele>120.9</ele>
        <time>2023-09-03T07:08:09Z</time>
      </trkpt>
      <trkpt lat="48.5983" lon="1.95689">
        <ele>121</ele>
        <time>2023-09-03T07:08:12Z</time>
      </trkpt>
      <trkpt lat="48.59843" lon="1.95689">
        <ele>121.3</ele>
        <time>2023-09-03T07:08:14Z</time>
      </trkpt>
      <trkpt lat="48.59856" lon="1.95689">
        <ele>121.7</ele>
        <time>2023-09-03T07:08:17Z</time>
      </trkpt>
      <trkpt lat="48.59867" lon="1.95689">
        <ele>122.1</ele>
        <time>2023-09-03T07:08:20Z</time>
      </trkpt>
      <trkpt lat="48.59878" lon="1.95686">
        <ele>122.5</ele>
        <time>2023-09-03T07:08:23Z</time>
      </trkpt>
      <trkpt lat="48.59889" lon="1.95686">
        <ele>123</ele>
        <time>2023-09-03T07:08:26Z</time>
      </trkpt>
      <trkpt lat="48.59899" lon="1.95684">
        <ele>123.6</ele>
        <time>2023-09-03T07:08:29Z</time>
      </trkpt>
      <trkpt lat="48.59917" lon="1.95687">
        <ele>124.8</ele>
        <time>2023-09-03T07:08:32Z</time>
      </trkpt>
      <trkpt lat="48.59928" lon="1.95687">
        <ele>125.2</ele>
        <time>2023-09-03T07:08:35Z</time>
      </trkpt>
      <trkpt lat="48.59941" lon="1.95684">
        <ele>125.5</ele>
        <time>2023-09-03T07:08:38Z</time>
      </trkpt>
      <trkpt lat="48.59954" lon="1.95684">
        <ele>125.3</ele>
        <time>2023-09-03T07:08:41Z</time>
      </trkpt>
      <trkpt lat="48.59963" lon="1.95686">
        <ele>125</ele>
        <time>2023-09-03T07:08:43Z</time>
      </trkpt>
      <trkpt lat="48.59974" lon="1.95693">
        <ele>124.8</ele>
        <time>2023-09-03T07:08:45Z</time>
      </trkpt>
      <trkpt lat="48.59984" lon="1.95704">
        <ele>124.7</ele>
        <time>2023-09-03T07:08:47Z</time>
      </trkpt>
      <trkpt lat="48.59993" lon="1.95719">
        <ele>124.6</ele>
        <time>2023-09-03T07:08:49Z</time>
      </trkpt>
      <trkpt lat="48.60002" lon="1.95736">
        <ele>124.6</ele>
        <time>2023-09-03T07:08:51Z</time>
      </trkpt>
      <trkpt lat="48.60013" lon="1.95752">
        <ele>123.8</ele>
        <time>2023-09-03T07:08:53Z</time>
      </trkpt>
      <trkpt lat="48.60022" lon="1.95772">
        <ele>122.8</ele>
        <time>2023-09-03T07:08:55Z</time>
      </trkpt>
      <trkpt lat="48.60031" lon="1.95791">
        <ele>121.6</ele>
        <time>2023-09-03T07:08:57Z</time>
      </trkpt>
      <trkpt lat="48.60038" lon="1.9581">
        <ele>121</ele>
        <time>2023-09-03T07:08:59Z</time>
      </trkpt>
      <trkpt lat="48.60046" lon="1.95829">
        <ele>120.3</ele>
        <time>2023-09-03T07:09:01Z</time>
      </trkpt>
      <trkpt lat="48.60054" lon="1.95844">
        <ele>119.9</ele>
        <time>2023-09-03T07:09:03Z</time>
      </trkpt>
      <trkpt lat="48.60061" lon="1.95853">
        <ele>119.9</ele>
        <time>2023-09-03T07:09:04Z</time>
      </trkpt>
      <trkpt lat="48.60074" lon="1.95863">
        <ele>119.2</ele>
        <time>2023-09-03T07:09:06Z</time>
      </trkpt>
      <trkpt lat="48.60081" lon="1.95872">
        <ele>119</ele>
        <time>2023-09-03T07:09:08Z</time>
      </trkpt>
      <trkpt lat="48.60096" lon="1.9588">
        <ele>118.5</ele>
        <time>2023-09-03T07:09:10Z</time>
      </trkpt>
      <trkpt lat="48.60105" lon="1.95881">
        <ele>117.9</ele>
        <time>2023-09-03T07:09:12Z</time>
      </trkpt>
      <trkpt lat="48.60116" lon="1.95884">
        <ele>117.4</ele>
        <time>2023-09-03T07:09:14Z</time>
      </trkpt>
      <trkpt lat="48.60126" lon="1.95885">
        <ele>116.8</ele>
        <time>2023-09-03T07:09:16Z</time>
      </trkpt>
      <trkpt lat="48.60138" lon="1.95881">
        <ele>116.1</ele>
        <time>2023-09-03T07:09:18Z</time>
      </trkpt>
      <trkpt lat="48.60151" lon="1.95877">
        <ele>115.8</ele>
        <time>2023-09-03T07:09:20Z</time>
      </trkpt>
      <trkpt lat="48.60161" lon="1.95876">
        <ele>115.6</ele>
        <time>2023-09-03T07:09:22Z</time>
      </trkpt>
      <trkpt lat="48.6017" lon="1.95874">
        <ele>115.4</ele>
        <time>2023-09-03T07:09:24Z</time>
      </trkpt>
      <trkpt lat="48.60184" lon="1.95873">
        <ele>115.1</ele>
        <time>2023-09-03T07:09:26Z</time>
      </trkpt>
      <trkpt lat="48.60196" lon="1.95867">
        <ele>114.4</ele>
        <time>2023-09-03T07:09:28Z</time>
      </trkpt>
      <trkpt lat="48.60208" lon="1.95863">
        <ele>114.1</ele>
        <time>2023-09-03T07:09:30Z</time>
      </trkpt>
      <trkpt lat="48.60219" lon="1.95859">
        <ele>113.9</ele>
        <time>2023-09-03T07:09:32Z</time>
      </trkpt>
      <trkpt lat="48.6023" lon="1.95871">
        <ele>114.1</ele>
        <time>2023-09-03T07:09:36Z</time>
      </trkpt>
      <trkpt lat="48.60226" lon="1.95883">
        <ele>114.7</ele>
        <time>2023-09-03T07:09:40Z</time>
      </trkpt>
      <trkpt lat="48.6022" lon="1.95895">
        <ele>115.5</ele>
        <time>2023-09-03T07:09:44Z</time>
      </trkpt>
      <trkpt lat="48.60217" lon="1.9591">
        <ele>116.7</ele>
        <time>2023-09-03T07:09:50Z</time>
      </trkpt>
      <trkpt lat="48.60212" lon="1.95923">
        <ele>118</ele>
        <time>2023-09-03T07:09:55Z</time>
      </trkpt>
      <trkpt lat="48.60205" lon="1.95934">
        <ele>119.5</ele>
        <time>2023-09-03T07:10:00Z</time>
      </trkpt>
      <trkpt lat="48.60198" lon="1.95947">
        <ele>121.1</ele>
        <time>2023-09-03T07:10:04Z</time>
      </trkpt>
      <trkpt lat="48.60192" lon="1.9596">
        <ele>121.9</ele>
        <time>2023-09-03T07:10:08Z</time>
      </trkpt>
      <trkpt lat="48.60187" lon="1.95971">
        <ele>122.4</ele>
        <time>2023-09-03T07:10:12Z</time>
      </trkpt>
      <trkpt lat="48.60181" lon="1.95984">
        <ele>123.5</ele>
        <time>2023-09-03T07:10:16Z</time>
      </trkpt>
      <trkpt lat="48.60175" lon="1.95995">
        <ele>124.4</ele>
        <time>2023-09-03T07:10:19Z</time>
      </trkpt>
      <trkpt lat="48.60168" lon="1.96004">
        <ele>124.3</ele>
        <time>2023-09-03T07:10:21Z</time>
      </trkpt>
      <trkpt lat="48.60161" lon="1.96016">
        <ele>123.9</ele>
        <time>2023-09-03T07:10:24Z</time>
      </trkpt>
      <trkpt lat="48.60154" lon="1.96034">
        <ele>123.8</ele>
        <time>2023-09-03T07:10:27Z</time>
      </trkpt>
      <trkpt lat="48.60148" lon="1.96047">
        <ele>123.7</ele>
        <time>2023-09-03T07:10:29Z</time>
      </trkpt>
      <trkpt lat="48.60142" lon="1.96059">
        <ele>123.5</ele>
        <time>2023-09-03T07:10:32Z</time>
      </trkpt>
      <trkpt lat="48.60136" lon="1.96071">
        <ele>124.8</ele>
        <time>2023-09-03T07:10:37Z</time>
      </trkpt>
      <trkpt lat="48.60132" lon="1.96084">
        <ele>127.1</ele>
        <time>2023-09-03T07:10:43Z</time>
      </trkpt>
      <trkpt lat="48.60127" lon="1.96096">
        <ele>129</ele>
        <time>2023-09-03T07:10:52Z</time>
      </trkpt>
      <trkpt lat="48.60123" lon="1.96108">
        <ele>131</ele>
        <time>2023-09-03T07:11:05Z</time>
      </trkpt>
      <trkpt lat="48.60118" lon="1.9612">
        <ele>132.8</ele>
        <time>2023-09-03T07:11:15Z</time>
      </trkpt>
      <trkpt lat="48.60113" lon="1.96132">
        <ele>134.6</ele>
        <time>2023-09-03T07:11:26Z</time>
      </trkpt>
      <trkpt lat="48.60105" lon="1.9614">
        <ele>137.6</ele>
        <time>2023-09-03T07:11:34Z</time>
      </trkpt>
      <trkpt lat="48.60101" lon="1.96153">
        <ele>139.7</ele>
        <time>2023-09-03T07:11:46Z</time>
      </trkpt>
      <trkpt lat="48.60095" lon="1.96164">
        <ele>142.4</ele>
        <time>2023-09-03T07:11:59Z</time>
      </trkpt>
      <trkpt lat="48.60092" lon="1.96177">
        <ele>143.2</ele>
        <time>2023-09-03T07:12:17Z</time>
      </trkpt>
      <trkpt lat="48.60085" lon="1.96186">
        <ele>145.7</ele>
        <time>2023-09-03T07:12:27Z</time>
      </trkpt>
      <trkpt lat="48.60078" lon="1.96194">
        <ele>147.6</ele>
        <time>2023-09-03T07:12:44Z</time>
      </trkpt>
      <trkpt lat="48.60072" lon="1.96205">
        <ele>149.1</ele>
        <time>2023-09-03T07:12:55Z</time>
      </trkpt>
      <trkpt lat="48.60068" lon="1.96218">
        <ele>150.1</ele>
        <time>2023-09-03T07:13:04Z</time>
      </trkpt>
      <trkpt lat="48.60062" lon="1.9623">
        <ele>151.7</ele>
        <time>2023-09-03T07:13:12Z</time>
      </trkpt>
      <trkpt lat="48.60055" lon="1.96242">
        <ele>153.3</ele>
        <time>2023-09-03T07:13:21Z</time>
      </trkpt>
      <trkpt lat="48.60048" lon="1.96255">
        <ele>153.3</ele>
        <time>2023-09-03T07:13:25Z</time>
      </trkpt>
      <trkpt lat="48.60041" lon="1.96267">
        <ele>153.1</ele>
        <time>2023-09-03T07:13:27Z</time>
      </trkpt>
      <trkpt lat="48.60035" lon="1.96279">
        <ele>153.2</ele>
        <time>2023-09-03T07:13:29Z</time>
      </trkpt>
      <trkpt lat="48.60028" lon="1.96292">
        <ele>153.4</ele>
        <time>2023-09-03T07:13:31Z</time>
      </trkpt>
      <trkpt lat="48.60022" lon="1.96303">
        <ele>153.5</ele>
        <time>2023-09-03T07:13:34Z</time>
      </trkpt>
      <trkpt lat="48.60017" lon="1.96317">
        <ele>153.3</ele>
        <time>2023-09-03T07:14:52Z</time>
      </trkpt>
      <trkpt lat="48.60011" lon="1.96329">
        <ele>153.4</ele>
        <time>2023-09-03T07:15:00Z</time>
      </trkpt>
      <trkpt lat="48.60007" lon="1.96343">
        <ele>152.5</ele>
        <time>2023-09-03T07:15:08Z</time>
      </trkpt>
      <trkpt lat="48.6" lon="1.96358">
        <ele>151.3</ele>
        <time>2023-09-03T07:15:12Z</time>
      </trkpt>
      <trkpt lat="48.59994" lon="1.96372">
        <ele>149.9</ele>
        <time>2023-09-03T07:15:14Z</time>
      </trkpt>
      <trkpt lat="48.59986" lon="1.96387">
        <ele>148.2</ele>
        <time>2023-09-03T07:15:16Z</time>
      </trkpt>
      <trkpt lat="48.5998" lon="1.96398">
        <ele>147</ele>
        <time>2023-09-03T07:15:17Z</time>
      </trkpt>
      <trkpt lat="48.59975" lon="1.96409">
        <ele>145.8</ele>
        <time>2023-09-03T07:15:18Z</time>
      </trkpt>
      <trkpt lat="48.59969" lon="1.9642">
        <ele>145</ele>
        <time>2023-09-03T07:15:19Z</time>
      </trkpt>
      <trkpt lat="48.59962" lon="1.96433">
        <ele>144.8</ele>
        <time>2023-09-03T07:15:20Z</time>
      </trkpt>
      <trkpt lat="48.59952" lon="1.96454">
        <ele>144.9</ele>
        <time>2023-09-03T07:15:22Z</time>
      </trkpt>
      <trkpt lat="48.59943" lon="1.96471">
        <ele>145.4</ele>
        <time>2023-09-03T07:15:24Z</time>
      </trkpt>
      <trkpt lat="48.59938" lon="1.96484">
        <ele>145.8</ele>
        <time>2023-09-03T07:15:26Z</time>
      </trkpt>
      <trkpt lat="48.59931" lon="1.96498">
        <ele>146.6</ele>
        <time>2023-09-03T07:15:29Z</time>
      </trkpt>
      <trkpt lat="48.59922" lon="1.96512">
        <ele>147.6</ele>
        <time>2023-09-03T07:15:32Z</time>
      </trkpt>
      <trkpt lat="48.59916" lon="1.96524">
        <ele>148.3</ele>
        <time>2023-09-03T07:15:34Z</time>
      </trkpt>
      <trkpt lat="48.59911" lon="1.96538">
        <ele>149.1</ele>
        <time>2023-09-03T07:15:36Z</time>
      </trkpt>
      <trkpt lat="48.59903" lon="1.96552">
        <ele>150.4</ele>
        <time>2023-09-03T07:15:39Z</time>
      </trkpt>
      <trkpt lat="48.59898" lon="1.96567">
        <ele>151.6</ele>
        <time>2023-09-03T07:15:43Z</time>
      </trkpt>
      <trkpt lat="48.59893" lon="1.96578">
        <ele>152.9</ele>
        <time>2023-09-03T07:15:48Z</time>
      </trkpt>
      <trkpt lat="48.59887" lon="1.96592">
        <ele>154.5</ele>
        <time>2023-09-03T07:15:53Z</time>
      </trkpt>
      <trkpt lat="48.59881" lon="1.96604">
        <ele>155.4</ele>
        <time>2023-09-03T07:15:57Z</time>
      </trkpt>
      <trkpt lat="48.59874" lon="1.96617">
        <ele>156.2</ele>
        <time>2023-09-03T07:16:01Z</time>
      </trkpt>
      <trkpt lat="48.59868" lon="1.96628">
        <ele>156.6</ele>
        <time>2023-09-03T07:16:04Z</time>
      </trkpt>
      <trkpt lat="48.59863" lon="1.96639">
        <ele>156.9</ele>
        <time>2023-09-03T07:16:07Z</time>
      </trkpt>
      <trkpt lat="48.59856" lon="1.9665">
        <ele>157.2</ele>
        <time>2023-09-03T07:16:10Z</time>
      </trkpt>
      <trkpt lat="48.59849" lon="1.96662">
        <ele>157.4</ele>
        <time>2023-09-03T07:16:13Z</time>
      </trkpt>
      <trkpt lat="48.59843" lon="1.96675">
        <ele>157.5</ele>
        <time>2023-09-03T07:16:16Z</time>
      </trkpt>
      <trkpt lat="48.59836" lon="1.96689">
        <ele>157.2</ele>
        <time>2023-09-03T07:16:19Z</time>
      </trkpt>
      <trkpt lat="48.59831" lon="1.96706">
        <ele>157.1</ele>
        <time>2023-09-03T07:16:22Z</time>
      </trkpt>
      <trkpt lat="48.59824" lon="1.96722">
        <ele>157</ele>
        <time>2023-09-03T07:16:25Z</time>
      </trkpt>
      <trkpt lat="48.59815" lon="1.96738">
        <ele>156.4</ele>
        <time>2023-09-03T07:16:28Z</time>
      </trkpt>
      <trkpt lat="48.59809" lon="1.96749">
        <ele>156</ele>
        <time>2023-09-03T07:16:30Z</time>
      </trkpt>
      <trkpt lat="48.59803" lon="1.96761">
        <ele>155.5</ele>
        <time>2023-09-03T07:16:32Z</time>
      </trkpt>
      <trkpt lat="48.59797" lon="1.96775">
        <ele>154.5</ele>
        <time>2023-09-03T07:16:34Z</time>
      </trkpt>
      <trkpt lat="48.59789" lon="1.96789">
        <ele>153</ele>
        <time>2023-09-03T07:16:36Z</time>
      </trkpt>
      <trkpt lat="48.5978" lon="1.96806">
        <ele>151.1</ele>
        <time>2023-09-03T07:16:38Z</time>
      </trkpt>
      <trkpt lat="48.59768" lon="1.96822">
        <ele>149.1</ele>
        <time>2023-09-03T07:16:40Z</time>
      </trkpt>
      <trkpt lat="48.59759" lon="1.96841">
        <ele>147.2</ele>
        <time>2023-09-03T07:16:42Z</time>
      </trkpt>
      <trkpt lat="48.59751" lon="1.96866">
        <ele>144.9</ele>
        <time>2023-09-03T07:16:44Z</time>
      </trkpt>
      <trkpt lat="48.59741" lon="1.96884">
        <ele>143.2</ele>
        <time>2023-09-03T07:16:46Z</time>
      </trkpt>
      <trkpt lat="48.59731" lon="1.96895">
        <ele>141.7</ele>
        <time>2023-09-03T07:16:48Z</time>
      </trkpt>
      <trkpt lat="48.59721" lon="1.96895">
        <ele>140.7</ele>
        <time>2023-09-03T07:16:50Z</time>
      </trkpt>
      <trkpt lat="48.59711" lon="1.96887">
        <ele>140.3</ele>
        <time>2023-09-03T07:16:52Z</time>
      </trkpt>
      <trkpt lat="48.59702" lon="1.96873">
        <ele>140.1</ele>
        <time>2023-09-03T07:16:54Z</time>
      </trkpt>
      <trkpt lat="48.59691" lon="1.9686">
        <ele>139.9</ele>
        <time>2023-09-03T07:16:56Z</time>
      </trkpt>
      <trkpt lat="48.59679" lon="1.96847">
        <ele>140.2</ele>
        <time>2023-09-03T07:16:58Z</time>
      </trkpt>
      <trkpt lat="48.59669" lon="1.96837">
        <ele>140.7</ele>
        <time>2023-09-03T07:17:00Z</time>
      </trkpt>
      <trkpt lat="48.59659" lon="1.96829">
        <ele>141.3</ele>
        <time>2023-09-03T07:17:02Z</time>
      </trkpt>
      <trkpt lat="48.59651" lon="1.96821">
        <ele>141.9</ele>
        <time>2023-09-03T07:17:04Z</time>
      </trkpt>
      <trkpt lat="48.5964" lon="1.96811">
        <ele>142.6</ele>
        <time>2023-09-03T07:17:07Z</time>
      </trkpt>
      <trkpt lat="48.59629" lon="1.96801">
        <ele>143</ele>
        <time>2023-09-03T07:17:10Z</time>
      </trkpt>
      <trkpt lat="48.59621" lon="1.96793">
        <ele>143.3</ele>
        <time>2023-09-03T07:17:12Z</time>
      </trkpt>
      <trkpt lat="48.59613" lon="1.96784">
        <ele>143.6</ele>
        <time>2023-09-03T07:17:14Z</time>
      </trkpt>
      <trkpt lat="48.59605" lon="1.96776">
        <ele>143.9</ele>
        <time>2023-09-03T07:17:16Z</time>
      </trkpt>
      <trkpt lat="48.59596" lon="1.96767">
        <ele>143.8</ele>
        <time>2023-09-03T07:17:18Z</time>
      </trkpt>
      <trkpt lat="48.59588" lon="1.96758">
        <ele>143.9</ele>
        <time>2023-09-03T07:17:20Z</time>
      </trkpt>
      <trkpt lat="48.59579" lon="1.96747">
        <ele>144.2</ele>
        <time>2023-09-03T07:17:22Z</time>
      </trkpt>
      <trkpt lat="48.59572" lon="1.96736">
        <ele>144.9</ele>
        <time>2023-09-03T07:17:24Z</time>
      </trkpt>
      <trkpt lat="48.59564" lon="1.9673">
        <ele>145.4</ele>
        <time>2023-09-03T07:17:26Z</time>
      </trkpt>
      <trkpt lat="48.59556" lon="1.96722">
        <ele>146</ele>
        <time>2023-09-03T07:17:29Z</time>
      </trkpt>
      <trkpt lat="48.59547" lon="1.96715">
        <ele>146.3</ele>
        <time>2023-09-03T07:17:33Z</time>
      </trkpt>
      <trkpt lat="48.59538" lon="1.96704">
        <ele>146.6</ele>
        <time>2023-09-03T07:17:36Z</time>
      </trkpt>
      <trkpt lat="48.59527" lon="1.96694">
        <ele>147.1</ele>
        <time>2023-09-03T07:17:39Z</time>
      </trkpt>
      <trkpt lat="48.59519" lon="1.96686">
        <ele>147.5</ele>
        <time>2023-09-03T07:17:41Z</time>
      </trkpt>
      <trkpt lat="48.59508" lon="1.96676">
        <ele>147.9</ele>
        <time>2023-09-03T07:17:44Z</time>
      </trkpt>
      <trkpt lat="48.595" lon="1.96669">
        <ele>148</ele>
        <time>2023-09-03T07:17:47Z</time>
      </trkpt>
      <trkpt lat="48.59491" lon="1.96663">
        <ele>147.3</ele>
        <time>2023-09-03T07:17:50Z</time>
      </trkpt>
      <trkpt lat="48.59479" lon="1.96653">
        <ele>146.5</ele>
        <time>2023-09-03T07:17:53Z</time>
      </trkpt>
      <trkpt lat="48.5947" lon="1.96647">
        <ele>145.7</ele>
        <time>2023-09-03T07:17:55Z</time>
      </trkpt>
      <trkpt lat="48.59458" lon="1.96638">
        <ele>144.5</ele>
        <time>2023-09-03T07:17:57Z</time>
      </trkpt>
      <trkpt lat="48.59447" lon="1.96629">
        <ele>143.2</ele>
        <time>2023-09-03T07:17:59Z</time>
      </trkpt>
      <trkpt lat="48.59437" lon="1.96623">
        <ele>142.6</ele>
        <time>2023-09-03T07:18:02Z</time>
      </trkpt>
      <trkpt lat="48.59432" lon="1.96637">
        <ele>142.5</ele>
        <time>2023-09-03T07:18:05Z</time>
      </trkpt>
      <trkpt lat="48.59426" lon="1.96649">
        <ele>142.7</ele>
        <time>2023-09-03T07:18:07Z</time>
      </trkpt>
      <trkpt lat="48.59419" lon="1.96661">
        <ele>142.9</ele>
        <time>2023-09-03T07:18:09Z</time>
      </trkpt>
      <trkpt lat="48.59412" lon="1.96673">
        <ele>142.9</ele>
        <time>2023-09-03T07:18:11Z</time>
      </trkpt>
      <trkpt lat="48.59405" lon="1.9669">
        <ele>143</ele>
        <time>2023-09-03T07:18:14Z</time>
      </trkpt>
      <trkpt lat="48.594" lon="1.96701">
        <ele>143.2</ele>
        <time>2023-09-03T07:18:16Z</time>
      </trkpt>
      <trkpt lat="48.59395" lon="1.96713">
        <ele>143.6</ele>
        <time>2023-09-03T07:18:18Z</time>
      </trkpt>
      <trkpt lat="48.59388" lon="1.96726">
        <ele>144.2</ele>
        <time>2023-09-03T07:18:21Z</time>
      </trkpt>
      <trkpt lat="48.59382" lon="1.96738">
        <ele>143.9</ele>
        <time>2023-09-03T07:18:24Z</time>
      </trkpt>
      <trkpt lat="48.59375" lon="1.96753">
        <ele>143.7</ele>
        <time>2023-09-03T07:18:27Z</time>
      </trkpt>
      <trkpt lat="48.59367" lon="1.96768">
        <ele>143.4</ele>
        <time>2023-09-03T07:18:30Z</time>
      </trkpt>
      <trkpt lat="48.5936" lon="1.96784">
        <ele>143.4</ele>
        <time>2023-09-03T07:18:33Z</time>
      </trkpt>
      <trkpt lat="48.59353" lon="1.96799">
        <ele>143</ele>
        <time>2023-09-03T07:18:36Z</time>
      </trkpt>
      <trkpt lat="48.59347" lon="1.96811">
        <ele>142.2</ele>
        <time>2023-09-03T07:18:38Z</time>
      </trkpt>
      <trkpt lat="48.5934" lon="1.96826">
        <ele>140.7</ele>
        <time>2023-09-03T07:18:40Z</time>
      </trkpt>
      <trkpt lat="48.59331" lon="1.96844">
        <ele>138.8</ele>
        <time>2023-09-03T07:18:42Z</time>
      </trkpt>
      <trkpt lat="48.59324" lon="1.96858">
        <ele>137.5</ele>
        <time>2023-09-03T07:18:44Z</time>
      </trkpt>
      <trkpt lat="48.59316" lon="1.96875">
        <ele>135.6</ele>
        <time>2023-09-03T07:18:46Z</time>
      </trkpt>
      <trkpt lat="48.59307" lon="1.96898">
        <ele>133.3</ele>
        <time>2023-09-03T07:18:48Z</time>
      </trkpt>
      <trkpt lat="48.59301" lon="1.9691">
        <ele>132.3</ele>
        <time>2023-09-03T07:18:49Z</time>
      </trkpt>
      <trkpt lat="48.59296" lon="1.96921">
        <ele>131.1</ele>
        <time>2023-09-03T07:18:50Z</time>
      </trkpt>
      <trkpt lat="48.59291" lon="1.96932">
        <ele>129.8</ele>
        <time>2023-09-03T07:18:51Z</time>
      </trkpt>
      <trkpt lat="48.59285" lon="1.96943">
        <ele>128.3</ele>
        <time>2023-09-03T07:18:52Z</time>
      </trkpt>
      <trkpt lat="48.59277" lon="1.96956">
        <ele>126.5</ele>
        <time>2023-09-03T07:18:53Z</time>
      </trkpt>
      <trkpt lat="48.59272" lon="1.96969">
        <ele>125.3</ele>
        <time>2023-09-03T07:18:54Z</time>
      </trkpt>
      <trkpt lat="48.59266" lon="1.96981">
        <ele>124.5</ele>
        <time>2023-09-03T07:18:55Z</time>
      </trkpt>
      <trkpt lat="48.59259" lon="1.96997">
        <ele>123.6</ele>
        <time>2023-09-03T07:18:56Z</time>
      </trkpt>
      <trkpt lat="48.59252" lon="1.97012">
        <ele>122.8</ele>
        <time>2023-09-03T07:18:57Z</time>
      </trkpt>
      <trkpt lat="48.59247" lon="1.97025">
        <ele>122.6</ele>
        <time>2023-09-03T07:18:58Z</time>
      </trkpt>
      <trkpt lat="48.59236" lon="1.97048">
        <ele>122.2</ele>
        <time>2023-09-03T07:19:00Z</time>
      </trkpt>
      <trkpt lat="48.59231" lon="1.97059">
        <ele>121.9</ele>
        <time>2023-09-03T07:19:01Z</time>
      </trkpt>
      <trkpt lat="48.5922" lon="1.97084">
        <ele>120.8</ele>
        <time>2023-09-03T07:19:03Z</time>
      </trkpt>
      <trkpt lat="48.59216" lon="1.97096">
        <ele>120.5</ele>
        <time>2023-09-03T07:19:04Z</time>
      </trkpt>
      <trkpt lat="48.5921" lon="1.9711">
        <ele>120.1</ele>
        <time>2023-09-03T07:19:05Z</time>
      </trkpt>
      <trkpt lat="48.592" lon="1.97133">
        <ele>119.4</ele>
        <time>2023-09-03T07:19:07Z</time>
      </trkpt>
      <trkpt lat="48.59194" lon="1.97143">
        <ele>119</ele>
        <time>2023-09-03T07:19:08Z</time>
      </trkpt>
      <trkpt lat="48.59184" lon="1.97161">
        <ele>118.3</ele>
        <time>2023-09-03T07:19:10Z</time>
      </trkpt>
      <trkpt lat="48.59179" lon="1.97172">
        <ele>117.9</ele>
        <time>2023-09-03T07:19:11Z</time>
      </trkpt>
      <trkpt lat="48.5917" lon="1.97196">
        <ele>117.3</ele>
        <time>2023-09-03T07:19:13Z</time>
      </trkpt>
      <trkpt lat="48.59164" lon="1.97208">
        <ele>116.8</ele>
        <time>2023-09-03T07:19:14Z</time>
      </trkpt>
      <trkpt lat="48.59153" lon="1.97232">
        <ele>116</ele>
        <time>2023-09-03T07:19:16Z</time>
      </trkpt>
      <trkpt lat="48.59144" lon="1.97252">
        <ele>115.4</ele>
        <time>2023-09-03T07:19:18Z</time>
      </trkpt>
      <trkpt lat="48.59136" lon="1.97272">
        <ele>114.9</ele>
        <time>2023-09-03T07:19:20Z</time>
      </trkpt>
      <trkpt lat="48.59132" lon="1.97284">
        <ele>114.8</ele>
        <time>2023-09-03T07:19:21Z</time>
      </trkpt>
      <trkpt lat="48.59123" lon="1.97302">
        <ele>114.4</ele>
        <time>2023-09-03T07:19:23Z</time>
      </trkpt>
      <trkpt lat="48.59116" lon="1.97318">
        <ele>114.2</ele>
        <time>2023-09-03T07:19:25Z</time>
      </trkpt>
      <trkpt lat="48.59118" lon="1.97331">
        <ele>114.3</ele>
        <time>2023-09-03T07:19:31Z</time>
      </trkpt>
      <trkpt lat="48.59127" lon="1.97337">
        <ele>114.6</ele>
        <time>2023-09-03T07:19:34Z</time>
      </trkpt>
      <trkpt lat="48.59136" lon="1.97345">
        <ele>114.9</ele>
        <time>2023-09-03T07:19:37Z</time>
      </trkpt>
      <trkpt lat="48.59144" lon="1.9735">
        <ele>115.2</ele>
        <time>2023-09-03T07:19:41Z</time>
      </trkpt>
      <trkpt lat="48.59154" lon="1.9736">
        <ele>115.5</ele>
        <time>2023-09-03T07:19:45Z</time>
      </trkpt>
      <trkpt lat="48.59163" lon="1.97367">
        <ele>116.1</ele>
        <time>2023-09-03T07:19:48Z</time>
      </trkpt>
      <trkpt lat="48.59172" lon="1.97374">
        <ele>116.8</ele>
        <time>2023-09-03T07:19:52Z</time>
      </trkpt>
      <trkpt lat="48.5918" lon="1.97384">
        <ele>117.4</ele>
        <time>2023-09-03T07:19:55Z</time>
      </trkpt>
      <trkpt lat="48.59188" lon="1.97395">
        <ele>118</ele>
        <time>2023-09-03T07:19:59Z</time>
      </trkpt>
      <trkpt lat="48.59197" lon="1.97405">
        <ele>118.8</ele>
        <time>2023-09-03T07:20:03Z</time>
      </trkpt>
      <trkpt lat="48.59208" lon="1.97412">
        <ele>119.8</ele>
        <time>2023-09-03T07:20:07Z</time>
      </trkpt>
      <trkpt lat="48.59218" lon="1.97418">
        <ele>120.7</ele>
        <time>2023-09-03T07:20:10Z</time>
      </trkpt>
      <trkpt lat="48.59228" lon="1.97423">
        <ele>121.4</ele>
        <time>2023-09-03T07:20:14Z</time>
      </trkpt>
      <trkpt lat="48.59238" lon="1.97424">
        <ele>121.8</ele>
        <time>2023-09-03T07:20:19Z</time>
      </trkpt>
      <trkpt lat="48.59247" lon="1.97422">
        <ele>122.1</ele>
        <time>2023-09-03T07:20:23Z</time>
      </trkpt>
      <trkpt lat="48.59257" lon="1.97422">
        <ele>123</ele>
        <time>2023-09-03T07:20:27Z</time>
      </trkpt>
      <trkpt lat="48.59268" lon="1.97425">
        <ele>124.2</ele>
        <time>2023-09-03T07:20:31Z</time>
      </trkpt>
      <trkpt lat="48.59279" lon="1.97424">
        <ele>125.4</ele>
        <time>2023-09-03T07:20:35Z</time>
      </trkpt>
      <trkpt lat="48.59288" lon="1.97426">
        <ele>126.3</ele>
        <time>2023-09-03T07:20:38Z</time>
      </trkpt>
      <trkpt lat="48.59298" lon="1.97424">
        <ele>127.1</ele>
        <time>2023-09-03T07:20:42Z</time>
      </trkpt>
      <trkpt lat="48.59307" lon="1.97427">
        <ele>128.2</ele>
        <time>2023-09-03T07:20:47Z</time>
      </trkpt>
      <trkpt lat="48.59316" lon="1.9743">
        <ele>129.3</ele>
        <time>2023-09-03T07:20:51Z</time>
      </trkpt>
      <trkpt lat="48.59326" lon="1.97431">
        <ele>130</ele>
        <time>2023-09-03T07:20:55Z</time>
      </trkpt>
      <trkpt lat="48.59336" lon="1.97427">
        <ele>130.2</ele>
        <time>2023-09-03T07:20:59Z</time>
      </trkpt>
      <trkpt lat="48.59347" lon="1.97427">
        <ele>130.4</ele>
        <time>2023-09-03T07:21:04Z</time>
      </trkpt>
      <trkpt lat="48.59356" lon="1.97425">
        <ele>130.5</ele>
        <time>2023-09-03T07:21:09Z</time>
      </trkpt>
      <trkpt lat="48.59367" lon="1.97424">
        <ele>131</ele>
        <time>2023-09-03T07:21:13Z</time>
      </trkpt>
      <trkpt lat="48.59377" lon="1.97424">
        <ele>131.7</ele>
        <time>2023-09-03T07:21:17Z</time>
      </trkpt>
      <trkpt lat="48.59389" lon="1.97424">
        <ele>132.5</ele>
        <time>2023-09-03T07:21:21Z</time>
      </trkpt>
      <trkpt lat="48.59398" lon="1.97426">
        <ele>133.2</ele>
        <time>2023-09-03T07:21:24Z</time>
      </trkpt>
      <trkpt lat="48.59408" lon="1.97426">
        <ele>133.9</ele>
        <time>2023-09-03T07:21:28Z</time>
      </trkpt>
      <trkpt lat="48.59419" lon="1.97427">
        <ele>134.5</ele>
        <time>2023-09-03T07:21:33Z</time>
      </trkpt>
      <trkpt lat="48.59428" lon="1.97428">
        <ele>135.2</ele>
        <time>2023-09-03T07:21:37Z</time>
      </trkpt>
      <trkpt lat="48.59439" lon="1.9743">
        <ele>136.1</ele>
        <time>2023-09-03T07:21:42Z</time>
      </trkpt>
      <trkpt lat="48.59448" lon="1.97428">
        <ele>136.7</ele>
        <time>2023-09-03T07:21:48Z</time>
      </trkpt>
      <trkpt lat="48.59459" lon="1.97426">
        <ele>137.2</ele>
        <time>2023-09-03T07:21:53Z</time>
      </trkpt>
      <trkpt lat="48.59469" lon="1.97425">
        <ele>137.8</ele>
        <time>2023-09-03T07:21:58Z</time>
      </trkpt>
      <trkpt lat="48.59477" lon="1.97418">
        <ele>138</ele>
        <time>2023-09-03T07:22:03Z</time>
      </trkpt>
      <trkpt lat="48.59483" lon="1.97407">
        <ele>138.1</ele>
        <time>2023-09-03T07:23:13Z</time>
      </trkpt>
      <trkpt lat="48.59487" lon="1.97392">
        <ele>138.5</ele>
        <time>2023-09-03T07:23:20Z</time>
      </trkpt>
      <trkpt lat="48.59496" lon="1.97389">
        <ele>138.8</ele>
        <time>2023-09-03T07:23:23Z</time>
      </trkpt>
      <trkpt lat="48.59506" lon="1.97383">
        <ele>138.6</ele>
        <time>2023-09-03T07:23:26Z</time>
      </trkpt>
      <trkpt lat="48.59516" lon="1.97375">
        <ele>137.8</ele>
        <time>2023-09-03T07:23:28Z</time>
      </trkpt>
      <trkpt lat="48.59523" lon="1.97366">
        <ele>137.3</ele>
        <time>2023-09-03T07:23:30Z</time>
      </trkpt>
      <trkpt lat="48.59533" lon="1.97362">
        <ele>136.6</ele>
        <time>2023-09-03T07:23:32Z</time>
      </trkpt>
      <trkpt lat="48.59546" lon="1.97355">
        <ele>136.3</ele>
        <time>2023-09-03T07:23:34Z</time>
      </trkpt>
      <trkpt lat="48.59554" lon="1.97347">
        <ele>136.2</ele>
        <time>2023-09-03T07:23:36Z</time>
      </trkpt>
      <trkpt lat="48.59565" lon="1.97341">
        <ele>136.3</ele>
        <time>2023-09-03T07:23:38Z</time>
      </trkpt>
      <trkpt lat="48.59576" lon="1.97339">
        <ele>136.2</ele>
        <time>2023-09-03T07:23:41Z</time>
      </trkpt>
      <trkpt lat="48.5959" lon="1.97333">
        <ele>135.8</ele>
        <time>2023-09-03T07:23:43Z</time>
      </trkpt>
      <trkpt lat="48.59603" lon="1.97342">
        <ele>135.3</ele>
        <time>2023-09-03T07:23:44Z</time>
      </trkpt>
      <trkpt lat="48.59616" lon="1.9734">
        <ele>134.6</ele>
        <time>2023-09-03T07:23:46Z</time>
      </trkpt>
      <trkpt lat="48.59628" lon="1.97331">
        <ele>133.8</ele>
        <time>2023-09-03T07:23:48Z</time>
      </trkpt>
      <trkpt lat="48.5964" lon="1.97318">
        <ele>132.9</ele>
        <time>2023-09-03T07:23:50Z</time>
      </trkpt>
      <trkpt lat="48.59653" lon="1.97309">
        <ele>132</ele>
        <time>2023-09-03T07:23:52Z</time>
      </trkpt>
      <trkpt lat="48.59669" lon="1.97299">
        <ele>130.9</ele>
        <time>2023-09-03T07:23:54Z</time>
      </trkpt>
      <trkpt lat="48.59683" lon="1.97289">
        <ele>130.2</ele>
        <time>2023-09-03T07:23:56Z</time>
      </trkpt>
      <trkpt lat="48.59695" lon="1.97274">
        <ele>130</ele>
        <time>2023-09-03T07:23:58Z</time>
      </trkpt>
      <trkpt lat="48.59705" lon="1.97259">
        <ele>130.3</ele>
        <time>2023-09-03T07:24:00Z</time>
      </trkpt>
      <trkpt lat="48.59716" lon="1.97253">
        <ele>130.7</ele>
        <time>2023-09-03T07:24:02Z</time>
      </trkpt>
      <trkpt lat="48.59727" lon="1.97245">
        <ele>131.2</ele>
        <time>2023-09-03T07:24:04Z</time>
      </trkpt>
      <trkpt lat="48.59737" lon="1.97243">
        <ele>131.5</ele>
        <time>2023-09-03T07:24:06Z</time>
      </trkpt>
      <trkpt lat="48.59747" lon="1.9725">
        <ele>131.9</ele>
        <time>2023-09-03T07:24:09Z</time>
      </trkpt>
      <trkpt lat="48.59752" lon="1.97265">
        <ele>131.5</ele>
        <time>2023-09-03T07:24:11Z</time>
      </trkpt>
      <trkpt lat="48.59761" lon="1.97278">
        <ele>131</ele>
        <time>2023-09-03T07:24:13Z</time>
      </trkpt>
      <trkpt lat="48.59769" lon="1.97293">
        <ele>130.6</ele>
        <time>2023-09-03T07:24:15Z</time>
      </trkpt>
      <trkpt lat="48.59776" lon="1.97308">
        <ele>130</ele>
        <time>2023-09-03T07:24:17Z</time>
      </trkpt>
      <trkpt lat="48.59783" lon="1.97323">
        <ele>129.4</ele>
        <time>2023-09-03T07:24:19Z</time>
      </trkpt>
      <trkpt lat="48.5979" lon="1.97339">
        <ele>128.8</ele>
        <time>2023-09-03T07:24:21Z</time>
      </trkpt>
      <trkpt lat="48.59796" lon="1.97356">
        <ele>128.2</ele>
        <time>2023-09-03T07:24:23Z</time>
      </trkpt>
      <trkpt lat="48.59803" lon="1.97372">
        <ele>127.6</ele>
        <time>2023-09-03T07:24:25Z</time>
      </trkpt>
      <trkpt lat="48.59813" lon="1.97388">
        <ele>127</ele>
        <time>2023-09-03T07:24:27Z</time>
      </trkpt>
      <trkpt lat="48.59823" lon="1.97404">
        <ele>126.5</ele>
        <time>2023-09-03T07:24:29Z</time>
      </trkpt>
      <trkpt lat="48.59831" lon="1.9742">
        <ele>125.9</ele>
        <time>2023-09-03T07:24:31Z</time>
      </trkpt>
      <trkpt lat="48.59839" lon="1.97436">
        <ele>125.3</ele>
        <time>2023-09-03T07:24:33Z</time>
      </trkpt>
      <trkpt lat="48.59846" lon="1.97453">
        <ele>124.7</ele>
        <time>2023-09-03T07:24:35Z</time>
      </trkpt>
      <trkpt lat="48.59856" lon="1.97467">
        <ele>124.2</ele>
        <time>2023-09-03T07:24:37Z</time>
      </trkpt>
      <trkpt lat="48.59864" lon="1.97482">
        <ele>123.7</ele>
        <time>2023-09-03T07:24:39Z</time>
      </trkpt>
      <trkpt lat="48.5987" lon="1.975">
        <ele>123</ele>
        <time>2023-09-03T07:24:41Z</time>
      </trkpt>
      <trkpt lat="48.59876" lon="1.97514">
        <ele>122.5</ele>
        <time>2023-09-03T07:24:43Z</time>
      </trkpt>
      <trkpt lat="48.59882" lon="1.97529">
        <ele>122</ele>
        <time>2023-09-03T07:24:45Z</time>
      </trkpt>
      <trkpt lat="48.59891" lon="1.97546">
        <ele>122</ele>
        <time>2023-09-03T07:24:48Z</time>
      </trkpt>
      <trkpt lat="48.59898" lon="1.97563">
        <ele>121.7</ele>
        <time>2023-09-03T07:24:50Z</time>
      </trkpt>
      <trkpt lat="48.59907" lon="1.97577">
        <ele>121.2</ele>
        <time>2023-09-03T07:24:52Z</time>
      </trkpt>
      <trkpt lat="48.59919" lon="1.97589">
        <ele>120.8</ele>
        <time>2023-09-03T07:24:54Z</time>
      </trkpt>
      <trkpt lat="48.59925" lon="1.97606">
        <ele>120.2</ele>
        <time>2023-09-03T07:24:56Z</time>
      </trkpt>
      <trkpt lat="48.59933" lon="1.97622">
        <ele>119.6</ele>
        <time>2023-09-03T07:24:58Z</time>
      </trkpt>
      <trkpt lat="48.59941" lon="1.97638">
        <ele>119</ele>
        <time>2023-09-03T07:25:00Z</time>
      </trkpt>
      <trkpt lat="48.59948" lon="1.97656">
        <ele>117.8</ele>
        <time>2023-09-03T07:25:02Z</time>
      </trkpt>
      <trkpt lat="48.59956" lon="1.97675">
        <ele>117.2</ele>
        <time>2023-09-03T07:25:04Z</time>
      </trkpt>
      <trkpt lat="48.59966" lon="1.9769">
        <ele>116.5</ele>
        <time>2023-09-03T07:25:06Z</time>
      </trkpt>
      <trkpt lat="48.59975" lon="1.97706">
        <ele>116.4</ele>
        <time>2023-09-03T07:25:09Z</time>
      </trkpt>
      <trkpt lat="48.59973" lon="1.97723">
        <ele>117</ele>
        <time>2023-09-03T07:25:12Z</time>
      </trkpt>
      <trkpt lat="48.59968" lon="1.97735">
        <ele>117.9</ele>
        <time>2023-09-03T07:25:17Z</time>
      </trkpt>
      <trkpt lat="48.5996" lon="1.97744">
        <ele>119</ele>
        <time>2023-09-03T07:25:21Z</time>
      </trkpt>
      <trkpt lat="48.59955" lon="1.97759">
        <ele>120.3</ele>
        <time>2023-09-03T07:25:25Z</time>
      </trkpt>
      <trkpt lat="48.59952" lon="1.97772">
        <ele>121.2</ele>
        <time>2023-09-03T07:25:29Z</time>
      </trkpt>
      <trkpt lat="48.59947" lon="1.97787">
        <ele>122.2</ele>
        <time>2023-09-03T07:25:33Z</time>
      </trkpt>
      <trkpt lat="48.59941" lon="1.97799">
        <ele>122.9</ele>
        <time>2023-09-03T07:25:37Z</time>
      </trkpt>
      <trkpt lat="48.59935" lon="1.97811">
        <ele>123.6</ele>
        <time>2023-09-03T07:25:41Z</time>
      </trkpt>
      <trkpt lat="48.59929" lon="1.97824">
        <ele>124.6</ele>
        <time>2023-09-03T07:25:46Z</time>
      </trkpt>
      <trkpt lat="48.59924" lon="1.97836">
        <ele>125.6</ele>
        <time>2023-09-03T07:25:50Z</time>
      </trkpt>
      <trkpt lat="48.59919" lon="1.9785">
        <ele>126.5</ele>
        <time>2023-09-03T07:25:54Z</time>
      </trkpt>
      <trkpt lat="48.59914" lon="1.97865">
        <ele>127.5</ele>
        <time>2023-09-03T07:25:58Z</time>
      </trkpt>
      <trkpt lat="48.59907" lon="1.97878">
        <ele>128.9</ele>
        <time>2023-09-03T07:26:03Z</time>
      </trkpt>
      <trkpt lat="48.59901" lon="1.97891">
        <ele>130.3</ele>
        <time>2023-09-03T07:26:09Z</time>
      </trkpt>
      <trkpt lat="48.59896" lon="1.97904">
        <ele>132.2</ele>
        <time>2023-09-03T07:26:16Z</time>
      </trkpt>
      <trkpt lat="48.5989" lon="1.97916">
        <ele>133.8</ele>
        <time>2023-09-03T07:26:23Z</time>
      </trkpt>
      <trkpt lat="48.59883" lon="1.97926">
        <ele>135.5</ele>
        <time>2023-09-03T07:26:30Z</time>
      </trkpt>
      <trkpt lat="48.5988" lon="1.97939">
        <ele>137.3</ele>
        <time>2023-09-03T07:26:38Z</time>
      </trkpt>
      <trkpt lat="48.59875" lon="1.97952">
        <ele>139</ele>
        <time>2023-09-03T07:26:46Z</time>
      </trkpt>
      <trkpt lat="48.5987" lon="1.97965">
        <ele>140.8</ele>
        <time>2023-09-03T07:26:54Z</time>
      </trkpt>
      <trkpt lat="48.59867" lon="1.97979">
        <ele>142.4</ele>
        <time>2023-09-03T07:27:01Z</time>
      </trkpt>
      <trkpt lat="48.59857" lon="1.97984">
        <ele>142.6</ele>
        <time>2023-09-03T07:27:08Z</time>
      </trkpt>
      <trkpt lat="48.59846" lon="1.97972">
        <ele>140.9</ele>
        <time>2023-09-03T07:27:11Z</time>
      </trkpt>
      <trkpt lat="48.59838" lon="1.97962">
        <ele>139.1</ele>
        <time>2023-09-03T07:27:13Z</time>
      </trkpt>
      <trkpt lat="48.59829" lon="1.9795">
        <ele>137.1</ele>
        <time>2023-09-03T07:27:15Z</time>
      </trkpt>
      <trkpt lat="48.59819" lon="1.97938">
        <ele>134.7</ele>
        <time>2023-09-03T07:27:17Z</time>
      </trkpt>
      <trkpt lat="48.59809" lon="1.97928">
        <ele>132.5</ele>
        <time>2023-09-03T07:27:19Z</time>
      </trkpt>
      <trkpt lat="48.59797" lon="1.97917">
        <ele>130.7</ele>
        <time>2023-09-03T07:27:21Z</time>
      </trkpt>
      <trkpt lat="48.59781" lon="1.97907">
        <ele>129.4</ele>
        <time>2023-09-03T07:27:23Z</time>
      </trkpt>
      <trkpt lat="48.59769" lon="1.97895">
        <ele>128.9</ele>
        <time>2023-09-03T07:27:25Z</time>
      </trkpt>
      <trkpt lat="48.5976" lon="1.97891">
        <ele>129.3</ele>
        <time>2023-09-03T07:27:27Z</time>
      </trkpt>
      <trkpt lat="48.59752" lon="1.97876">
        <ele>129</ele>
        <time>2023-09-03T07:27:30Z</time>
      </trkpt>
      <trkpt lat="48.59739" lon="1.97869">
        <ele>129</ele>
        <time>2023-09-03T07:27:33Z</time>
      </trkpt>
      <trkpt lat="48.5973" lon="1.97863">
        <ele>128.9</ele>
        <time>2023-09-03T07:27:35Z</time>
      </trkpt>
      <trkpt lat="48.59718" lon="1.97854">
        <ele>129.1</ele>
        <time>2023-09-03T07:27:37Z</time>
      </trkpt>
      <trkpt lat="48.59707" lon="1.97846">
        <ele>129.5</ele>
        <time>2023-09-03T07:27:39Z</time>
      </trkpt>
      <trkpt lat="48.59699" lon="1.97831">
        <ele>129.5</ele>
        <time>2023-09-03T07:27:42Z</time>
      </trkpt>
      <trkpt lat="48.59695" lon="1.97812">
        <ele>129.1</ele>
        <time>2023-09-03T07:27:45Z</time>
      </trkpt>
      <trkpt lat="48.59688" lon="1.97804">
        <ele>129.4</ele>
        <time>2023-09-03T07:27:47Z</time>
      </trkpt>
      <trkpt lat="48.59679" lon="1.97796">
        <ele>129.9</ele>
        <time>2023-09-03T07:27:54Z</time>
      </trkpt>
      <trkpt lat="48.59672" lon="1.97787">
        <ele>130.5</ele>
        <time>2023-09-03T07:28:01Z</time>
      </trkpt>
      <trkpt lat="48.59663" lon="1.97779">
        <ele>131.4</ele>
        <time>2023-09-03T07:28:07Z</time>
      </trkpt>
      <trkpt lat="48.59654" lon="1.97774">
        <ele>132.5</ele>
        <time>2023-09-03T07:28:12Z</time>
      </trkpt>
      <trkpt lat="48.59646" lon="1.97767">
        <ele>133.6</ele>
        <time>2023-09-03T07:28:16Z</time>
      </trkpt>
      <trkpt lat="48.59636" lon="1.97761">
        <ele>135</ele>
        <time>2023-09-03T07:28:20Z</time>
      </trkpt>
      <trkpt lat="48.59626" lon="1.97755">
        <ele>136.7</ele>
        <time>2023-09-03T07:28:24Z</time>
      </trkpt>
      <trkpt lat="48.59617" lon="1.97749">
        <ele>138.1</ele>
        <time>2023-09-03T07:28:29Z</time>
      </trkpt>
      <trkpt lat="48.59608" lon="1.97747">
        <ele>139.4</ele>
        <time>2023-09-03T07:28:34Z</time>
      </trkpt>
      <trkpt lat="48.59597" lon="1.97742">
        <ele>140.7</ele>
        <time>2023-09-03T07:28:39Z</time>
      </trkpt>
      <trkpt lat="48.59588" lon="1.97736">
        <ele>141.5</ele>
        <time>2023-09-03T07:28:44Z</time>
      </trkpt>
      <trkpt lat="48.59579" lon="1.97731">
        <ele>142.3</ele>
        <time>2023-09-03T07:28:48Z</time>
      </trkpt>
      <trkpt lat="48.59568" lon="1.97727">
        <ele>143.5</ele>
        <time>2023-09-03T07:28:52Z</time>
      </trkpt>
      <trkpt lat="48.5956" lon="1.97723">
        <ele>144.5</ele>
        <time>2023-09-03T07:28:57Z</time>
      </trkpt>
      <trkpt lat="48.59551" lon="1.97718">
        <ele>145.2</ele>
        <time>2023-09-03T07:29:02Z</time>
      </trkpt>
      <trkpt lat="48.59542" lon="1.9771">
        <ele>145.6</ele>
        <time>2023-09-03T07:29:07Z</time>
      </trkpt>
      <trkpt lat="48.59533" lon="1.97704">
        <ele>146.1</ele>
        <time>2023-09-03T07:29:13Z</time>
      </trkpt>
      <trkpt lat="48.59523" lon="1.97697">
        <ele>146.5</ele>
        <time>2023-09-03T07:29:19Z</time>
      </trkpt>
      <trkpt lat="48.59513" lon="1.97689">
        <ele>146.7</ele>
        <time>2023-09-03T07:29:23Z</time>
      </trkpt>
      <trkpt lat="48.59502" lon="1.9768">
        <ele>146.8</ele>
        <time>2023-09-03T07:29:27Z</time>
      </trkpt>
      <trkpt lat="48.59494" lon="1.97675">
        <ele>146.9</ele>
        <time>2023-09-03T07:29:30Z</time>
      </trkpt>
      <trkpt lat="48.59484" lon="1.97669">
        <ele>146.8</ele>
        <time>2023-09-03T07:29:33Z</time>
      </trkpt>
      <trkpt lat="48.59475" lon="1.97664">
        <ele>146.7</ele>
        <time>2023-09-03T07:29:36Z</time>
      </trkpt>
      <trkpt lat="48.59464" lon="1.97658">
        <ele>146.9</ele>
        <time>2023-09-03T07:29:40Z</time>
      </trkpt>
      <trkpt lat="48.59454" lon="1.97652">
        <ele>147.2</ele>
        <time>2023-09-03T07:29:44Z</time>
      </trkpt>
      <trkpt lat="48.59444" lon="1.97646">
        <ele>147.5</ele>
        <time>2023-09-03T07:29:48Z</time>
      </trkpt>
      <trkpt lat="48.59438" lon="1.97657">
        <ele>149</ele>
        <time>2023-09-03T07:29:55Z</time>
      </trkpt>
      <trkpt lat="48.59434" lon="1.97672">
        <ele>150.7</ele>
        <time>2023-09-03T07:30:01Z</time>
      </trkpt>
      <trkpt lat="48.5943" lon="1.97687">
        <ele>152.3</ele>
        <time>2023-09-03T07:30:07Z</time>
      </trkpt>
      <trkpt lat="48.59432" lon="1.97702">
        <ele>153.4</ele>
        <time>2023-09-03T07:30:13Z</time>
      </trkpt>
      <trkpt lat="48.59437" lon="1.97716">
        <ele>154.1</ele>
        <time>2023-09-03T07:30:19Z</time>
      </trkpt>
      <trkpt lat="48.59441" lon="1.97729">
        <ele>154.8</ele>
        <time>2023-09-03T07:30:25Z</time>
      </trkpt>
      <trkpt lat="48.59436" lon="1.97742">
        <ele>155.8</ele>
        <time>2023-09-03T07:30:33Z</time>
      </trkpt>
      <trkpt lat="48.59426" lon="1.97743">
        <ele>156.3</ele>
        <time>2023-09-03T07:30:39Z</time>
      </trkpt>
      <trkpt lat="48.59416" lon="1.97738">
        <ele>156.6</ele>
        <time>2023-09-03T07:30:45Z</time>
      </trkpt>
      <trkpt lat="48.59406" lon="1.97732">
        <ele>156.7</ele>
        <time>2023-09-03T07:30:49Z</time>
      </trkpt>
      <trkpt lat="48.59397" lon="1.97722">
        <ele>156.7</ele>
        <time>2023-09-03T07:30:53Z</time>
      </trkpt>
      <trkpt lat="48.59389" lon="1.97714">
        <ele>156.7</ele>
        <time>2023-09-03T07:30:56Z</time>
      </trkpt>
      <trkpt lat="48.59377" lon="1.97709">
        <ele>156.5</ele>
        <time>2023-09-03T07:31:00Z</time>
      </trkpt>
      <trkpt lat="48.59364" lon="1.97708">
        <ele>156.5</ele>
        <time>2023-09-03T07:31:03Z</time>
      </trkpt>
      <trkpt lat="48.59356" lon="1.97719">
        <ele>156.7</ele>
        <time>2023-09-03T07:31:06Z</time>
      </trkpt>
      <trkpt lat="48.59351" lon="1.97736">
        <ele>156.6</ele>
        <time>2023-09-03T07:31:09Z</time>
      </trkpt>
      <trkpt lat="48.59345" lon="1.9775">
        <ele>156.4</ele>
        <time>2023-09-03T07:31:12Z</time>
      </trkpt>
      <trkpt lat="48.5934" lon="1.97764">
        <ele>156.2</ele>
        <time>2023-09-03T07:31:15Z</time>
      </trkpt>
      <trkpt lat="48.59341" lon="1.97783">
        <ele>156.3</ele>
        <time>2023-09-03T07:31:18Z</time>
      </trkpt>
      <trkpt lat="48.59345" lon="1.97801">
        <ele>156.4</ele>
        <time>2023-09-03T07:31:21Z</time>
      </trkpt>
      <trkpt lat="48.59349" lon="1.9782">
        <ele>156.3</ele>
        <time>2023-09-03T07:31:24Z</time>
      </trkpt>
      <trkpt lat="48.59353" lon="1.97834">
        <ele>156.4</ele>
        <time>2023-09-03T07:31:26Z</time>
      </trkpt>
      <trkpt lat="48.5936" lon="1.97852">
        <ele>156.8</ele>
        <time>2023-09-03T07:31:29Z</time>
      </trkpt>
      <trkpt lat="48.59364" lon="1.97866">
        <ele>157.2</ele>
        <time>2023-09-03T07:31:31Z</time>
      </trkpt>
      <trkpt lat="48.59367" lon="1.97879">
        <ele>157.4</ele>
        <time>2023-09-03T07:31:33Z</time>
      </trkpt>
      <trkpt lat="48.5937" lon="1.97893">
        <ele>157.5</ele>
        <time>2023-09-03T07:31:35Z</time>
      </trkpt>
      <trkpt lat="48.59371" lon="1.97908">
        <ele>157.3</ele>
        <time>2023-09-03T07:31:37Z</time>
      </trkpt>
      <trkpt lat="48.59371" lon="1.97923">
        <ele>157.2</ele>
        <time>2023-09-03T07:31:39Z</time>
      </trkpt>
      <trkpt lat="48.5937" lon="1.97937">
        <ele>157.5</ele>
        <time>2023-09-03T07:31:41Z</time>
      </trkpt>
      <trkpt lat="48.59369" lon="1.97951">
        <ele>157.8</ele>
        <time>2023-09-03T07:31:43Z</time>
      </trkpt>
      <trkpt lat="48.59365" lon="1.9797">
        <ele>158.1</ele>
        <time>2023-09-03T07:31:46Z</time>
      </trkpt>
      <trkpt lat="48.59361" lon="1.97985">
        <ele>158</ele>
        <time>2023-09-03T07:31:48Z</time>
      </trkpt>
      <trkpt lat="48.59356" lon="1.98001">
        <ele>157.5</ele>
        <time>2023-09-03T07:31:50Z</time>
      </trkpt>
      <trkpt lat="48.59355" lon="1.98016">
        <ele>157.4</ele>
        <time>2023-09-03T07:31:52Z</time>
      </trkpt>
      <trkpt lat="48.59358" lon="1.98031">
        <ele>157.4</ele>
        <time>2023-09-03T07:31:54Z</time>
      </trkpt>
      <trkpt lat="48.59364" lon="1.98044">
        <ele>156.9</ele>
        <time>2023-09-03T07:31:56Z</time>
      </trkpt>
      <trkpt lat="48.59372" lon="1.98056">
        <ele>156.4</ele>
        <time>2023-09-03T07:31:58Z</time>
      </trkpt>
      <trkpt lat="48.5938" lon="1.98067">
        <ele>156</ele>
        <time>2023-09-03T07:32:00Z</time>
      </trkpt>
      <trkpt lat="48.59388" lon="1.98077">
        <ele>156.2</ele>
        <time>2023-09-03T07:32:02Z</time>
      </trkpt>
      <trkpt lat="48.59397" lon="1.98082">
        <ele>156.1</ele>
        <time>2023-09-03T07:32:05Z</time>
      </trkpt>
      <trkpt lat="48.59406" lon="1.98086">
        <ele>155.8</ele>
        <time>2023-09-03T07:32:07Z</time>
      </trkpt>
      <trkpt lat="48.59419" lon="1.98084">
        <ele>156</ele>
        <time>2023-09-03T07:32:09Z</time>
      </trkpt>
      <trkpt lat="48.59428" lon="1.98076">
        <ele>156.9</ele>
        <time>2023-09-03T07:32:11Z</time>
      </trkpt>
      <trkpt lat="48.59439" lon="1.98066">
        <ele>157.5</ele>
        <time>2023-09-03T07:32:13Z</time>
      </trkpt>
      <trkpt lat="48.59446" lon="1.98056">
        <ele>158</ele>
        <time>2023-09-03T07:32:15Z</time>
      </trkpt>
      <trkpt lat="48.59454" lon="1.98047">
        <ele>158.3</ele>
        <time>2023-09-03T07:32:17Z</time>
      </trkpt>
      <trkpt lat="48.59466" lon="1.98036">
        <ele>158.7</ele>
        <time>2023-09-03T07:32:20Z</time>
      </trkpt>
      <trkpt lat="48.59476" lon="1.98023">
        <ele>158.9</ele>
        <time>2023-09-03T07:32:23Z</time>
      </trkpt>
      <trkpt lat="48.59485" lon="1.98017">
        <ele>158.5</ele>
        <time>2023-09-03T07:32:25Z</time>
      </trkpt>
      <trkpt lat="48.59492" lon="1.98008">
        <ele>158.3</ele>
        <time>2023-09-03T07:32:27Z</time>
      </trkpt>
      <trkpt lat="48.59502" lon="1.97997">
        <ele>158.1</ele>
        <time>2023-09-03T07:32:30Z</time>
      </trkpt>
      <trkpt lat="48.59515" lon="1.97993">
        <ele>158.1</ele>
        <time>2023-09-03T07:32:33Z</time>
      </trkpt>
      <trkpt lat="48.59524" lon="1.97999">
        <ele>158</ele>
        <time>2023-09-03T07:32:35Z</time>
      </trkpt>
      <trkpt lat="48.59531" lon="1.98008">
        <ele>157.6</ele>
        <time>2023-09-03T07:32:37Z</time>
      </trkpt>
      <trkpt lat="48.59539" lon="1.9802">
        <ele>157.2</ele>
        <time>2023-09-03T07:32:40Z</time>
      </trkpt>
      <trkpt lat="48.5955" lon="1.98031">
        <ele>156.9</ele>
        <time>2023-09-03T07:32:43Z</time>
      </trkpt>
      <trkpt lat="48.5956" lon="1.98036">
        <ele>156.3</ele>
        <time>2023-09-03T07:32:45Z</time>
      </trkpt>
      <trkpt lat="48.5957" lon="1.98038">
        <ele>155.2</ele>
        <time>2023-09-03T07:32:47Z</time>
      </trkpt>
      <trkpt lat="48.59581" lon="1.98041">
        <ele>154.2</ele>
        <time>2023-09-03T07:32:49Z</time>
      </trkpt>
      <trkpt lat="48.59592" lon="1.98051">
        <ele>152.8</ele>
        <time>2023-09-03T07:32:51Z</time>
      </trkpt>
      <trkpt lat="48.59599" lon="1.98063">
        <ele>152</ele>
        <time>2023-09-03T07:32:53Z</time>
      </trkpt>
      <trkpt lat="48.59603" lon="1.98075">
        <ele>151.6</ele>
        <time>2023-09-03T07:32:55Z</time>
      </trkpt>
      <trkpt lat="48.5961" lon="1.98086">
        <ele>151.2</ele>
        <time>2023-09-03T07:32:57Z</time>
      </trkpt>
      <trkpt lat="48.59619" lon="1.98095">
        <ele>150.9</ele>
        <time>2023-09-03T07:32:59Z</time>
      </trkpt>
      <trkpt lat="48.59627" lon="1.98105">
        <ele>150.6</ele>
        <time>2023-09-03T07:33:00Z</time>
      </trkpt>
      <trkpt lat="48.59647" lon="1.98117">
        <ele>150</ele>
        <time>2023-09-03T07:33:01Z</time>
      </trkpt>
      <trkpt lat="48.59658" lon="1.98132">
        <ele>150</ele>
        <time>2023-09-03T07:33:03Z</time>
      </trkpt>
      <trkpt lat="48.59668" lon="1.98146">
        <ele>149.9</ele>
        <time>2023-09-03T07:33:05Z</time>
      </trkpt>
      <trkpt lat="48.59677" lon="1.98162">
        <ele>149.3</ele>
        <time>2023-09-03T07:33:07Z</time>
      </trkpt>
      <trkpt lat="48.59689" lon="1.98175">
        <ele>148</ele>
        <time>2023-09-03T07:33:09Z</time>
      </trkpt>
      <trkpt lat="48.59703" lon="1.98185">
        <ele>146.8</ele>
        <time>2023-09-03T07:33:11Z</time>
      </trkpt>
      <trkpt lat="48.59717" lon="1.98195">
        <ele>145.3</ele>
        <time>2023-09-03T07:33:13Z</time>
      </trkpt>
      <trkpt lat="48.59732" lon="1.98201">
        <ele>143.9</ele>
        <time>2023-09-03T07:33:15Z</time>
      </trkpt>
      <trkpt lat="48.59748" lon="1.98209">
        <ele>142.6</ele>
        <time>2023-09-03T07:33:17Z</time>
      </trkpt>
      <trkpt lat="48.59763" lon="1.98216">
        <ele>141.3</ele>
        <time>2023-09-03T07:33:19Z</time>
      </trkpt>
      <trkpt lat="48.59774" lon="1.98223">
        <ele>140.2</ele>
        <time>2023-09-03T07:33:21Z</time>
      </trkpt>
      <trkpt lat="48.59781" lon="1.98234">
        <ele>138.7</ele>
        <time>2023-09-03T07:33:23Z</time>
      </trkpt>
      <trkpt lat="48.59788" lon="1.98245">
        <ele>137.2</ele>
        <time>2023-09-03T07:33:25Z</time>
      </trkpt>
      <trkpt lat="48.59796" lon="1.98253">
        <ele>135.8</ele>
        <time>2023-09-03T07:33:27Z</time>
      </trkpt>
      <trkpt lat="48.59809" lon="1.9825">
        <ele>134.5</ele>
        <time>2023-09-03T07:33:29Z</time>
      </trkpt>
      <trkpt lat="48.59822" lon="1.98253">
        <ele>132.5</ele>
        <time>2023-09-03T07:33:31Z</time>
      </trkpt>
      <trkpt lat="48.59836" lon="1.98259">
        <ele>130.3</ele>
        <time>2023-09-03T07:33:33Z</time>
      </trkpt>
      <trkpt lat="48.59849" lon="1.98268">
        <ele>128.6</ele>
        <time>2023-09-03T07:33:35Z</time>
      </trkpt>
      <trkpt lat="48.59865" lon="1.98273">
        <ele>127.2</ele>
        <time>2023-09-03T07:33:37Z</time>
      </trkpt>
      <trkpt lat="48.59879" lon="1.98281">
        <ele>126.8</ele>
        <time>2023-09-03T07:33:39Z</time>
      </trkpt>
      <trkpt lat="48.59891" lon="1.98296">
        <ele>125.8</ele>
        <time>2023-09-03T07:33:41Z</time>
      </trkpt>
      <trkpt lat="48.59902" lon="1.98313">
        <ele>125.1</ele>
        <time>2023-09-03T07:33:43Z</time>
      </trkpt>
      <trkpt lat="48.59913" lon="1.98331">
        <ele>124.2</ele>
        <time>2023-09-03T07:33:45Z</time>
      </trkpt>
      <trkpt lat="48.59925" lon="1.98349">
        <ele>122.6</ele>
        <time>2023-09-03T07:33:47Z</time>
      </trkpt>
      <trkpt lat="48.59938" lon="1.98361">
        <ele>121.8</ele>
        <time>2023-09-03T07:33:49Z</time>
      </trkpt>
      <trkpt lat="48.59948" lon="1.9838">
        <ele>120.9</ele>
        <time>2023-09-03T07:33:51Z</time>
      </trkpt>
      <trkpt lat="48.59955" lon="1.98397">
        <ele>120</ele>
        <time>2023-09-03T07:33:53Z</time>
      </trkpt>
      <trkpt lat="48.59965" lon="1.98414">
        <ele>119</ele>
        <time>2023-09-03T07:33:55Z</time>
      </trkpt>
      <trkpt lat="48.59973" lon="1.98423">
        <ele>118.6</ele>
        <time>2023-09-03T07:33:56Z</time>
      </trkpt>
      <trkpt lat="48.5998" lon="1.98431">
        <ele>118.6</ele>
        <time>2023-09-03T07:33:57Z</time>
      </trkpt>
      <trkpt lat="48.5999" lon="1.98447">
        <ele>118</ele>
        <time>2023-09-03T07:33:59Z</time>
      </trkpt>
      <trkpt lat="48.59997" lon="1.98461">
        <ele>117</ele>
        <time>2023-09-03T07:34:02Z</time>
      </trkpt>
      <trkpt lat="48.60006" lon="1.98472">
        <ele>116.4</ele>
        <time>2023-09-03T07:34:05Z</time>
      </trkpt>
      <trkpt lat="48.60016" lon="1.98474">
        <ele>117.1</ele>
        <time>2023-09-03T07:34:13Z</time>
      </trkpt>
      <trkpt lat="48.60026" lon="1.98472">
        <ele>117.9</ele>
        <time>2023-09-03T07:34:18Z</time>
      </trkpt>
      <trkpt lat="48.60037" lon="1.98468">
        <ele>118</ele>
        <time>2023-09-03T07:34:23Z</time>
      </trkpt>
      <trkpt lat="48.60045" lon="1.98463">
        <ele>118.2</ele>
        <time>2023-09-03T07:34:26Z</time>
      </trkpt>
      <trkpt lat="48.60054" lon="1.98454">
        <ele>119</ele>
        <time>2023-09-03T07:34:30Z</time>
      </trkpt>
      <trkpt lat="48.60061" lon="1.98443">
        <ele>119.8</ele>
        <time>2023-09-03T07:34:34Z</time>
      </trkpt>
      <trkpt lat="48.6007" lon="1.98434">
        <ele>119.9</ele>
        <time>2023-09-03T07:34:38Z</time>
      </trkpt>
      <trkpt lat="48.60077" lon="1.98424">
        <ele>120.1</ele>
        <time>2023-09-03T07:34:42Z</time>
      </trkpt>
      <trkpt lat="48.60086" lon="1.98413">
        <ele>120</ele>
        <time>2023-09-03T07:34:46Z</time>
      </trkpt>
      <trkpt lat="48.60096" lon="1.98412">
        <ele>118.6</ele>
        <time>2023-09-03T07:34:48Z</time>
      </trkpt>
      <trkpt lat="48.60103" lon="1.98403">
        <ele>118.4</ele>
        <time>2023-09-03T07:34:50Z</time>
      </trkpt>
      <trkpt lat="48.60111" lon="1.98395">
        <ele>117.6</ele>
        <time>2023-09-03T07:34:52Z</time>
      </trkpt>
      <trkpt lat="48.60122" lon="1.98386">
        <ele>116.6</ele>
        <time>2023-09-03T07:34:55Z</time>
      </trkpt>
      <trkpt lat="48.6014" lon="1.98383">
        <ele>114.3</ele>
        <time>2023-09-03T07:34:58Z</time>
      </trkpt>
      <trkpt lat="48.60151" lon="1.9838">
        <ele>113.6</ele>
        <time>2023-09-03T07:35:00Z</time>
      </trkpt>
      <trkpt lat="48.60161" lon="1.98378">
        <ele>112.9</ele>
        <time>2023-09-03T07:35:02Z</time>
      </trkpt>
      <trkpt lat="48.60174" lon="1.98377">
        <ele>112</ele>
        <time>2023-09-03T07:35:05Z</time>
      </trkpt>
      <trkpt lat="48.60184" lon="1.98369">
        <ele>111.9</ele>
        <time>2023-09-03T07:35:08Z</time>
      </trkpt>
      <trkpt lat="48.60194" lon="1.98366">
        <ele>111.7</ele>
        <time>2023-09-03T07:35:11Z</time>
      </trkpt>
      <trkpt lat="48.60206" lon="1.98361">
        <ele>112</ele>
        <time>2023-09-03T07:35:14Z</time>
      </trkpt>
      <trkpt lat="48.60216" lon="1.98352">
        <ele>112.6</ele>
        <time>2023-09-03T07:35:18Z</time>
      </trkpt>
      <trkpt lat="48.60225" lon="1.98343">
        <ele>113.3</ele>
        <time>2023-09-03T07:35:23Z</time>
      </trkpt>
      <trkpt lat="48.60234" lon="1.98337">
        <ele>113.8</ele>
        <time>2023-09-03T07:35:27Z</time>
      </trkpt>
      <trkpt lat="48.60243" lon="1.98327">
        <ele>114.3</ele>
        <time>2023-09-03T07:35:31Z</time>
      </trkpt>
      <trkpt lat="48.60251" lon="1.98317">
        <ele>114.6</ele>
        <time>2023-09-03T07:35:35Z</time>
      </trkpt>
      <trkpt lat="48.60261" lon="1.98312">
        <ele>114.4</ele>
        <time>2023-09-03T07:35:38Z</time>
      </trkpt>
      <trkpt lat="48.60269" lon="1.98307">
        <ele>114.3</ele>
        <time>2023-09-03T07:35:41Z</time>
      </trkpt>
      <trkpt lat="48.60284" lon="1.98304">
        <ele>113.4</ele>
        <time>2023-09-03T07:35:44Z</time>
      </trkpt>
      <trkpt lat="48.60293" lon="1.98297">
        <ele>112.6</ele>
        <time>2023-09-03T07:35:47Z</time>
      </trkpt>
      <trkpt lat="48.60302" lon="1.9829">
        <ele>112</ele>
        <time>2023-09-03T07:35:49Z</time>
      </trkpt>
      <trkpt lat="48.60313" lon="1.98287">
        <ele>110.6</ele>
        <time>2023-09-03T07:35:52Z</time>
      </trkpt>
      <trkpt lat="48.60324" lon="1.98282">
        <ele>109.2</ele>
        <time>2023-09-03T07:35:56Z</time>
      </trkpt>
      <trkpt lat="48.60335" lon="1.98275">
        <ele>107.7</ele>
        <time>2023-09-03T07:35:59Z</time>
      </trkpt>
      <trkpt lat="48.60341" lon="1.98261">
        <ele>106.8</ele>
        <time>2023-09-03T07:36:02Z</time>
      </trkpt>
      <trkpt lat="48.60346" lon="1.98249">
        <ele>106.1</ele>
        <time>2023-09-03T07:36:05Z</time>
      </trkpt>
      <trkpt lat="48.60353" lon="1.9824">
        <ele>105.2</ele>
        <time>2023-09-03T07:36:09Z</time>
      </trkpt>
      <trkpt lat="48.60351" lon="1.98226">
        <ele>105.4</ele>
        <time>2023-09-03T07:36:13Z</time>
      </trkpt>
      <trkpt lat="48.60353" lon="1.98212">
        <ele>105.2</ele>
        <time>2023-09-03T07:36:16Z</time>
      </trkpt>
      <trkpt lat="48.60354" lon="1.98198">
        <ele>105</ele>
        <time>2023-09-03T07:36:20Z</time>
      </trkpt>
      <trkpt lat="48.60354" lon="1.98184">
        <ele>105.1</ele>
        <time>2023-09-03T07:36:24Z</time>
      </trkpt>
      <trkpt lat="48.60348" lon="1.98169">
        <ele>105.9</ele>
        <time>2023-09-03T07:36:29Z</time>
      </trkpt>
      <trkpt lat="48.60344" lon="1.98153">
        <ele>106.3</ele>
        <time>2023-09-03T07:36:33Z</time>
      </trkpt>
      <trkpt lat="48.60337" lon="1.98145">
        <ele>106.9</ele>
        <time>2023-09-03T07:36:37Z</time>
      </trkpt>
      <trkpt lat="48.60327" lon="1.98136">
        <ele>107.5</ele>
        <time>2023-09-03T07:36:41Z</time>
      </trkpt>
      <trkpt lat="48.60319" lon="1.98127">
        <ele>107.9</ele>
        <time>2023-09-03T07:36:44Z</time>
      </trkpt>
      <trkpt lat="48.60311" lon="1.98118">
        <ele>108.1</ele>
        <time>2023-09-03T07:36:47Z</time>
      </trkpt>
      <trkpt lat="48.60302" lon="1.98109">
        <ele>108</ele>
        <time>2023-09-03T07:36:50Z</time>
      </trkpt>
      <trkpt lat="48.60294" lon="1.98099">
        <ele>107.8</ele>
        <time>2023-09-03T07:36:53Z</time>
      </trkpt>
      <trkpt lat="48.60285" lon="1.98088">
        <ele>107.3</ele>
        <time>2023-09-03T07:36:56Z</time>
      </trkpt>
      <trkpt lat="48.60275" lon="1.98076">
        <ele>107.3</ele>
        <time>2023-09-03T07:36:59Z</time>
      </trkpt>
      <trkpt lat="48.60265" lon="1.98066">
        <ele>107.8</ele>
        <time>2023-09-03T07:37:02Z</time>
      </trkpt>
      <trkpt lat="48.60255" lon="1.98055">
        <ele>108</ele>
        <time>2023-09-03T07:37:05Z</time>
      </trkpt>
      <trkpt lat="48.60245" lon="1.98046">
        <ele>108.5</ele>
        <time>2023-09-03T07:37:08Z</time>
      </trkpt>
      <trkpt lat="48.60236" lon="1.98037">
        <ele>108.8</ele>
        <time>2023-09-03T07:37:11Z</time>
      </trkpt>
      <trkpt lat="48.60225" lon="1.98027">
        <ele>109</ele>
        <time>2023-09-03T07:37:14Z</time>
      </trkpt>
      <trkpt lat="48.60215" lon="1.98016">
        <ele>109.4</ele>
        <time>2023-09-03T07:37:17Z</time>
      </trkpt>
      <trkpt lat="48.60206" lon="1.98006">
        <ele>109.8</ele>
        <time>2023-09-03T07:37:20Z</time>
      </trkpt>
      <trkpt lat="48.60197" lon="1.97997">
        <ele>110.1</ele>
        <time>2023-09-03T07:37:23Z</time>
      </trkpt>
      <trkpt lat="48.60188" lon="1.97987">
        <ele>110.4</ele>
        <time>2023-09-03T07:37:26Z</time>
      </trkpt>
      <trkpt lat="48.60181" lon="1.97977">
        <ele>110.4</ele>
        <time>2023-09-03T07:37:29Z</time>
      </trkpt>
      <trkpt lat="48.60173" lon="1.97968">
        <ele>110.4</ele>
        <time>2023-09-03T07:37:32Z</time>
      </trkpt>
      <trkpt lat="48.60164" lon="1.97961">
        <ele>110.5</ele>
        <time>2023-09-03T07:37:36Z</time>
      </trkpt>
      <trkpt lat="48.60158" lon="1.9795">
        <ele>110.9</ele>
        <time>2023-09-03T07:37:43Z</time>
      </trkpt>
      <trkpt lat="48.60161" lon="1.97937">
        <ele>111.4</ele>
        <time>2023-09-03T07:37:48Z</time>
      </trkpt>
      <trkpt lat="48.60167" lon="1.97925">
        <ele>112.4</ele>
        <time>2023-09-03T07:37:52Z</time>
      </trkpt>
      <trkpt lat="48.60174" lon="1.97914">
        <ele>113.1</ele>
        <time>2023-09-03T07:37:56Z</time>
      </trkpt>
      <trkpt lat="48.6018" lon="1.97903">
        <ele>113.7</ele>
        <time>2023-09-03T07:38:00Z</time>
      </trkpt>
      <trkpt lat="48.60185" lon="1.97892">
        <ele>114.5</ele>
        <time>2023-09-03T07:38:06Z</time>
      </trkpt>
      <trkpt lat="48.60191" lon="1.9788">
        <ele>115.2</ele>
        <time>2023-09-03T07:38:10Z</time>
      </trkpt>
      <trkpt lat="48.60198" lon="1.9787">
        <ele>115.6</ele>
        <time>2023-09-03T07:38:14Z</time>
      </trkpt>
      <trkpt lat="48.60206" lon="1.9786">
        <ele>116</ele>
        <time>2023-09-03T07:38:18Z</time>
      </trkpt>
      <trkpt lat="48.60211" lon="1.97849">
        <ele>116.4</ele>
        <time>2023-09-03T07:38:21Z</time>
      </trkpt>
      <trkpt lat="48.60216" lon="1.97834">
        <ele>117</ele>
        <time>2023-09-03T07:38:25Z</time>
      </trkpt>
      <trkpt lat="48.60221" lon="1.97822">
        <ele>117.8</ele>
        <time>2023-09-03T07:38:31Z</time>
      </trkpt>
      <trkpt lat="48.60225" lon="1.97809">
        <ele>118.7</ele>
        <time>2023-09-03T07:38:36Z</time>
      </trkpt>
      <trkpt lat="48.60231" lon="1.97795">
        <ele>119.4</ele>
        <time>2023-09-03T07:38:41Z</time>
      </trkpt>
      <trkpt lat="48.60235" lon="1.97782">
        <ele>119.9</ele>
        <time>2023-09-03T07:38:45Z</time>
      </trkpt>
      <trkpt lat="48.60239" lon="1.97768">
        <ele>120.7</ele>
        <time>2023-09-03T07:38:49Z</time>
      </trkpt>
      <trkpt lat="48.60243" lon="1.97755">
        <ele>121.6</ele>
        <time>2023-09-03T07:38:57Z</time>
      </trkpt>
      <trkpt lat="48.6025" lon="1.97746">
        <ele>122.3</ele>
        <time>2023-09-03T07:39:03Z</time>
      </trkpt>
      <trkpt lat="48.60257" lon="1.97735">
        <ele>123.1</ele>
        <time>2023-09-03T07:39:10Z</time>
      </trkpt>
      <trkpt lat="48.60263" lon="1.97722">
        <ele>124</ele>
        <time>2023-09-03T07:39:16Z</time>
      </trkpt>
      <trkpt lat="48.6027" lon="1.97712">
        <ele>124.4</ele>
        <time>2023-09-03T07:39:22Z</time>
      </trkpt>
      <trkpt lat="48.60277" lon="1.97702">
        <ele>124.7</ele>
        <time>2023-09-03T07:39:26Z</time>
      </trkpt>
      <trkpt lat="48.60286" lon="1.97693">
        <ele>125</ele>
        <time>2023-09-03T07:39:31Z</time>
      </trkpt>
      <trkpt lat="48.60291" lon="1.97679">
        <ele>125.3</ele>
        <time>2023-09-03T07:39:35Z</time>
      </trkpt>
      <trkpt lat="48.60296" lon="1.97667">
        <ele>125.3</ele>
        <time>2023-09-03T07:39:38Z</time>
      </trkpt>
      <trkpt lat="48.603" lon="1.97655">
        <ele>125.6</ele>
        <time>2023-09-03T07:39:41Z</time>
      </trkpt>
      <trkpt lat="48.60305" lon="1.97639">
        <ele>126</ele>
        <time>2023-09-03T07:39:45Z</time>
      </trkpt>
      <trkpt lat="48.6031" lon="1.97627">
        <ele>126.2</ele>
        <time>2023-09-03T07:39:48Z</time>
      </trkpt>
      <trkpt lat="48.60315" lon="1.97612">
        <ele>126.3</ele>
        <time>2023-09-03T07:39:52Z</time>
      </trkpt>
      <trkpt lat="48.6032" lon="1.976">
        <ele>125.9</ele>
        <time>2023-09-03T07:39:59Z</time>
      </trkpt>
      <trkpt lat="48.60325" lon="1.97587">
        <ele>125.6</ele>
        <time>2023-09-03T07:40:03Z</time>
      </trkpt>
      <trkpt lat="48.60331" lon="1.97567">
        <ele>124.6</ele>
        <time>2023-09-03T07:40:06Z</time>
      </trkpt>
      <trkpt lat="48.60338" lon="1.97558">
        <ele>123.5</ele>
        <time>2023-09-03T07:40:09Z</time>
      </trkpt>
      <trkpt lat="48.6034" lon="1.97543">
        <ele>122.5</ele>
        <time>2023-09-03T07:40:13Z</time>
      </trkpt>
      <trkpt lat="48.60333" lon="1.97533">
        <ele>122.4</ele>
        <time>2023-09-03T07:40:15Z</time>
      </trkpt>
      <trkpt lat="48.60326" lon="1.97525">
        <ele>122.4</ele>
        <time>2023-09-03T07:40:17Z</time>
      </trkpt>
      <trkpt lat="48.60317" lon="1.97514">
        <ele>122.7</ele>
        <time>2023-09-03T07:40:20Z</time>
      </trkpt>
      <trkpt lat="48.60309" lon="1.97502">
        <ele>122.8</ele>
        <time>2023-09-03T07:40:24Z</time>
      </trkpt>
      <trkpt lat="48.60302" lon="1.97489">
        <ele>123.5</ele>
        <time>2023-09-03T07:40:28Z</time>
      </trkpt>
      <trkpt lat="48.60294" lon="1.9748">
        <ele>124.6</ele>
        <time>2023-09-03T07:40:33Z</time>
      </trkpt>
      <trkpt lat="48.60286" lon="1.97471">
        <ele>125.8</ele>
        <time>2023-09-03T07:40:38Z</time>
      </trkpt>
      <trkpt lat="48.60277" lon="1.97462">
        <ele>127</ele>
        <time>2023-09-03T07:40:44Z</time>
      </trkpt>
      <trkpt lat="48.6027" lon="1.97452">
        <ele>128</ele>
        <time>2023-09-03T07:40:50Z</time>
      </trkpt>
      <trkpt lat="48.60263" lon="1.97443">
        <ele>129.1</ele>
        <time>2023-09-03T07:40:57Z</time>
      </trkpt>
      <trkpt lat="48.60256" lon="1.97435">
        <ele>130.5</ele>
        <time>2023-09-03T07:41:03Z</time>
      </trkpt>
      <trkpt lat="48.60247" lon="1.97427">
        <ele>132.2</ele>
        <time>2023-09-03T07:41:10Z</time>
      </trkpt>
      <trkpt lat="48.60239" lon="1.9742">
        <ele>133.8</ele>
        <time>2023-09-03T07:41:16Z</time>
      </trkpt>
      <trkpt lat="48.60231" lon="1.97412">
        <ele>135.5</ele>
        <time>2023-09-03T07:41:22Z</time>
      </trkpt>
      <trkpt lat="48.60223" lon="1.97404">
        <ele>137.3</ele>
        <time>2023-09-03T07:41:29Z</time>
      </trkpt>
      <trkpt lat="48.60215" lon="1.97397">
        <ele>138.7</ele>
        <time>2023-09-03T07:41:35Z</time>
      </trkpt>
      <trkpt lat="48.60207" lon="1.97389">
        <ele>140.1</ele>
        <time>2023-09-03T07:41:39Z</time>
      </trkpt>
      <trkpt lat="48.602" lon="1.97381">
        <ele>141.5</ele>
        <time>2023-09-03T07:41:43Z</time>
      </trkpt>
      <trkpt lat="48.60191" lon="1.9737">
        <ele>142.8</ele>
        <time>2023-09-03T07:41:48Z</time>
      </trkpt>
      <trkpt lat="48.60183" lon="1.97362">
        <ele>143.4</ele>
        <time>2023-09-03T07:41:52Z</time>
      </trkpt>
      <trkpt lat="48.60175" lon="1.97352">
        <ele>143.7</ele>
        <time>2023-09-03T07:41:56Z</time>
      </trkpt>
      <trkpt lat="48.60166" lon="1.97342">
        <ele>144</ele>
        <time>2023-09-03T07:42:00Z</time>
      </trkpt>
      <trkpt lat="48.60158" lon="1.97333">
        <ele>144</ele>
        <time>2023-09-03T07:42:04Z</time>
      </trkpt>
      <trkpt lat="48.60148" lon="1.97324">
        <ele>144.2</ele>
        <time>2023-09-03T07:42:08Z</time>
      </trkpt>
      <trkpt lat="48.6014" lon="1.97315">
        <ele>144.6</ele>
        <time>2023-09-03T07:42:11Z</time>
      </trkpt>
      <trkpt lat="48.60132" lon="1.97307">
        <ele>144.7</ele>
        <time>2023-09-03T07:42:13Z</time>
      </trkpt>
      <trkpt lat="48.60122" lon="1.97299">
        <ele>144.5</ele>
        <time>2023-09-03T07:42:16Z</time>
      </trkpt>
      <trkpt lat="48.60112" lon="1.97289">
        <ele>144.6</ele>
        <time>2023-09-03T07:42:19Z</time>
      </trkpt>
      <trkpt lat="48.60102" lon="1.97278">
        <ele>144.6</ele>
        <time>2023-09-03T07:42:22Z</time>
      </trkpt>
      <trkpt lat="48.60091" lon="1.97267">
        <ele>144.5</ele>
        <time>2023-09-03T07:42:25Z</time>
      </trkpt>
      <trkpt lat="48.6008" lon="1.97257">
        <ele>144.3</ele>
        <time>2023-09-03T07:42:28Z</time>
      </trkpt>
      <trkpt lat="48.60071" lon="1.9725">
        <ele>143.7</ele>
        <time>2023-09-03T07:42:30Z</time>
      </trkpt>
      <trkpt lat="48.60062" lon="1.97239">
        <ele>143</ele>
        <time>2023-09-03T07:42:33Z</time>
      </trkpt>
      <trkpt lat="48.60054" lon="1.97231">
        <ele>142.5</ele>
        <time>2023-09-03T07:42:35Z</time>
      </trkpt>
      <trkpt lat="48.60046" lon="1.97222">
        <ele>141.6</ele>
        <time>2023-09-03T07:42:37Z</time>
      </trkpt>
      <trkpt lat="48.60035" lon="1.97211">
        <ele>140.4</ele>
        <time>2023-09-03T07:42:39Z</time>
      </trkpt>
      <trkpt lat="48.60022" lon="1.97199">
        <ele>139.2</ele>
        <time>2023-09-03T07:42:41Z</time>
      </trkpt>
      <trkpt lat="48.60009" lon="1.97187">
        <ele>138.2</ele>
        <time>2023-09-03T07:42:43Z</time>
      </trkpt>
      <trkpt lat="48.59998" lon="1.97175">
        <ele>137.5</ele>
        <time>2023-09-03T07:42:45Z</time>
      </trkpt>
      <trkpt lat="48.59988" lon="1.97166">
        <ele>137.1</ele>
        <time>2023-09-03T07:42:47Z</time>
      </trkpt>
      <trkpt lat="48.59979" lon="1.97159">
        <ele>137</ele>
        <time>2023-09-03T07:42:49Z</time>
      </trkpt>
      <trkpt lat="48.59972" lon="1.97148">
        <ele>137.4</ele>
        <time>2023-09-03T07:42:52Z</time>
      </trkpt>
      <trkpt lat="48.59978" lon="1.97137">
        <ele>138.3</ele>
        <time>2023-09-03T07:42:57Z</time>
      </trkpt>
      <trkpt lat="48.59987" lon="1.97138">
        <ele>138.6</ele>
        <time>2023-09-03T07:43:00Z</time>
      </trkpt>
      <trkpt lat="48.6" lon="1.97139">
        <ele>139</ele>
        <time>2023-09-03T07:43:03Z</time>
      </trkpt>
      <trkpt lat="48.6001" lon="1.97142">
        <ele>139.3</ele>
        <time>2023-09-03T07:43:05Z</time>
      </trkpt>
      <trkpt lat="48.60024" lon="1.97136">
        <ele>139.8</ele>
        <time>2023-09-03T07:43:07Z</time>
      </trkpt>
      <trkpt lat="48.60032" lon="1.97128">
        <ele>139.8</ele>
        <time>2023-09-03T07:43:09Z</time>
      </trkpt>
      <trkpt lat="48.60044" lon="1.97119">
        <ele>140</ele>
        <time>2023-09-03T07:43:11Z</time>
      </trkpt>
      <trkpt lat="48.60055" lon="1.97111">
        <ele>139.9</ele>
        <time>2023-09-03T07:43:13Z</time>
      </trkpt>
      <trkpt lat="48.60063" lon="1.97103">
        <ele>140.1</ele>
        <time>2023-09-03T07:43:15Z</time>
      </trkpt>
      <trkpt lat="48.60075" lon="1.97099">
        <ele>140.4</ele>
        <time>2023-09-03T07:43:17Z</time>
      </trkpt>
      <trkpt lat="48.60085" lon="1.97091">
        <ele>139.7</ele>
        <time>2023-09-03T07:43:19Z</time>
      </trkpt>
      <trkpt lat="48.60093" lon="1.97084">
        <ele>138.4</ele>
        <time>2023-09-03T07:43:21Z</time>
      </trkpt>
      <trkpt lat="48.60103" lon="1.97081">
        <ele>137.4</ele>
        <time>2023-09-03T07:43:23Z</time>
      </trkpt>
      <trkpt lat="48.60115" lon="1.97078">
        <ele>136.3</ele>
        <time>2023-09-03T07:43:25Z</time>
      </trkpt>
      <trkpt lat="48.60128" lon="1.97076">
        <ele>135.3</ele>
        <time>2023-09-03T07:43:27Z</time>
      </trkpt>
      <trkpt lat="48.60141" lon="1.97077">
        <ele>134.3</ele>
        <time>2023-09-03T07:43:29Z</time>
      </trkpt>
      <trkpt lat="48.60156" lon="1.97079">
        <ele>132.9</ele>
        <time>2023-09-03T07:43:31Z</time>
      </trkpt>
      <trkpt lat="48.6017" lon="1.9708">
        <ele>131.5</ele>
        <time>2023-09-03T07:43:33Z</time>
      </trkpt>
      <trkpt lat="48.60186" lon="1.97081">
        <ele>130.5</ele>
        <time>2023-09-03T07:43:35Z</time>
      </trkpt>
      <trkpt lat="48.60206" lon="1.97092">
        <ele>129.1</ele>
        <time>2023-09-03T07:43:37Z</time>
      </trkpt>
      <trkpt lat="48.60224" lon="1.97102">
        <ele>127.5</ele>
        <time>2023-09-03T07:43:39Z</time>
      </trkpt>
      <trkpt lat="48.60238" lon="1.97112">
        <ele>126.4</ele>
        <time>2023-09-03T07:43:41Z</time>
      </trkpt>
      <trkpt lat="48.6025" lon="1.97111">
        <ele>125</ele>
        <time>2023-09-03T07:43:44Z</time>
      </trkpt>
      <trkpt lat="48.60259" lon="1.97103">
        <ele>124.1</ele>
        <time>2023-09-03T07:43:46Z</time>
      </trkpt>
      <trkpt lat="48.60269" lon="1.97091">
        <ele>122.9</ele>
        <time>2023-09-03T07:43:48Z</time>
      </trkpt>
      <trkpt lat="48.60279" lon="1.97081">
        <ele>121.9</ele>
        <time>2023-09-03T07:43:50Z</time>
      </trkpt>
      <trkpt lat="48.60301" lon="1.97072">
        <ele>120.4</ele>
        <time>2023-09-03T07:43:52Z</time>
      </trkpt>
      <trkpt lat="48.60303" lon="1.97055">
        <ele>120.2</ele>
        <time>2023-09-03T07:43:55Z</time>
      </trkpt>
      <trkpt lat="48.60309" lon="1.97067">
        <ele>120.1</ele>
        <time>2023-09-03T07:44:02Z</time>
      </trkpt>
      <trkpt lat="48.60317" lon="1.97086">
        <ele>120</ele>
        <time>2023-09-03T07:44:05Z</time>
      </trkpt>
      <trkpt lat="48.60325" lon="1.97096">
        <ele>119.7</ele>
        <time>2023-09-03T07:44:07Z</time>
      </trkpt>
      <trkpt lat="48.60334" lon="1.97107">
        <ele>119.2</ele>
        <time>2023-09-03T07:44:09Z</time>
      </trkpt>
      <trkpt lat="48.6034" lon="1.97118">
        <ele>119.4</ele>
        <time>2023-09-03T07:44:11Z</time>
      </trkpt>
      <trkpt lat="48.60349" lon="1.97127">
        <ele>119.5</ele>
        <time>2023-09-03T07:44:13Z</time>
      </trkpt>
      <trkpt lat="48.60356" lon="1.97136">
        <ele>119.2</ele>
        <time>2023-09-03T07:44:15Z</time>
      </trkpt>
      <trkpt lat="48.60363" lon="1.97145">
        <ele>119.1</ele>
        <time>2023-09-03T07:44:17Z</time>
      </trkpt>
      <trkpt lat="48.60372" lon="1.97154">
        <ele>119.6</ele>
        <time>2023-09-03T07:44:19Z</time>
      </trkpt>
      <trkpt lat="48.60382" lon="1.97168">
        <ele>119.5</ele>
        <time>2023-09-03T07:44:22Z</time>
      </trkpt>
      <trkpt lat="48.60388" lon="1.9718">
        <ele>119</ele>
        <time>2023-09-03T07:44:24Z</time>
      </trkpt>
      <trkpt lat="48.60396" lon="1.97192">
        <ele>118.5</ele>
        <time>2023-09-03T07:44:26Z</time>
      </trkpt>
      <trkpt lat="48.60403" lon="1.97205">
        <ele>117.9</ele>
        <time>2023-09-03T07:44:28Z</time>
      </trkpt>
      <trkpt lat="48.60413" lon="1.97215">
        <ele>117.5</ele>
        <time>2023-09-03T07:44:30Z</time>
      </trkpt>
      <trkpt lat="48.60423" lon="1.97227">
        <ele>116.8</ele>
        <time>2023-09-03T07:44:32Z</time>
      </trkpt>
      <trkpt lat="48.60433" lon="1.97235">
        <ele>116.5</ele>
        <time>2023-09-03T07:44:34Z</time>
      </trkpt>
      <trkpt lat="48.60443" lon="1.97245">
        <ele>116.2</ele>
        <time>2023-09-03T07:44:36Z</time>
      </trkpt>
      <trkpt lat="48.60453" lon="1.97255">
        <ele>115.5</ele>
        <time>2023-09-03T07:44:38Z</time>
      </trkpt>
      <trkpt lat="48.60463" lon="1.97261">
        <ele>115</ele>
        <time>2023-09-03T07:44:40Z</time>
      </trkpt>
      <trkpt lat="48.60471" lon="1.97266">
        <ele>114.4</ele>
        <time>2023-09-03T07:44:42Z</time>
      </trkpt>
      <trkpt lat="48.60481" lon="1.97273">
        <ele>114.2</ele>
        <time>2023-09-03T07:44:44Z</time>
      </trkpt>
      <trkpt lat="48.60493" lon="1.97279">
        <ele>114</ele>
        <time>2023-09-03T07:44:46Z</time>
      </trkpt>
      <trkpt lat="48.60505" lon="1.97283">
        <ele>113.7</ele>
        <time>2023-09-03T07:44:48Z</time>
      </trkpt>
      <trkpt lat="48.60516" lon="1.97289">
        <ele>113.2</ele>
        <time>2023-09-03T07:44:50Z</time>
      </trkpt>
      <trkpt lat="48.60529" lon="1.97292">
        <ele>113</ele>
        <time>2023-09-03T07:44:52Z</time>
      </trkpt>
      <trkpt lat="48.60537" lon="1.973">
        <ele>112.7</ele>
        <time>2023-09-03T07:44:54Z</time>
      </trkpt>
      <trkpt lat="48.60548" lon="1.97305">
        <ele>112.3</ele>
        <time>2023-09-03T07:44:56Z</time>
      </trkpt>
      <trkpt lat="48.60557" lon="1.97315">
        <ele>112</ele>
        <time>2023-09-03T07:44:58Z</time>
      </trkpt>
      <trkpt lat="48.60568" lon="1.97326">
        <ele>112</ele>
        <time>2023-09-03T07:45:00Z</time>
      </trkpt>
      <trkpt lat="48.60576" lon="1.97339">
        <ele>111.8</ele>
        <time>2023-09-03T07:45:02Z</time>
      </trkpt>
      <trkpt lat="48.60584" lon="1.9735">
        <ele>111.4</ele>
        <time>2023-09-03T07:45:04Z</time>
      </trkpt>
      <trkpt lat="48.60593" lon="1.97358">
        <ele>111.1</ele>
        <time>2023-09-03T07:45:06Z</time>
      </trkpt>
      <trkpt lat="48.60601" lon="1.9737">
        <ele>110.8</ele>
        <time>2023-09-03T07:45:08Z</time>
      </trkpt>
      <trkpt lat="48.60609" lon="1.97386">
        <ele>110.2</ele>
        <time>2023-09-03T07:45:10Z</time>
      </trkpt>
      <trkpt lat="48.60617" lon="1.974">
        <ele>109.8</ele>
        <time>2023-09-03T07:45:12Z</time>
      </trkpt>
      <trkpt lat="48.60626" lon="1.97412">
        <ele>109.4</ele>
        <time>2023-09-03T07:45:14Z</time>
      </trkpt>
      <trkpt lat="48.60635" lon="1.97422">
        <ele>109.1</ele>
        <time>2023-09-03T07:45:16Z</time>
      </trkpt>
      <trkpt lat="48.60645" lon="1.97433">
        <ele>108.5</ele>
        <time>2023-09-03T07:45:18Z</time>
      </trkpt>
      <trkpt lat="48.60653" lon="1.97446">
        <ele>108</ele>
        <time>2023-09-03T07:45:20Z</time>
      </trkpt>
      <trkpt lat="48.60664" lon="1.97458">
        <ele>107.2</ele>
        <time>2023-09-03T07:45:22Z</time>
      </trkpt>
      <trkpt lat="48.60674" lon="1.97465">
        <ele>106.7</ele>
        <time>2023-09-03T07:45:23Z</time>
      </trkpt>
      <trkpt lat="48.6069" lon="1.97471">
        <ele>106.2</ele>
        <time>2023-09-03T07:45:26Z</time>
      </trkpt>
      <trkpt lat="48.60704" lon="1.97477">
        <ele>106</ele>
        <time>2023-09-03T07:45:28Z</time>
      </trkpt>
      <trkpt lat="48.60716" lon="1.97475">
        <ele>106</ele>
        <time>2023-09-03T07:45:30Z</time>
      </trkpt>
      <trkpt lat="48.60729" lon="1.97471">
        <ele>105.8</ele>
        <time>2023-09-03T07:45:32Z</time>
      </trkpt>
      <trkpt lat="48.60742" lon="1.97468">
        <ele>105.3</ele>
        <time>2023-09-03T07:45:34Z</time>
      </trkpt>
      <trkpt lat="48.60754" lon="1.97462">
        <ele>105</ele>
        <time>2023-09-03T07:45:36Z</time>
      </trkpt>
      <trkpt lat="48.60764" lon="1.97458">
        <ele>105</ele>
        <time>2023-09-03T07:45:38Z</time>
      </trkpt>
      <trkpt lat="48.6077" lon="1.97447">
        <ele>105</ele>
        <time>2023-09-03T07:45:41Z</time>
      </trkpt>
      <trkpt lat="48.60779" lon="1.97443">
        <ele>105</ele>
        <time>2023-09-03T07:45:47Z</time>
      </trkpt>
      <trkpt lat="48.60788" lon="1.97447">
        <ele>105</ele>
        <time>2023-09-03T07:46:14Z</time>
      </trkpt>
      <trkpt lat="48.60786" lon="1.97432">
        <ele>104.9</ele>
        <time>2023-09-03T07:57:06Z</time>
      </trkpt>
      <trkpt lat="48.60785" lon="1.97417">
        <ele>104.7</ele>
        <time>2023-09-03T07:57:11Z</time>
      </trkpt>
      <trkpt lat="48.60786" lon="1.97402">
        <ele>104.7</ele>
        <time>2023-09-03T07:57:15Z</time>
      </trkpt>
      <trkpt lat="48.60789" lon="1.97389">
        <ele>104.6</ele>
        <time>2023-09-03T07:57:19Z</time>
      </trkpt>
      <trkpt lat="48.60787" lon="1.97372">
        <ele>104.7</ele>
        <time>2023-09-03T07:57:23Z</time>
      </trkpt>
      <trkpt lat="48.60788" lon="1.97356">
        <ele>104.6</ele>
        <time>2023-09-03T07:57:26Z</time>
      </trkpt>
      <trkpt lat="48.60791" lon="1.97341">
        <ele>104.5</ele>
        <time>2023-09-03T07:57:29Z</time>
      </trkpt>
      <trkpt lat="48.60789" lon="1.97327">
        <ele>104.6</ele>
        <time>2023-09-03T07:57:32Z</time>
      </trkpt>
      <trkpt lat="48.60786" lon="1.97312">
        <ele>104.7</ele>
        <time>2023-09-03T07:57:36Z</time>
      </trkpt>
      <trkpt lat="48.6079" lon="1.97297">
        <ele>104.5</ele>
        <time>2023-09-03T07:57:40Z</time>
      </trkpt>
      <trkpt lat="48.60793" lon="1.97284">
        <ele>104.4</ele>
        <time>2023-09-03T07:57:43Z</time>
      </trkpt>
      <trkpt lat="48.60797" lon="1.9727">
        <ele>104.3</ele>
        <time>2023-09-03T07:57:46Z</time>
      </trkpt>
      <trkpt lat="48.60798" lon="1.97256">
        <ele>104.3</ele>
        <time>2023-09-03T07:57:49Z</time>
      </trkpt>
      <trkpt lat="48.60796" lon="1.97239">
        <ele>104.6</ele>
        <time>2023-09-03T07:57:53Z</time>
      </trkpt>
      <trkpt lat="48.60799" lon="1.97223">
        <ele>105</ele>
        <time>2023-09-03T07:57:58Z</time>
      </trkpt>
      <trkpt lat="48.60802" lon="1.97207">
        <ele>105.1</ele>
        <time>2023-09-03T07:58:03Z</time>
      </trkpt>
      <trkpt lat="48.60805" lon="1.97194">
        <ele>105</ele>
        <time>2023-09-03T07:58:06Z</time>
      </trkpt>
      <trkpt lat="48.60807" lon="1.97176">
        <ele>105</ele>
        <time>2023-09-03T07:58:10Z</time>
      </trkpt>
      <trkpt lat="48.60808" lon="1.97159">
        <ele>105.3</ele>
        <time>2023-09-03T07:58:13Z</time>
      </trkpt>
      <trkpt lat="48.60808" lon="1.97142">
        <ele>105.8</ele>
        <time>2023-09-03T07:58:16Z</time>
      </trkpt>
      <trkpt lat="48.60811" lon="1.97127">
        <ele>105.8</ele>
        <time>2023-09-03T07:58:19Z</time>
      </trkpt>
      <trkpt lat="48.60815" lon="1.97112">
        <ele>105.7</ele>
        <time>2023-09-03T07:58:23Z</time>
      </trkpt>
      <trkpt lat="48.60821" lon="1.97101">
        <ele>105.5</ele>
        <time>2023-09-03T07:58:26Z</time>
      </trkpt>
      <trkpt lat="48.60825" lon="1.97088">
        <ele>105.3</ele>
        <time>2023-09-03T07:58:29Z</time>
      </trkpt>
      <trkpt lat="48.60831" lon="1.97076">
        <ele>105.4</ele>
        <time>2023-09-03T07:58:32Z</time>
      </trkpt>
      <trkpt lat="48.60837" lon="1.97062">
        <ele>105.6</ele>
        <time>2023-09-03T07:58:35Z</time>
      </trkpt>
      <trkpt lat="48.60842" lon="1.97049">
        <ele>105.7</ele>
        <time>2023-09-03T07:58:38Z</time>
      </trkpt>
      <trkpt lat="48.6085" lon="1.97037">
        <ele>105.4</ele>
        <time>2023-09-03T07:58:42Z</time>
      </trkpt>
      <trkpt lat="48.60856" lon="1.97023">
        <ele>105.3</ele>
        <time>2023-09-03T07:58:46Z</time>
      </trkpt>
      <trkpt lat="48.60858" lon="1.97008">
        <ele>105.8</ele>
        <time>2023-09-03T07:58:49Z</time>
      </trkpt>
      <trkpt lat="48.6086" lon="1.96991">
        <ele>106.1</ele>
        <time>2023-09-03T07:58:52Z</time>
      </trkpt>
      <trkpt lat="48.60863" lon="1.96975">
        <ele>105.9</ele>
        <time>2023-09-03T07:58:55Z</time>
      </trkpt>
      <trkpt lat="48.60865" lon="1.96959">
        <ele>105.9</ele>
        <time>2023-09-03T07:58:58Z</time>
      </trkpt>
      <trkpt lat="48.6086" lon="1.96942">
        <ele>106.1</ele>
        <time>2023-09-03T07:59:01Z</time>
      </trkpt>
      <trkpt lat="48.60853" lon="1.96934">
        <ele>106.7</ele>
        <time>2023-09-03T07:59:03Z</time>
      </trkpt>
      <trkpt lat="48.60843" lon="1.96924">
        <ele>107.4</ele>
        <time>2023-09-03T07:59:05Z</time>
      </trkpt>
      <trkpt lat="48.60834" lon="1.96915">
        <ele>108</ele>
        <time>2023-09-03T07:59:08Z</time>
      </trkpt>
      <trkpt lat="48.60827" lon="1.96907">
        <ele>108.2</ele>
        <time>2023-09-03T07:59:11Z</time>
      </trkpt>
      <trkpt lat="48.60819" lon="1.96899">
        <ele>108.5</ele>
        <time>2023-09-03T07:59:14Z</time>
      </trkpt>
      <trkpt lat="48.6081" lon="1.96891">
        <ele>108.8</ele>
        <time>2023-09-03T07:59:17Z</time>
      </trkpt>
      <trkpt lat="48.60801" lon="1.96882">
        <ele>109.2</ele>
        <time>2023-09-03T07:59:20Z</time>
      </trkpt>
      <trkpt lat="48.60792" lon="1.96873">
        <ele>109.8</ele>
        <time>2023-09-03T07:59:24Z</time>
      </trkpt>
      <trkpt lat="48.60783" lon="1.96861">
        <ele>110.6</ele>
        <time>2023-09-03T07:59:28Z</time>
      </trkpt>
      <trkpt lat="48.60774" lon="1.96851">
        <ele>111.1</ele>
        <time>2023-09-03T07:59:32Z</time>
      </trkpt>
      <trkpt lat="48.60766" lon="1.96843">
        <ele>111.4</ele>
        <time>2023-09-03T07:59:35Z</time>
      </trkpt>
      <trkpt lat="48.60758" lon="1.96835">
        <ele>111.7</ele>
        <time>2023-09-03T07:59:38Z</time>
      </trkpt>
      <trkpt lat="48.60747" lon="1.96825">
        <ele>112.1</ele>
        <time>2023-09-03T07:59:42Z</time>
      </trkpt>
      <trkpt lat="48.60739" lon="1.96817">
        <ele>112.6</ele>
        <time>2023-09-03T07:59:45Z</time>
      </trkpt>
      <trkpt lat="48.6073" lon="1.96808">
        <ele>113.3</ele>
        <time>2023-09-03T07:59:49Z</time>
      </trkpt>
      <trkpt lat="48.60723" lon="1.968">
        <ele>113.9</ele>
        <time>2023-09-03T07:59:52Z</time>
      </trkpt>
      <trkpt lat="48.60713" lon="1.9679">
        <ele>114.3</ele>
        <time>2023-09-03T07:59:55Z</time>
      </trkpt>
      <trkpt lat="48.60705" lon="1.96782">
        <ele>114.6</ele>
        <time>2023-09-03T07:59:57Z</time>
      </trkpt>
      <trkpt lat="48.60696" lon="1.96774">
        <ele>114.9</ele>
        <time>2023-09-03T08:00:00Z</time>
      </trkpt>
      <trkpt lat="48.60689" lon="1.96765">
        <ele>115.4</ele>
        <time>2023-09-03T08:00:03Z</time>
      </trkpt>
      <trkpt lat="48.60681" lon="1.96757">
        <ele>116</ele>
        <time>2023-09-03T08:00:06Z</time>
      </trkpt>
      <trkpt lat="48.60671" lon="1.96747">
        <ele>116.7</ele>
        <time>2023-09-03T08:00:10Z</time>
      </trkpt>
      <trkpt lat="48.60662" lon="1.96736">
        <ele>117.3</ele>
        <time>2023-09-03T08:00:14Z</time>
      </trkpt>
      <trkpt lat="48.60653" lon="1.96726">
        <ele>118</ele>
        <time>2023-09-03T08:00:18Z</time>
      </trkpt>
      <trkpt lat="48.60644" lon="1.96718">
        <ele>118.6</ele>
        <time>2023-09-03T08:00:22Z</time>
      </trkpt>
      <trkpt lat="48.60637" lon="1.9671">
        <ele>119.2</ele>
        <time>2023-09-03T08:00:26Z</time>
      </trkpt>
      <trkpt lat="48.60627" lon="1.96702">
        <ele>119.8</ele>
        <time>2023-09-03T08:00:31Z</time>
      </trkpt>
      <trkpt lat="48.60618" lon="1.96691">
        <ele>120.5</ele>
        <time>2023-09-03T08:00:36Z</time>
      </trkpt>
      <trkpt lat="48.6061" lon="1.96683">
        <ele>121.1</ele>
        <time>2023-09-03T08:00:40Z</time>
      </trkpt>
      <trkpt lat="48.60601" lon="1.96675">
        <ele>121.7</ele>
        <time>2023-09-03T08:00:45Z</time>
      </trkpt>
      <trkpt lat="48.60593" lon="1.96666">
        <ele>122.3</ele>
        <time>2023-09-03T08:00:49Z</time>
      </trkpt>
      <trkpt lat="48.60585" lon="1.96659">
        <ele>123.1</ele>
        <time>2023-09-03T08:00:53Z</time>
      </trkpt>
      <trkpt lat="48.60576" lon="1.9665">
        <ele>124.4</ele>
        <time>2023-09-03T08:00:57Z</time>
      </trkpt>
      <trkpt lat="48.60569" lon="1.96641">
        <ele>125.5</ele>
        <time>2023-09-03T08:01:01Z</time>
      </trkpt>
      <trkpt lat="48.60561" lon="1.96633">
        <ele>126.6</ele>
        <time>2023-09-03T08:01:07Z</time>
      </trkpt>
      <trkpt lat="48.60553" lon="1.96625">
        <ele>127.9</ele>
        <time>2023-09-03T08:01:13Z</time>
      </trkpt>
      <trkpt lat="48.60544" lon="1.96617">
        <ele>129.7</ele>
        <time>2023-09-03T08:01:21Z</time>
      </trkpt>
      <trkpt lat="48.60535" lon="1.9661">
        <ele>131.7</ele>
        <time>2023-09-03T08:01:28Z</time>
      </trkpt>
      <trkpt lat="48.60527" lon="1.96602">
        <ele>133.4</ele>
        <time>2023-09-03T08:01:35Z</time>
      </trkpt>
      <trkpt lat="48.60519" lon="1.96594">
        <ele>134.8</ele>
        <time>2023-09-03T08:01:43Z</time>
      </trkpt>
      <trkpt lat="48.6051" lon="1.96586">
        <ele>136.3</ele>
        <time>2023-09-03T08:01:51Z</time>
      </trkpt>
      <trkpt lat="48.60507" lon="1.96573">
        <ele>137</ele>
        <time>2023-09-03T08:02:00Z</time>
      </trkpt>
      <trkpt lat="48.60514" lon="1.96562">
        <ele>136.4</ele>
        <time>2023-09-03T08:02:04Z</time>
      </trkpt>
      <trkpt lat="48.60521" lon="1.96546">
        <ele>136.1</ele>
        <time>2023-09-03T08:02:07Z</time>
      </trkpt>
      <trkpt lat="48.60526" lon="1.96523">
        <ele>136.3</ele>
        <time>2023-09-03T08:02:10Z</time>
      </trkpt>
      <trkpt lat="48.60532" lon="1.96507">
        <ele>136.2</ele>
        <time>2023-09-03T08:02:13Z</time>
      </trkpt>
      <trkpt lat="48.60542" lon="1.96491">
        <ele>135.8</ele>
        <time>2023-09-03T08:02:16Z</time>
      </trkpt>
      <trkpt lat="48.60548" lon="1.96474">
        <ele>135.8</ele>
        <time>2023-09-03T08:02:19Z</time>
      </trkpt>
      <trkpt lat="48.60552" lon="1.96461">
        <ele>135.5</ele>
        <time>2023-09-03T08:02:21Z</time>
      </trkpt>
      <trkpt lat="48.60559" lon="1.96449">
        <ele>134.4</ele>
        <time>2023-09-03T08:02:23Z</time>
      </trkpt>
      <trkpt lat="48.60566" lon="1.9644">
        <ele>133</ele>
        <time>2023-09-03T08:02:25Z</time>
      </trkpt>
      <trkpt lat="48.60571" lon="1.96425">
        <ele>132</ele>
        <time>2023-09-03T08:02:27Z</time>
      </trkpt>
      <trkpt lat="48.60575" lon="1.96413">
        <ele>131</ele>
        <time>2023-09-03T08:02:29Z</time>
      </trkpt>
      <trkpt lat="48.60577" lon="1.96398">
        <ele>130.2</ele>
        <time>2023-09-03T08:02:34Z</time>
      </trkpt>
      <trkpt lat="48.60577" lon="1.96383">
        <ele>129.7</ele>
        <time>2023-09-03T08:02:40Z</time>
      </trkpt>
      <trkpt lat="48.60585" lon="1.96373">
        <ele>128.3</ele>
        <time>2023-09-03T08:02:43Z</time>
      </trkpt>
      <trkpt lat="48.60593" lon="1.96365">
        <ele>127.3</ele>
        <time>2023-09-03T08:02:47Z</time>
      </trkpt>
      <trkpt lat="48.60599" lon="1.96352">
        <ele>126.9</ele>
        <time>2023-09-03T08:02:50Z</time>
      </trkpt>
      <trkpt lat="48.60606" lon="1.96338">
        <ele>126.4</ele>
        <time>2023-09-03T08:02:53Z</time>
      </trkpt>
      <trkpt lat="48.60612" lon="1.96324">
        <ele>126.3</ele>
        <time>2023-09-03T08:02:56Z</time>
      </trkpt>
      <trkpt lat="48.6062" lon="1.96309">
        <ele>125.9</ele>
        <time>2023-09-03T08:02:59Z</time>
      </trkpt>
      <trkpt lat="48.60627" lon="1.96295">
        <ele>125.3</ele>
        <time>2023-09-03T08:03:01Z</time>
      </trkpt>
      <trkpt lat="48.60635" lon="1.9628">
        <ele>124.5</ele>
        <time>2023-09-03T08:03:03Z</time>
      </trkpt>
      <trkpt lat="48.60641" lon="1.96264">
        <ele>123.8</ele>
        <time>2023-09-03T08:03:05Z</time>
      </trkpt>
      <trkpt lat="48.60649" lon="1.96248">
        <ele>123.3</ele>
        <time>2023-09-03T08:03:07Z</time>
      </trkpt>
      <trkpt lat="48.60656" lon="1.96233">
        <ele>123</ele>
        <time>2023-09-03T08:03:09Z</time>
      </trkpt>
      <trkpt lat="48.60663" lon="1.96217">
        <ele>122.4</ele>
        <time>2023-09-03T08:03:11Z</time>
      </trkpt>
      <trkpt lat="48.6067" lon="1.96203">
        <ele>121.8</ele>
        <time>2023-09-03T08:03:13Z</time>
      </trkpt>
      <trkpt lat="48.60678" lon="1.96188">
        <ele>121</ele>
        <time>2023-09-03T08:03:16Z</time>
      </trkpt>
      <trkpt lat="48.60683" lon="1.96175">
        <ele>120.1</ele>
        <time>2023-09-03T08:03:19Z</time>
      </trkpt>
      <trkpt lat="48.60689" lon="1.96165">
        <ele>119.3</ele>
        <time>2023-09-03T08:03:22Z</time>
      </trkpt>
      <trkpt lat="48.60694" lon="1.96153">
        <ele>118.1</ele>
        <time>2023-09-03T08:03:24Z</time>
      </trkpt>
      <trkpt lat="48.60699" lon="1.9614">
        <ele>117.1</ele>
        <time>2023-09-03T08:03:26Z</time>
      </trkpt>
      <trkpt lat="48.60705" lon="1.96126">
        <ele>116.4</ele>
        <time>2023-09-03T08:03:28Z</time>
      </trkpt>
      <trkpt lat="48.60712" lon="1.9611">
        <ele>115.3</ele>
        <time>2023-09-03T08:03:30Z</time>
      </trkpt>
      <trkpt lat="48.60718" lon="1.96093">
        <ele>113.9</ele>
        <time>2023-09-03T08:03:32Z</time>
      </trkpt>
      <trkpt lat="48.60717" lon="1.96072">
        <ele>112.7</ele>
        <time>2023-09-03T08:03:34Z</time>
      </trkpt>
      <trkpt lat="48.60717" lon="1.96052">
        <ele>111.8</ele>
        <time>2023-09-03T08:03:36Z</time>
      </trkpt>
      <trkpt lat="48.60717" lon="1.96035">
        <ele>110.5</ele>
        <time>2023-09-03T08:03:38Z</time>
      </trkpt>
      <trkpt lat="48.60715" lon="1.96019">
        <ele>109.7</ele>
        <time>2023-09-03T08:03:40Z</time>
      </trkpt>
      <trkpt lat="48.60713" lon="1.96001">
        <ele>109</ele>
        <time>2023-09-03T08:03:42Z</time>
      </trkpt>
      <trkpt lat="48.60708" lon="1.95984">
        <ele>108.1</ele>
        <time>2023-09-03T08:03:44Z</time>
      </trkpt>
      <trkpt lat="48.60698" lon="1.95975">
        <ele>107.3</ele>
        <time>2023-09-03T08:03:46Z</time>
      </trkpt>
      <trkpt lat="48.60689" lon="1.95965">
        <ele>107</ele>
        <time>2023-09-03T08:03:48Z</time>
      </trkpt>
      <trkpt lat="48.6068" lon="1.95954">
        <ele>107</ele>
        <time>2023-09-03T08:03:50Z</time>
      </trkpt>
      <trkpt lat="48.60672" lon="1.95943">
        <ele>107</ele>
        <time>2023-09-03T08:03:52Z</time>
      </trkpt>
      <trkpt lat="48.60662" lon="1.95928">
        <ele>107</ele>
        <time>2023-09-03T08:03:54Z</time>
      </trkpt>
      <trkpt lat="48.60654" lon="1.9592">
        <ele>107</ele>
        <time>2023-09-03T08:03:56Z</time>
      </trkpt>
      <trkpt lat="48.60646" lon="1.95912">
        <ele>107</ele>
        <time>2023-09-03T08:03:58Z</time>
      </trkpt>
      <trkpt lat="48.60637" lon="1.95904">
        <ele>107</ele>
        <time>2023-09-03T08:04:00Z</time>
      </trkpt>
      <trkpt lat="48.60627" lon="1.95895">
        <ele>107</ele>
        <time>2023-09-03T08:04:02Z</time>
      </trkpt>
      <trkpt lat="48.60618" lon="1.9588">
        <ele>107.2</ele>
        <time>2023-09-03T08:04:04Z</time>
      </trkpt>
      <trkpt lat="48.60608" lon="1.9587">
        <ele>107.7</ele>
        <time>2023-09-03T08:04:06Z</time>
      </trkpt>
      <trkpt lat="48.60597" lon="1.9586">
        <ele>108</ele>
        <time>2023-09-03T08:04:08Z</time>
      </trkpt>
      <trkpt lat="48.60587" lon="1.9585">
        <ele>108</ele>
        <time>2023-09-03T08:04:10Z</time>
      </trkpt>
      <trkpt lat="48.60577" lon="1.95835">
        <ele>108</ele>
        <time>2023-09-03T08:04:13Z</time>
      </trkpt>
      <trkpt lat="48.60568" lon="1.95825">
        <ele>108</ele>
        <time>2023-09-03T08:04:15Z</time>
      </trkpt>
      <trkpt lat="48.60558" lon="1.95814">
        <ele>108</ele>
        <time>2023-09-03T08:04:17Z</time>
      </trkpt>
      <trkpt lat="48.60546" lon="1.95803">
        <ele>108</ele>
        <time>2023-09-03T08:04:19Z</time>
      </trkpt>
      <trkpt lat="48.60537" lon="1.95794">
        <ele>108</ele>
        <time>2023-09-03T08:04:20Z</time>
      </trkpt>
      <trkpt lat="48.60527" lon="1.95781">
        <ele>108</ele>
        <time>2023-09-03T08:04:22Z</time>
      </trkpt>
      <trkpt lat="48.60519" lon="1.95774">
        <ele>108</ele>
        <time>2023-09-03T08:04:24Z</time>
      </trkpt>
      <trkpt lat="48.6051" lon="1.95764">
        <ele>108</ele>
        <time>2023-09-03T08:04:26Z</time>
      </trkpt>
      <trkpt lat="48.605" lon="1.9575">
        <ele>108</ele>
        <time>2023-09-03T08:04:29Z</time>
      </trkpt>
      <trkpt lat="48.60491" lon="1.95741">
        <ele>108</ele>
        <time>2023-09-03T08:04:31Z</time>
      </trkpt>
      <trkpt lat="48.60481" lon="1.95733">
        <ele>108</ele>
        <time>2023-09-03T08:04:33Z</time>
      </trkpt>
      <trkpt lat="48.60472" lon="1.95725">
        <ele>108</ele>
        <time>2023-09-03T08:04:35Z</time>
      </trkpt>
      <trkpt lat="48.60464" lon="1.95716">
        <ele>108.5</ele>
        <time>2023-09-03T08:04:37Z</time>
      </trkpt>
      <trkpt lat="48.60456" lon="1.95706">
        <ele>108.8</ele>
        <time>2023-09-03T08:04:39Z</time>
      </trkpt>
      <trkpt lat="48.60448" lon="1.95697">
        <ele>109</ele>
        <time>2023-09-03T08:04:41Z</time>
      </trkpt>
      <trkpt lat="48.60439" lon="1.95683">
        <ele>109.1</ele>
        <time>2023-09-03T08:04:43Z</time>
      </trkpt>
      <trkpt lat="48.60428" lon="1.95669">
        <ele>109.6</ele>
        <time>2023-09-03T08:04:46Z</time>
      </trkpt>
      <trkpt lat="48.60417" lon="1.9566">
        <ele>110</ele>
        <time>2023-09-03T08:04:49Z</time>
      </trkpt>
      <trkpt lat="48.60409" lon="1.95651">
        <ele>110</ele>
        <time>2023-09-03T08:04:51Z</time>
      </trkpt>
      <trkpt lat="48.604" lon="1.95641">
        <ele>110</ele>
        <time>2023-09-03T08:04:53Z</time>
      </trkpt>
      <trkpt lat="48.60392" lon="1.95632">
        <ele>110</ele>
        <time>2023-09-03T08:04:55Z</time>
      </trkpt>
      <trkpt lat="48.60383" lon="1.95622">
        <ele>110</ele>
        <time>2023-09-03T08:04:57Z</time>
      </trkpt>
      <trkpt lat="48.60375" lon="1.95612">
        <ele>110</ele>
        <time>2023-09-03T08:04:59Z</time>
      </trkpt>
      <trkpt lat="48.60371" lon="1.95595">
        <ele>110</ele>
        <time>2023-09-03T08:05:02Z</time>
      </trkpt>
      <trkpt lat="48.60376" lon="1.95583">
        <ele>110</ele>
        <time>2023-09-03T08:05:04Z</time>
      </trkpt>
      <trkpt lat="48.60382" lon="1.9557">
        <ele>110</ele>
        <time>2023-09-03T08:05:06Z</time>
      </trkpt>
      <trkpt lat="48.60388" lon="1.95559">
        <ele>110</ele>
        <time>2023-09-03T08:05:08Z</time>
      </trkpt>
      <trkpt lat="48.60394" lon="1.95549">
        <ele>110</ele>
        <time>2023-09-03T08:05:10Z</time>
      </trkpt>
      <trkpt lat="48.60402" lon="1.9554">
        <ele>110</ele>
        <time>2023-09-03T08:05:13Z</time>
      </trkpt>
      <trkpt lat="48.60409" lon="1.95525">
        <ele>110</ele>
        <time>2023-09-03T08:05:16Z</time>
      </trkpt>
      <trkpt lat="48.60419" lon="1.95502">
        <ele>110</ele>
        <time>2023-09-03T08:05:18Z</time>
      </trkpt>
      <trkpt lat="48.60424" lon="1.95489">
        <ele>110</ele>
        <time>2023-09-03T08:05:20Z</time>
      </trkpt>
      <trkpt lat="48.60429" lon="1.95477">
        <ele>110</ele>
        <time>2023-09-03T08:05:22Z</time>
      </trkpt>
      <trkpt lat="48.60439" lon="1.95462">
        <ele>110</ele>
        <time>2023-09-03T08:05:25Z</time>
      </trkpt>
      <trkpt lat="48.60444" lon="1.95449">
        <ele>110</ele>
        <time>2023-09-03T08:05:27Z</time>
      </trkpt>
      <trkpt lat="48.6045" lon="1.95438">
        <ele>110.2</ele>
        <time>2023-09-03T08:05:29Z</time>
      </trkpt>
      <trkpt lat="48.60456" lon="1.95427">
        <ele>110.4</ele>
        <time>2023-09-03T08:05:31Z</time>
      </trkpt>
      <trkpt lat="48.60462" lon="1.95417">
        <ele>110.4</ele>
        <time>2023-09-03T08:05:33Z</time>
      </trkpt>
      <trkpt lat="48.6047" lon="1.95401">
        <ele>110.1</ele>
        <time>2023-09-03T08:05:36Z</time>
      </trkpt>
      <trkpt lat="48.60474" lon="1.95384">
        <ele>110.2</ele>
        <time>2023-09-03T08:05:39Z</time>
      </trkpt>
      <trkpt lat="48.60483" lon="1.95367">
        <ele>110.5</ele>
        <time>2023-09-03T08:05:42Z</time>
      </trkpt>
      <trkpt lat="48.60489" lon="1.95353">
        <ele>110.4</ele>
        <time>2023-09-03T08:05:44Z</time>
      </trkpt>
      <trkpt lat="48.60496" lon="1.95341">
        <ele>110.1</ele>
        <time>2023-09-03T08:05:46Z</time>
      </trkpt>
      <trkpt lat="48.60503" lon="1.9533">
        <ele>110.1</ele>
        <time>2023-09-03T08:05:48Z</time>
      </trkpt>
      <trkpt lat="48.6051" lon="1.9532">
        <ele>110.5</ele>
        <time>2023-09-03T08:05:50Z</time>
      </trkpt>
      <trkpt lat="48.60518" lon="1.95304">
        <ele>111</ele>
        <time>2023-09-03T08:05:53Z</time>
      </trkpt>
      <trkpt lat="48.60524" lon="1.9529">
        <ele>111</ele>
        <time>2023-09-03T08:05:55Z</time>
      </trkpt>
      <trkpt lat="48.60529" lon="1.95277">
        <ele>111</ele>
        <time>2023-09-03T08:05:57Z</time>
      </trkpt>
      <trkpt lat="48.60536" lon="1.95264">
        <ele>111</ele>
        <time>2023-09-03T08:05:59Z</time>
      </trkpt>
      <trkpt lat="48.60542" lon="1.95253">
        <ele>111</ele>
        <time>2023-09-03T08:06:01Z</time>
      </trkpt>
      <trkpt lat="48.60549" lon="1.9524">
        <ele>111</ele>
        <time>2023-09-03T08:06:04Z</time>
      </trkpt>
      <trkpt lat="48.60558" lon="1.95224">
        <ele>111</ele>
        <time>2023-09-03T08:06:07Z</time>
      </trkpt>
      <trkpt lat="48.60564" lon="1.95212">
        <ele>111</ele>
        <time>2023-09-03T08:06:09Z</time>
      </trkpt>
      <trkpt lat="48.60572" lon="1.95197">
        <ele>111</ele>
        <time>2023-09-03T08:06:12Z</time>
      </trkpt>
      <trkpt lat="48.60577" lon="1.95185">
        <ele>111</ele>
        <time>2023-09-03T08:06:14Z</time>
      </trkpt>
      <trkpt lat="48.60582" lon="1.95172">
        <ele>111</ele>
        <time>2023-09-03T08:06:16Z</time>
      </trkpt>
      <trkpt lat="48.60587" lon="1.95159">
        <ele>111</ele>
        <time>2023-09-03T08:06:18Z</time>
      </trkpt>
      <trkpt lat="48.60594" lon="1.95143">
        <ele>111</ele>
        <time>2023-09-03T08:06:20Z</time>
      </trkpt>
      <trkpt lat="48.606" lon="1.95131">
        <ele>111</ele>
        <time>2023-09-03T08:06:22Z</time>
      </trkpt>
      <trkpt lat="48.6061" lon="1.95115">
        <ele>111</ele>
        <time>2023-09-03T08:06:25Z</time>
      </trkpt>
      <trkpt lat="48.60619" lon="1.951">
        <ele>111</ele>
        <time>2023-09-03T08:06:27Z</time>
      </trkpt>
      <trkpt lat="48.60628" lon="1.95084">
        <ele>111</ele>
        <time>2023-09-03T08:06:29Z</time>
      </trkpt>
      <trkpt lat="48.60635" lon="1.95068">
        <ele>111</ele>
        <time>2023-09-03T08:06:31Z</time>
      </trkpt>
      <trkpt lat="48.60642" lon="1.95052">
        <ele>111</ele>
        <time>2023-09-03T08:06:33Z</time>
      </trkpt>
      <trkpt lat="48.60649" lon="1.95033">
        <ele>111</ele>
        <time>2023-09-03T08:06:35Z</time>
      </trkpt>
      <trkpt lat="48.60657" lon="1.95015">
        <ele>111</ele>
        <time>2023-09-03T08:06:37Z</time>
      </trkpt>
      <trkpt lat="48.60662" lon="1.94999">
        <ele>111</ele>
        <time>2023-09-03T08:06:38Z</time>
      </trkpt>
      <trkpt lat="48.60666" lon="1.94978">
        <ele>111</ele>
        <time>2023-09-03T08:06:39Z</time>
      </trkpt>
      <trkpt lat="48.60673" lon="1.94967">
        <ele>111</ele>
        <time>2023-09-03T08:06:41Z</time>
      </trkpt>
      <trkpt lat="48.60681" lon="1.94961">
        <ele>111</ele>
        <time>2023-09-03T08:06:44Z</time>
      </trkpt>
      <trkpt lat="48.60689" lon="1.94951">
        <ele>111</ele>
        <time>2023-09-03T08:06:48Z</time>
      </trkpt>
      <trkpt lat="48.60691" lon="1.94934">
        <ele>111.4</ele>
        <time>2023-09-03T08:06:52Z</time>
      </trkpt>
      <trkpt lat="48.60693" lon="1.9492">
        <ele>111.9</ele>
        <time>2023-09-03T08:06:55Z</time>
      </trkpt>
      <trkpt lat="48.60704" lon="1.94909">
        <ele>112</ele>
        <time>2023-09-03T08:06:58Z</time>
      </trkpt>
      <trkpt lat="48.60713" lon="1.94895">
        <ele>112</ele>
        <time>2023-09-03T08:07:01Z</time>
      </trkpt>
      <trkpt lat="48.60721" lon="1.9488">
        <ele>112.3</ele>
        <time>2023-09-03T08:07:04Z</time>
      </trkpt>
      <trkpt lat="48.60729" lon="1.94868">
        <ele>112.6</ele>
        <time>2023-09-03T08:07:07Z</time>
      </trkpt>
      <trkpt lat="48.60736" lon="1.94849">
        <ele>112.7</ele>
        <time>2023-09-03T08:07:10Z</time>
      </trkpt>
      <trkpt lat="48.6074" lon="1.94835">
        <ele>113</ele>
        <time>2023-09-03T08:07:12Z</time>
      </trkpt>
      <trkpt lat="48.60746" lon="1.94822">
        <ele>113</ele>
        <time>2023-09-03T08:07:14Z</time>
      </trkpt>
      <trkpt lat="48.60752" lon="1.94811">
        <ele>112.9</ele>
        <time>2023-09-03T08:07:16Z</time>
      </trkpt>
      <trkpt lat="48.60758" lon="1.948">
        <ele>112.7</ele>
        <time>2023-09-03T08:07:18Z</time>
      </trkpt>
      <trkpt lat="48.60764" lon="1.94787">
        <ele>112.5</ele>
        <time>2023-09-03T08:07:20Z</time>
      </trkpt>
      <trkpt lat="48.60768" lon="1.94775">
        <ele>112.3</ele>
        <time>2023-09-03T08:07:22Z</time>
      </trkpt>
      <trkpt lat="48.60774" lon="1.94763">
        <ele>112.1</ele>
        <time>2023-09-03T08:07:24Z</time>
      </trkpt>
      <trkpt lat="48.6078" lon="1.94752">
        <ele>112</ele>
        <time>2023-09-03T08:07:26Z</time>
      </trkpt>
      <trkpt lat="48.60785" lon="1.94739">
        <ele>112.4</ele>
        <time>2023-09-03T08:07:28Z</time>
      </trkpt>
      <trkpt lat="48.60791" lon="1.94727">
        <ele>112.8</ele>
        <time>2023-09-03T08:07:30Z</time>
      </trkpt>
      <trkpt lat="48.60797" lon="1.94715">
        <ele>113.2</ele>
        <time>2023-09-03T08:07:32Z</time>
      </trkpt>
      <trkpt lat="48.60804" lon="1.94702">
        <ele>113.7</ele>
        <time>2023-09-03T08:07:34Z</time>
      </trkpt>
      <trkpt lat="48.60812" lon="1.94687">
        <ele>113.8</ele>
        <time>2023-09-03T08:07:37Z</time>
      </trkpt>
      <trkpt lat="48.60818" lon="1.94675">
        <ele>113.9</ele>
        <time>2023-09-03T08:07:39Z</time>
      </trkpt>
      <trkpt lat="48.60825" lon="1.9466">
        <ele>114.2</ele>
        <time>2023-09-03T08:07:42Z</time>
      </trkpt>
      <trkpt lat="48.60834" lon="1.94644">
        <ele>114.8</ele>
        <time>2023-09-03T08:07:45Z</time>
      </trkpt>
      <trkpt lat="48.6084" lon="1.94628">
        <ele>115</ele>
        <time>2023-09-03T08:07:48Z</time>
      </trkpt>
      <trkpt lat="48.60849" lon="1.94614">
        <ele>115</ele>
        <time>2023-09-03T08:07:51Z</time>
      </trkpt>
      <trkpt lat="48.60856" lon="1.94601">
        <ele>115.4</ele>
        <time>2023-09-03T08:07:54Z</time>
      </trkpt>
      <trkpt lat="48.60864" lon="1.94587">
        <ele>115.9</ele>
        <time>2023-09-03T08:07:57Z</time>
      </trkpt>
      <trkpt lat="48.60871" lon="1.94577">
        <ele>116</ele>
        <time>2023-09-03T08:08:00Z</time>
      </trkpt>
      <trkpt lat="48.60876" lon="1.94564">
        <ele>116</ele>
        <time>2023-09-03T08:08:03Z</time>
      </trkpt>
      <trkpt lat="48.60882" lon="1.94553">
        <ele>116</ele>
        <time>2023-09-03T08:08:05Z</time>
      </trkpt>
      <trkpt lat="48.60888" lon="1.9454">
        <ele>116</ele>
        <time>2023-09-03T08:08:07Z</time>
      </trkpt>
      <trkpt lat="48.60895" lon="1.94528">
        <ele>115.8</ele>
        <time>2023-09-03T08:08:09Z</time>
      </trkpt>
      <trkpt lat="48.60901" lon="1.94512">
        <ele>115.5</ele>
        <time>2023-09-03T08:08:10Z</time>
      </trkpt>
      <trkpt lat="48.60906" lon="1.94501">
        <ele>115.4</ele>
        <time>2023-09-03T08:08:12Z</time>
      </trkpt>
      <trkpt lat="48.60911" lon="1.94489">
        <ele>115.5</ele>
        <time>2023-09-03T08:08:14Z</time>
      </trkpt>
      <trkpt lat="48.6092" lon="1.94472">
        <ele>116</ele>
        <time>2023-09-03T08:08:17Z</time>
      </trkpt>
      <trkpt lat="48.60928" lon="1.94455">
        <ele>116.2</ele>
        <time>2023-09-03T08:08:20Z</time>
      </trkpt>
      <trkpt lat="48.60936" lon="1.94435">
        <ele>116.8</ele>
        <time>2023-09-03T08:08:22Z</time>
      </trkpt>
      <trkpt lat="48.60942" lon="1.94421">
        <ele>117</ele>
        <time>2023-09-03T08:08:24Z</time>
      </trkpt>
      <trkpt lat="48.60947" lon="1.94408">
        <ele>117</ele>
        <time>2023-09-03T08:08:26Z</time>
      </trkpt>
      <trkpt lat="48.60952" lon="1.94395">
        <ele>117</ele>
        <time>2023-09-03T08:08:28Z</time>
      </trkpt>
      <trkpt lat="48.6096" lon="1.9438">
        <ele>117</ele>
        <time>2023-09-03T08:08:31Z</time>
      </trkpt>
      <trkpt lat="48.60965" lon="1.94366">
        <ele>117</ele>
        <time>2023-09-03T08:08:33Z</time>
      </trkpt>
      <trkpt lat="48.60972" lon="1.94353">
        <ele>117</ele>
        <time>2023-09-03T08:08:35Z</time>
      </trkpt>
      <trkpt lat="48.60978" lon="1.9434">
        <ele>117</ele>
        <time>2023-09-03T08:08:37Z</time>
      </trkpt>
      <trkpt lat="48.60984" lon="1.94329">
        <ele>117.1</ele>
        <time>2023-09-03T08:08:39Z</time>
      </trkpt>
      <trkpt lat="48.6099" lon="1.94315">
        <ele>117.2</ele>
        <time>2023-09-03T08:08:41Z</time>
      </trkpt>
      <trkpt lat="48.60997" lon="1.94306">
        <ele>117.1</ele>
        <time>2023-09-03T08:08:43Z</time>
      </trkpt>
      <trkpt lat="48.61005" lon="1.94291">
        <ele>117</ele>
        <time>2023-09-03T08:08:46Z</time>
      </trkpt>
      <trkpt lat="48.61013" lon="1.94277">
        <ele>117</ele>
        <time>2023-09-03T08:08:49Z</time>
      </trkpt>
      <trkpt lat="48.61019" lon="1.94263">
        <ele>117.2</ele>
        <time>2023-09-03T08:08:51Z</time>
      </trkpt>
      <trkpt lat="48.61026" lon="1.9425">
        <ele>117.1</ele>
        <time>2023-09-03T08:08:53Z</time>
      </trkpt>
      <trkpt lat="48.61031" lon="1.94238">
        <ele>117</ele>
        <time>2023-09-03T08:08:55Z</time>
      </trkpt>
      <trkpt lat="48.61038" lon="1.94222">
        <ele>117</ele>
        <time>2023-09-03T08:08:58Z</time>
      </trkpt>
      <trkpt lat="48.61043" lon="1.94209">
        <ele>117.2</ele>
        <time>2023-09-03T08:09:00Z</time>
      </trkpt>
      <trkpt lat="48.61049" lon="1.94195">
        <ele>117.2</ele>
        <time>2023-09-03T08:09:02Z</time>
      </trkpt>
      <trkpt lat="48.61058" lon="1.94183">
        <ele>117.5</ele>
        <time>2023-09-03T08:09:05Z</time>
      </trkpt>
      <trkpt lat="48.61064" lon="1.94169">
        <ele>117.9</ele>
        <time>2023-09-03T08:09:08Z</time>
      </trkpt>
      <trkpt lat="48.61072" lon="1.94157">
        <ele>118.2</ele>
        <time>2023-09-03T08:09:11Z</time>
      </trkpt>
      <trkpt lat="48.61079" lon="1.94145">
        <ele>118.7</ele>
        <time>2023-09-03T08:09:14Z</time>
      </trkpt>
      <trkpt lat="48.61088" lon="1.94129">
        <ele>119.2</ele>
        <time>2023-09-03T08:09:17Z</time>
      </trkpt>
      <trkpt lat="48.61094" lon="1.94118">
        <ele>119.4</ele>
        <time>2023-09-03T08:09:19Z</time>
      </trkpt>
      <trkpt lat="48.61099" lon="1.94106">
        <ele>119.6</ele>
        <time>2023-09-03T08:09:21Z</time>
      </trkpt>
      <trkpt lat="48.61104" lon="1.94089">
        <ele>119.8</ele>
        <time>2023-09-03T08:09:23Z</time>
      </trkpt>
      <trkpt lat="48.6111" lon="1.94077">
        <ele>120</ele>
        <time>2023-09-03T08:09:25Z</time>
      </trkpt>
      <trkpt lat="48.61117" lon="1.94061">
        <ele>120.2</ele>
        <time>2023-09-03T08:09:28Z</time>
      </trkpt>
      <trkpt lat="48.61123" lon="1.94047">
        <ele>120.4</ele>
        <time>2023-09-03T08:09:31Z</time>
      </trkpt>
      <trkpt lat="48.61129" lon="1.94033">
        <ele>120.7</ele>
        <time>2023-09-03T08:09:34Z</time>
      </trkpt>
      <trkpt lat="48.61136" lon="1.94018">
        <ele>120.9</ele>
        <time>2023-09-03T08:09:37Z</time>
      </trkpt>
      <trkpt lat="48.61143" lon="1.94007">
        <ele>121.3</ele>
        <time>2023-09-03T08:09:40Z</time>
      </trkpt>
      <trkpt lat="48.61149" lon="1.93992">
        <ele>121.6</ele>
        <time>2023-09-03T08:09:43Z</time>
      </trkpt>
      <trkpt lat="48.61156" lon="1.93977">
        <ele>121.7</ele>
        <time>2023-09-03T08:09:46Z</time>
      </trkpt>
      <trkpt lat="48.61162" lon="1.93962">
        <ele>121.8</ele>
        <time>2023-09-03T08:09:49Z</time>
      </trkpt>
      <trkpt lat="48.6117" lon="1.93948">
        <ele>122.3</ele>
        <time>2023-09-03T08:09:52Z</time>
      </trkpt>
      <trkpt lat="48.61174" lon="1.93936">
        <ele>122.8</ele>
        <time>2023-09-03T08:09:55Z</time>
      </trkpt>
      <trkpt lat="48.6118" lon="1.93923">
        <ele>123.5</ele>
        <time>2023-09-03T08:09:58Z</time>
      </trkpt>
      <trkpt lat="48.61186" lon="1.93908">
        <ele>124.2</ele>
        <time>2023-09-03T08:10:01Z</time>
      </trkpt>
      <trkpt lat="48.61191" lon="1.93891">
        <ele>124.7</ele>
        <time>2023-09-03T08:10:04Z</time>
      </trkpt>
      <trkpt lat="48.61195" lon="1.93874">
        <ele>125</ele>
        <time>2023-09-03T08:10:07Z</time>
      </trkpt>
      <trkpt lat="48.61197" lon="1.93858">
        <ele>125.5</ele>
        <time>2023-09-03T08:10:10Z</time>
      </trkpt>
      <trkpt lat="48.612" lon="1.9384">
        <ele>126.2</ele>
        <time>2023-09-03T08:10:13Z</time>
      </trkpt>
      <trkpt lat="48.61205" lon="1.93823">
        <ele>126.7</ele>
        <time>2023-09-03T08:10:16Z</time>
      </trkpt>
      <trkpt lat="48.61206" lon="1.93806">
        <ele>126.8</ele>
        <time>2023-09-03T08:10:19Z</time>
      </trkpt>
      <trkpt lat="48.61211" lon="1.93792">
        <ele>127.2</ele>
        <time>2023-09-03T08:10:22Z</time>
      </trkpt>
      <trkpt lat="48.61214" lon="1.93775">
        <ele>127.4</ele>
        <time>2023-09-03T08:10:26Z</time>
      </trkpt>
      <trkpt lat="48.61213" lon="1.93762">
        <ele>127.3</ele>
        <time>2023-09-03T08:10:29Z</time>
      </trkpt>
      <trkpt lat="48.61204" lon="1.93749">
        <ele>126.7</ele>
        <time>2023-09-03T08:10:33Z</time>
      </trkpt>
      <trkpt lat="48.61197" lon="1.93739">
        <ele>126.2</ele>
        <time>2023-09-03T08:10:35Z</time>
      </trkpt>
      <trkpt lat="48.61187" lon="1.9373">
        <ele>125.4</ele>
        <time>2023-09-03T08:10:37Z</time>
      </trkpt>
      <trkpt lat="48.61177" lon="1.93723">
        <ele>124.7</ele>
        <time>2023-09-03T08:10:39Z</time>
      </trkpt>
      <trkpt lat="48.61167" lon="1.93714">
        <ele>124</ele>
        <time>2023-09-03T08:10:41Z</time>
      </trkpt>
      <trkpt lat="48.61158" lon="1.93705">
        <ele>123.1</ele>
        <time>2023-09-03T08:10:43Z</time>
      </trkpt>
      <trkpt lat="48.61149" lon="1.93695">
        <ele>122.1</ele>
        <time>2023-09-03T08:10:45Z</time>
      </trkpt>
      <trkpt lat="48.6114" lon="1.93683">
        <ele>121.5</ele>
        <time>2023-09-03T08:10:47Z</time>
      </trkpt>
      <trkpt lat="48.61131" lon="1.93672">
        <ele>121.5</ele>
        <time>2023-09-03T08:10:49Z</time>
      </trkpt>
      <trkpt lat="48.61124" lon="1.93661">
        <ele>121.4</ele>
        <time>2023-09-03T08:10:51Z</time>
      </trkpt>
      <trkpt lat="48.61117" lon="1.9365">
        <ele>121.2</ele>
        <time>2023-09-03T08:10:53Z</time>
      </trkpt>
      <trkpt lat="48.6111" lon="1.9364">
        <ele>121</ele>
        <time>2023-09-03T08:10:55Z</time>
      </trkpt>
      <trkpt lat="48.61101" lon="1.93626">
        <ele>121</ele>
        <time>2023-09-03T08:10:58Z</time>
      </trkpt>
      <trkpt lat="48.61095" lon="1.93615">
        <ele>121</ele>
        <time>2023-09-03T08:11:00Z</time>
      </trkpt>
      <trkpt lat="48.61088" lon="1.93605">
        <ele>121.2</ele>
        <time>2023-09-03T08:11:02Z</time>
      </trkpt>
      <trkpt lat="48.61081" lon="1.93594">
        <ele>121.6</ele>
        <time>2023-09-03T08:11:04Z</time>
      </trkpt>
      <trkpt lat="48.61074" lon="1.93583">
        <ele>122</ele>
        <time>2023-09-03T08:11:06Z</time>
      </trkpt>
      <trkpt lat="48.61068" lon="1.93572">
        <ele>122.4</ele>
        <time>2023-09-03T08:11:08Z</time>
      </trkpt>
      <trkpt lat="48.61061" lon="1.93561">
        <ele>122.8</ele>
        <time>2023-09-03T08:11:10Z</time>
      </trkpt>
      <trkpt lat="48.61054" lon="1.93549">
        <ele>123.2</ele>
        <time>2023-09-03T08:11:12Z</time>
      </trkpt>
      <trkpt lat="48.61046" lon="1.9354">
        <ele>123.2</ele>
        <time>2023-09-03T08:11:14Z</time>
      </trkpt>
      <trkpt lat="48.61039" lon="1.9353">
        <ele>123.3</ele>
        <time>2023-09-03T08:11:16Z</time>
      </trkpt>
      <trkpt lat="48.61031" lon="1.9352">
        <ele>123.7</ele>
        <time>2023-09-03T08:11:19Z</time>
      </trkpt>
      <trkpt lat="48.61025" lon="1.93507">
        <ele>124.4</ele>
        <time>2023-09-03T08:11:26Z</time>
      </trkpt>
      <trkpt lat="48.6103" lon="1.93495">
        <ele>125.5</ele>
        <time>2023-09-03T08:11:32Z</time>
      </trkpt>
      <trkpt lat="48.61035" lon="1.93482">
        <ele>126.5</ele>
        <time>2023-09-03T08:11:39Z</time>
      </trkpt>
      <trkpt lat="48.6104" lon="1.9347">
        <ele>127.7</ele>
        <time>2023-09-03T08:11:45Z</time>
      </trkpt>
      <trkpt lat="48.61044" lon="1.93456">
        <ele>129.3</ele>
        <time>2023-09-03T08:11:51Z</time>
      </trkpt>
      <trkpt lat="48.61047" lon="1.93441">
        <ele>130.9</ele>
        <time>2023-09-03T08:11:57Z</time>
      </trkpt>
      <trkpt lat="48.6105" lon="1.93427">
        <ele>131.9</ele>
        <time>2023-09-03T08:12:04Z</time>
      </trkpt>
      <trkpt lat="48.61053" lon="1.93413">
        <ele>133</ele>
        <time>2023-09-03T08:12:11Z</time>
      </trkpt>
      <trkpt lat="48.61058" lon="1.934">
        <ele>134.1</ele>
        <time>2023-09-03T08:12:18Z</time>
      </trkpt>
      <trkpt lat="48.61062" lon="1.93388">
        <ele>134.6</ele>
        <time>2023-09-03T08:12:24Z</time>
      </trkpt>
      <trkpt lat="48.61068" lon="1.93375">
        <ele>135</ele>
        <time>2023-09-03T08:12:30Z</time>
      </trkpt>
      <trkpt lat="48.61076" lon="1.93367">
        <ele>135.5</ele>
        <time>2023-09-03T08:12:36Z</time>
      </trkpt>
      <trkpt lat="48.61086" lon="1.93359">
        <ele>135.7</ele>
        <time>2023-09-03T08:12:41Z</time>
      </trkpt>
      <trkpt lat="48.61095" lon="1.93355">
        <ele>134.4</ele>
        <time>2023-09-03T08:12:43Z</time>
      </trkpt>
      <trkpt lat="48.61109" lon="1.93349">
        <ele>132.7</ele>
        <time>2023-09-03T08:12:45Z</time>
      </trkpt>
      <trkpt lat="48.6112" lon="1.93339">
        <ele>132.2</ele>
        <time>2023-09-03T08:12:46Z</time>
      </trkpt>
      <trkpt lat="48.61138" lon="1.93335">
        <ele>130.1</ele>
        <time>2023-09-03T08:12:48Z</time>
      </trkpt>
      <trkpt lat="48.61146" lon="1.93331">
        <ele>129.9</ele>
        <time>2023-09-03T08:12:49Z</time>
      </trkpt>
      <trkpt lat="48.61163" lon="1.93322">
        <ele>130.3</ele>
        <time>2023-09-03T08:12:51Z</time>
      </trkpt>
      <trkpt lat="48.61178" lon="1.93317">
        <ele>130.9</ele>
        <time>2023-09-03T08:12:53Z</time>
      </trkpt>
      <trkpt lat="48.61186" lon="1.93307">
        <ele>131.9</ele>
        <time>2023-09-03T08:12:56Z</time>
      </trkpt>
      <trkpt lat="48.61195" lon="1.93303">
        <ele>132.3</ele>
        <time>2023-09-03T08:13:00Z</time>
      </trkpt>
      <trkpt lat="48.61206" lon="1.93299">
        <ele>133</ele>
        <time>2023-09-03T08:13:03Z</time>
      </trkpt>
      <trkpt lat="48.61216" lon="1.93299">
        <ele>133.1</ele>
        <time>2023-09-03T08:13:05Z</time>
      </trkpt>
      <trkpt lat="48.61226" lon="1.93307">
        <ele>133.3</ele>
        <time>2023-09-03T08:13:09Z</time>
      </trkpt>
      <trkpt lat="48.61233" lon="1.93317">
        <ele>133.9</ele>
        <time>2023-09-03T08:13:14Z</time>
      </trkpt>
      <trkpt lat="48.6124" lon="1.93327">
        <ele>134.6</ele>
        <time>2023-09-03T08:13:19Z</time>
      </trkpt>
      <trkpt lat="48.61248" lon="1.93336">
        <ele>135.7</ele>
        <time>2023-09-03T08:13:23Z</time>
      </trkpt>
      <trkpt lat="48.61258" lon="1.93346">
        <ele>135.8</ele>
        <time>2023-09-03T08:13:26Z</time>
      </trkpt>
      <trkpt lat="48.61266" lon="1.93356">
        <ele>135.8</ele>
        <time>2023-09-03T08:13:29Z</time>
      </trkpt>
      <trkpt lat="48.61277" lon="1.93362">
        <ele>135.9</ele>
        <time>2023-09-03T08:13:31Z</time>
      </trkpt>
      <trkpt lat="48.61285" lon="1.93374">
        <ele>135.8</ele>
        <time>2023-09-03T08:13:34Z</time>
      </trkpt>
      <trkpt lat="48.61293" lon="1.93382">
        <ele>135.8</ele>
        <time>2023-09-03T08:13:35Z</time>
      </trkpt>
      <trkpt lat="48.61301" lon="1.93394">
        <ele>135.7</ele>
        <time>2023-09-03T08:13:38Z</time>
      </trkpt>
      <trkpt lat="48.6131" lon="1.93401">
        <ele>135.8</ele>
        <time>2023-09-03T08:13:40Z</time>
      </trkpt>
      <trkpt lat="48.6132" lon="1.93407">
        <ele>136.2</ele>
        <time>2023-09-03T08:13:43Z</time>
      </trkpt>
      <trkpt lat="48.61327" lon="1.93417">
        <ele>136.6</ele>
        <time>2023-09-03T08:13:46Z</time>
      </trkpt>
      <trkpt lat="48.61333" lon="1.93428">
        <ele>136.6</ele>
        <time>2023-09-03T08:13:50Z</time>
      </trkpt>
      <trkpt lat="48.61339" lon="1.93439">
        <ele>137</ele>
        <time>2023-09-03T08:13:54Z</time>
      </trkpt>
      <trkpt lat="48.61348" lon="1.93447">
        <ele>138</ele>
        <time>2023-09-03T08:13:57Z</time>
      </trkpt>
      <trkpt lat="48.61356" lon="1.93455">
        <ele>138.9</ele>
        <time>2023-09-03T08:14:00Z</time>
      </trkpt>
      <trkpt lat="48.61365" lon="1.93463">
        <ele>139.8</ele>
        <time>2023-09-03T08:14:04Z</time>
      </trkpt>
      <trkpt lat="48.61373" lon="1.93473">
        <ele>140.3</ele>
        <time>2023-09-03T08:14:09Z</time>
      </trkpt>
      <trkpt lat="48.61382" lon="1.93484">
        <ele>140.8</ele>
        <time>2023-09-03T08:14:13Z</time>
      </trkpt>
      <trkpt lat="48.61391" lon="1.935">
        <ele>141.2</ele>
        <time>2023-09-03T08:14:16Z</time>
      </trkpt>
      <trkpt lat="48.614" lon="1.9351">
        <ele>141.5</ele>
        <time>2023-09-03T08:14:19Z</time>
      </trkpt>
      <trkpt lat="48.61408" lon="1.93517">
        <ele>141.9</ele>
        <time>2023-09-03T08:14:22Z</time>
      </trkpt>
      <trkpt lat="48.61416" lon="1.93527">
        <ele>142</ele>
        <time>2023-09-03T08:14:25Z</time>
      </trkpt>
      <trkpt lat="48.61423" lon="1.93536">
        <ele>142.1</ele>
        <time>2023-09-03T08:14:29Z</time>
      </trkpt>
      <trkpt lat="48.61431" lon="1.93544">
        <ele>142.4</ele>
        <time>2023-09-03T08:14:33Z</time>
      </trkpt>
      <trkpt lat="48.61436" lon="1.93562">
        <ele>141.7</ele>
        <time>2023-09-03T08:14:37Z</time>
      </trkpt>
      <trkpt lat="48.61448" lon="1.93573">
        <ele>142.1</ele>
        <time>2023-09-03T08:14:39Z</time>
      </trkpt>
      <trkpt lat="48.61456" lon="1.93581">
        <ele>142.1</ele>
        <time>2023-09-03T08:14:41Z</time>
      </trkpt>
      <trkpt lat="48.61469" lon="1.9359">
        <ele>142.6</ele>
        <time>2023-09-03T08:14:44Z</time>
      </trkpt>
      <trkpt lat="48.6148" lon="1.93596">
        <ele>143.3</ele>
        <time>2023-09-03T08:14:47Z</time>
      </trkpt>
      <trkpt lat="48.61488" lon="1.93605">
        <ele>143.5</ele>
        <time>2023-09-03T08:14:50Z</time>
      </trkpt>
      <trkpt lat="48.61496" lon="1.93611">
        <ele>143.7</ele>
        <time>2023-09-03T08:14:55Z</time>
      </trkpt>
      <trkpt lat="48.61504" lon="1.93619">
        <ele>145.4</ele>
        <time>2023-09-03T08:15:02Z</time>
      </trkpt>
      <trkpt lat="48.61512" lon="1.93629">
        <ele>147.5</ele>
        <time>2023-09-03T08:15:09Z</time>
      </trkpt>
      <trkpt lat="48.61519" lon="1.93637">
        <ele>149.4</ele>
        <time>2023-09-03T08:15:16Z</time>
      </trkpt>
      <trkpt lat="48.61527" lon="1.93645">
        <ele>151.5</ele>
        <time>2023-09-03T08:15:24Z</time>
      </trkpt>
      <trkpt lat="48.61534" lon="1.93654">
        <ele>154.1</ele>
        <time>2023-09-03T08:15:30Z</time>
      </trkpt>
      <trkpt lat="48.61542" lon="1.9366">
        <ele>156.5</ele>
        <time>2023-09-03T08:15:36Z</time>
      </trkpt>
      <trkpt lat="48.6155" lon="1.9367">
        <ele>159</ele>
        <time>2023-09-03T08:15:45Z</time>
      </trkpt>
      <trkpt lat="48.61557" lon="1.93681">
        <ele>160.7</ele>
        <time>2023-09-03T08:15:52Z</time>
      </trkpt>
      <trkpt lat="48.61562" lon="1.93693">
        <ele>162</ele>
        <time>2023-09-03T08:16:00Z</time>
      </trkpt>
      <trkpt lat="48.61571" lon="1.93702">
        <ele>163.5</ele>
        <time>2023-09-03T08:16:11Z</time>
      </trkpt>
      <trkpt lat="48.61579" lon="1.93711">
        <ele>164.5</ele>
        <time>2023-09-03T08:16:18Z</time>
      </trkpt>
      <trkpt lat="48.61586" lon="1.9372">
        <ele>165.1</ele>
        <time>2023-09-03T08:16:31Z</time>
      </trkpt>
      <trkpt lat="48.61583" lon="1.93733">
        <ele>165.4</ele>
        <time>2023-09-03T08:16:42Z</time>
      </trkpt>
      <trkpt lat="48.61577" lon="1.93745">
        <ele>165.5</ele>
        <time>2023-09-03T08:16:48Z</time>
      </trkpt>
      <trkpt lat="48.61573" lon="1.93759">
        <ele>165.9</ele>
        <time>2023-09-03T08:16:57Z</time>
      </trkpt>
      <trkpt lat="48.61567" lon="1.9377">
        <ele>166.1</ele>
        <time>2023-09-03T08:17:03Z</time>
      </trkpt>
      <trkpt lat="48.6156" lon="1.93783">
        <ele>166.3</ele>
        <time>2023-09-03T08:17:09Z</time>
      </trkpt>
      <trkpt lat="48.61553" lon="1.93796">
        <ele>166.5</ele>
        <time>2023-09-03T08:17:14Z</time>
      </trkpt>
      <trkpt lat="48.61547" lon="1.93807">
        <ele>166.7</ele>
        <time>2023-09-03T08:17:18Z</time>
      </trkpt>
      <trkpt lat="48.61538" lon="1.93819">
        <ele>166.4</ele>
        <time>2023-09-03T08:17:21Z</time>
      </trkpt>
      <trkpt lat="48.6153" lon="1.93828">
        <ele>166.1</ele>
        <time>2023-09-03T08:17:23Z</time>
      </trkpt>
      <trkpt lat="48.61523" lon="1.93838">
        <ele>165.8</ele>
        <time>2023-09-03T08:17:25Z</time>
      </trkpt>
      <trkpt lat="48.61516" lon="1.93848">
        <ele>165.7</ele>
        <time>2023-09-03T08:17:27Z</time>
      </trkpt>
      <trkpt lat="48.61508" lon="1.93859">
        <ele>165.5</ele>
        <time>2023-09-03T08:17:29Z</time>
      </trkpt>
      <trkpt lat="48.61501" lon="1.93869">
        <ele>165.4</ele>
        <time>2023-09-03T08:17:31Z</time>
      </trkpt>
      <trkpt lat="48.61492" lon="1.93885">
        <ele>165</ele>
        <time>2023-09-03T08:17:34Z</time>
      </trkpt>
      <trkpt lat="48.61488" lon="1.93899">
        <ele>164.8</ele>
        <time>2023-09-03T08:17:35Z</time>
      </trkpt>
      <trkpt lat="48.6148" lon="1.93912">
        <ele>164.5</ele>
        <time>2023-09-03T08:17:37Z</time>
      </trkpt>
      <trkpt lat="48.61474" lon="1.93928">
        <ele>164.5</ele>
        <time>2023-09-03T08:17:39Z</time>
      </trkpt>
      <trkpt lat="48.61465" lon="1.9394">
        <ele>164.3</ele>
        <time>2023-09-03T08:17:41Z</time>
      </trkpt>
      <trkpt lat="48.6146" lon="1.93953">
        <ele>164.6</ele>
        <time>2023-09-03T08:17:43Z</time>
      </trkpt>
      <trkpt lat="48.61456" lon="1.93967">
        <ele>165.1</ele>
        <time>2023-09-03T08:17:45Z</time>
      </trkpt>
      <trkpt lat="48.61451" lon="1.9398">
        <ele>165.2</ele>
        <time>2023-09-03T08:17:48Z</time>
      </trkpt>
      <trkpt lat="48.61445" lon="1.93991">
        <ele>165</ele>
        <time>2023-09-03T08:17:51Z</time>
      </trkpt>
      <trkpt lat="48.61438" lon="1.94004">
        <ele>165</ele>
        <time>2023-09-03T08:17:54Z</time>
      </trkpt>
      <trkpt lat="48.61433" lon="1.94016">
        <ele>165.4</ele>
        <time>2023-09-03T08:17:57Z</time>
      </trkpt>
      <trkpt lat="48.61423" lon="1.94034">
        <ele>166</ele>
        <time>2023-09-03T08:18:00Z</time>
      </trkpt>
      <trkpt lat="48.61417" lon="1.94044">
        <ele>166</ele>
        <time>2023-09-03T08:18:02Z</time>
      </trkpt>
      <trkpt lat="48.61411" lon="1.94055">
        <ele>165.6</ele>
        <time>2023-09-03T08:18:04Z</time>
      </trkpt>
      <trkpt lat="48.61404" lon="1.9407">
        <ele>164.8</ele>
        <time>2023-09-03T08:18:07Z</time>
      </trkpt>
      <trkpt lat="48.61397" lon="1.94082">
        <ele>164.3</ele>
        <time>2023-09-03T08:18:10Z</time>
      </trkpt>
      <trkpt lat="48.61389" lon="1.94094">
        <ele>163.6</ele>
        <time>2023-09-03T08:18:13Z</time>
      </trkpt>
      <trkpt lat="48.61382" lon="1.94108">
        <ele>162.4</ele>
        <time>2023-09-03T08:18:16Z</time>
      </trkpt>
      <trkpt lat="48.61375" lon="1.94123">
        <ele>161.1</ele>
        <time>2023-09-03T08:18:19Z</time>
      </trkpt>
      <trkpt lat="48.61371" lon="1.94138">
        <ele>160.1</ele>
        <time>2023-09-03T08:18:21Z</time>
      </trkpt>
      <trkpt lat="48.61371" lon="1.94155">
        <ele>159.5</ele>
        <time>2023-09-03T08:18:23Z</time>
      </trkpt>
      <trkpt lat="48.61375" lon="1.94174">
        <ele>159.1</ele>
        <time>2023-09-03T08:18:25Z</time>
      </trkpt>
      <trkpt lat="48.61378" lon="1.94193">
        <ele>158.5</ele>
        <time>2023-09-03T08:18:27Z</time>
      </trkpt>
      <trkpt lat="48.61381" lon="1.94215">
        <ele>157.4</ele>
        <time>2023-09-03T08:18:29Z</time>
      </trkpt>
      <trkpt lat="48.61383" lon="1.9424">
        <ele>155.3</ele>
        <time>2023-09-03T08:18:31Z</time>
      </trkpt>
      <trkpt lat="48.6138" lon="1.94266">
        <ele>153.3</ele>
        <time>2023-09-03T08:18:33Z</time>
      </trkpt>
      <trkpt lat="48.6138" lon="1.94289">
        <ele>152.1</ele>
        <time>2023-09-03T08:18:35Z</time>
      </trkpt>
      <trkpt lat="48.61373" lon="1.943">
        <ele>150.6</ele>
        <time>2023-09-03T08:18:36Z</time>
      </trkpt>
      <trkpt lat="48.61372" lon="1.94314">
        <ele>149.7</ele>
        <time>2023-09-03T08:18:37Z</time>
      </trkpt>
      <trkpt lat="48.6137" lon="1.94328">
        <ele>148.9</ele>
        <time>2023-09-03T08:18:38Z</time>
      </trkpt>
      <trkpt lat="48.61369" lon="1.94344">
        <ele>148.5</ele>
        <time>2023-09-03T08:18:39Z</time>
      </trkpt>
      <trkpt lat="48.61371" lon="1.94357">
        <ele>148.7</ele>
        <time>2023-09-03T08:18:40Z</time>
      </trkpt>
      <trkpt lat="48.61371" lon="1.94371">
        <ele>148.4</ele>
        <time>2023-09-03T08:18:41Z</time>
      </trkpt>
      <trkpt lat="48.61361" lon="1.94396">
        <ele>147</ele>
        <time>2023-09-03T08:18:43Z</time>
      </trkpt>
      <trkpt lat="48.61357" lon="1.9442">
        <ele>146.7</ele>
        <time>2023-09-03T08:18:45Z</time>
      </trkpt>
      <trkpt lat="48.61353" lon="1.94432">
        <ele>146.2</ele>
        <time>2023-09-03T08:18:46Z</time>
      </trkpt>
      <trkpt lat="48.61349" lon="1.94445">
        <ele>145.7</ele>
        <time>2023-09-03T08:18:47Z</time>
      </trkpt>
      <trkpt lat="48.61343" lon="1.94468">
        <ele>145</ele>
        <time>2023-09-03T08:18:49Z</time>
      </trkpt>
      <trkpt lat="48.61337" lon="1.94479">
        <ele>144.4</ele>
        <time>2023-09-03T08:18:50Z</time>
      </trkpt>
      <trkpt lat="48.61332" lon="1.94498">
        <ele>143.9</ele>
        <time>2023-09-03T08:18:52Z</time>
      </trkpt>
      <trkpt lat="48.61326" lon="1.94514">
        <ele>143.5</ele>
        <time>2023-09-03T08:18:54Z</time>
      </trkpt>
      <trkpt lat="48.61332" lon="1.94525">
        <ele>143.9</ele>
        <time>2023-09-03T08:18:58Z</time>
      </trkpt>
      <trkpt lat="48.6134" lon="1.94534">
        <ele>144.7</ele>
        <time>2023-09-03T08:19:02Z</time>
      </trkpt>
      <trkpt lat="48.61347" lon="1.94543">
        <ele>145.5</ele>
        <time>2023-09-03T08:19:06Z</time>
      </trkpt>
      <trkpt lat="48.61357" lon="1.94554">
        <ele>146.5</ele>
        <time>2023-09-03T08:19:10Z</time>
      </trkpt>
      <trkpt lat="48.61364" lon="1.94568">
        <ele>146.6</ele>
        <time>2023-09-03T08:19:14Z</time>
      </trkpt>
      <trkpt lat="48.61372" lon="1.94578">
        <ele>146.6</ele>
        <time>2023-09-03T08:19:18Z</time>
      </trkpt>
      <trkpt lat="48.61381" lon="1.94587">
        <ele>146.6</ele>
        <time>2023-09-03T08:19:22Z</time>
      </trkpt>
      <trkpt lat="48.61388" lon="1.94595">
        <ele>146.5</ele>
        <time>2023-09-03T08:19:25Z</time>
      </trkpt>
      <trkpt lat="48.61396" lon="1.94605">
        <ele>146.2</ele>
        <time>2023-09-03T08:19:28Z</time>
      </trkpt>
      <trkpt lat="48.61401" lon="1.94619">
        <ele>145.9</ele>
        <time>2023-09-03T08:19:32Z</time>
      </trkpt>
      <trkpt lat="48.61411" lon="1.94616">
        <ele>145.8</ele>
        <time>2023-09-03T08:19:36Z</time>
      </trkpt>
      <trkpt lat="48.61419" lon="1.94607">
        <ele>145.8</ele>
        <time>2023-09-03T08:19:40Z</time>
      </trkpt>
      <trkpt lat="48.61425" lon="1.94596">
        <ele>145.6</ele>
        <time>2023-09-03T08:19:44Z</time>
      </trkpt>
      <trkpt lat="48.61432" lon="1.94583">
        <ele>145.5</ele>
        <time>2023-09-03T08:19:47Z</time>
      </trkpt>
      <trkpt lat="48.61437" lon="1.94569">
        <ele>145.4</ele>
        <time>2023-09-03T08:19:50Z</time>
      </trkpt>
      <trkpt lat="48.61442" lon="1.94555">
        <ele>145.2</ele>
        <time>2023-09-03T08:19:54Z</time>
      </trkpt>
      <trkpt lat="48.61447" lon="1.94539">
        <ele>145.5</ele>
        <time>2023-09-03T08:19:57Z</time>
      </trkpt>
      <trkpt lat="48.61455" lon="1.94524">
        <ele>145.8</ele>
        <time>2023-09-03T08:20:00Z</time>
      </trkpt>
      <trkpt lat="48.61464" lon="1.94514">
        <ele>145.8</ele>
        <time>2023-09-03T08:20:03Z</time>
      </trkpt>
      <trkpt lat="48.61471" lon="1.94503">
        <ele>146</ele>
        <time>2023-09-03T08:20:06Z</time>
      </trkpt>
      <trkpt lat="48.61475" lon="1.94491">
        <ele>146.4</ele>
        <time>2023-09-03T08:20:09Z</time>
      </trkpt>
      <trkpt lat="48.61483" lon="1.94478">
        <ele>147.2</ele>
        <time>2023-09-03T08:20:12Z</time>
      </trkpt>
      <trkpt lat="48.61491" lon="1.94465">
        <ele>147.9</ele>
        <time>2023-09-03T08:20:15Z</time>
      </trkpt>
      <trkpt lat="48.61495" lon="1.94451">
        <ele>148.6</ele>
        <time>2023-09-03T08:20:18Z</time>
      </trkpt>
      <trkpt lat="48.615" lon="1.94439">
        <ele>149.2</ele>
        <time>2023-09-03T08:20:21Z</time>
      </trkpt>
      <trkpt lat="48.61506" lon="1.94425">
        <ele>150.2</ele>
        <time>2023-09-03T08:20:25Z</time>
      </trkpt>
      <trkpt lat="48.61513" lon="1.94412">
        <ele>151.3</ele>
        <time>2023-09-03T08:20:30Z</time>
      </trkpt>
      <trkpt lat="48.61519" lon="1.944">
        <ele>152.6</ele>
        <time>2023-09-03T08:20:34Z</time>
      </trkpt>
      <trkpt lat="48.61523" lon="1.94384">
        <ele>154</ele>
        <time>2023-09-03T08:20:39Z</time>
      </trkpt>
      <trkpt lat="48.61531" lon="1.94373">
        <ele>155.3</ele>
        <time>2023-09-03T08:20:44Z</time>
      </trkpt>
      <trkpt lat="48.61536" lon="1.9436">
        <ele>156.4</ele>
        <time>2023-09-03T08:20:49Z</time>
      </trkpt>
      <trkpt lat="48.61542" lon="1.94348">
        <ele>157.4</ele>
        <time>2023-09-03T08:20:55Z</time>
      </trkpt>
      <trkpt lat="48.61547" lon="1.94336">
        <ele>158.5</ele>
        <time>2023-09-03T08:21:00Z</time>
      </trkpt>
      <trkpt lat="48.61553" lon="1.94325">
        <ele>159.5</ele>
        <time>2023-09-03T08:21:05Z</time>
      </trkpt>
      <trkpt lat="48.61557" lon="1.9431">
        <ele>160.7</ele>
        <time>2023-09-03T08:21:12Z</time>
      </trkpt>
      <trkpt lat="48.61563" lon="1.94296">
        <ele>161.6</ele>
        <time>2023-09-03T08:21:18Z</time>
      </trkpt>
      <trkpt lat="48.61569" lon="1.94283">
        <ele>162.3</ele>
        <time>2023-09-03T08:21:23Z</time>
      </trkpt>
      <trkpt lat="48.61576" lon="1.94271">
        <ele>163</ele>
        <time>2023-09-03T08:21:27Z</time>
      </trkpt>
      <trkpt lat="48.61582" lon="1.94259">
        <ele>163.7</ele>
        <time>2023-09-03T08:21:32Z</time>
      </trkpt>
      <trkpt lat="48.61587" lon="1.94246">
        <ele>163.9</ele>
        <time>2023-09-03T08:21:36Z</time>
      </trkpt>
      <trkpt lat="48.61593" lon="1.94235">
        <ele>163.8</ele>
        <time>2023-09-03T08:21:40Z</time>
      </trkpt>
      <trkpt lat="48.61599" lon="1.94225">
        <ele>164</ele>
        <time>2023-09-03T08:21:43Z</time>
      </trkpt>
      <trkpt lat="48.61605" lon="1.94209">
        <ele>164.5</ele>
        <time>2023-09-03T08:21:46Z</time>
      </trkpt>
      <trkpt lat="48.6161" lon="1.94195">
        <ele>165</ele>
        <time>2023-09-03T08:21:49Z</time>
      </trkpt>
      <trkpt lat="48.61615" lon="1.94182">
        <ele>164.8</ele>
        <time>2023-09-03T08:21:52Z</time>
      </trkpt>
      <trkpt lat="48.61622" lon="1.9417">
        <ele>164.6</ele>
        <time>2023-09-03T08:21:55Z</time>
      </trkpt>
      <trkpt lat="48.6163" lon="1.94157">
        <ele>164.3</ele>
        <time>2023-09-03T08:21:58Z</time>
      </trkpt>
      <trkpt lat="48.61637" lon="1.94143">
        <ele>164.1</ele>
        <time>2023-09-03T08:22:01Z</time>
      </trkpt>
      <trkpt lat="48.61644" lon="1.94126">
        <ele>163.6</ele>
        <time>2023-09-03T08:22:03Z</time>
      </trkpt>
      <trkpt lat="48.61652" lon="1.94112">
        <ele>163</ele>
        <time>2023-09-03T08:22:05Z</time>
      </trkpt>
      <trkpt lat="48.61658" lon="1.94098">
        <ele>163</ele>
        <time>2023-09-03T08:22:07Z</time>
      </trkpt>
      <trkpt lat="48.61664" lon="1.94083">
        <ele>163.1</ele>
        <time>2023-09-03T08:22:09Z</time>
      </trkpt>
      <trkpt lat="48.61673" lon="1.9407">
        <ele>162.7</ele>
        <time>2023-09-03T08:22:11Z</time>
      </trkpt>
      <trkpt lat="48.61678" lon="1.94053">
        <ele>162.6</ele>
        <time>2023-09-03T08:22:13Z</time>
      </trkpt>
      <trkpt lat="48.61685" lon="1.94039">
        <ele>162.6</ele>
        <time>2023-09-03T08:22:15Z</time>
      </trkpt>
      <trkpt lat="48.61689" lon="1.94027">
        <ele>162.4</ele>
        <time>2023-09-03T08:22:17Z</time>
      </trkpt>
      <trkpt lat="48.61695" lon="1.94015">
        <ele>162.4</ele>
        <time>2023-09-03T08:22:19Z</time>
      </trkpt>
      <trkpt lat="48.61704" lon="1.94">
        <ele>162</ele>
        <time>2023-09-03T08:22:22Z</time>
      </trkpt>
      <trkpt lat="48.61711" lon="1.93984">
        <ele>161.7</ele>
        <time>2023-09-03T08:22:25Z</time>
      </trkpt>
      <trkpt lat="48.61718" lon="1.9397">
        <ele>161.5</ele>
        <time>2023-09-03T08:22:27Z</time>
      </trkpt>
      <trkpt lat="48.61723" lon="1.93959">
        <ele>160.8</ele>
        <time>2023-09-03T08:22:29Z</time>
      </trkpt>
      <trkpt lat="48.61732" lon="1.93944">
        <ele>159.2</ele>
        <time>2023-09-03T08:22:31Z</time>
      </trkpt>
      <trkpt lat="48.6174" lon="1.93925">
        <ele>157.5</ele>
        <time>2023-09-03T08:22:33Z</time>
      </trkpt>
      <trkpt lat="48.61749" lon="1.93904">
        <ele>156.6</ele>
        <time>2023-09-03T08:22:35Z</time>
      </trkpt>
      <trkpt lat="48.61757" lon="1.93884">
        <ele>157.5</ele>
        <time>2023-09-03T08:22:37Z</time>
      </trkpt>
      <trkpt lat="48.6176" lon="1.93871">
        <ele>158.3</ele>
        <time>2023-09-03T08:22:40Z</time>
      </trkpt>
      <trkpt lat="48.61766" lon="1.9386">
        <ele>159.2</ele>
        <time>2023-09-03T08:22:44Z</time>
      </trkpt>
      <trkpt lat="48.61772" lon="1.9385">
        <ele>159.9</ele>
        <time>2023-09-03T08:22:51Z</time>
      </trkpt>
      <trkpt lat="48.61779" lon="1.93839">
        <ele>161</ele>
        <time>2023-09-03T08:22:59Z</time>
      </trkpt>
      <trkpt lat="48.61785" lon="1.93827">
        <ele>161.8</ele>
        <time>2023-09-03T08:23:06Z</time>
      </trkpt>
      <trkpt lat="48.61791" lon="1.93816">
        <ele>162.4</ele>
        <time>2023-09-03T08:23:13Z</time>
      </trkpt>
      <trkpt lat="48.61797" lon="1.93805">
        <ele>163.1</ele>
        <time>2023-09-03T08:23:17Z</time>
      </trkpt>
      <trkpt lat="48.61803" lon="1.93793">
        <ele>163.7</ele>
        <time>2023-09-03T08:23:21Z</time>
      </trkpt>
      <trkpt lat="48.61809" lon="1.93778">
        <ele>164.2</ele>
        <time>2023-09-03T08:23:25Z</time>
      </trkpt>
      <trkpt lat="48.61812" lon="1.93761">
        <ele>164</ele>
        <time>2023-09-03T08:23:28Z</time>
      </trkpt>
      <trkpt lat="48.61818" lon="1.93746">
        <ele>164.4</ele>
        <time>2023-09-03T08:23:31Z</time>
      </trkpt>
      <trkpt lat="48.61826" lon="1.93738">
        <ele>165.3</ele>
        <time>2023-09-03T08:23:34Z</time>
      </trkpt>
      <trkpt lat="48.61833" lon="1.93728">
        <ele>166</ele>
        <time>2023-09-03T08:23:37Z</time>
      </trkpt>
      <trkpt lat="48.61839" lon="1.93714">
        <ele>166.1</ele>
        <time>2023-09-03T08:23:40Z</time>
      </trkpt>
      <trkpt lat="48.61845" lon="1.93699">
        <ele>166.1</ele>
        <time>2023-09-03T08:23:43Z</time>
      </trkpt>
      <trkpt lat="48.61852" lon="1.93686">
        <ele>166</ele>
        <time>2023-09-03T08:23:47Z</time>
      </trkpt>
      <trkpt lat="48.6186" lon="1.93676">
        <ele>166</ele>
        <time>2023-09-03T08:23:50Z</time>
      </trkpt>
      <trkpt lat="48.61864" lon="1.93662">
        <ele>166.1</ele>
        <time>2023-09-03T08:23:53Z</time>
      </trkpt>
      <trkpt lat="48.6187" lon="1.93645">
        <ele>166.3</ele>
        <time>2023-09-03T08:23:56Z</time>
      </trkpt>
      <trkpt lat="48.61879" lon="1.93631">
        <ele>166.8</ele>
        <time>2023-09-03T08:23:59Z</time>
      </trkpt>
      <trkpt lat="48.61888" lon="1.93619">
        <ele>167</ele>
        <time>2023-09-03T08:24:02Z</time>
      </trkpt>
      <trkpt lat="48.61894" lon="1.93605">
        <ele>167</ele>
        <time>2023-09-03T08:24:05Z</time>
      </trkpt>
      <trkpt lat="48.619" lon="1.93589">
        <ele>167</ele>
        <time>2023-09-03T08:24:08Z</time>
      </trkpt>
      <trkpt lat="48.61906" lon="1.93575">
        <ele>167</ele>
        <time>2023-09-03T08:24:11Z</time>
      </trkpt>
      <trkpt lat="48.61914" lon="1.93561">
        <ele>167</ele>
        <time>2023-09-03T08:24:14Z</time>
      </trkpt>
      <trkpt lat="48.6192" lon="1.93546">
        <ele>167.3</ele>
        <time>2023-09-03T08:24:17Z</time>
      </trkpt>
      <trkpt lat="48.61926" lon="1.9353">
        <ele>167.6</ele>
        <time>2023-09-03T08:24:20Z</time>
      </trkpt>
      <trkpt lat="48.6193" lon="1.93517">
        <ele>167.7</ele>
        <time>2023-09-03T08:24:22Z</time>
      </trkpt>
      <trkpt lat="48.61938" lon="1.93501">
        <ele>168</ele>
        <time>2023-09-03T08:24:25Z</time>
      </trkpt>
      <trkpt lat="48.61944" lon="1.93491">
        <ele>168</ele>
        <time>2023-09-03T08:24:27Z</time>
      </trkpt>
      <trkpt lat="48.61951" lon="1.93476">
        <ele>168</ele>
        <time>2023-09-03T08:24:29Z</time>
      </trkpt>
      <trkpt lat="48.61957" lon="1.93461">
        <ele>168</ele>
        <time>2023-09-03T08:24:31Z</time>
      </trkpt>
      <trkpt lat="48.61963" lon="1.93449">
        <ele>168</ele>
        <time>2023-09-03T08:24:33Z</time>
      </trkpt>
      <trkpt lat="48.6197" lon="1.93433">
        <ele>168.4</ele>
        <time>2023-09-03T08:24:36Z</time>
      </trkpt>
      <trkpt lat="48.61975" lon="1.93422">
        <ele>168.7</ele>
        <time>2023-09-03T08:24:38Z</time>
      </trkpt>
      <trkpt lat="48.61981" lon="1.93408">
        <ele>168.8</ele>
        <time>2023-09-03T08:24:40Z</time>
      </trkpt>
      <trkpt lat="48.61988" lon="1.93396">
        <ele>168.9</ele>
        <time>2023-09-03T08:24:42Z</time>
      </trkpt>
      <trkpt lat="48.61995" lon="1.93379">
        <ele>169</ele>
        <time>2023-09-03T08:24:44Z</time>
      </trkpt>
      <trkpt lat="48.62002" lon="1.93367">
        <ele>169</ele>
        <time>2023-09-03T08:24:46Z</time>
      </trkpt>
      <trkpt lat="48.62009" lon="1.9335">
        <ele>169.3</ele>
        <time>2023-09-03T08:24:48Z</time>
      </trkpt>
      <trkpt lat="48.62016" lon="1.93332">
        <ele>169.5</ele>
        <time>2023-09-03T08:24:51Z</time>
      </trkpt>
      <trkpt lat="48.6202" lon="1.93319">
        <ele>169.6</ele>
        <time>2023-09-03T08:24:53Z</time>
      </trkpt>
      <trkpt lat="48.6203" lon="1.93306">
        <ele>169.9</ele>
        <time>2023-09-03T08:24:55Z</time>
      </trkpt>
      <trkpt lat="48.62037" lon="1.93292">
        <ele>169.5</ele>
        <time>2023-09-03T08:24:57Z</time>
      </trkpt>
      <trkpt lat="48.62044" lon="1.93278">
        <ele>168.8</ele>
        <time>2023-09-03T08:24:59Z</time>
      </trkpt>
      <trkpt lat="48.62051" lon="1.93262">
        <ele>168.3</ele>
        <time>2023-09-03T08:25:01Z</time>
      </trkpt>
      <trkpt lat="48.62058" lon="1.9325">
        <ele>167.8</ele>
        <time>2023-09-03T08:25:03Z</time>
      </trkpt>
      <trkpt lat="48.62064" lon="1.93236">
        <ele>167.4</ele>
        <time>2023-09-03T08:25:05Z</time>
      </trkpt>
      <trkpt lat="48.62069" lon="1.93225">
        <ele>167</ele>
        <time>2023-09-03T08:25:07Z</time>
      </trkpt>
      <trkpt lat="48.62075" lon="1.93215">
        <ele>166.7</ele>
        <time>2023-09-03T08:25:09Z</time>
      </trkpt>
      <trkpt lat="48.62081" lon="1.93203">
        <ele>166.3</ele>
        <time>2023-09-03T08:25:11Z</time>
      </trkpt>
      <trkpt lat="48.62088" lon="1.93191">
        <ele>165.8</ele>
        <time>2023-09-03T08:25:13Z</time>
      </trkpt>
      <trkpt lat="48.62093" lon="1.93179">
        <ele>165.7</ele>
        <time>2023-09-03T08:25:15Z</time>
      </trkpt>
      <trkpt lat="48.621" lon="1.93164">
        <ele>165.4</ele>
        <time>2023-09-03T08:25:17Z</time>
      </trkpt>
      <trkpt lat="48.62109" lon="1.9315">
        <ele>165.1</ele>
        <time>2023-09-03T08:25:19Z</time>
      </trkpt>
      <trkpt lat="48.62115" lon="1.93133">
        <ele>165.1</ele>
        <time>2023-09-03T08:25:21Z</time>
      </trkpt>
      <trkpt lat="48.6212" lon="1.93118">
        <ele>165.3</ele>
        <time>2023-09-03T08:25:23Z</time>
      </trkpt>
      <trkpt lat="48.62125" lon="1.93104">
        <ele>165.5</ele>
        <time>2023-09-03T08:25:25Z</time>
      </trkpt>
      <trkpt lat="48.62129" lon="1.93087">
        <ele>165.7</ele>
        <time>2023-09-03T08:25:27Z</time>
      </trkpt>
      <trkpt lat="48.62135" lon="1.93075">
        <ele>166.1</ele>
        <time>2023-09-03T08:25:29Z</time>
      </trkpt>
      <trkpt lat="48.62142" lon="1.93062">
        <ele>167</ele>
        <time>2023-09-03T08:25:32Z</time>
      </trkpt>
      <trkpt lat="48.6215" lon="1.9305">
        <ele>167.9</ele>
        <time>2023-09-03T08:25:35Z</time>
      </trkpt>
      <trkpt lat="48.62157" lon="1.93037">
        <ele>168.7</ele>
        <time>2023-09-03T08:25:38Z</time>
      </trkpt>
      <trkpt lat="48.62163" lon="1.93026">
        <ele>169.6</ele>
        <time>2023-09-03T08:25:41Z</time>
      </trkpt>
      <trkpt lat="48.6217" lon="1.93012">
        <ele>170.1</ele>
        <time>2023-09-03T08:25:44Z</time>
      </trkpt>
      <trkpt lat="48.62176" lon="1.93002">
        <ele>170.4</ele>
        <time>2023-09-03T08:25:46Z</time>
      </trkpt>
      <trkpt lat="48.62182" lon="1.92991">
        <ele>170.6</ele>
        <time>2023-09-03T08:25:48Z</time>
      </trkpt>
      <trkpt lat="48.62189" lon="1.92981">
        <ele>170.8</ele>
        <time>2023-09-03T08:25:50Z</time>
      </trkpt>
      <trkpt lat="48.62197" lon="1.92965">
        <ele>171</ele>
        <time>2023-09-03T08:25:53Z</time>
      </trkpt>
      <trkpt lat="48.62208" lon="1.92956">
        <ele>171</ele>
        <time>2023-09-03T08:25:56Z</time>
      </trkpt>
      <trkpt lat="48.62219" lon="1.92952">
        <ele>171</ele>
        <time>2023-09-03T08:25:59Z</time>
      </trkpt>
      <trkpt lat="48.62232" lon="1.92949">
        <ele>171</ele>
        <time>2023-09-03T08:26:02Z</time>
      </trkpt>
      <trkpt lat="48.62244" lon="1.92946">
        <ele>171</ele>
        <time>2023-09-03T08:26:05Z</time>
      </trkpt>
      <trkpt lat="48.62254" lon="1.92952">
        <ele>171</ele>
        <time>2023-09-03T08:26:08Z</time>
      </trkpt>
      <trkpt lat="48.62261" lon="1.92965">
        <ele>171</ele>
        <time>2023-09-03T08:26:15Z</time>
      </trkpt>
      <trkpt lat="48.62271" lon="1.92972">
        <ele>171</ele>
        <time>2023-09-03T08:26:19Z</time>
      </trkpt>
      <trkpt lat="48.62275" lon="1.92986">
        <ele>171</ele>
        <time>2023-09-03T08:26:22Z</time>
      </trkpt>
      <trkpt lat="48.62281" lon="1.92996">
        <ele>171</ele>
        <time>2023-09-03T08:26:26Z</time>
      </trkpt>
      <trkpt lat="48.62291" lon="1.93001">
        <ele>171</ele>
        <time>2023-09-03T08:26:29Z</time>
      </trkpt>
      <trkpt lat="48.623" lon="1.9301">
        <ele>171</ele>
        <time>2023-09-03T08:26:33Z</time>
      </trkpt>
      <trkpt lat="48.62305" lon="1.93023">
        <ele>171</ele>
        <time>2023-09-03T08:26:36Z</time>
      </trkpt>
      <trkpt lat="48.62311" lon="1.93034">
        <ele>171</ele>
        <time>2023-09-03T08:26:39Z</time>
      </trkpt>
      <trkpt lat="48.62316" lon="1.93045">
        <ele>171</ele>
        <time>2023-09-03T08:26:44Z</time>
      </trkpt>
      <trkpt lat="48.62323" lon="1.93054">
        <ele>171</ele>
        <time>2023-09-03T08:26:47Z</time>
      </trkpt>
      <trkpt lat="48.62332" lon="1.93066">
        <ele>171</ele>
        <time>2023-09-03T08:26:51Z</time>
      </trkpt>
      <trkpt lat="48.62343" lon="1.93076">
        <ele>171</ele>
        <time>2023-09-03T08:26:54Z</time>
      </trkpt>
      <trkpt lat="48.62352" lon="1.93086">
        <ele>171</ele>
        <time>2023-09-03T08:26:57Z</time>
      </trkpt>
      <trkpt lat="48.62361" lon="1.93098">
        <ele>171</ele>
        <time>2023-09-03T08:27:01Z</time>
      </trkpt>
      <trkpt lat="48.62368" lon="1.93107">
        <ele>171</ele>
        <time>2023-09-03T08:27:04Z</time>
      </trkpt>
      <trkpt lat="48.62377" lon="1.93117">
        <ele>171</ele>
        <time>2023-09-03T08:27:07Z</time>
      </trkpt>
      <trkpt lat="48.62385" lon="1.93126">
        <ele>171</ele>
        <time>2023-09-03T08:27:10Z</time>
      </trkpt>
      <trkpt lat="48.62392" lon="1.93134">
        <ele>171</ele>
        <time>2023-09-03T08:27:12Z</time>
      </trkpt>
      <trkpt lat="48.624" lon="1.93143">
        <ele>171</ele>
        <time>2023-09-03T08:27:14Z</time>
      </trkpt>
      <trkpt lat="48.62411" lon="1.93152">
        <ele>171</ele>
        <time>2023-09-03T08:27:17Z</time>
      </trkpt>
      <trkpt lat="48.62419" lon="1.93161">
        <ele>171</ele>
        <time>2023-09-03T08:27:20Z</time>
      </trkpt>
      <trkpt lat="48.62428" lon="1.93175">
        <ele>171</ele>
        <time>2023-09-03T08:27:24Z</time>
      </trkpt>
      <trkpt lat="48.62435" lon="1.93187">
        <ele>171</ele>
        <time>2023-09-03T08:27:27Z</time>
      </trkpt>
      <trkpt lat="48.62446" lon="1.93199">
        <ele>171</ele>
        <time>2023-09-03T08:27:31Z</time>
      </trkpt>
      <trkpt lat="48.62457" lon="1.93205">
        <ele>171</ele>
        <time>2023-09-03T08:27:33Z</time>
      </trkpt>
      <trkpt lat="48.62467" lon="1.93212">
        <ele>171</ele>
        <time>2023-09-03T08:27:37Z</time>
      </trkpt>
      <trkpt lat="48.62475" lon="1.93222">
        <ele>171</ele>
        <time>2023-09-03T08:27:40Z</time>
      </trkpt>
      <trkpt lat="48.62483" lon="1.93235">
        <ele>170.7</ele>
        <time>2023-09-03T08:27:43Z</time>
      </trkpt>
      <trkpt lat="48.62492" lon="1.93246">
        <ele>170.8</ele>
        <time>2023-09-03T08:27:46Z</time>
      </trkpt>
      <trkpt lat="48.625" lon="1.93261">
        <ele>171</ele>
        <time>2023-09-03T08:27:49Z</time>
      </trkpt>
      <trkpt lat="48.62508" lon="1.9327">
        <ele>171</ele>
        <time>2023-09-03T08:27:51Z</time>
      </trkpt>
      <trkpt lat="48.62517" lon="1.93269">
        <ele>171</ele>
        <time>2023-09-03T08:27:54Z</time>
      </trkpt>
      <trkpt lat="48.62523" lon="1.93258">
        <ele>171</ele>
        <time>2023-09-03T08:27:56Z</time>
      </trkpt>
      <trkpt lat="48.6253" lon="1.93249">
        <ele>171</ele>
        <time>2023-09-03T08:27:58Z</time>
      </trkpt>
      <trkpt lat="48.62541" lon="1.93235">
        <ele>171</ele>
        <time>2023-09-03T08:28:00Z</time>
      </trkpt>
      <trkpt lat="48.62549" lon="1.93218">
        <ele>171</ele>
        <time>2023-09-03T08:28:03Z</time>
      </trkpt>
      <trkpt lat="48.62556" lon="1.93201">
        <ele>171</ele>
        <time>2023-09-03T08:28:06Z</time>
      </trkpt>
      <trkpt lat="48.62563" lon="1.93186">
        <ele>171</ele>
        <time>2023-09-03T08:28:09Z</time>
      </trkpt>
      <trkpt lat="48.62572" lon="1.93173">
        <ele>171</ele>
        <time>2023-09-03T08:28:12Z</time>
      </trkpt>
      <trkpt lat="48.62576" lon="1.93161">
        <ele>171</ele>
        <time>2023-09-03T08:28:14Z</time>
      </trkpt>
      <trkpt lat="48.62584" lon="1.93144">
        <ele>171</ele>
        <time>2023-09-03T08:28:17Z</time>
      </trkpt>
      <trkpt lat="48.62589" lon="1.93133">
        <ele>171</ele>
        <time>2023-09-03T08:28:19Z</time>
      </trkpt>
      <trkpt lat="48.62595" lon="1.93121">
        <ele>171</ele>
        <time>2023-09-03T08:28:21Z</time>
      </trkpt>
      <trkpt lat="48.62601" lon="1.9311">
        <ele>171</ele>
        <time>2023-09-03T08:28:23Z</time>
      </trkpt>
      <trkpt lat="48.62607" lon="1.93098">
        <ele>171</ele>
        <time>2023-09-03T08:28:25Z</time>
      </trkpt>
      <trkpt lat="48.62612" lon="1.93085">
        <ele>171</ele>
        <time>2023-09-03T08:28:27Z</time>
      </trkpt>
      <trkpt lat="48.62618" lon="1.93068">
        <ele>171</ele>
        <time>2023-09-03T08:28:30Z</time>
      </trkpt>
      <trkpt lat="48.62627" lon="1.93054">
        <ele>171</ele>
        <time>2023-09-03T08:28:33Z</time>
      </trkpt>
      <trkpt lat="48.62632" lon="1.93043">
        <ele>171</ele>
        <time>2023-09-03T08:28:35Z</time>
      </trkpt>
      <trkpt lat="48.6264" lon="1.93028">
        <ele>171</ele>
        <time>2023-09-03T08:28:38Z</time>
      </trkpt>
      <trkpt lat="48.62648" lon="1.9301">
        <ele>171</ele>
        <time>2023-09-03T08:28:41Z</time>
      </trkpt>
      <trkpt lat="48.62654" lon="1.92994">
        <ele>171</ele>
        <time>2023-09-03T08:28:44Z</time>
      </trkpt>
      <trkpt lat="48.62663" lon="1.9298">
        <ele>171</ele>
        <time>2023-09-03T08:28:47Z</time>
      </trkpt>
      <trkpt lat="48.62671" lon="1.92966">
        <ele>171</ele>
        <time>2023-09-03T08:28:50Z</time>
      </trkpt>
      <trkpt lat="48.62678" lon="1.92951">
        <ele>171</ele>
        <time>2023-09-03T08:28:53Z</time>
      </trkpt>
      <trkpt lat="48.62686" lon="1.92937">
        <ele>171</ele>
        <time>2023-09-03T08:28:56Z</time>
      </trkpt>
      <trkpt lat="48.62693" lon="1.92923">
        <ele>171</ele>
        <time>2023-09-03T08:28:59Z</time>
      </trkpt>
      <trkpt lat="48.627" lon="1.92907">
        <ele>171</ele>
        <time>2023-09-03T08:29:02Z</time>
      </trkpt>
      <trkpt lat="48.62706" lon="1.92892">
        <ele>171</ele>
        <time>2023-09-03T08:29:05Z</time>
      </trkpt>
      <trkpt lat="48.62713" lon="1.92874">
        <ele>171</ele>
        <time>2023-09-03T08:29:08Z</time>
      </trkpt>
      <trkpt lat="48.62719" lon="1.92863">
        <ele>171</ele>
        <time>2023-09-03T08:29:10Z</time>
      </trkpt>
      <trkpt lat="48.62726" lon="1.92846">
        <ele>171</ele>
        <time>2023-09-03T08:29:13Z</time>
      </trkpt>
      <trkpt lat="48.62732" lon="1.92834">
        <ele>171</ele>
        <time>2023-09-03T08:29:15Z</time>
      </trkpt>
      <trkpt lat="48.6274" lon="1.9282">
        <ele>171</ele>
        <time>2023-09-03T08:29:18Z</time>
      </trkpt>
      <trkpt lat="48.62745" lon="1.92807">
        <ele>171</ele>
        <time>2023-09-03T08:29:21Z</time>
      </trkpt>
      <trkpt lat="48.62751" lon="1.92796">
        <ele>171</ele>
        <time>2023-09-03T08:29:27Z</time>
      </trkpt>
      <trkpt lat="48.62757" lon="1.92782">
        <ele>171</ele>
        <time>2023-09-03T08:29:32Z</time>
      </trkpt>
      <trkpt lat="48.62762" lon="1.92766">
        <ele>171</ele>
        <time>2023-09-03T08:29:35Z</time>
      </trkpt>
      <trkpt lat="48.62769" lon="1.92752">
        <ele>171</ele>
        <time>2023-09-03T08:29:38Z</time>
      </trkpt>
      <trkpt lat="48.62776" lon="1.9274">
        <ele>171</ele>
        <time>2023-09-03T08:29:40Z</time>
      </trkpt>
      <trkpt lat="48.62782" lon="1.92727">
        <ele>171</ele>
        <time>2023-09-03T08:29:42Z</time>
      </trkpt>
      <trkpt lat="48.62788" lon="1.92713">
        <ele>171</ele>
        <time>2023-09-03T08:29:44Z</time>
      </trkpt>
      <trkpt lat="48.62793" lon="1.927">
        <ele>171</ele>
        <time>2023-09-03T08:29:46Z</time>
      </trkpt>
      <trkpt lat="48.62798" lon="1.92686">
        <ele>171</ele>
        <time>2023-09-03T08:29:48Z</time>
      </trkpt>
      <trkpt lat="48.62803" lon="1.92674">
        <ele>171</ele>
        <time>2023-09-03T08:29:50Z</time>
      </trkpt>
      <trkpt lat="48.62811" lon="1.92659">
        <ele>170.7</ele>
        <time>2023-09-03T08:29:53Z</time>
      </trkpt>
      <trkpt lat="48.62819" lon="1.92643">
        <ele>170.2</ele>
        <time>2023-09-03T08:29:56Z</time>
      </trkpt>
      <trkpt lat="48.62827" lon="1.92627">
        <ele>170</ele>
        <time>2023-09-03T08:29:59Z</time>
      </trkpt>
      <trkpt lat="48.62833" lon="1.92617">
        <ele>170</ele>
        <time>2023-09-03T08:30:01Z</time>
      </trkpt>
      <trkpt lat="48.62839" lon="1.92604">
        <ele>170</ele>
        <time>2023-09-03T08:30:03Z</time>
      </trkpt>
      <trkpt lat="48.62844" lon="1.92591">
        <ele>170</ele>
        <time>2023-09-03T08:30:05Z</time>
      </trkpt>
      <trkpt lat="48.6285" lon="1.92576">
        <ele>170</ele>
        <time>2023-09-03T08:30:08Z</time>
      </trkpt>
      <trkpt lat="48.62857" lon="1.92564">
        <ele>170</ele>
        <time>2023-09-03T08:30:11Z</time>
      </trkpt>
      <trkpt lat="48.62863" lon="1.92549">
        <ele>170</ele>
        <time>2023-09-03T08:30:14Z</time>
      </trkpt>
      <trkpt lat="48.62868" lon="1.92536">
        <ele>170</ele>
        <time>2023-09-03T08:30:17Z</time>
      </trkpt>
      <trkpt lat="48.62874" lon="1.92521">
        <ele>170</ele>
        <time>2023-09-03T08:30:20Z</time>
      </trkpt>
      <trkpt lat="48.62882" lon="1.92507">
        <ele>170</ele>
        <time>2023-09-03T08:30:23Z</time>
      </trkpt>
      <trkpt lat="48.62888" lon="1.92496">
        <ele>170</ele>
        <time>2023-09-03T08:30:26Z</time>
      </trkpt>
      <trkpt lat="48.62896" lon="1.92487">
        <ele>170</ele>
        <time>2023-09-03T08:30:32Z</time>
      </trkpt>
      <trkpt lat="48.62897" lon="1.92503">
        <ele>170</ele>
        <time>2023-09-03T08:30:36Z</time>
      </trkpt>
      <trkpt lat="48.62897" lon="1.92519">
        <ele>170</ele>
        <time>2023-09-03T08:30:39Z</time>
      </trkpt>
      <trkpt lat="48.629" lon="1.92541">
        <ele>170</ele>
        <time>2023-09-03T08:30:42Z</time>
      </trkpt>
      <trkpt lat="48.62903" lon="1.9256">
        <ele>170</ele>
        <time>2023-09-03T08:30:45Z</time>
      </trkpt>
      <trkpt lat="48.6291" lon="1.92578">
        <ele>170</ele>
        <time>2023-09-03T08:30:48Z</time>
      </trkpt>
      <trkpt lat="48.62913" lon="1.92591">
        <ele>170</ele>
        <time>2023-09-03T08:30:50Z</time>
      </trkpt>
      <trkpt lat="48.62919" lon="1.92604">
        <ele>170</ele>
        <time>2023-09-03T08:30:52Z</time>
      </trkpt>
      <trkpt lat="48.62925" lon="1.92616">
        <ele>170</ele>
        <time>2023-09-03T08:30:54Z</time>
      </trkpt>
      <trkpt lat="48.62932" lon="1.92632">
        <ele>170</ele>
        <time>2023-09-03T08:30:57Z</time>
      </trkpt>
      <trkpt lat="48.6294" lon="1.92642">
        <ele>170.1</ele>
        <time>2023-09-03T08:30:59Z</time>
      </trkpt>
      <trkpt lat="48.62949" lon="1.92655">
        <ele>170.6</ele>
        <time>2023-09-03T08:31:02Z</time>
      </trkpt>
      <trkpt lat="48.6296" lon="1.92666">
        <ele>171</ele>
        <time>2023-09-03T08:31:05Z</time>
      </trkpt>
      <trkpt lat="48.62969" lon="1.92676">
        <ele>171</ele>
        <time>2023-09-03T08:31:08Z</time>
      </trkpt>
      <trkpt lat="48.62982" lon="1.92686">
        <ele>170.9</ele>
        <time>2023-09-03T08:31:11Z</time>
      </trkpt>
      <trkpt lat="48.62989" lon="1.92695">
        <ele>171</ele>
        <time>2023-09-03T08:31:13Z</time>
      </trkpt>
      <trkpt lat="48.62995" lon="1.92705">
        <ele>171</ele>
        <time>2023-09-03T08:31:15Z</time>
      </trkpt>
      <trkpt lat="48.63003" lon="1.92719">
        <ele>171</ele>
        <time>2023-09-03T08:31:18Z</time>
      </trkpt>
      <trkpt lat="48.63006" lon="1.92735">
        <ele>171</ele>
        <time>2023-09-03T08:31:21Z</time>
      </trkpt>
      <trkpt lat="48.63011" lon="1.92753">
        <ele>171</ele>
        <time>2023-09-03T08:31:24Z</time>
      </trkpt>
      <trkpt lat="48.63015" lon="1.92771">
        <ele>171</ele>
        <time>2023-09-03T08:31:27Z</time>
      </trkpt>
      <trkpt lat="48.6302" lon="1.92788">
        <ele>171</ele>
        <time>2023-09-03T08:31:30Z</time>
      </trkpt>
      <trkpt lat="48.63029" lon="1.928">
        <ele>171</ele>
        <time>2023-09-03T08:31:33Z</time>
      </trkpt>
      <trkpt lat="48.63034" lon="1.92815">
        <ele>171</ele>
        <time>2023-09-03T08:31:36Z</time>
      </trkpt>
      <trkpt lat="48.63044" lon="1.92829">
        <ele>171</ele>
        <time>2023-09-03T08:31:39Z</time>
      </trkpt>
      <trkpt lat="48.63055" lon="1.9284">
        <ele>171</ele>
        <time>2023-09-03T08:31:42Z</time>
      </trkpt>
      <trkpt lat="48.63064" lon="1.92847">
        <ele>170.5</ele>
        <time>2023-09-03T08:31:44Z</time>
      </trkpt>
      <trkpt lat="48.63073" lon="1.92854">
        <ele>170.2</ele>
        <time>2023-09-03T08:31:46Z</time>
      </trkpt>
      <trkpt lat="48.63081" lon="1.92862">
        <ele>170.1</ele>
        <time>2023-09-03T08:31:48Z</time>
      </trkpt>
      <trkpt lat="48.63094" lon="1.9287">
        <ele>169.8</ele>
        <time>2023-09-03T08:31:51Z</time>
      </trkpt>
      <trkpt lat="48.63104" lon="1.92878">
        <ele>169.7</ele>
        <time>2023-09-03T08:31:53Z</time>
      </trkpt>
      <trkpt lat="48.63114" lon="1.92886">
        <ele>170</ele>
        <time>2023-09-03T08:31:55Z</time>
      </trkpt>
      <trkpt lat="48.63122" lon="1.92893">
        <ele>170.5</ele>
        <time>2023-09-03T08:31:57Z</time>
      </trkpt>
      <trkpt lat="48.63131" lon="1.929">
        <ele>170.8</ele>
        <time>2023-09-03T08:31:59Z</time>
      </trkpt>
      <trkpt lat="48.6314" lon="1.92906">
        <ele>171</ele>
        <time>2023-09-03T08:32:01Z</time>
      </trkpt>
      <trkpt lat="48.63148" lon="1.92914">
        <ele>171</ele>
        <time>2023-09-03T08:32:03Z</time>
      </trkpt>
      <trkpt lat="48.63157" lon="1.92921">
        <ele>171.1</ele>
        <time>2023-09-03T08:32:05Z</time>
      </trkpt>
      <trkpt lat="48.63166" lon="1.92927">
        <ele>171.4</ele>
        <time>2023-09-03T08:32:07Z</time>
      </trkpt>
      <trkpt lat="48.63175" lon="1.9294">
        <ele>171.9</ele>
        <time>2023-09-03T08:32:10Z</time>
      </trkpt>
      <trkpt lat="48.63184" lon="1.92945">
        <ele>172</ele>
        <time>2023-09-03T08:32:12Z</time>
      </trkpt>
      <trkpt lat="48.63192" lon="1.92953">
        <ele>172</ele>
        <time>2023-09-03T08:32:14Z</time>
      </trkpt>
      <trkpt lat="48.63201" lon="1.9296">
        <ele>171.9</ele>
        <time>2023-09-03T08:32:16Z</time>
      </trkpt>
      <trkpt lat="48.63209" lon="1.92971">
        <ele>172</ele>
        <time>2023-09-03T08:32:18Z</time>
      </trkpt>
      <trkpt lat="48.63221" lon="1.92984">
        <ele>172</ele>
        <time>2023-09-03T08:32:21Z</time>
      </trkpt>
      <trkpt lat="48.63231" lon="1.92994">
        <ele>171.7</ele>
        <time>2023-09-03T08:32:23Z</time>
      </trkpt>
      <trkpt lat="48.63236" lon="1.93007">
        <ele>171.5</ele>
        <time>2023-09-03T08:32:25Z</time>
      </trkpt>
      <trkpt lat="48.63242" lon="1.93018">
        <ele>171.3</ele>
        <time>2023-09-03T08:32:27Z</time>
      </trkpt>
      <trkpt lat="48.63246" lon="1.93031">
        <ele>171.1</ele>
        <time>2023-09-03T08:32:29Z</time>
      </trkpt>
      <trkpt lat="48.63253" lon="1.93044">
        <ele>171</ele>
        <time>2023-09-03T08:32:31Z</time>
      </trkpt>
      <trkpt lat="48.63257" lon="1.93055">
        <ele>171</ele>
        <time>2023-09-03T08:32:33Z</time>
      </trkpt>
      <trkpt lat="48.63264" lon="1.93068">
        <ele>171.4</ele>
        <time>2023-09-03T08:32:35Z</time>
      </trkpt>
      <trkpt lat="48.63272" lon="1.93077">
        <ele>171.8</ele>
        <time>2023-09-03T08:32:37Z</time>
      </trkpt>
      <trkpt lat="48.6328" lon="1.9309">
        <ele>171.9</ele>
        <time>2023-09-03T08:32:39Z</time>
      </trkpt>
      <trkpt lat="48.63287" lon="1.93103">
        <ele>171.9</ele>
        <time>2023-09-03T08:32:41Z</time>
      </trkpt>
      <trkpt lat="48.63295" lon="1.93116">
        <ele>172</ele>
        <time>2023-09-03T08:32:43Z</time>
      </trkpt>
      <trkpt lat="48.63302" lon="1.93126">
        <ele>172</ele>
        <time>2023-09-03T08:32:45Z</time>
      </trkpt>
      <trkpt lat="48.6331" lon="1.93138">
        <ele>172</ele>
        <time>2023-09-03T08:32:47Z</time>
      </trkpt>
      <trkpt lat="48.63318" lon="1.9315">
        <ele>172</ele>
        <time>2023-09-03T08:32:49Z</time>
      </trkpt>
      <trkpt lat="48.63327" lon="1.93164">
        <ele>172</ele>
        <time>2023-09-03T08:32:51Z</time>
      </trkpt>
      <trkpt lat="48.63331" lon="1.93177">
        <ele>172</ele>
        <time>2023-09-03T08:32:53Z</time>
      </trkpt>
      <trkpt lat="48.63337" lon="1.93191">
        <ele>172</ele>
        <time>2023-09-03T08:32:55Z</time>
      </trkpt>
      <trkpt lat="48.63341" lon="1.93207">
        <ele>172</ele>
        <time>2023-09-03T08:32:57Z</time>
      </trkpt>
      <trkpt lat="48.63346" lon="1.9322">
        <ele>172</ele>
        <time>2023-09-03T08:32:59Z</time>
      </trkpt>
      <trkpt lat="48.63352" lon="1.93235">
        <ele>172</ele>
        <time>2023-09-03T08:33:01Z</time>
      </trkpt>
      <trkpt lat="48.63356" lon="1.93248">
        <ele>172</ele>
        <time>2023-09-03T08:33:03Z</time>
      </trkpt>
      <trkpt lat="48.63363" lon="1.93263">
        <ele>171.9</ele>
        <time>2023-09-03T08:33:05Z</time>
      </trkpt>
      <trkpt lat="48.6337" lon="1.93279">
        <ele>171.4</ele>
        <time>2023-09-03T08:33:07Z</time>
      </trkpt>
      <trkpt lat="48.63375" lon="1.93296">
        <ele>171</ele>
        <time>2023-09-03T08:33:09Z</time>
      </trkpt>
      <trkpt lat="48.63377" lon="1.93313">
        <ele>170.8</ele>
        <time>2023-09-03T08:33:11Z</time>
      </trkpt>
      <trkpt lat="48.6338" lon="1.93327">
        <ele>170.6</ele>
        <time>2023-09-03T08:33:13Z</time>
      </trkpt>
      <trkpt lat="48.63384" lon="1.93341">
        <ele>170.4</ele>
        <time>2023-09-03T08:33:15Z</time>
      </trkpt>
      <trkpt lat="48.63388" lon="1.93354">
        <ele>170.1</ele>
        <time>2023-09-03T08:33:17Z</time>
      </trkpt>
      <trkpt lat="48.63392" lon="1.93369">
        <ele>169.7</ele>
        <time>2023-09-03T08:33:19Z</time>
      </trkpt>
      <trkpt lat="48.63397" lon="1.93385">
        <ele>169.3</ele>
        <time>2023-09-03T08:33:21Z</time>
      </trkpt>
      <trkpt lat="48.63401" lon="1.93402">
        <ele>169.6</ele>
        <time>2023-09-03T08:33:23Z</time>
      </trkpt>
      <trkpt lat="48.63403" lon="1.93418">
        <ele>170</ele>
        <time>2023-09-03T08:33:25Z</time>
      </trkpt>
      <trkpt lat="48.63405" lon="1.93432">
        <ele>170.2</ele>
        <time>2023-09-03T08:33:27Z</time>
      </trkpt>
      <trkpt lat="48.63404" lon="1.93446">
        <ele>170.4</ele>
        <time>2023-09-03T08:33:29Z</time>
      </trkpt>
      <trkpt lat="48.63401" lon="1.93463">
        <ele>170.2</ele>
        <time>2023-09-03T08:33:32Z</time>
      </trkpt>
      <trkpt lat="48.63397" lon="1.93477">
        <ele>169.8</ele>
        <time>2023-09-03T08:33:35Z</time>
      </trkpt>
      <trkpt lat="48.63398" lon="1.93495">
        <ele>169.2</ele>
        <time>2023-09-03T08:33:39Z</time>
      </trkpt>
      <trkpt lat="48.63406" lon="1.93505">
        <ele>168.6</ele>
        <time>2023-09-03T08:33:42Z</time>
      </trkpt>
      <trkpt lat="48.63417" lon="1.93514">
        <ele>167.5</ele>
        <time>2023-09-03T08:33:44Z</time>
      </trkpt>
      <trkpt lat="48.63429" lon="1.93529">
        <ele>165.5</ele>
        <time>2023-09-03T08:33:46Z</time>
      </trkpt>
      <trkpt lat="48.63442" lon="1.93545">
        <ele>163.3</ele>
        <time>2023-09-03T08:33:48Z</time>
      </trkpt>
      <trkpt lat="48.63451" lon="1.93553">
        <ele>162.3</ele>
        <time>2023-09-03T08:33:49Z</time>
      </trkpt>
      <trkpt lat="48.63461" lon="1.93563">
        <ele>161.3</ele>
        <time>2023-09-03T08:33:50Z</time>
      </trkpt>
      <trkpt lat="48.6347" lon="1.93571">
        <ele>160.4</ele>
        <time>2023-09-03T08:33:51Z</time>
      </trkpt>
      <trkpt lat="48.63477" lon="1.93582">
        <ele>159</ele>
        <time>2023-09-03T08:33:52Z</time>
      </trkpt>
      <trkpt lat="48.63488" lon="1.9359">
        <ele>158</ele>
        <time>2023-09-03T08:33:53Z</time>
      </trkpt>
      <trkpt lat="48.63501" lon="1.93609">
        <ele>156.1</ele>
        <time>2023-09-03T08:33:55Z</time>
      </trkpt>
      <trkpt lat="48.63512" lon="1.93615">
        <ele>155</ele>
        <time>2023-09-03T08:33:56Z</time>
      </trkpt>
      <trkpt lat="48.63526" lon="1.93617">
        <ele>153.9</ele>
        <time>2023-09-03T08:33:58Z</time>
      </trkpt>
      <trkpt lat="48.6354" lon="1.93623">
        <ele>152.5</ele>
        <time>2023-09-03T08:34:00Z</time>
      </trkpt>
      <trkpt lat="48.63556" lon="1.93631">
        <ele>151</ele>
        <time>2023-09-03T08:34:02Z</time>
      </trkpt>
      <trkpt lat="48.63564" lon="1.93636">
        <ele>150.6</ele>
        <time>2023-09-03T08:34:03Z</time>
      </trkpt>
      <trkpt lat="48.6358" lon="1.93647">
        <ele>150.1</ele>
        <time>2023-09-03T08:34:05Z</time>
      </trkpt>
      <trkpt lat="48.63594" lon="1.93658">
        <ele>149.3</ele>
        <time>2023-09-03T08:34:07Z</time>
      </trkpt>
      <trkpt lat="48.63603" lon="1.93663">
        <ele>148.7</ele>
        <time>2023-09-03T08:34:08Z</time>
      </trkpt>
      <trkpt lat="48.63613" lon="1.93671">
        <ele>147.8</ele>
        <time>2023-09-03T08:34:10Z</time>
      </trkpt>
      <trkpt lat="48.63621" lon="1.93679">
        <ele>147.2</ele>
        <time>2023-09-03T08:34:11Z</time>
      </trkpt>
      <trkpt lat="48.6363" lon="1.93685">
        <ele>146.6</ele>
        <time>2023-09-03T08:34:12Z</time>
      </trkpt>
      <trkpt lat="48.63644" lon="1.93696">
        <ele>145.6</ele>
        <time>2023-09-03T08:34:14Z</time>
      </trkpt>
      <trkpt lat="48.63659" lon="1.93705">
        <ele>144.5</ele>
        <time>2023-09-03T08:34:16Z</time>
      </trkpt>
      <trkpt lat="48.63674" lon="1.93714">
        <ele>143.5</ele>
        <time>2023-09-03T08:34:18Z</time>
      </trkpt>
      <trkpt lat="48.63685" lon="1.93725">
        <ele>142.6</ele>
        <time>2023-09-03T08:34:20Z</time>
      </trkpt>
      <trkpt lat="48.63695" lon="1.9373">
        <ele>142</ele>
        <time>2023-09-03T08:34:21Z</time>
      </trkpt>
      <trkpt lat="48.63713" lon="1.93743">
        <ele>140.5</ele>
        <time>2023-09-03T08:34:23Z</time>
      </trkpt>
      <trkpt lat="48.6372" lon="1.93752">
        <ele>140.2</ele>
        <time>2023-09-03T08:34:24Z</time>
      </trkpt>
      <trkpt lat="48.63735" lon="1.93764">
        <ele>138.9</ele>
        <time>2023-09-03T08:34:26Z</time>
      </trkpt>
      <trkpt lat="48.63744" lon="1.93769">
        <ele>138.2</ele>
        <time>2023-09-03T08:34:27Z</time>
      </trkpt>
      <trkpt lat="48.63753" lon="1.9377">
        <ele>137.5</ele>
        <time>2023-09-03T08:34:28Z</time>
      </trkpt>
      <trkpt lat="48.63764" lon="1.93777">
        <ele>137</ele>
        <time>2023-09-03T08:34:30Z</time>
      </trkpt>
      <trkpt lat="48.63775" lon="1.93785">
        <ele>136.2</ele>
        <time>2023-09-03T08:34:32Z</time>
      </trkpt>
      <trkpt lat="48.63789" lon="1.9379">
        <ele>135.2</ele>
        <time>2023-09-03T08:34:34Z</time>
      </trkpt>
      <trkpt lat="48.638" lon="1.93794">
        <ele>134.4</ele>
        <time>2023-09-03T08:34:36Z</time>
      </trkpt>
      <trkpt lat="48.63809" lon="1.93793">
        <ele>133.9</ele>
        <time>2023-09-03T08:34:38Z</time>
      </trkpt>
      <trkpt lat="48.63817" lon="1.93781">
        <ele>134</ele>
        <time>2023-09-03T08:34:41Z</time>
      </trkpt>
      <trkpt lat="48.63818" lon="1.93764">
        <ele>134</ele>
        <time>2023-09-03T08:34:45Z</time>
      </trkpt>
      <trkpt lat="48.63817" lon="1.93748">
        <ele>134.1</ele>
        <time>2023-09-03T08:34:48Z</time>
      </trkpt>
      <trkpt lat="48.63819" lon="1.9373">
        <ele>134.7</ele>
        <time>2023-09-03T08:34:51Z</time>
      </trkpt>
      <trkpt lat="48.63824" lon="1.93715">
        <ele>135.2</ele>
        <time>2023-09-03T08:34:54Z</time>
      </trkpt>
      <trkpt lat="48.63834" lon="1.93716">
        <ele>135.2</ele>
        <time>2023-09-03T08:35:03Z</time>
      </trkpt>
      <trkpt lat="48.63844" lon="1.93715">
        <ele>135.3</ele>
        <time>2023-09-03T08:35:08Z</time>
      </trkpt>
      <trkpt lat="48.63854" lon="1.93717">
        <ele>135.2</ele>
        <time>2023-09-03T08:35:12Z</time>
      </trkpt>
      <trkpt lat="48.63866" lon="1.93708">
        <ele>135.6</ele>
        <time>2023-09-03T08:35:15Z</time>
      </trkpt>
      <trkpt lat="48.63877" lon="1.93699">
        <ele>135.9</ele>
        <time>2023-09-03T08:35:18Z</time>
      </trkpt>
      <trkpt lat="48.63888" lon="1.93692">
        <ele>136.1</ele>
        <time>2023-09-03T08:35:21Z</time>
      </trkpt>
      <trkpt lat="48.63896" lon="1.93684">
        <ele>136.6</ele>
        <time>2023-09-03T08:35:24Z</time>
      </trkpt>
      <trkpt lat="48.63905" lon="1.93679">
        <ele>137.1</ele>
        <time>2023-09-03T08:35:27Z</time>
      </trkpt>
      <trkpt lat="48.63914" lon="1.93674">
        <ele>137.6</ele>
        <time>2023-09-03T08:35:30Z</time>
      </trkpt>
      <trkpt lat="48.63925" lon="1.93669">
        <ele>138.3</ele>
        <time>2023-09-03T08:35:34Z</time>
      </trkpt>
      <trkpt lat="48.63936" lon="1.93664">
        <ele>138.7</ele>
        <time>2023-09-03T08:35:38Z</time>
      </trkpt>
      <trkpt lat="48.63946" lon="1.93663">
        <ele>139.2</ele>
        <time>2023-09-03T08:35:41Z</time>
      </trkpt>
      <trkpt lat="48.63955" lon="1.93661">
        <ele>139.9</ele>
        <time>2023-09-03T08:35:44Z</time>
      </trkpt>
      <trkpt lat="48.63966" lon="1.9366">
        <ele>140.6</ele>
        <time>2023-09-03T08:35:47Z</time>
      </trkpt>
      <trkpt lat="48.63976" lon="1.93659">
        <ele>141.2</ele>
        <time>2023-09-03T08:35:50Z</time>
      </trkpt>
      <trkpt lat="48.63986" lon="1.93657">
        <ele>141.7</ele>
        <time>2023-09-03T08:35:53Z</time>
      </trkpt>
      <trkpt lat="48.63998" lon="1.93654">
        <ele>142.4</ele>
        <time>2023-09-03T08:35:56Z</time>
      </trkpt>
      <trkpt lat="48.64009" lon="1.93651">
        <ele>143</ele>
        <time>2023-09-03T08:35:59Z</time>
      </trkpt>
      <trkpt lat="48.64019" lon="1.93647">
        <ele>143.6</ele>
        <time>2023-09-03T08:36:02Z</time>
      </trkpt>
      <trkpt lat="48.64029" lon="1.93644">
        <ele>144</ele>
        <time>2023-09-03T08:36:05Z</time>
      </trkpt>
      <trkpt lat="48.6404" lon="1.93642">
        <ele>144.4</ele>
        <time>2023-09-03T08:36:08Z</time>
      </trkpt>
      <trkpt lat="48.6405" lon="1.93637">
        <ele>144.8</ele>
        <time>2023-09-03T08:36:11Z</time>
      </trkpt>
      <trkpt lat="48.64059" lon="1.93635">
        <ele>145.3</ele>
        <time>2023-09-03T08:36:14Z</time>
      </trkpt>
      <trkpt lat="48.64069" lon="1.93632">
        <ele>145.7</ele>
        <time>2023-09-03T08:36:17Z</time>
      </trkpt>
      <trkpt lat="48.64079" lon="1.93631">
        <ele>146.1</ele>
        <time>2023-09-03T08:36:20Z</time>
      </trkpt>
      <trkpt lat="48.64091" lon="1.93632">
        <ele>146.6</ele>
        <time>2023-09-03T08:36:24Z</time>
      </trkpt>
      <trkpt lat="48.64101" lon="1.93632">
        <ele>147</ele>
        <time>2023-09-03T08:36:28Z</time>
      </trkpt>
      <trkpt lat="48.6411" lon="1.93633">
        <ele>147.4</ele>
        <time>2023-09-03T08:36:31Z</time>
      </trkpt>
      <trkpt lat="48.64121" lon="1.93632">
        <ele>147.7</ele>
        <time>2023-09-03T08:36:35Z</time>
      </trkpt>
      <trkpt lat="48.64131" lon="1.93634">
        <ele>147.9</ele>
        <time>2023-09-03T08:36:39Z</time>
      </trkpt>
      <trkpt lat="48.64142" lon="1.93639">
        <ele>148</ele>
        <time>2023-09-03T08:36:43Z</time>
      </trkpt>
      <trkpt lat="48.64153" lon="1.9364">
        <ele>148</ele>
        <time>2023-09-03T08:36:47Z</time>
      </trkpt>
      <trkpt lat="48.6416" lon="1.93625">
        <ele>148.5</ele>
        <time>2023-09-03T08:36:51Z</time>
      </trkpt>
      <trkpt lat="48.64164" lon="1.93611">
        <ele>149</ele>
        <time>2023-09-03T08:36:54Z</time>
      </trkpt>
      <trkpt lat="48.6417" lon="1.93598">
        <ele>149.3</ele>
        <time>2023-09-03T08:36:57Z</time>
      </trkpt>
      <trkpt lat="48.64176" lon="1.93586">
        <ele>149.3</ele>
        <time>2023-09-03T08:37:00Z</time>
      </trkpt>
      <trkpt lat="48.64182" lon="1.93572">
        <ele>149.3</ele>
        <time>2023-09-03T08:37:04Z</time>
      </trkpt>
      <trkpt lat="48.64188" lon="1.93561">
        <ele>149.3</ele>
        <time>2023-09-03T08:37:07Z</time>
      </trkpt>
      <trkpt lat="48.64193" lon="1.93549">
        <ele>149.5</ele>
        <time>2023-09-03T08:37:10Z</time>
      </trkpt>
      <trkpt lat="48.64199" lon="1.93535">
        <ele>150</ele>
        <time>2023-09-03T08:37:13Z</time>
      </trkpt>
      <trkpt lat="48.64207" lon="1.93519">
        <ele>150</ele>
        <time>2023-09-03T08:37:16Z</time>
      </trkpt>
      <trkpt lat="48.64216" lon="1.93503">
        <ele>149.6</ele>
        <time>2023-09-03T08:37:18Z</time>
      </trkpt>
      <trkpt lat="48.64221" lon="1.93491">
        <ele>149.5</ele>
        <time>2023-09-03T08:37:20Z</time>
      </trkpt>
      <trkpt lat="48.64226" lon="1.93479">
        <ele>149.4</ele>
        <time>2023-09-03T08:37:22Z</time>
      </trkpt>
      <trkpt lat="48.64229" lon="1.93463">
        <ele>149.6</ele>
        <time>2023-09-03T08:37:24Z</time>
      </trkpt>
      <trkpt lat="48.64237" lon="1.93452">
        <ele>149.1</ele>
        <time>2023-09-03T08:37:27Z</time>
      </trkpt>
      <trkpt lat="48.64249" lon="1.93457">
        <ele>147.6</ele>
        <time>2023-09-03T08:37:30Z</time>
      </trkpt>
      <trkpt lat="48.64258" lon="1.93461">
        <ele>146.5</ele>
        <time>2023-09-03T08:37:32Z</time>
      </trkpt>
      <trkpt lat="48.64272" lon="1.93468">
        <ele>144.7</ele>
        <time>2023-09-03T08:37:34Z</time>
      </trkpt>
      <trkpt lat="48.64287" lon="1.93475">
        <ele>143.3</ele>
        <time>2023-09-03T08:37:36Z</time>
      </trkpt>
      <trkpt lat="48.64296" lon="1.9348">
        <ele>142.6</ele>
        <time>2023-09-03T08:37:37Z</time>
      </trkpt>
      <trkpt lat="48.64305" lon="1.93486">
        <ele>142</ele>
        <time>2023-09-03T08:37:38Z</time>
      </trkpt>
      <trkpt lat="48.64318" lon="1.93497">
        <ele>141.1</ele>
        <time>2023-09-03T08:37:40Z</time>
      </trkpt>
      <trkpt lat="48.64329" lon="1.93499">
        <ele>140.3</ele>
        <time>2023-09-03T08:37:43Z</time>
      </trkpt>
      <trkpt lat="48.64336" lon="1.93488">
        <ele>140.3</ele>
        <time>2023-09-03T08:37:45Z</time>
      </trkpt>
      <trkpt lat="48.64348" lon="1.93476">
        <ele>140.3</ele>
        <time>2023-09-03T08:37:48Z</time>
      </trkpt>
      <trkpt lat="48.64358" lon="1.93468">
        <ele>140.1</ele>
        <time>2023-09-03T08:37:51Z</time>
      </trkpt>
      <trkpt lat="48.64372" lon="1.93462">
        <ele>140.2</ele>
        <time>2023-09-03T08:37:54Z</time>
      </trkpt>
      <trkpt lat="48.6438" lon="1.93466">
        <ele>140.5</ele>
        <time>2023-09-03T08:37:57Z</time>
      </trkpt>
      <trkpt lat="48.64385" lon="1.93478">
        <ele>140.8</ele>
        <time>2023-09-03T08:38:02Z</time>
      </trkpt>
      <trkpt lat="48.64395" lon="1.93485">
        <ele>141.8</ele>
        <time>2023-09-03T08:38:11Z</time>
      </trkpt>
      <trkpt lat="48.64404" lon="1.93491">
        <ele>143.3</ele>
        <time>2023-09-03T08:38:19Z</time>
      </trkpt>
      <trkpt lat="48.64413" lon="1.93497">
        <ele>145.2</ele>
        <time>2023-09-03T08:38:24Z</time>
      </trkpt>
      <trkpt lat="48.64422" lon="1.93502">
        <ele>147</ele>
        <time>2023-09-03T08:38:29Z</time>
      </trkpt>
      <trkpt lat="48.6443" lon="1.93513">
        <ele>148.8</ele>
        <time>2023-09-03T08:38:35Z</time>
      </trkpt>
      <trkpt lat="48.64438" lon="1.93521">
        <ele>150.5</ele>
        <time>2023-09-03T08:38:40Z</time>
      </trkpt>
      <trkpt lat="48.64446" lon="1.93529">
        <ele>152.3</ele>
        <time>2023-09-03T08:38:46Z</time>
      </trkpt>
      <trkpt lat="48.64454" lon="1.93538">
        <ele>154.1</ele>
        <time>2023-09-03T08:38:54Z</time>
      </trkpt>
      <trkpt lat="48.64462" lon="1.93545">
        <ele>155.8</ele>
        <time>2023-09-03T08:39:04Z</time>
      </trkpt>
      <trkpt lat="48.6447" lon="1.93554">
        <ele>157.5</ele>
        <time>2023-09-03T08:39:12Z</time>
      </trkpt>
      <trkpt lat="48.64477" lon="1.93564">
        <ele>158.8</ele>
        <time>2023-09-03T08:39:19Z</time>
      </trkpt>
      <trkpt lat="48.64484" lon="1.93572">
        <ele>159.9</ele>
        <time>2023-09-03T08:39:26Z</time>
      </trkpt>
      <trkpt lat="48.6449" lon="1.93583">
        <ele>161.3</ele>
        <time>2023-09-03T08:39:33Z</time>
      </trkpt>
      <trkpt lat="48.64496" lon="1.93593">
        <ele>162.4</ele>
        <time>2023-09-03T08:39:39Z</time>
      </trkpt>
      <trkpt lat="48.64504" lon="1.936">
        <ele>163.4</ele>
        <time>2023-09-03T08:39:45Z</time>
      </trkpt>
      <trkpt lat="48.64513" lon="1.93608">
        <ele>164.3</ele>
        <time>2023-09-03T08:39:52Z</time>
      </trkpt>
      <trkpt lat="48.64522" lon="1.93615">
        <ele>165.1</ele>
        <time>2023-09-03T08:39:59Z</time>
      </trkpt>
      <trkpt lat="48.64531" lon="1.93623">
        <ele>166</ele>
        <time>2023-09-03T08:40:05Z</time>
      </trkpt>
      <trkpt lat="48.64539" lon="1.93632">
        <ele>166.9</ele>
        <time>2023-09-03T08:40:10Z</time>
      </trkpt>
      <trkpt lat="48.64548" lon="1.9364">
        <ele>167.8</ele>
        <time>2023-09-03T08:40:14Z</time>
      </trkpt>
      <trkpt lat="48.64557" lon="1.9365">
        <ele>168.8</ele>
        <time>2023-09-03T08:40:19Z</time>
      </trkpt>
      <trkpt lat="48.64565" lon="1.93661">
        <ele>169.6</ele>
        <time>2023-09-03T08:40:23Z</time>
      </trkpt>
      <trkpt lat="48.64573" lon="1.93668">
        <ele>170</ele>
        <time>2023-09-03T08:40:26Z</time>
      </trkpt>
      <trkpt lat="48.64581" lon="1.93677">
        <ele>170.4</ele>
        <time>2023-09-03T08:40:29Z</time>
      </trkpt>
      <trkpt lat="48.6459" lon="1.93684">
        <ele>170.9</ele>
        <time>2023-09-03T08:40:32Z</time>
      </trkpt>
      <trkpt lat="48.646" lon="1.93696">
        <ele>171.6</ele>
        <time>2023-09-03T08:40:35Z</time>
      </trkpt>
      <trkpt lat="48.64609" lon="1.93705">
        <ele>172</ele>
        <time>2023-09-03T08:40:37Z</time>
      </trkpt>
      <trkpt lat="48.64617" lon="1.93719">
        <ele>172</ele>
        <time>2023-09-03T08:40:40Z</time>
      </trkpt>
      <trkpt lat="48.64625" lon="1.93727">
        <ele>172</ele>
        <time>2023-09-03T08:40:43Z</time>
      </trkpt>
      <trkpt lat="48.64633" lon="1.93736">
        <ele>172</ele>
        <time>2023-09-03T08:40:46Z</time>
      </trkpt>
      <trkpt lat="48.64641" lon="1.93747">
        <ele>172</ele>
        <time>2023-09-03T08:40:49Z</time>
      </trkpt>
      <trkpt lat="48.6465" lon="1.93758">
        <ele>172</ele>
        <time>2023-09-03T08:40:53Z</time>
      </trkpt>
      <trkpt lat="48.6466" lon="1.93771">
        <ele>172</ele>
        <time>2023-09-03T08:40:56Z</time>
      </trkpt>
      <trkpt lat="48.6467" lon="1.93783">
        <ele>172</ele>
        <time>2023-09-03T08:40:59Z</time>
      </trkpt>
      <trkpt lat="48.6468" lon="1.93795">
        <ele>172</ele>
        <time>2023-09-03T08:41:02Z</time>
      </trkpt>
      <trkpt lat="48.6469" lon="1.93807">
        <ele>172</ele>
        <time>2023-09-03T08:41:05Z</time>
      </trkpt>
      <trkpt lat="48.64698" lon="1.93814">
        <ele>172</ele>
        <time>2023-09-03T08:41:07Z</time>
      </trkpt>
      <trkpt lat="48.6471" lon="1.93825">
        <ele>172</ele>
        <time>2023-09-03T08:41:10Z</time>
      </trkpt>
      <trkpt lat="48.64717" lon="1.93833">
        <ele>172</ele>
        <time>2023-09-03T08:41:12Z</time>
      </trkpt>
      <trkpt lat="48.64725" lon="1.93842">
        <ele>172</ele>
        <time>2023-09-03T08:41:14Z</time>
      </trkpt>
      <trkpt lat="48.64736" lon="1.93854">
        <ele>172</ele>
        <time>2023-09-03T08:41:17Z</time>
      </trkpt>
      <trkpt lat="48.64747" lon="1.93864">
        <ele>172</ele>
        <time>2023-09-03T08:41:20Z</time>
      </trkpt>
      <trkpt lat="48.64758" lon="1.93873">
        <ele>171.7</ele>
        <time>2023-09-03T08:41:23Z</time>
      </trkpt>
      <trkpt lat="48.64767" lon="1.93878">
        <ele>171.4</ele>
        <time>2023-09-03T08:41:25Z</time>
      </trkpt>
      <trkpt lat="48.64775" lon="1.93886">
        <ele>171.1</ele>
        <time>2023-09-03T08:41:27Z</time>
      </trkpt>
      <trkpt lat="48.64785" lon="1.93897">
        <ele>171</ele>
        <time>2023-09-03T08:41:29Z</time>
      </trkpt>
      <trkpt lat="48.64795" lon="1.93909">
        <ele>171</ele>
        <time>2023-09-03T08:41:32Z</time>
      </trkpt>
      <trkpt lat="48.64803" lon="1.93917">
        <ele>171</ele>
        <time>2023-09-03T08:41:34Z</time>
      </trkpt>
      <trkpt lat="48.64811" lon="1.93926">
        <ele>170.8</ele>
        <time>2023-09-03T08:41:36Z</time>
      </trkpt>
      <trkpt lat="48.64819" lon="1.93935">
        <ele>170.5</ele>
        <time>2023-09-03T08:41:38Z</time>
      </trkpt>
      <trkpt lat="48.64828" lon="1.93946">
        <ele>170.2</ele>
        <time>2023-09-03T08:41:40Z</time>
      </trkpt>
      <trkpt lat="48.64836" lon="1.93961">
        <ele>170</ele>
        <time>2023-09-03T08:41:43Z</time>
      </trkpt>
      <trkpt lat="48.64844" lon="1.93968">
        <ele>170</ele>
        <time>2023-09-03T08:41:45Z</time>
      </trkpt>
      <trkpt lat="48.64852" lon="1.93976">
        <ele>170</ele>
        <time>2023-09-03T08:41:47Z</time>
      </trkpt>
      <trkpt lat="48.64861" lon="1.9399">
        <ele>170</ele>
        <time>2023-09-03T08:41:50Z</time>
      </trkpt>
      <trkpt lat="48.64862" lon="1.94009">
        <ele>169.6</ele>
        <time>2023-09-03T08:41:53Z</time>
      </trkpt>
      <trkpt lat="48.64857" lon="1.94021">
        <ele>169.4</ele>
        <time>2023-09-03T08:41:55Z</time>
      </trkpt>
      <trkpt lat="48.64852" lon="1.94034">
        <ele>169.3</ele>
        <time>2023-09-03T08:41:57Z</time>
      </trkpt>
      <trkpt lat="48.64845" lon="1.9405">
        <ele>169.6</ele>
        <time>2023-09-03T08:42:00Z</time>
      </trkpt>
      <trkpt lat="48.64838" lon="1.94067">
        <ele>169.8</ele>
        <time>2023-09-03T08:42:03Z</time>
      </trkpt>
      <trkpt lat="48.64832" lon="1.94083">
        <ele>170</ele>
        <time>2023-09-03T08:42:06Z</time>
      </trkpt>
      <trkpt lat="48.64827" lon="1.94097">
        <ele>170</ele>
        <time>2023-09-03T08:42:09Z</time>
      </trkpt>
      <trkpt lat="48.64822" lon="1.9411">
        <ele>170</ele>
        <time>2023-09-03T08:42:12Z</time>
      </trkpt>
      <trkpt lat="48.64817" lon="1.94122">
        <ele>170</ele>
        <time>2023-09-03T08:42:15Z</time>
      </trkpt>
      <trkpt lat="48.64811" lon="1.94133">
        <ele>170</ele>
        <time>2023-09-03T08:42:18Z</time>
      </trkpt>
      <trkpt lat="48.64805" lon="1.94145">
        <ele>170</ele>
        <time>2023-09-03T08:42:21Z</time>
      </trkpt>
      <trkpt lat="48.64799" lon="1.94156">
        <ele>170</ele>
        <time>2023-09-03T08:42:24Z</time>
      </trkpt>
      <trkpt lat="48.64792" lon="1.9417">
        <ele>170</ele>
        <time>2023-09-03T08:42:28Z</time>
      </trkpt>
      <trkpt lat="48.64788" lon="1.94186">
        <ele>170</ele>
        <time>2023-09-03T08:42:32Z</time>
      </trkpt>
      <trkpt lat="48.64783" lon="1.94201">
        <ele>170</ele>
        <time>2023-09-03T08:42:36Z</time>
      </trkpt>
      <trkpt lat="48.64776" lon="1.94212">
        <ele>170</ele>
        <time>2023-09-03T08:42:42Z</time>
      </trkpt>
      <trkpt lat="48.64767" lon="1.94223">
        <ele>170.4</ele>
        <time>2023-09-03T08:42:47Z</time>
      </trkpt>
      <trkpt lat="48.64759" lon="1.94234">
        <ele>170.7</ele>
        <time>2023-09-03T08:42:51Z</time>
      </trkpt>
      <trkpt lat="48.64754" lon="1.94246">
        <ele>170.9</ele>
        <time>2023-09-03T08:42:55Z</time>
      </trkpt>
      <trkpt lat="48.64747" lon="1.9426">
        <ele>171</ele>
        <time>2023-09-03T08:42:59Z</time>
      </trkpt>
      <trkpt lat="48.64743" lon="1.94271">
        <ele>171</ele>
        <time>2023-09-03T08:43:01Z</time>
      </trkpt>
      <trkpt lat="48.64735" lon="1.94288">
        <ele>171</ele>
        <time>2023-09-03T08:43:04Z</time>
      </trkpt>
      <trkpt lat="48.64729" lon="1.94314">
        <ele>171</ele>
        <time>2023-09-03T08:43:05Z</time>
      </trkpt>
      <trkpt lat="48.64723" lon="1.94329">
        <ele>171</ele>
        <time>2023-09-03T08:43:08Z</time>
      </trkpt>
      <trkpt lat="48.64717" lon="1.94343">
        <ele>171</ele>
        <time>2023-09-03T08:43:11Z</time>
      </trkpt>
      <trkpt lat="48.64711" lon="1.94359">
        <ele>171</ele>
        <time>2023-09-03T08:43:15Z</time>
      </trkpt>
      <trkpt lat="48.64705" lon="1.94373">
        <ele>171</ele>
        <time>2023-09-03T08:43:18Z</time>
      </trkpt>
      <trkpt lat="48.64698" lon="1.94392">
        <ele>171</ele>
        <time>2023-09-03T08:43:21Z</time>
      </trkpt>
      <trkpt lat="48.64692" lon="1.94406">
        <ele>171</ele>
        <time>2023-09-03T08:43:24Z</time>
      </trkpt>
      <trkpt lat="48.64686" lon="1.9442">
        <ele>171</ele>
        <time>2023-09-03T08:43:27Z</time>
      </trkpt>
      <trkpt lat="48.6468" lon="1.94433">
        <ele>171</ele>
        <time>2023-09-03T08:43:29Z</time>
      </trkpt>
      <trkpt lat="48.64674" lon="1.94448">
        <ele>171</ele>
        <time>2023-09-03T08:43:32Z</time>
      </trkpt>
      <trkpt lat="48.6467" lon="1.94465">
        <ele>171</ele>
        <time>2023-09-03T08:43:34Z</time>
      </trkpt>
      <trkpt lat="48.64662" lon="1.94479">
        <ele>171</ele>
        <time>2023-09-03T08:43:37Z</time>
      </trkpt>
      <trkpt lat="48.64656" lon="1.94493">
        <ele>171</ele>
        <time>2023-09-03T08:43:40Z</time>
      </trkpt>
      <trkpt lat="48.6465" lon="1.94507">
        <ele>171</ele>
        <time>2023-09-03T08:43:43Z</time>
      </trkpt>
      <trkpt lat="48.64644" lon="1.94523">
        <ele>171</ele>
        <time>2023-09-03T08:43:46Z</time>
      </trkpt>
      <trkpt lat="48.64637" lon="1.94538">
        <ele>171</ele>
        <time>2023-09-03T08:43:49Z</time>
      </trkpt>
      <trkpt lat="48.64632" lon="1.94549">
        <ele>171</ele>
        <time>2023-09-03T08:43:51Z</time>
      </trkpt>
      <trkpt lat="48.64628" lon="1.94562">
        <ele>171</ele>
        <time>2023-09-03T08:43:53Z</time>
      </trkpt>
      <trkpt lat="48.64623" lon="1.94579">
        <ele>171</ele>
        <time>2023-09-03T08:43:56Z</time>
      </trkpt>
      <trkpt lat="48.64617" lon="1.9459">
        <ele>171</ele>
        <time>2023-09-03T08:43:58Z</time>
      </trkpt>
      <trkpt lat="48.64611" lon="1.94604">
        <ele>171</ele>
        <time>2023-09-03T08:44:01Z</time>
      </trkpt>
      <trkpt lat="48.64605" lon="1.94617">
        <ele>170.8</ele>
        <time>2023-09-03T08:44:04Z</time>
      </trkpt>
      <trkpt lat="48.64598" lon="1.9463">
        <ele>170.3</ele>
        <time>2023-09-03T08:44:07Z</time>
      </trkpt>
      <trkpt lat="48.64591" lon="1.94646">
        <ele>170</ele>
        <time>2023-09-03T08:44:10Z</time>
      </trkpt>
      <trkpt lat="48.64584" lon="1.94661">
        <ele>170</ele>
        <time>2023-09-03T08:44:13Z</time>
      </trkpt>
      <trkpt lat="48.64579" lon="1.94673">
        <ele>170</ele>
        <time>2023-09-03T08:44:15Z</time>
      </trkpt>
      <trkpt lat="48.64574" lon="1.94685">
        <ele>170</ele>
        <time>2023-09-03T08:44:17Z</time>
      </trkpt>
      <trkpt lat="48.64569" lon="1.94697">
        <ele>169.9</ele>
        <time>2023-09-03T08:44:19Z</time>
      </trkpt>
      <trkpt lat="48.64561" lon="1.94711">
        <ele>169.4</ele>
        <time>2023-09-03T08:44:22Z</time>
      </trkpt>
      <trkpt lat="48.64557" lon="1.94725">
        <ele>168.9</ele>
        <time>2023-09-03T08:44:24Z</time>
      </trkpt>
      <trkpt lat="48.6455" lon="1.94741">
        <ele>168.2</ele>
        <time>2023-09-03T08:44:26Z</time>
      </trkpt>
      <trkpt lat="48.64543" lon="1.94754">
        <ele>167.4</ele>
        <time>2023-09-03T08:44:28Z</time>
      </trkpt>
      <trkpt lat="48.64538" lon="1.9477">
        <ele>166.6</ele>
        <time>2023-09-03T08:44:30Z</time>
      </trkpt>
      <trkpt lat="48.64532" lon="1.94787">
        <ele>165.5</ele>
        <time>2023-09-03T08:44:33Z</time>
      </trkpt>
      <trkpt lat="48.64525" lon="1.94803">
        <ele>164</ele>
        <time>2023-09-03T08:44:36Z</time>
      </trkpt>
      <trkpt lat="48.64518" lon="1.94818">
        <ele>162.6</ele>
        <time>2023-09-03T08:44:39Z</time>
      </trkpt>
      <trkpt lat="48.6451" lon="1.94835">
        <ele>160.3</ele>
        <time>2023-09-03T08:44:42Z</time>
      </trkpt>
      <trkpt lat="48.64503" lon="1.94853">
        <ele>157.3</ele>
        <time>2023-09-03T08:44:45Z</time>
      </trkpt>
      <trkpt lat="48.64498" lon="1.9487">
        <ele>154.5</ele>
        <time>2023-09-03T08:44:47Z</time>
      </trkpt>
      <trkpt lat="48.64491" lon="1.94884">
        <ele>151.7</ele>
        <time>2023-09-03T08:44:49Z</time>
      </trkpt>
      <trkpt lat="48.64484" lon="1.94898">
        <ele>149.1</ele>
        <time>2023-09-03T08:44:51Z</time>
      </trkpt>
      <trkpt lat="48.64476" lon="1.94913">
        <ele>146.6</ele>
        <time>2023-09-03T08:44:53Z</time>
      </trkpt>
      <trkpt lat="48.64471" lon="1.94929">
        <ele>144.1</ele>
        <time>2023-09-03T08:44:55Z</time>
      </trkpt>
      <trkpt lat="48.64463" lon="1.94947">
        <ele>141.4</ele>
        <time>2023-09-03T08:44:58Z</time>
      </trkpt>
      <trkpt lat="48.64456" lon="1.94966">
        <ele>139.1</ele>
        <time>2023-09-03T08:45:01Z</time>
      </trkpt>
      <trkpt lat="48.64449" lon="1.9498">
        <ele>137.6</ele>
        <time>2023-09-03T08:45:04Z</time>
      </trkpt>
      <trkpt lat="48.64442" lon="1.94996">
        <ele>136.2</ele>
        <time>2023-09-03T08:45:07Z</time>
      </trkpt>
      <trkpt lat="48.64435" lon="1.95014">
        <ele>134.9</ele>
        <time>2023-09-03T08:45:10Z</time>
      </trkpt>
      <trkpt lat="48.64428" lon="1.95029">
        <ele>134</ele>
        <time>2023-09-03T08:45:13Z</time>
      </trkpt>
      <trkpt lat="48.64423" lon="1.95042">
        <ele>133.1</ele>
        <time>2023-09-03T08:45:16Z</time>
      </trkpt>
      <trkpt lat="48.64418" lon="1.95055">
        <ele>132.1</ele>
        <time>2023-09-03T08:45:25Z</time>
      </trkpt>
      <trkpt lat="48.6441" lon="1.9507">
        <ele>131.4</ele>
        <time>2023-09-03T08:45:29Z</time>
      </trkpt>
      <trkpt lat="48.64397" lon="1.95076">
        <ele>130.8</ele>
        <time>2023-09-03T08:45:32Z</time>
      </trkpt>
      <trkpt lat="48.64387" lon="1.95078">
        <ele>130.4</ele>
        <time>2023-09-03T08:45:34Z</time>
      </trkpt>
      <trkpt lat="48.64378" lon="1.95083">
        <ele>130</ele>
        <time>2023-09-03T08:45:36Z</time>
      </trkpt>
      <trkpt lat="48.64369" lon="1.95089">
        <ele>129.7</ele>
        <time>2023-09-03T08:45:38Z</time>
      </trkpt>
      <trkpt lat="48.6436" lon="1.95095">
        <ele>129.1</ele>
        <time>2023-09-03T08:45:40Z</time>
      </trkpt>
      <trkpt lat="48.6435" lon="1.95101">
        <ele>128.6</ele>
        <time>2023-09-03T08:45:42Z</time>
      </trkpt>
      <trkpt lat="48.64339" lon="1.95107">
        <ele>128.2</ele>
        <time>2023-09-03T08:45:44Z</time>
      </trkpt>
      <trkpt lat="48.64327" lon="1.95112">
        <ele>127.8</ele>
        <time>2023-09-03T08:45:46Z</time>
      </trkpt>
      <trkpt lat="48.64315" lon="1.95115">
        <ele>127.2</ele>
        <time>2023-09-03T08:45:48Z</time>
      </trkpt>
      <trkpt lat="48.64301" lon="1.95114">
        <ele>126.9</ele>
        <time>2023-09-03T08:45:50Z</time>
      </trkpt>
      <trkpt lat="48.64288" lon="1.9511">
        <ele>127</ele>
        <time>2023-09-03T08:45:52Z</time>
      </trkpt>
      <trkpt lat="48.64275" lon="1.95107">
        <ele>126.9</ele>
        <time>2023-09-03T08:45:54Z</time>
      </trkpt>
      <trkpt lat="48.64262" lon="1.95101">
        <ele>126.6</ele>
        <time>2023-09-03T08:45:56Z</time>
      </trkpt>
      <trkpt lat="48.64249" lon="1.95096">
        <ele>126.5</ele>
        <time>2023-09-03T08:45:58Z</time>
      </trkpt>
      <trkpt lat="48.64236" lon="1.95092">
        <ele>126.5</ele>
        <time>2023-09-03T08:46:00Z</time>
      </trkpt>
      <trkpt lat="48.64224" lon="1.95088">
        <ele>126.7</ele>
        <time>2023-09-03T08:46:02Z</time>
      </trkpt>
      <trkpt lat="48.64211" lon="1.95085">
        <ele>126.5</ele>
        <time>2023-09-03T08:46:04Z</time>
      </trkpt>
      <trkpt lat="48.64198" lon="1.9508">
        <ele>126.2</ele>
        <time>2023-09-03T08:46:06Z</time>
      </trkpt>
      <trkpt lat="48.64185" lon="1.95074">
        <ele>126.3</ele>
        <time>2023-09-03T08:46:08Z</time>
      </trkpt>
      <trkpt lat="48.64171" lon="1.95069">
        <ele>126.5</ele>
        <time>2023-09-03T08:46:10Z</time>
      </trkpt>
      <trkpt lat="48.64157" lon="1.95063">
        <ele>126.4</ele>
        <time>2023-09-03T08:46:12Z</time>
      </trkpt>
      <trkpt lat="48.64144" lon="1.95058">
        <ele>126.1</ele>
        <time>2023-09-03T08:46:14Z</time>
      </trkpt>
      <trkpt lat="48.6413" lon="1.9505">
        <ele>125.9</ele>
        <time>2023-09-03T08:46:16Z</time>
      </trkpt>
      <trkpt lat="48.64118" lon="1.95042">
        <ele>125.7</ele>
        <time>2023-09-03T08:46:18Z</time>
      </trkpt>
      <trkpt lat="48.64104" lon="1.95033">
        <ele>125.6</ele>
        <time>2023-09-03T08:46:20Z</time>
      </trkpt>
      <trkpt lat="48.64091" lon="1.95024">
        <ele>125.3</ele>
        <time>2023-09-03T08:46:22Z</time>
      </trkpt>
      <trkpt lat="48.64078" lon="1.95017">
        <ele>124.9</ele>
        <time>2023-09-03T08:46:24Z</time>
      </trkpt>
      <trkpt lat="48.64065" lon="1.9501">
        <ele>124.8</ele>
        <time>2023-09-03T08:46:26Z</time>
      </trkpt>
      <trkpt lat="48.64052" lon="1.95006">
        <ele>124.7</ele>
        <time>2023-09-03T08:46:28Z</time>
      </trkpt>
      <trkpt lat="48.64039" lon="1.95006">
        <ele>124.3</ele>
        <time>2023-09-03T08:46:30Z</time>
      </trkpt>
      <trkpt lat="48.64023" lon="1.95006">
        <ele>124</ele>
        <time>2023-09-03T08:46:32Z</time>
      </trkpt>
      <trkpt lat="48.64009" lon="1.95011">
        <ele>124</ele>
        <time>2023-09-03T08:46:34Z</time>
      </trkpt>
      <trkpt lat="48.63996" lon="1.95011">
        <ele>124.1</ele>
        <time>2023-09-03T08:46:36Z</time>
      </trkpt>
      <trkpt lat="48.63985" lon="1.95019">
        <ele>124.4</ele>
        <time>2023-09-03T08:46:38Z</time>
      </trkpt>
      <trkpt lat="48.63975" lon="1.95029">
        <ele>124.9</ele>
        <time>2023-09-03T08:46:41Z</time>
      </trkpt>
      <trkpt lat="48.63978" lon="1.95044">
        <ele>124.9</ele>
        <time>2023-09-03T08:46:44Z</time>
      </trkpt>
      <trkpt lat="48.63986" lon="1.95051">
        <ele>124.9</ele>
        <time>2023-09-03T08:46:53Z</time>
      </trkpt>
      <trkpt lat="48.63996" lon="1.95053">
        <ele>124.9</ele>
        <time>2023-09-03T08:46:59Z</time>
      </trkpt>
      <trkpt lat="48.64004" lon="1.95061">
        <ele>124.8</ele>
        <time>2023-09-03T08:47:02Z</time>
      </trkpt>
      <trkpt lat="48.64013" lon="1.95075">
        <ele>124.2</ele>
        <time>2023-09-03T08:47:05Z</time>
      </trkpt>
      <trkpt lat="48.64016" lon="1.95087">
        <ele>124</ele>
        <time>2023-09-03T08:47:07Z</time>
      </trkpt>
      <trkpt lat="48.64022" lon="1.95098">
        <ele>123.9</ele>
        <time>2023-09-03T08:47:09Z</time>
      </trkpt>
      <trkpt lat="48.64027" lon="1.9511">
        <ele>124</ele>
        <time>2023-09-03T08:47:11Z</time>
      </trkpt>
      <trkpt lat="48.64034" lon="1.95127">
        <ele>125.1</ele>
        <time>2023-09-03T08:47:14Z</time>
      </trkpt>
      <trkpt lat="48.6404" lon="1.95142">
        <ele>126.4</ele>
        <time>2023-09-03T08:47:17Z</time>
      </trkpt>
      <trkpt lat="48.64049" lon="1.95154">
        <ele>127.7</ele>
        <time>2023-09-03T08:47:21Z</time>
      </trkpt>
      <trkpt lat="48.64061" lon="1.95156">
        <ele>128.1</ele>
        <time>2023-09-03T08:47:24Z</time>
      </trkpt>
      <trkpt lat="48.64071" lon="1.95155">
        <ele>128.7</ele>
        <time>2023-09-03T08:47:26Z</time>
      </trkpt>
      <trkpt lat="48.64084" lon="1.95155">
        <ele>129.3</ele>
        <time>2023-09-03T08:47:29Z</time>
      </trkpt>
      <trkpt lat="48.64093" lon="1.95151">
        <ele>129.2</ele>
        <time>2023-09-03T08:47:31Z</time>
      </trkpt>
      <trkpt lat="48.64105" lon="1.95151">
        <ele>129.5</ele>
        <time>2023-09-03T08:47:34Z</time>
      </trkpt>
      <trkpt lat="48.64118" lon="1.95155">
        <ele>130</ele>
        <time>2023-09-03T08:47:37Z</time>
      </trkpt>
      <trkpt lat="48.64129" lon="1.95156">
        <ele>129.8</ele>
        <time>2023-09-03T08:47:40Z</time>
      </trkpt>
      <trkpt lat="48.64141" lon="1.95158">
        <ele>129.8</ele>
        <time>2023-09-03T08:47:43Z</time>
      </trkpt>
      <trkpt lat="48.6415" lon="1.95159">
        <ele>129.8</ele>
        <time>2023-09-03T08:47:46Z</time>
      </trkpt>
      <trkpt lat="48.64159" lon="1.95158">
        <ele>129.5</ele>
        <time>2023-09-03T08:47:48Z</time>
      </trkpt>
      <trkpt lat="48.64171" lon="1.95164">
        <ele>130.3</ele>
        <time>2023-09-03T08:47:51Z</time>
      </trkpt>
      <trkpt lat="48.64183" lon="1.95161">
        <ele>129.5</ele>
        <time>2023-09-03T08:47:54Z</time>
      </trkpt>
      <trkpt lat="48.64196" lon="1.9516">
        <ele>128.8</ele>
        <time>2023-09-03T08:47:57Z</time>
      </trkpt>
      <trkpt lat="48.64209" lon="1.95164">
        <ele>128.7</ele>
        <time>2023-09-03T08:48:00Z</time>
      </trkpt>
      <trkpt lat="48.64219" lon="1.95168">
        <ele>128.5</ele>
        <time>2023-09-03T08:48:03Z</time>
      </trkpt>
      <trkpt lat="48.64234" lon="1.95175">
        <ele>128.3</ele>
        <time>2023-09-03T08:48:06Z</time>
      </trkpt>
      <trkpt lat="48.64242" lon="1.95187">
        <ele>129</ele>
        <time>2023-09-03T08:48:08Z</time>
      </trkpt>
      <trkpt lat="48.6425" lon="1.95202">
        <ele>130</ele>
        <time>2023-09-03T08:48:12Z</time>
      </trkpt>
      <trkpt lat="48.64257" lon="1.95214">
        <ele>131</ele>
        <time>2023-09-03T08:48:15Z</time>
      </trkpt>
      <trkpt lat="48.64265" lon="1.95222">
        <ele>130.8</ele>
        <time>2023-09-03T08:48:18Z</time>
      </trkpt>
      <trkpt lat="48.64273" lon="1.95233">
        <ele>131.7</ele>
        <time>2023-09-03T08:48:21Z</time>
      </trkpt>
      <trkpt lat="48.6428" lon="1.95244">
        <ele>132.5</ele>
        <time>2023-09-03T08:48:24Z</time>
      </trkpt>
      <trkpt lat="48.64292" lon="1.95258">
        <ele>133.5</ele>
        <time>2023-09-03T08:48:27Z</time>
      </trkpt>
      <trkpt lat="48.643" lon="1.95268">
        <ele>134.4</ele>
        <time>2023-09-03T08:48:29Z</time>
      </trkpt>
      <trkpt lat="48.64308" lon="1.95276">
        <ele>135.1</ele>
        <time>2023-09-03T08:48:31Z</time>
      </trkpt>
      <trkpt lat="48.64316" lon="1.95282">
        <ele>135.2</ele>
        <time>2023-09-03T08:48:33Z</time>
      </trkpt>
      <trkpt lat="48.64325" lon="1.95288">
        <ele>135.2</ele>
        <time>2023-09-03T08:48:34Z</time>
      </trkpt>
      <trkpt lat="48.6434" lon="1.95296">
        <ele>136</ele>
        <time>2023-09-03T08:48:36Z</time>
      </trkpt>
      <trkpt lat="48.64355" lon="1.95297">
        <ele>135.8</ele>
        <time>2023-09-03T08:48:38Z</time>
      </trkpt>
      <trkpt lat="48.64371" lon="1.95297">
        <ele>135.8</ele>
        <time>2023-09-03T08:48:40Z</time>
      </trkpt>
      <trkpt lat="48.6438" lon="1.95295">
        <ele>135.6</ele>
        <time>2023-09-03T08:48:42Z</time>
      </trkpt>
      <trkpt lat="48.64392" lon="1.95294">
        <ele>135.8</ele>
        <time>2023-09-03T08:48:44Z</time>
      </trkpt>
      <trkpt lat="48.64402" lon="1.95294">
        <ele>136.6</ele>
        <time>2023-09-03T08:48:46Z</time>
      </trkpt>
      <trkpt lat="48.64412" lon="1.95297">
        <ele>138.4</ele>
        <time>2023-09-03T08:48:49Z</time>
      </trkpt>
      <trkpt lat="48.64422" lon="1.95298">
        <ele>139.3</ele>
        <time>2023-09-03T08:48:54Z</time>
      </trkpt>
      <trkpt lat="48.64432" lon="1.95301">
        <ele>140.4</ele>
        <time>2023-09-03T08:49:00Z</time>
      </trkpt>
      <trkpt lat="48.64441" lon="1.95302">
        <ele>141</ele>
        <time>2023-09-03T08:49:06Z</time>
      </trkpt>
      <trkpt lat="48.64451" lon="1.95301">
        <ele>140.4</ele>
        <time>2023-09-03T08:49:13Z</time>
      </trkpt>
      <trkpt lat="48.64461" lon="1.95304">
        <ele>140.4</ele>
        <time>2023-09-03T08:49:19Z</time>
      </trkpt>
      <trkpt lat="48.6447" lon="1.95306">
        <ele>140.3</ele>
        <time>2023-09-03T08:49:26Z</time>
      </trkpt>
      <trkpt lat="48.64477" lon="1.95318">
        <ele>140.8</ele>
        <time>2023-09-03T08:49:32Z</time>
      </trkpt>
      <trkpt lat="48.64483" lon="1.9533">
        <ele>141.3</ele>
        <time>2023-09-03T08:49:39Z</time>
      </trkpt>
      <trkpt lat="48.64487" lon="1.95345">
        <ele>141.9</ele>
        <time>2023-09-03T08:49:46Z</time>
      </trkpt>
      <trkpt lat="48.64489" lon="1.95359">
        <ele>142.7</ele>
        <time>2023-09-03T08:49:53Z</time>
      </trkpt>
      <trkpt lat="48.6449" lon="1.95373">
        <ele>143.4</ele>
        <time>2023-09-03T08:49:58Z</time>
      </trkpt>
      <trkpt lat="48.6449" lon="1.95387">
        <ele>144.3</ele>
        <time>2023-09-03T08:50:03Z</time>
      </trkpt>
      <trkpt lat="48.64494" lon="1.95403">
        <ele>144.4</ele>
        <time>2023-09-03T08:50:07Z</time>
      </trkpt>
      <trkpt lat="48.64497" lon="1.95417">
        <ele>144.5</ele>
        <time>2023-09-03T08:50:09Z</time>
      </trkpt>
      <trkpt lat="48.64499" lon="1.95431">
        <ele>144.6</ele>
        <time>2023-09-03T08:50:11Z</time>
      </trkpt>
      <trkpt lat="48.64505" lon="1.95444">
        <ele>144</ele>
        <time>2023-09-03T08:50:13Z</time>
      </trkpt>
      <trkpt lat="48.64513" lon="1.95451">
        <ele>143</ele>
        <time>2023-09-03T08:50:15Z</time>
      </trkpt>
      <trkpt lat="48.64522" lon="1.9545">
        <ele>141.1</ele>
        <time>2023-09-03T08:50:17Z</time>
      </trkpt>
      <trkpt lat="48.64536" lon="1.95436">
        <ele>137.3</ele>
        <time>2023-09-03T08:50:19Z</time>
      </trkpt>
      <trkpt lat="48.64544" lon="1.95429">
        <ele>135.5</ele>
        <time>2023-09-03T08:50:20Z</time>
      </trkpt>
      <trkpt lat="48.64554" lon="1.95423">
        <ele>133.3</ele>
        <time>2023-09-03T08:50:21Z</time>
      </trkpt>
      <trkpt lat="48.64562" lon="1.95419">
        <ele>132.1</ele>
        <time>2023-09-03T08:50:22Z</time>
      </trkpt>
      <trkpt lat="48.64577" lon="1.95417">
        <ele>131.2</ele>
        <time>2023-09-03T08:50:24Z</time>
      </trkpt>
      <trkpt lat="48.64586" lon="1.9542">
        <ele>131.4</ele>
        <time>2023-09-03T08:50:25Z</time>
      </trkpt>
      <trkpt lat="48.64599" lon="1.95423">
        <ele>131.9</ele>
        <time>2023-09-03T08:50:27Z</time>
      </trkpt>
      <trkpt lat="48.6461" lon="1.95426">
        <ele>132.4</ele>
        <time>2023-09-03T08:50:29Z</time>
      </trkpt>
      <trkpt lat="48.64622" lon="1.95428">
        <ele>133.2</ele>
        <time>2023-09-03T08:50:32Z</time>
      </trkpt>
      <trkpt lat="48.64631" lon="1.95427">
        <ele>133.7</ele>
        <time>2023-09-03T08:50:35Z</time>
      </trkpt>
      <trkpt lat="48.64642" lon="1.95426">
        <ele>134.6</ele>
        <time>2023-09-03T08:50:38Z</time>
      </trkpt>
      <trkpt lat="48.64652" lon="1.95425">
        <ele>136.4</ele>
        <time>2023-09-03T08:50:41Z</time>
      </trkpt>
      <trkpt lat="48.64661" lon="1.95421">
        <ele>137.6</ele>
        <time>2023-09-03T08:50:44Z</time>
      </trkpt>
      <trkpt lat="48.64671" lon="1.95411">
        <ele>138.8</ele>
        <time>2023-09-03T08:50:47Z</time>
      </trkpt>
      <trkpt lat="48.64678" lon="1.95399">
        <ele>139.4</ele>
        <time>2023-09-03T08:50:49Z</time>
      </trkpt>
      <trkpt lat="48.64684" lon="1.95384">
        <ele>139.1</ele>
        <time>2023-09-03T08:50:51Z</time>
      </trkpt>
      <trkpt lat="48.64692" lon="1.9537">
        <ele>139</ele>
        <time>2023-09-03T08:50:54Z</time>
      </trkpt>
      <trkpt lat="48.647" lon="1.9536">
        <ele>138.7</ele>
        <time>2023-09-03T08:50:57Z</time>
      </trkpt>
      <trkpt lat="48.64711" lon="1.9535">
        <ele>138.4</ele>
        <time>2023-09-03T08:51:00Z</time>
      </trkpt>
      <trkpt lat="48.64722" lon="1.95344">
        <ele>138.3</ele>
        <time>2023-09-03T08:51:03Z</time>
      </trkpt>
      <trkpt lat="48.64733" lon="1.95346">
        <ele>139.4</ele>
        <time>2023-09-03T08:51:05Z</time>
      </trkpt>
      <trkpt lat="48.64743" lon="1.95347">
        <ele>140.1</ele>
        <time>2023-09-03T08:51:08Z</time>
      </trkpt>
      <trkpt lat="48.64753" lon="1.95341">
        <ele>138.9</ele>
        <time>2023-09-03T08:51:11Z</time>
      </trkpt>
      <trkpt lat="48.64764" lon="1.95334">
        <ele>137.1</ele>
        <time>2023-09-03T08:51:14Z</time>
      </trkpt>
      <trkpt lat="48.64778" lon="1.95334">
        <ele>137.1</ele>
        <time>2023-09-03T08:51:17Z</time>
      </trkpt>
      <trkpt lat="48.64787" lon="1.95337">
        <ele>137.2</ele>
        <time>2023-09-03T08:51:19Z</time>
      </trkpt>
      <trkpt lat="48.64797" lon="1.95344">
        <ele>138.1</ele>
        <time>2023-09-03T08:51:21Z</time>
      </trkpt>
      <trkpt lat="48.64808" lon="1.95352">
        <ele>139.5</ele>
        <time>2023-09-03T08:51:24Z</time>
      </trkpt>
      <trkpt lat="48.64817" lon="1.95352">
        <ele>139.4</ele>
        <time>2023-09-03T08:51:26Z</time>
      </trkpt>
      <trkpt lat="48.64828" lon="1.95353">
        <ele>139.3</ele>
        <time>2023-09-03T08:51:28Z</time>
      </trkpt>
      <trkpt lat="48.64837" lon="1.95353">
        <ele>139.1</ele>
        <time>2023-09-03T08:51:30Z</time>
      </trkpt>
      <trkpt lat="48.64846" lon="1.9535">
        <ele>138.6</ele>
        <time>2023-09-03T08:51:32Z</time>
      </trkpt>
      <trkpt lat="48.64855" lon="1.95348">
        <ele>138.2</ele>
        <time>2023-09-03T08:51:34Z</time>
      </trkpt>
      <trkpt lat="48.64869" lon="1.95349">
        <ele>138.5</ele>
        <time>2023-09-03T08:51:37Z</time>
      </trkpt>
      <trkpt lat="48.64879" lon="1.95352">
        <ele>139.2</ele>
        <time>2023-09-03T08:51:39Z</time>
      </trkpt>
      <trkpt lat="48.64889" lon="1.95354">
        <ele>139.7</ele>
        <time>2023-09-03T08:51:42Z</time>
      </trkpt>
      <trkpt lat="48.64899" lon="1.95356">
        <ele>140</ele>
        <time>2023-09-03T08:51:45Z</time>
      </trkpt>
      <trkpt lat="48.64911" lon="1.95357">
        <ele>140.2</ele>
        <time>2023-09-03T08:51:48Z</time>
      </trkpt>
      <trkpt lat="48.64922" lon="1.95362">
        <ele>141.1</ele>
        <time>2023-09-03T08:51:52Z</time>
      </trkpt>
      <trkpt lat="48.64931" lon="1.95363">
        <ele>141.4</ele>
        <time>2023-09-03T08:51:55Z</time>
      </trkpt>
      <trkpt lat="48.64944" lon="1.95365">
        <ele>141.8</ele>
        <time>2023-09-03T08:51:57Z</time>
      </trkpt>
      <trkpt lat="48.64955" lon="1.95365">
        <ele>141</ele>
        <time>2023-09-03T08:51:59Z</time>
      </trkpt>
      <trkpt lat="48.64965" lon="1.95362">
        <ele>139.8</ele>
        <time>2023-09-03T08:52:01Z</time>
      </trkpt>
      <trkpt lat="48.64977" lon="1.95363">
        <ele>139.3</ele>
        <time>2023-09-03T08:52:04Z</time>
      </trkpt>
      <trkpt lat="48.64987" lon="1.95363">
        <ele>139.4</ele>
        <time>2023-09-03T08:52:06Z</time>
      </trkpt>
      <trkpt lat="48.65001" lon="1.95366">
        <ele>139.8</ele>
        <time>2023-09-03T08:52:08Z</time>
      </trkpt>
      <trkpt lat="48.65011" lon="1.95366">
        <ele>139.5</ele>
        <time>2023-09-03T08:52:10Z</time>
      </trkpt>
      <trkpt lat="48.65021" lon="1.95368">
        <ele>139.7</ele>
        <time>2023-09-03T08:52:13Z</time>
      </trkpt>
      <trkpt lat="48.65033" lon="1.95366">
        <ele>139.5</ele>
        <time>2023-09-03T08:52:16Z</time>
      </trkpt>
      <trkpt lat="48.65046" lon="1.95363">
        <ele>139.8</ele>
        <time>2023-09-03T08:52:19Z</time>
      </trkpt>
      <trkpt lat="48.65056" lon="1.9536">
        <ele>140</ele>
        <time>2023-09-03T08:52:21Z</time>
      </trkpt>
      <trkpt lat="48.65066" lon="1.95359">
        <ele>140.8</ele>
        <time>2023-09-03T08:52:23Z</time>
      </trkpt>
      <trkpt lat="48.65077" lon="1.95352">
        <ele>140.9</ele>
        <time>2023-09-03T08:52:26Z</time>
      </trkpt>
      <trkpt lat="48.65087" lon="1.95344">
        <ele>140.6</ele>
        <time>2023-09-03T08:52:29Z</time>
      </trkpt>
      <trkpt lat="48.65099" lon="1.95332">
        <ele>140.6</ele>
        <time>2023-09-03T08:52:32Z</time>
      </trkpt>
      <trkpt lat="48.65107" lon="1.95322">
        <ele>141.1</ele>
        <time>2023-09-03T08:52:36Z</time>
      </trkpt>
      <trkpt lat="48.65114" lon="1.95311">
        <ele>141.5</ele>
        <time>2023-09-03T08:52:41Z</time>
      </trkpt>
      <trkpt lat="48.6512" lon="1.953">
        <ele>142.3</ele>
        <time>2023-09-03T08:52:46Z</time>
      </trkpt>
      <trkpt lat="48.65125" lon="1.95287">
        <ele>142.6</ele>
        <time>2023-09-03T08:52:50Z</time>
      </trkpt>
      <trkpt lat="48.65131" lon="1.95272">
        <ele>142.9</ele>
        <time>2023-09-03T08:52:54Z</time>
      </trkpt>
      <trkpt lat="48.65138" lon="1.95262">
        <ele>143.1</ele>
        <time>2023-09-03T08:52:58Z</time>
      </trkpt>
      <trkpt lat="48.65146" lon="1.95254">
        <ele>143.3</ele>
        <time>2023-09-03T08:53:04Z</time>
      </trkpt>
      <trkpt lat="48.65156" lon="1.95257">
        <ele>144.7</ele>
        <time>2023-09-03T08:53:11Z</time>
      </trkpt>
      <trkpt lat="48.65165" lon="1.9526">
        <ele>146.3</ele>
        <time>2023-09-03T08:53:19Z</time>
      </trkpt>
      <trkpt lat="48.65174" lon="1.95264">
        <ele>147.2</ele>
        <time>2023-09-03T08:53:25Z</time>
      </trkpt>
      <trkpt lat="48.65182" lon="1.95271">
        <ele>148.4</ele>
        <time>2023-09-03T08:53:30Z</time>
      </trkpt>
      <trkpt lat="48.6519" lon="1.9528">
        <ele>150.1</ele>
        <time>2023-09-03T08:53:36Z</time>
      </trkpt>
      <trkpt lat="48.65198" lon="1.95288">
        <ele>151.4</ele>
        <time>2023-09-03T08:53:43Z</time>
      </trkpt>
      <trkpt lat="48.65203" lon="1.95299">
        <ele>153.1</ele>
        <time>2023-09-03T08:53:51Z</time>
      </trkpt>
      <trkpt lat="48.65213" lon="1.95306">
        <ele>154.2</ele>
        <time>2023-09-03T08:53:59Z</time>
      </trkpt>
      <trkpt lat="48.6522" lon="1.95315">
        <ele>155.8</ele>
        <time>2023-09-03T08:54:08Z</time>
      </trkpt>
      <trkpt lat="48.65228" lon="1.95326">
        <ele>157.4</ele>
        <time>2023-09-03T08:54:17Z</time>
      </trkpt>
      <trkpt lat="48.65236" lon="1.95336">
        <ele>159</ele>
        <time>2023-09-03T08:54:25Z</time>
      </trkpt>
      <trkpt lat="48.65244" lon="1.95345">
        <ele>160</ele>
        <time>2023-09-03T08:54:32Z</time>
      </trkpt>
      <trkpt lat="48.65253" lon="1.9535">
        <ele>160.1</ele>
        <time>2023-09-03T08:54:38Z</time>
      </trkpt>
      <trkpt lat="48.65262" lon="1.95357">
        <ele>160.1</ele>
        <time>2023-09-03T08:54:43Z</time>
      </trkpt>
      <trkpt lat="48.65271" lon="1.95364">
        <ele>160.2</ele>
        <time>2023-09-03T08:54:47Z</time>
      </trkpt>
      <trkpt lat="48.65281" lon="1.95371">
        <ele>160.3</ele>
        <time>2023-09-03T08:54:51Z</time>
      </trkpt>
      <trkpt lat="48.65291" lon="1.95378">
        <ele>160.2</ele>
        <time>2023-09-03T08:54:56Z</time>
      </trkpt>
      <trkpt lat="48.65297" lon="1.95388">
        <ele>161.2</ele>
        <time>2023-09-03T08:55:01Z</time>
      </trkpt>
      <trkpt lat="48.653" lon="1.95402">
        <ele>163</ele>
        <time>2023-09-03T08:55:05Z</time>
      </trkpt>
      <trkpt lat="48.653" lon="1.95416">
        <ele>165.3</ele>
        <time>2023-09-03T08:55:11Z</time>
      </trkpt>
      <trkpt lat="48.653" lon="1.95432">
        <ele>166.5</ele>
        <time>2023-09-03T08:55:18Z</time>
      </trkpt>
      <trkpt lat="48.653" lon="1.95446">
        <ele>167.5</ele>
        <time>2023-09-03T08:55:25Z</time>
      </trkpt>
      <trkpt lat="48.65296" lon="1.9546">
        <ele>168.6</ele>
        <time>2023-09-03T08:55:34Z</time>
      </trkpt>
      <trkpt lat="48.65292" lon="1.95475">
        <ele>169.5</ele>
        <time>2023-09-03T08:55:40Z</time>
      </trkpt>
      <trkpt lat="48.65289" lon="1.95489">
        <ele>169.6</ele>
        <time>2023-09-03T08:55:45Z</time>
      </trkpt>
      <trkpt lat="48.65282" lon="1.95502">
        <ele>169.9</ele>
        <time>2023-09-03T08:55:50Z</time>
      </trkpt>
      <trkpt lat="48.65275" lon="1.95511">
        <ele>170.5</ele>
        <time>2023-09-03T08:55:55Z</time>
      </trkpt>
      <trkpt lat="48.65265" lon="1.95518">
        <ele>171.1</ele>
        <time>2023-09-03T08:56:00Z</time>
      </trkpt>
      <trkpt lat="48.65256" lon="1.9552">
        <ele>171.5</ele>
        <time>2023-09-03T08:56:03Z</time>
      </trkpt>
      <trkpt lat="48.65246" lon="1.95525">
        <ele>171.9</ele>
        <time>2023-09-03T08:56:06Z</time>
      </trkpt>
      <trkpt lat="48.65238" lon="1.95529">
        <ele>172</ele>
        <time>2023-09-03T08:56:09Z</time>
      </trkpt>
      <trkpt lat="48.65227" lon="1.95529">
        <ele>172</ele>
        <time>2023-09-03T08:56:12Z</time>
      </trkpt>
      <trkpt lat="48.65216" lon="1.95527">
        <ele>172.2</ele>
        <time>2023-09-03T08:56:16Z</time>
      </trkpt>
      <trkpt lat="48.65207" lon="1.9553">
        <ele>172.5</ele>
        <time>2023-09-03T08:56:18Z</time>
      </trkpt>
      <trkpt lat="48.65198" lon="1.95534">
        <ele>172.9</ele>
        <time>2023-09-03T08:56:20Z</time>
      </trkpt>
      <trkpt lat="48.65189" lon="1.95536">
        <ele>173.2</ele>
        <time>2023-09-03T08:56:22Z</time>
      </trkpt>
      <trkpt lat="48.65177" lon="1.95538">
        <ele>173.6</ele>
        <time>2023-09-03T08:56:25Z</time>
      </trkpt>
      <trkpt lat="48.65165" lon="1.9554">
        <ele>174</ele>
        <time>2023-09-03T08:56:28Z</time>
      </trkpt>
      <trkpt lat="48.65152" lon="1.95542">
        <ele>174</ele>
        <time>2023-09-03T08:56:31Z</time>
      </trkpt>
      <trkpt lat="48.65139" lon="1.95543">
        <ele>174</ele>
        <time>2023-09-03T08:56:34Z</time>
      </trkpt>
      <trkpt lat="48.65128" lon="1.95544">
        <ele>174</ele>
        <time>2023-09-03T08:56:37Z</time>
      </trkpt>
      <trkpt lat="48.65116" lon="1.95552">
        <ele>174</ele>
        <time>2023-09-03T08:56:39Z</time>
      </trkpt>
      <trkpt lat="48.65104" lon="1.95556">
        <ele>174</ele>
        <time>2023-09-03T08:56:42Z</time>
      </trkpt>
      <trkpt lat="48.65092" lon="1.95559">
        <ele>174</ele>
        <time>2023-09-03T08:56:45Z</time>
      </trkpt>
      <trkpt lat="48.65082" lon="1.95557">
        <ele>174</ele>
        <time>2023-09-03T08:56:48Z</time>
      </trkpt>
      <trkpt lat="48.65067" lon="1.95559">
        <ele>173.4</ele>
        <time>2023-09-03T08:56:51Z</time>
      </trkpt>
      <trkpt lat="48.65058" lon="1.95562">
        <ele>173.1</ele>
        <time>2023-09-03T08:56:53Z</time>
      </trkpt>
      <trkpt lat="48.65049" lon="1.95562">
        <ele>173</ele>
        <time>2023-09-03T08:56:55Z</time>
      </trkpt>
      <trkpt lat="48.65039" lon="1.95564">
        <ele>173</ele>
        <time>2023-09-03T08:56:57Z</time>
      </trkpt>
      <trkpt lat="48.65029" lon="1.95566">
        <ele>173</ele>
        <time>2023-09-03T08:56:59Z</time>
      </trkpt>
      <trkpt lat="48.65019" lon="1.95567">
        <ele>172.8</ele>
        <time>2023-09-03T08:57:01Z</time>
      </trkpt>
      <trkpt lat="48.6501" lon="1.95568">
        <ele>172.6</ele>
        <time>2023-09-03T08:57:03Z</time>
      </trkpt>
      <trkpt lat="48.65" lon="1.95566">
        <ele>172.4</ele>
        <time>2023-09-03T08:57:05Z</time>
      </trkpt>
      <trkpt lat="48.64986" lon="1.95569">
        <ele>172</ele>
        <time>2023-09-03T08:57:08Z</time>
      </trkpt>
      <trkpt lat="48.64976" lon="1.9557">
        <ele>171.7</ele>
        <time>2023-09-03T08:57:10Z</time>
      </trkpt>
      <trkpt lat="48.64967" lon="1.95571">
        <ele>171.7</ele>
        <time>2023-09-03T08:57:12Z</time>
      </trkpt>
      <trkpt lat="48.64954" lon="1.95572">
        <ele>172.2</ele>
        <time>2023-09-03T08:57:15Z</time>
      </trkpt>
      <trkpt lat="48.64945" lon="1.95575">
        <ele>172.7</ele>
        <time>2023-09-03T08:57:17Z</time>
      </trkpt>
      <trkpt lat="48.64935" lon="1.95579">
        <ele>173.2</ele>
        <time>2023-09-03T08:57:19Z</time>
      </trkpt>
      <trkpt lat="48.64926" lon="1.95585">
        <ele>173.6</ele>
        <time>2023-09-03T08:57:21Z</time>
      </trkpt>
      <trkpt lat="48.64914" lon="1.9559">
        <ele>173.8</ele>
        <time>2023-09-03T08:57:24Z</time>
      </trkpt>
      <trkpt lat="48.649" lon="1.95595">
        <ele>174.2</ele>
        <time>2023-09-03T08:57:27Z</time>
      </trkpt>
      <trkpt lat="48.64891" lon="1.95597">
        <ele>174.4</ele>
        <time>2023-09-03T08:57:29Z</time>
      </trkpt>
      <trkpt lat="48.64882" lon="1.95597">
        <ele>174.5</ele>
        <time>2023-09-03T08:57:31Z</time>
      </trkpt>
      <trkpt lat="48.64873" lon="1.95594">
        <ele>174.6</ele>
        <time>2023-09-03T08:57:33Z</time>
      </trkpt>
      <trkpt lat="48.64863" lon="1.95589">
        <ele>174.8</ele>
        <time>2023-09-03T08:57:35Z</time>
      </trkpt>
      <trkpt lat="48.6485" lon="1.95586">
        <ele>174.9</ele>
        <time>2023-09-03T08:57:38Z</time>
      </trkpt>
      <trkpt lat="48.64837" lon="1.95585">
        <ele>174.9</ele>
        <time>2023-09-03T08:57:41Z</time>
      </trkpt>
      <trkpt lat="48.64824" lon="1.95584">
        <ele>175</ele>
        <time>2023-09-03T08:57:44Z</time>
      </trkpt>
      <trkpt lat="48.6481" lon="1.95582">
        <ele>175</ele>
        <time>2023-09-03T08:57:47Z</time>
      </trkpt>
      <trkpt lat="48.64799" lon="1.95585">
        <ele>174.9</ele>
        <time>2023-09-03T08:57:51Z</time>
      </trkpt>
      <trkpt lat="48.6479" lon="1.95585">
        <ele>174.9</ele>
        <time>2023-09-03T08:57:54Z</time>
      </trkpt>
      <trkpt lat="48.64777" lon="1.95586">
        <ele>174.8</ele>
        <time>2023-09-03T08:57:57Z</time>
      </trkpt>
      <trkpt lat="48.64764" lon="1.95589">
        <ele>173.9</ele>
        <time>2023-09-03T08:58:00Z</time>
      </trkpt>
      <trkpt lat="48.64754" lon="1.95591">
        <ele>173.3</ele>
        <time>2023-09-03T08:58:02Z</time>
      </trkpt>
      <trkpt lat="48.6474" lon="1.95593">
        <ele>172.3</ele>
        <time>2023-09-03T08:58:05Z</time>
      </trkpt>
      <trkpt lat="48.64731" lon="1.95596">
        <ele>171.6</ele>
        <time>2023-09-03T08:58:07Z</time>
      </trkpt>
      <trkpt lat="48.64722" lon="1.95598">
        <ele>171</ele>
        <time>2023-09-03T08:58:09Z</time>
      </trkpt>
      <trkpt lat="48.64709" lon="1.95602">
        <ele>170.2</ele>
        <time>2023-09-03T08:58:12Z</time>
      </trkpt>
      <trkpt lat="48.64696" lon="1.95605">
        <ele>169.7</ele>
        <time>2023-09-03T08:58:15Z</time>
      </trkpt>
      <trkpt lat="48.64685" lon="1.95601">
        <ele>168.9</ele>
        <time>2023-09-03T08:58:17Z</time>
      </trkpt>
      <trkpt lat="48.64675" lon="1.95606">
        <ele>168.9</ele>
        <time>2023-09-03T08:58:19Z</time>
      </trkpt>
      <trkpt lat="48.64665" lon="1.95611">
        <ele>169</ele>
        <time>2023-09-03T08:58:21Z</time>
      </trkpt>
      <trkpt lat="48.64655" lon="1.95615">
        <ele>169.2</ele>
        <time>2023-09-03T08:58:23Z</time>
      </trkpt>
      <trkpt lat="48.64645" lon="1.95618">
        <ele>169.3</ele>
        <time>2023-09-03T08:58:25Z</time>
      </trkpt>
      <trkpt lat="48.64636" lon="1.95621">
        <ele>169.3</ele>
        <time>2023-09-03T08:58:27Z</time>
      </trkpt>
      <trkpt lat="48.64627" lon="1.9563">
        <ele>169.5</ele>
        <time>2023-09-03T08:58:29Z</time>
      </trkpt>
      <trkpt lat="48.64616" lon="1.95631">
        <ele>169.5</ele>
        <time>2023-09-03T08:58:32Z</time>
      </trkpt>
      <trkpt lat="48.64606" lon="1.95637">
        <ele>169.9</ele>
        <time>2023-09-03T08:58:34Z</time>
      </trkpt>
      <trkpt lat="48.64596" lon="1.95639">
        <ele>170</ele>
        <time>2023-09-03T08:58:37Z</time>
      </trkpt>
      <trkpt lat="48.64583" lon="1.95635">
        <ele>169.7</ele>
        <time>2023-09-03T08:58:40Z</time>
      </trkpt>
      <trkpt lat="48.6457" lon="1.95633">
        <ele>169.6</ele>
        <time>2023-09-03T08:58:42Z</time>
      </trkpt>
      <trkpt lat="48.64558" lon="1.95626">
        <ele>169.1</ele>
        <time>2023-09-03T08:58:45Z</time>
      </trkpt>
      <trkpt lat="48.64549" lon="1.95625">
        <ele>169.1</ele>
        <time>2023-09-03T08:58:47Z</time>
      </trkpt>
      <trkpt lat="48.64538" lon="1.95621">
        <ele>169.1</ele>
        <time>2023-09-03T08:58:49Z</time>
      </trkpt>
      <trkpt lat="48.64529" lon="1.95623">
        <ele>169.4</ele>
        <time>2023-09-03T08:58:51Z</time>
      </trkpt>
      <trkpt lat="48.64518" lon="1.95623">
        <ele>169.2</ele>
        <time>2023-09-03T08:58:53Z</time>
      </trkpt>
      <trkpt lat="48.64509" lon="1.95624">
        <ele>169.1</ele>
        <time>2023-09-03T08:58:55Z</time>
      </trkpt>
      <trkpt lat="48.64496" lon="1.95626">
        <ele>169</ele>
        <time>2023-09-03T08:58:57Z</time>
      </trkpt>
      <trkpt lat="48.64485" lon="1.95628">
        <ele>169</ele>
        <time>2023-09-03T08:58:59Z</time>
      </trkpt>
      <trkpt lat="48.64472" lon="1.95629">
        <ele>169</ele>
        <time>2023-09-03T08:59:01Z</time>
      </trkpt>
      <trkpt lat="48.64461" lon="1.95627">
        <ele>168.9</ele>
        <time>2023-09-03T08:59:03Z</time>
      </trkpt>
      <trkpt lat="48.6445" lon="1.95625">
        <ele>168.9</ele>
        <time>2023-09-03T08:59:05Z</time>
      </trkpt>
      <trkpt lat="48.64439" lon="1.95617">
        <ele>168.5</ele>
        <time>2023-09-03T08:59:08Z</time>
      </trkpt>
      <trkpt lat="48.6443" lon="1.95613">
        <ele>168.6</ele>
        <time>2023-09-03T08:59:10Z</time>
      </trkpt>
      <trkpt lat="48.64421" lon="1.95605">
        <ele>168.8</ele>
        <time>2023-09-03T08:59:12Z</time>
      </trkpt>
      <trkpt lat="48.64412" lon="1.95595">
        <ele>169.2</ele>
        <time>2023-09-03T08:59:14Z</time>
      </trkpt>
      <trkpt lat="48.644" lon="1.95585">
        <ele>169.6</ele>
        <time>2023-09-03T08:59:17Z</time>
      </trkpt>
      <trkpt lat="48.64389" lon="1.9558">
        <ele>170</ele>
        <time>2023-09-03T08:59:19Z</time>
      </trkpt>
      <trkpt lat="48.64379" lon="1.95575">
        <ele>170</ele>
        <time>2023-09-03T08:59:21Z</time>
      </trkpt>
      <trkpt lat="48.64367" lon="1.95567">
        <ele>170</ele>
        <time>2023-09-03T08:59:24Z</time>
      </trkpt>
      <trkpt lat="48.64356" lon="1.95556">
        <ele>170</ele>
        <time>2023-09-03T08:59:27Z</time>
      </trkpt>
      <trkpt lat="48.64345" lon="1.9555">
        <ele>169.9</ele>
        <time>2023-09-03T08:59:29Z</time>
      </trkpt>
      <trkpt lat="48.64334" lon="1.95539">
        <ele>170</ele>
        <time>2023-09-03T08:59:32Z</time>
      </trkpt>
      <trkpt lat="48.64324" lon="1.95533">
        <ele>170</ele>
        <time>2023-09-03T08:59:34Z</time>
      </trkpt>
      <trkpt lat="48.64314" lon="1.95526">
        <ele>170</ele>
        <time>2023-09-03T08:59:36Z</time>
      </trkpt>
      <trkpt lat="48.64304" lon="1.95522">
        <ele>170</ele>
        <time>2023-09-03T08:59:37Z</time>
      </trkpt>
      <trkpt lat="48.6429" lon="1.95514">
        <ele>169.7</ele>
        <time>2023-09-03T08:59:39Z</time>
      </trkpt>
      <trkpt lat="48.6428" lon="1.95508">
        <ele>169.3</ele>
        <time>2023-09-03T08:59:41Z</time>
      </trkpt>
      <trkpt lat="48.6427" lon="1.95502">
        <ele>169.3</ele>
        <time>2023-09-03T08:59:43Z</time>
      </trkpt>
      <trkpt lat="48.64261" lon="1.95494">
        <ele>169.5</ele>
        <time>2023-09-03T08:59:45Z</time>
      </trkpt>
      <trkpt lat="48.64249" lon="1.95486">
        <ele>169.5</ele>
        <time>2023-09-03T08:59:47Z</time>
      </trkpt>
      <trkpt lat="48.64237" lon="1.95479">
        <ele>169.3</ele>
        <time>2023-09-03T08:59:49Z</time>
      </trkpt>
      <trkpt lat="48.64227" lon="1.95468">
        <ele>168.8</ele>
        <time>2023-09-03T08:59:51Z</time>
      </trkpt>
      <trkpt lat="48.64215" lon="1.95459">
        <ele>168.4</ele>
        <time>2023-09-03T08:59:53Z</time>
      </trkpt>
      <trkpt lat="48.642" lon="1.95453">
        <ele>167.7</ele>
        <time>2023-09-03T08:59:55Z</time>
      </trkpt>
      <trkpt lat="48.64187" lon="1.95449">
        <ele>167.5</ele>
        <time>2023-09-03T08:59:57Z</time>
      </trkpt>
      <trkpt lat="48.64178" lon="1.95444">
        <ele>167.6</ele>
        <time>2023-09-03T08:59:59Z</time>
      </trkpt>
      <trkpt lat="48.64168" lon="1.95442">
        <ele>167.9</ele>
        <time>2023-09-03T09:00:01Z</time>
      </trkpt>
      <trkpt lat="48.6416" lon="1.95432">
        <ele>167.7</ele>
        <time>2023-09-03T09:00:04Z</time>
      </trkpt>
      <trkpt lat="48.64151" lon="1.95424">
        <ele>167.7</ele>
        <time>2023-09-03T09:00:08Z</time>
      </trkpt>
      <trkpt lat="48.64145" lon="1.95412">
        <ele>167.6</ele>
        <time>2023-09-03T09:00:11Z</time>
      </trkpt>
      <trkpt lat="48.64135" lon="1.95413">
        <ele>168</ele>
        <time>2023-09-03T09:00:12Z</time>
      </trkpt>
      <trkpt lat="48.64123" lon="1.95409">
        <ele>168.1</ele>
        <time>2023-09-03T09:00:14Z</time>
      </trkpt>
      <trkpt lat="48.6411" lon="1.95401">
        <ele>167.9</ele>
        <time>2023-09-03T09:00:17Z</time>
      </trkpt>
      <trkpt lat="48.64101" lon="1.95395">
        <ele>167.7</ele>
        <time>2023-09-03T09:00:19Z</time>
      </trkpt>
      <trkpt lat="48.64092" lon="1.9539">
        <ele>167.7</ele>
        <time>2023-09-03T09:00:21Z</time>
      </trkpt>
      <trkpt lat="48.64079" lon="1.95379">
        <ele>167.8</ele>
        <time>2023-09-03T09:00:24Z</time>
      </trkpt>
      <trkpt lat="48.64071" lon="1.95372">
        <ele>167.8</ele>
        <time>2023-09-03T09:00:26Z</time>
      </trkpt>
      <trkpt lat="48.64063" lon="1.95363">
        <ele>167.8</ele>
        <time>2023-09-03T09:00:28Z</time>
      </trkpt>
      <trkpt lat="48.64054" lon="1.95357">
        <ele>167.8</ele>
        <time>2023-09-03T09:00:30Z</time>
      </trkpt>
      <trkpt lat="48.64044" lon="1.95354">
        <ele>167.9</ele>
        <time>2023-09-03T09:00:32Z</time>
      </trkpt>
      <trkpt lat="48.64034" lon="1.95352">
        <ele>168.2</ele>
        <time>2023-09-03T09:00:34Z</time>
      </trkpt>
      <trkpt lat="48.64021" lon="1.95357">
        <ele>168.2</ele>
        <time>2023-09-03T09:00:36Z</time>
      </trkpt>
      <trkpt lat="48.64009" lon="1.95371">
        <ele>168.1</ele>
        <time>2023-09-03T09:00:39Z</time>
      </trkpt>
      <trkpt lat="48.64002" lon="1.95383">
        <ele>168.6</ele>
        <time>2023-09-03T09:00:41Z</time>
      </trkpt>
      <trkpt lat="48.63996" lon="1.95396">
        <ele>168.8</ele>
        <time>2023-09-03T09:00:43Z</time>
      </trkpt>
      <trkpt lat="48.63989" lon="1.95405">
        <ele>168.5</ele>
        <time>2023-09-03T09:00:45Z</time>
      </trkpt>
      <trkpt lat="48.63982" lon="1.95415">
        <ele>168.3</ele>
        <time>2023-09-03T09:00:48Z</time>
      </trkpt>
      <trkpt lat="48.63974" lon="1.95428">
        <ele>168.5</ele>
        <time>2023-09-03T09:00:51Z</time>
      </trkpt>
      <trkpt lat="48.63967" lon="1.95437">
        <ele>168.2</ele>
        <time>2023-09-03T09:00:53Z</time>
      </trkpt>
      <trkpt lat="48.63967" lon="1.95453">
        <ele>168.4</ele>
        <time>2023-09-03T09:00:58Z</time>
      </trkpt>
      <trkpt lat="48.63972" lon="1.95464">
        <ele>169</ele>
        <time>2023-09-03T09:01:12Z</time>
      </trkpt>
      <trkpt lat="48.63981" lon="1.95471">
        <ele>169.3</ele>
        <time>2023-09-03T09:08:50Z</time>
      </trkpt>
      <trkpt lat="48.6399" lon="1.95481">
        <ele>169.4</ele>
        <time>2023-09-03T09:08:55Z</time>
      </trkpt>
      <trkpt lat="48.63998" lon="1.95489">
        <ele>169.4</ele>
        <time>2023-09-03T09:08:59Z</time>
      </trkpt>
      <trkpt lat="48.64005" lon="1.95501">
        <ele>169.2</ele>
        <time>2023-09-03T09:09:02Z</time>
      </trkpt>
      <trkpt lat="48.6401" lon="1.95514">
        <ele>169.4</ele>
        <time>2023-09-03T09:09:05Z</time>
      </trkpt>
      <trkpt lat="48.64016" lon="1.95526">
        <ele>169.6</ele>
        <time>2023-09-03T09:09:08Z</time>
      </trkpt>
      <trkpt lat="48.64019" lon="1.9554">
        <ele>169.8</ele>
        <time>2023-09-03T09:09:11Z</time>
      </trkpt>
      <trkpt lat="48.64015" lon="1.95554">
        <ele>170</ele>
        <time>2023-09-03T09:09:14Z</time>
      </trkpt>
      <trkpt lat="48.64008" lon="1.95566">
        <ele>170</ele>
        <time>2023-09-03T09:09:17Z</time>
      </trkpt>
      <trkpt lat="48.64001" lon="1.95579">
        <ele>170</ele>
        <time>2023-09-03T09:09:20Z</time>
      </trkpt>
      <trkpt lat="48.63993" lon="1.95589">
        <ele>169.8</ele>
        <time>2023-09-03T09:09:24Z</time>
      </trkpt>
      <trkpt lat="48.63992" lon="1.95606">
        <ele>169.7</ele>
        <time>2023-09-03T09:09:31Z</time>
      </trkpt>
      <trkpt lat="48.63998" lon="1.9562">
        <ele>169.9</ele>
        <time>2023-09-03T09:09:35Z</time>
      </trkpt>
      <trkpt lat="48.64004" lon="1.95635">
        <ele>170</ele>
        <time>2023-09-03T09:09:39Z</time>
      </trkpt>
      <trkpt lat="48.64009" lon="1.95647">
        <ele>170</ele>
        <time>2023-09-03T09:09:42Z</time>
      </trkpt>
      <trkpt lat="48.64015" lon="1.95661">
        <ele>170</ele>
        <time>2023-09-03T09:09:45Z</time>
      </trkpt>
      <trkpt lat="48.64021" lon="1.95675">
        <ele>170.1</ele>
        <time>2023-09-03T09:09:48Z</time>
      </trkpt>
      <trkpt lat="48.64027" lon="1.9569">
        <ele>170</ele>
        <time>2023-09-03T09:09:51Z</time>
      </trkpt>
      <trkpt lat="48.64036" lon="1.95707">
        <ele>170</ele>
        <time>2023-09-03T09:09:54Z</time>
      </trkpt>
      <trkpt lat="48.64041" lon="1.95719">
        <ele>170</ele>
        <time>2023-09-03T09:09:56Z</time>
      </trkpt>
      <trkpt lat="48.64045" lon="1.95732">
        <ele>170.2</ele>
        <time>2023-09-03T09:09:58Z</time>
      </trkpt>
      <trkpt lat="48.6405" lon="1.95745">
        <ele>170.7</ele>
        <time>2023-09-03T09:10:00Z</time>
      </trkpt>
      <trkpt lat="48.64056" lon="1.95757">
        <ele>171</ele>
        <time>2023-09-03T09:10:02Z</time>
      </trkpt>
      <trkpt lat="48.6406" lon="1.9577">
        <ele>171</ele>
        <time>2023-09-03T09:10:04Z</time>
      </trkpt>
      <trkpt lat="48.64066" lon="1.95783">
        <ele>171</ele>
        <time>2023-09-03T09:10:06Z</time>
      </trkpt>
      <trkpt lat="48.64072" lon="1.95796">
        <ele>171</ele>
        <time>2023-09-03T09:10:08Z</time>
      </trkpt>
      <trkpt lat="48.64077" lon="1.9581">
        <ele>171</ele>
        <time>2023-09-03T09:10:10Z</time>
      </trkpt>
      <trkpt lat="48.64083" lon="1.95822">
        <ele>171</ele>
        <time>2023-09-03T09:10:12Z</time>
      </trkpt>
      <trkpt lat="48.64089" lon="1.95835">
        <ele>171</ele>
        <time>2023-09-03T09:10:14Z</time>
      </trkpt>
      <trkpt lat="48.64094" lon="1.95849">
        <ele>171</ele>
        <time>2023-09-03T09:10:16Z</time>
      </trkpt>
      <trkpt lat="48.64101" lon="1.95862">
        <ele>171</ele>
        <time>2023-09-03T09:10:18Z</time>
      </trkpt>
      <trkpt lat="48.64106" lon="1.95875">
        <ele>171</ele>
        <time>2023-09-03T09:10:20Z</time>
      </trkpt>
      <trkpt lat="48.64112" lon="1.95888">
        <ele>171</ele>
        <time>2023-09-03T09:10:22Z</time>
      </trkpt>
      <trkpt lat="48.64116" lon="1.95902">
        <ele>171.1</ele>
        <time>2023-09-03T09:10:24Z</time>
      </trkpt>
      <trkpt lat="48.64122" lon="1.95915">
        <ele>171.4</ele>
        <time>2023-09-03T09:10:26Z</time>
      </trkpt>
      <trkpt lat="48.64127" lon="1.95929">
        <ele>171.6</ele>
        <time>2023-09-03T09:10:28Z</time>
      </trkpt>
      <trkpt lat="48.64133" lon="1.95942">
        <ele>171.8</ele>
        <time>2023-09-03T09:10:30Z</time>
      </trkpt>
      <trkpt lat="48.64138" lon="1.95955">
        <ele>172</ele>
        <time>2023-09-03T09:10:32Z</time>
      </trkpt>
      <trkpt lat="48.64144" lon="1.9597">
        <ele>172</ele>
        <time>2023-09-03T09:10:34Z</time>
      </trkpt>
      <trkpt lat="48.6415" lon="1.95983">
        <ele>172</ele>
        <time>2023-09-03T09:10:36Z</time>
      </trkpt>
      <trkpt lat="48.64155" lon="1.95997">
        <ele>172</ele>
        <time>2023-09-03T09:10:38Z</time>
      </trkpt>
      <trkpt lat="48.64161" lon="1.96011">
        <ele>172</ele>
        <time>2023-09-03T09:10:40Z</time>
      </trkpt>
      <trkpt lat="48.64167" lon="1.96025">
        <ele>172</ele>
        <time>2023-09-03T09:10:42Z</time>
      </trkpt>
      <trkpt lat="48.64174" lon="1.96039">
        <ele>172</ele>
        <time>2023-09-03T09:10:44Z</time>
      </trkpt>
      <trkpt lat="48.64179" lon="1.96053">
        <ele>172</ele>
        <time>2023-09-03T09:10:46Z</time>
      </trkpt>
      <trkpt lat="48.64186" lon="1.96066">
        <ele>172</ele>
        <time>2023-09-03T09:10:48Z</time>
      </trkpt>
      <trkpt lat="48.64191" lon="1.9608">
        <ele>172</ele>
        <time>2023-09-03T09:10:50Z</time>
      </trkpt>
      <trkpt lat="48.64197" lon="1.96094">
        <ele>172.1</ele>
        <time>2023-09-03T09:10:52Z</time>
      </trkpt>
      <trkpt lat="48.64201" lon="1.96109">
        <ele>172.2</ele>
        <time>2023-09-03T09:10:54Z</time>
      </trkpt>
      <trkpt lat="48.64205" lon="1.96125">
        <ele>172.7</ele>
        <time>2023-09-03T09:10:56Z</time>
      </trkpt>
      <trkpt lat="48.64208" lon="1.96141">
        <ele>173</ele>
        <time>2023-09-03T09:10:58Z</time>
      </trkpt>
      <trkpt lat="48.64211" lon="1.96156">
        <ele>173</ele>
        <time>2023-09-03T09:11:00Z</time>
      </trkpt>
      <trkpt lat="48.64213" lon="1.96171">
        <ele>173.1</ele>
        <time>2023-09-03T09:11:02Z</time>
      </trkpt>
      <trkpt lat="48.64214" lon="1.96185">
        <ele>173.5</ele>
        <time>2023-09-03T09:11:04Z</time>
      </trkpt>
      <trkpt lat="48.64217" lon="1.962">
        <ele>173.6</ele>
        <time>2023-09-03T09:11:06Z</time>
      </trkpt>
      <trkpt lat="48.64218" lon="1.96214">
        <ele>173.2</ele>
        <time>2023-09-03T09:11:08Z</time>
      </trkpt>
      <trkpt lat="48.64221" lon="1.96229">
        <ele>173</ele>
        <time>2023-09-03T09:11:10Z</time>
      </trkpt>
      <trkpt lat="48.64223" lon="1.96244">
        <ele>173</ele>
        <time>2023-09-03T09:11:12Z</time>
      </trkpt>
      <trkpt lat="48.64225" lon="1.96259">
        <ele>173.1</ele>
        <time>2023-09-03T09:11:14Z</time>
      </trkpt>
      <trkpt lat="48.64228" lon="1.96272">
        <ele>173</ele>
        <time>2023-09-03T09:11:16Z</time>
      </trkpt>
      <trkpt lat="48.64231" lon="1.96287">
        <ele>173</ele>
        <time>2023-09-03T09:11:18Z</time>
      </trkpt>
      <trkpt lat="48.64235" lon="1.963">
        <ele>173</ele>
        <time>2023-09-03T09:11:20Z</time>
      </trkpt>
      <trkpt lat="48.64238" lon="1.96314">
        <ele>173.2</ele>
        <time>2023-09-03T09:11:22Z</time>
      </trkpt>
      <trkpt lat="48.6424" lon="1.96329">
        <ele>173.5</ele>
        <time>2023-09-03T09:11:24Z</time>
      </trkpt>
      <trkpt lat="48.64241" lon="1.96345">
        <ele>173.7</ele>
        <time>2023-09-03T09:11:26Z</time>
      </trkpt>
      <trkpt lat="48.64242" lon="1.96361">
        <ele>173.7</ele>
        <time>2023-09-03T09:11:28Z</time>
      </trkpt>
      <trkpt lat="48.64243" lon="1.96376">
        <ele>173.9</ele>
        <time>2023-09-03T09:11:30Z</time>
      </trkpt>
      <trkpt lat="48.64243" lon="1.96392">
        <ele>174</ele>
        <time>2023-09-03T09:11:32Z</time>
      </trkpt>
      <trkpt lat="48.64243" lon="1.96407">
        <ele>174</ele>
        <time>2023-09-03T09:11:34Z</time>
      </trkpt>
      <trkpt lat="48.64243" lon="1.96422">
        <ele>174</ele>
        <time>2023-09-03T09:11:36Z</time>
      </trkpt>
      <trkpt lat="48.64242" lon="1.96437">
        <ele>174</ele>
        <time>2023-09-03T09:11:38Z</time>
      </trkpt>
      <trkpt lat="48.64241" lon="1.96454">
        <ele>174</ele>
        <time>2023-09-03T09:11:40Z</time>
      </trkpt>
      <trkpt lat="48.6424" lon="1.96469">
        <ele>174</ele>
        <time>2023-09-03T09:11:42Z</time>
      </trkpt>
      <trkpt lat="48.6424" lon="1.96485">
        <ele>174</ele>
        <time>2023-09-03T09:11:44Z</time>
      </trkpt>
      <trkpt lat="48.6424" lon="1.96502">
        <ele>174</ele>
        <time>2023-09-03T09:11:46Z</time>
      </trkpt>
      <trkpt lat="48.64242" lon="1.96518">
        <ele>173.8</ele>
        <time>2023-09-03T09:11:48Z</time>
      </trkpt>
      <trkpt lat="48.64245" lon="1.96535">
        <ele>173.8</ele>
        <time>2023-09-03T09:11:50Z</time>
      </trkpt>
      <trkpt lat="48.64246" lon="1.96552">
        <ele>173.9</ele>
        <time>2023-09-03T09:11:52Z</time>
      </trkpt>
      <trkpt lat="48.64247" lon="1.96568">
        <ele>173.5</ele>
        <time>2023-09-03T09:11:54Z</time>
      </trkpt>
      <trkpt lat="48.64249" lon="1.96583">
        <ele>173</ele>
        <time>2023-09-03T09:11:56Z</time>
      </trkpt>
      <trkpt lat="48.64251" lon="1.96598">
        <ele>173</ele>
        <time>2023-09-03T09:11:58Z</time>
      </trkpt>
      <trkpt lat="48.6425" lon="1.96613">
        <ele>173</ele>
        <time>2023-09-03T09:12:00Z</time>
      </trkpt>
      <trkpt lat="48.64248" lon="1.96628">
        <ele>173</ele>
        <time>2023-09-03T09:12:02Z</time>
      </trkpt>
      <trkpt lat="48.64243" lon="1.96644">
        <ele>173</ele>
        <time>2023-09-03T09:12:04Z</time>
      </trkpt>
      <trkpt lat="48.64238" lon="1.96659">
        <ele>173</ele>
        <time>2023-09-03T09:12:06Z</time>
      </trkpt>
      <trkpt lat="48.64233" lon="1.96673">
        <ele>173</ele>
        <time>2023-09-03T09:12:08Z</time>
      </trkpt>
      <trkpt lat="48.64227" lon="1.96686">
        <ele>173</ele>
        <time>2023-09-03T09:12:10Z</time>
      </trkpt>
      <trkpt lat="48.64222" lon="1.96705">
        <ele>173</ele>
        <time>2023-09-03T09:12:13Z</time>
      </trkpt>
      <trkpt lat="48.64217" lon="1.96718">
        <ele>173</ele>
        <time>2023-09-03T09:12:15Z</time>
      </trkpt>
      <trkpt lat="48.6421" lon="1.96731">
        <ele>173</ele>
        <time>2023-09-03T09:12:17Z</time>
      </trkpt>
      <trkpt lat="48.64203" lon="1.96745">
        <ele>173</ele>
        <time>2023-09-03T09:12:19Z</time>
      </trkpt>
      <trkpt lat="48.64197" lon="1.96757">
        <ele>173</ele>
        <time>2023-09-03T09:12:21Z</time>
      </trkpt>
      <trkpt lat="48.64189" lon="1.9677">
        <ele>173</ele>
        <time>2023-09-03T09:12:23Z</time>
      </trkpt>
      <trkpt lat="48.64181" lon="1.96783">
        <ele>173</ele>
        <time>2023-09-03T09:12:25Z</time>
      </trkpt>
      <trkpt lat="48.64174" lon="1.96794">
        <ele>173</ele>
        <time>2023-09-03T09:12:27Z</time>
      </trkpt>
      <trkpt lat="48.64164" lon="1.96809">
        <ele>172.9</ele>
        <time>2023-09-03T09:12:29Z</time>
      </trkpt>
      <trkpt lat="48.64156" lon="1.9682">
        <ele>172.6</ele>
        <time>2023-09-03T09:12:31Z</time>
      </trkpt>
      <trkpt lat="48.64149" lon="1.96832">
        <ele>172.4</ele>
        <time>2023-09-03T09:12:33Z</time>
      </trkpt>
      <trkpt lat="48.64143" lon="1.96845">
        <ele>172.1</ele>
        <time>2023-09-03T09:12:35Z</time>
      </trkpt>
      <trkpt lat="48.64134" lon="1.96854">
        <ele>172</ele>
        <time>2023-09-03T09:12:37Z</time>
      </trkpt>
      <trkpt lat="48.64124" lon="1.96861">
        <ele>172</ele>
        <time>2023-09-03T09:12:39Z</time>
      </trkpt>
      <trkpt lat="48.64111" lon="1.96862">
        <ele>172</ele>
        <time>2023-09-03T09:12:41Z</time>
      </trkpt>
      <trkpt lat="48.64098" lon="1.96863">
        <ele>172</ele>
        <time>2023-09-03T09:12:43Z</time>
      </trkpt>
      <trkpt lat="48.64086" lon="1.96863">
        <ele>172</ele>
        <time>2023-09-03T09:12:45Z</time>
      </trkpt>
      <trkpt lat="48.64074" lon="1.96864">
        <ele>172</ele>
        <time>2023-09-03T09:12:47Z</time>
      </trkpt>
      <trkpt lat="48.64061" lon="1.96867">
        <ele>172</ele>
        <time>2023-09-03T09:12:49Z</time>
      </trkpt>
      <trkpt lat="48.64049" lon="1.96868">
        <ele>171.8</ele>
        <time>2023-09-03T09:12:51Z</time>
      </trkpt>
      <trkpt lat="48.64036" lon="1.9687">
        <ele>171.3</ele>
        <time>2023-09-03T09:12:53Z</time>
      </trkpt>
      <trkpt lat="48.64024" lon="1.96874">
        <ele>171</ele>
        <time>2023-09-03T09:12:55Z</time>
      </trkpt>
      <trkpt lat="48.64014" lon="1.96876">
        <ele>171</ele>
        <time>2023-09-03T09:12:57Z</time>
      </trkpt>
      <trkpt lat="48.64003" lon="1.9688">
        <ele>171</ele>
        <time>2023-09-03T09:12:59Z</time>
      </trkpt>
      <trkpt lat="48.63992" lon="1.96886">
        <ele>171</ele>
        <time>2023-09-03T09:13:01Z</time>
      </trkpt>
      <trkpt lat="48.63982" lon="1.96892">
        <ele>171</ele>
        <time>2023-09-03T09:13:03Z</time>
      </trkpt>
      <trkpt lat="48.63971" lon="1.96898">
        <ele>171</ele>
        <time>2023-09-03T09:13:05Z</time>
      </trkpt>
      <trkpt lat="48.6396" lon="1.96906">
        <ele>171</ele>
        <time>2023-09-03T09:13:07Z</time>
      </trkpt>
      <trkpt lat="48.63949" lon="1.96912">
        <ele>171</ele>
        <time>2023-09-03T09:13:09Z</time>
      </trkpt>
      <trkpt lat="48.63938" lon="1.9692">
        <ele>170.8</ele>
        <time>2023-09-03T09:13:11Z</time>
      </trkpt>
      <trkpt lat="48.63927" lon="1.96927">
        <ele>170.6</ele>
        <time>2023-09-03T09:13:13Z</time>
      </trkpt>
      <trkpt lat="48.63917" lon="1.9693">
        <ele>170.5</ele>
        <time>2023-09-03T09:13:15Z</time>
      </trkpt>
      <trkpt lat="48.63907" lon="1.96939">
        <ele>170.5</ele>
        <time>2023-09-03T09:13:17Z</time>
      </trkpt>
      <trkpt lat="48.63897" lon="1.96945">
        <ele>170.3</ele>
        <time>2023-09-03T09:13:19Z</time>
      </trkpt>
      <trkpt lat="48.63886" lon="1.9695">
        <ele>170</ele>
        <time>2023-09-03T09:13:21Z</time>
      </trkpt>
      <trkpt lat="48.63876" lon="1.96954">
        <ele>170</ele>
        <time>2023-09-03T09:13:23Z</time>
      </trkpt>
      <trkpt lat="48.63867" lon="1.9696">
        <ele>170</ele>
        <time>2023-09-03T09:13:25Z</time>
      </trkpt>
      <trkpt lat="48.63858" lon="1.96968">
        <ele>169.9</ele>
        <time>2023-09-03T09:13:27Z</time>
      </trkpt>
      <trkpt lat="48.63847" lon="1.96972">
        <ele>169.5</ele>
        <time>2023-09-03T09:13:29Z</time>
      </trkpt>
      <trkpt lat="48.63836" lon="1.96974">
        <ele>169.1</ele>
        <time>2023-09-03T09:13:31Z</time>
      </trkpt>
      <trkpt lat="48.63825" lon="1.96976">
        <ele>169</ele>
        <time>2023-09-03T09:13:33Z</time>
      </trkpt>
      <trkpt lat="48.63812" lon="1.9698">
        <ele>169</ele>
        <time>2023-09-03T09:13:35Z</time>
      </trkpt>
      <trkpt lat="48.638" lon="1.96984">
        <ele>169</ele>
        <time>2023-09-03T09:13:37Z</time>
      </trkpt>
      <trkpt lat="48.63788" lon="1.96987">
        <ele>169</ele>
        <time>2023-09-03T09:13:39Z</time>
      </trkpt>
      <trkpt lat="48.63775" lon="1.96991">
        <ele>168.9</ele>
        <time>2023-09-03T09:13:41Z</time>
      </trkpt>
      <trkpt lat="48.63762" lon="1.96993">
        <ele>168.6</ele>
        <time>2023-09-03T09:13:43Z</time>
      </trkpt>
      <trkpt lat="48.6375" lon="1.96997">
        <ele>168.1</ele>
        <time>2023-09-03T09:13:45Z</time>
      </trkpt>
      <trkpt lat="48.63737" lon="1.96998">
        <ele>167.6</ele>
        <time>2023-09-03T09:13:47Z</time>
      </trkpt>
      <trkpt lat="48.63725" lon="1.97">
        <ele>167.1</ele>
        <time>2023-09-03T09:13:49Z</time>
      </trkpt>
      <trkpt lat="48.63713" lon="1.97004">
        <ele>166.9</ele>
        <time>2023-09-03T09:13:51Z</time>
      </trkpt>
      <trkpt lat="48.637" lon="1.9701">
        <ele>166.4</ele>
        <time>2023-09-03T09:13:53Z</time>
      </trkpt>
      <trkpt lat="48.63686" lon="1.97016">
        <ele>165.5</ele>
        <time>2023-09-03T09:13:55Z</time>
      </trkpt>
      <trkpt lat="48.63675" lon="1.97024">
        <ele>164.6</ele>
        <time>2023-09-03T09:13:57Z</time>
      </trkpt>
      <trkpt lat="48.63661" lon="1.97031">
        <ele>163.6</ele>
        <time>2023-09-03T09:13:59Z</time>
      </trkpt>
      <trkpt lat="48.63647" lon="1.97043">
        <ele>162</ele>
        <time>2023-09-03T09:14:01Z</time>
      </trkpt>
      <trkpt lat="48.63639" lon="1.97051">
        <ele>160.7</ele>
        <time>2023-09-03T09:14:02Z</time>
      </trkpt>
      <trkpt lat="48.6363" lon="1.97057">
        <ele>159.8</ele>
        <time>2023-09-03T09:14:03Z</time>
      </trkpt>
      <trkpt lat="48.63617" lon="1.97068">
        <ele>158.3</ele>
        <time>2023-09-03T09:14:05Z</time>
      </trkpt>
      <trkpt lat="48.63601" lon="1.97078">
        <ele>156.3</ele>
        <time>2023-09-03T09:14:07Z</time>
      </trkpt>
      <trkpt lat="48.63585" lon="1.9709">
        <ele>154.6</ele>
        <time>2023-09-03T09:14:09Z</time>
      </trkpt>
      <trkpt lat="48.63568" lon="1.97098">
        <ele>152.6</ele>
        <time>2023-09-03T09:14:11Z</time>
      </trkpt>
      <trkpt lat="48.63558" lon="1.971">
        <ele>151.6</ele>
        <time>2023-09-03T09:14:12Z</time>
      </trkpt>
      <trkpt lat="48.63548" lon="1.97101">
        <ele>150.7</ele>
        <time>2023-09-03T09:14:13Z</time>
      </trkpt>
      <trkpt lat="48.63538" lon="1.97102">
        <ele>149.6</ele>
        <time>2023-09-03T09:14:14Z</time>
      </trkpt>
      <trkpt lat="48.63518" lon="1.97102">
        <ele>147.5</ele>
        <time>2023-09-03T09:14:16Z</time>
      </trkpt>
      <trkpt lat="48.63508" lon="1.97104">
        <ele>146.4</ele>
        <time>2023-09-03T09:14:17Z</time>
      </trkpt>
      <trkpt lat="48.63485" lon="1.97107">
        <ele>144.2</ele>
        <time>2023-09-03T09:14:19Z</time>
      </trkpt>
      <trkpt lat="48.63475" lon="1.97108">
        <ele>143.1</ele>
        <time>2023-09-03T09:14:20Z</time>
      </trkpt>
      <trkpt lat="48.63465" lon="1.9711">
        <ele>142.4</ele>
        <time>2023-09-03T09:14:21Z</time>
      </trkpt>
      <trkpt lat="48.63455" lon="1.97113">
        <ele>141.8</ele>
        <time>2023-09-03T09:14:22Z</time>
      </trkpt>
      <trkpt lat="48.63443" lon="1.97119">
        <ele>141.1</ele>
        <time>2023-09-03T09:14:23Z</time>
      </trkpt>
      <trkpt lat="48.63433" lon="1.97124">
        <ele>140.2</ele>
        <time>2023-09-03T09:14:24Z</time>
      </trkpt>
      <trkpt lat="48.63423" lon="1.97129">
        <ele>139.3</ele>
        <time>2023-09-03T09:14:25Z</time>
      </trkpt>
      <trkpt lat="48.63411" lon="1.97134">
        <ele>138.4</ele>
        <time>2023-09-03T09:14:26Z</time>
      </trkpt>
      <trkpt lat="48.63401" lon="1.97138">
        <ele>137.9</ele>
        <time>2023-09-03T09:14:27Z</time>
      </trkpt>
      <trkpt lat="48.6339" lon="1.97141">
        <ele>137.1</ele>
        <time>2023-09-03T09:14:28Z</time>
      </trkpt>
      <trkpt lat="48.6338" lon="1.97146">
        <ele>136.4</ele>
        <time>2023-09-03T09:14:29Z</time>
      </trkpt>
      <trkpt lat="48.63368" lon="1.97149">
        <ele>135.8</ele>
        <time>2023-09-03T09:14:30Z</time>
      </trkpt>
      <trkpt lat="48.63358" lon="1.97154">
        <ele>135.3</ele>
        <time>2023-09-03T09:14:31Z</time>
      </trkpt>
      <trkpt lat="48.63341" lon="1.97164">
        <ele>134.4</ele>
        <time>2023-09-03T09:14:33Z</time>
      </trkpt>
      <trkpt lat="48.63327" lon="1.97174">
        <ele>133.3</ele>
        <time>2023-09-03T09:14:35Z</time>
      </trkpt>
      <trkpt lat="48.63311" lon="1.97184">
        <ele>131.6</ele>
        <time>2023-09-03T09:14:37Z</time>
      </trkpt>
      <trkpt lat="48.6329" lon="1.97192">
        <ele>129.8</ele>
        <time>2023-09-03T09:14:39Z</time>
      </trkpt>
      <trkpt lat="48.6328" lon="1.97198">
        <ele>129.2</ele>
        <time>2023-09-03T09:14:40Z</time>
      </trkpt>
      <trkpt lat="48.6327" lon="1.97206">
        <ele>128.1</ele>
        <time>2023-09-03T09:14:41Z</time>
      </trkpt>
      <trkpt lat="48.6326" lon="1.97211">
        <ele>127</ele>
        <time>2023-09-03T09:14:42Z</time>
      </trkpt>
      <trkpt lat="48.63251" lon="1.97216">
        <ele>126.1</ele>
        <time>2023-09-03T09:14:43Z</time>
      </trkpt>
      <trkpt lat="48.63241" lon="1.97218">
        <ele>125</ele>
        <time>2023-09-03T09:14:44Z</time>
      </trkpt>
      <trkpt lat="48.63229" lon="1.97221">
        <ele>123.7</ele>
        <time>2023-09-03T09:14:45Z</time>
      </trkpt>
      <trkpt lat="48.63218" lon="1.97225">
        <ele>122.6</ele>
        <time>2023-09-03T09:14:46Z</time>
      </trkpt>
      <trkpt lat="48.63208" lon="1.97229">
        <ele>121.6</ele>
        <time>2023-09-03T09:14:47Z</time>
      </trkpt>
      <trkpt lat="48.63197" lon="1.97233">
        <ele>120.7</ele>
        <time>2023-09-03T09:14:48Z</time>
      </trkpt>
      <trkpt lat="48.63188" lon="1.97237">
        <ele>120</ele>
        <time>2023-09-03T09:14:49Z</time>
      </trkpt>
      <trkpt lat="48.63179" lon="1.97241">
        <ele>119.2</ele>
        <time>2023-09-03T09:14:50Z</time>
      </trkpt>
      <trkpt lat="48.6317" lon="1.97244">
        <ele>118.3</ele>
        <time>2023-09-03T09:14:51Z</time>
      </trkpt>
      <trkpt lat="48.6316" lon="1.97247">
        <ele>117.5</ele>
        <time>2023-09-03T09:14:52Z</time>
      </trkpt>
      <trkpt lat="48.6315" lon="1.97248">
        <ele>116.8</ele>
        <time>2023-09-03T09:14:53Z</time>
      </trkpt>
      <trkpt lat="48.63133" lon="1.97251">
        <ele>115.8</ele>
        <time>2023-09-03T09:14:55Z</time>
      </trkpt>
      <trkpt lat="48.63123" lon="1.97252">
        <ele>115.4</ele>
        <time>2023-09-03T09:14:56Z</time>
      </trkpt>
      <trkpt lat="48.63107" lon="1.97254">
        <ele>114.7</ele>
        <time>2023-09-03T09:14:58Z</time>
      </trkpt>
      <trkpt lat="48.63093" lon="1.9726">
        <ele>114.2</ele>
        <time>2023-09-03T09:15:00Z</time>
      </trkpt>
      <trkpt lat="48.63084" lon="1.97261">
        <ele>114</ele>
        <time>2023-09-03T09:15:01Z</time>
      </trkpt>
      <trkpt lat="48.63067" lon="1.97263">
        <ele>114.9</ele>
        <time>2023-09-03T09:15:03Z</time>
      </trkpt>
      <trkpt lat="48.63058" lon="1.97265">
        <ele>115.4</ele>
        <time>2023-09-03T09:15:05Z</time>
      </trkpt>
      <trkpt lat="48.6305" lon="1.97281">
        <ele>115.7</ele>
        <time>2023-09-03T09:15:08Z</time>
      </trkpt>
      <trkpt lat="48.63047" lon="1.97296">
        <ele>116.2</ele>
        <time>2023-09-03T09:15:11Z</time>
      </trkpt>
      <trkpt lat="48.63041" lon="1.97311">
        <ele>117</ele>
        <time>2023-09-03T09:15:14Z</time>
      </trkpt>
      <trkpt lat="48.63034" lon="1.97323">
        <ele>117.6</ele>
        <time>2023-09-03T09:15:17Z</time>
      </trkpt>
      <trkpt lat="48.63026" lon="1.97337">
        <ele>118.3</ele>
        <time>2023-09-03T09:15:20Z</time>
      </trkpt>
      <trkpt lat="48.63018" lon="1.97349">
        <ele>119.4</ele>
        <time>2023-09-03T09:15:23Z</time>
      </trkpt>
      <trkpt lat="48.6301" lon="1.97359">
        <ele>120.5</ele>
        <time>2023-09-03T09:15:26Z</time>
      </trkpt>
      <trkpt lat="48.63002" lon="1.97368">
        <ele>121.5</ele>
        <time>2023-09-03T09:15:30Z</time>
      </trkpt>
      <trkpt lat="48.62993" lon="1.97373">
        <ele>122.4</ele>
        <time>2023-09-03T09:15:36Z</time>
      </trkpt>
      <trkpt lat="48.62985" lon="1.97381">
        <ele>122.9</ele>
        <time>2023-09-03T09:15:40Z</time>
      </trkpt>
      <trkpt lat="48.62982" lon="1.97396">
        <ele>122.7</ele>
        <time>2023-09-03T09:15:44Z</time>
      </trkpt>
      <trkpt lat="48.62982" lon="1.97413">
        <ele>122</ele>
        <time>2023-09-03T09:15:47Z</time>
      </trkpt>
      <trkpt lat="48.62982" lon="1.97427">
        <ele>121.9</ele>
        <time>2023-09-03T09:15:49Z</time>
      </trkpt>
      <trkpt lat="48.62981" lon="1.97443">
        <ele>122.1</ele>
        <time>2023-09-03T09:15:51Z</time>
      </trkpt>
      <trkpt lat="48.62977" lon="1.9746">
        <ele>121.9</ele>
        <time>2023-09-03T09:15:53Z</time>
      </trkpt>
      <trkpt lat="48.62971" lon="1.97475">
        <ele>122.2</ele>
        <time>2023-09-03T09:15:54Z</time>
      </trkpt>
      <trkpt lat="48.6297" lon="1.9749">
        <ele>122.2</ele>
        <time>2023-09-03T09:15:56Z</time>
      </trkpt>
      <trkpt lat="48.62969" lon="1.97505">
        <ele>122.2</ele>
        <time>2023-09-03T09:15:58Z</time>
      </trkpt>
      <trkpt lat="48.62968" lon="1.9752">
        <ele>122.4</ele>
        <time>2023-09-03T09:16:00Z</time>
      </trkpt>
      <trkpt lat="48.62967" lon="1.97538">
        <ele>122.9</ele>
        <time>2023-09-03T09:16:03Z</time>
      </trkpt>
      <trkpt lat="48.62966" lon="1.97556">
        <ele>123.4</ele>
        <time>2023-09-03T09:16:06Z</time>
      </trkpt>
      <trkpt lat="48.62965" lon="1.97575">
        <ele>123</ele>
        <time>2023-09-03T09:16:09Z</time>
      </trkpt>
      <trkpt lat="48.62962" lon="1.9759">
        <ele>123.2</ele>
        <time>2023-09-03T09:16:11Z</time>
      </trkpt>
      <trkpt lat="48.62962" lon="1.97604">
        <ele>123.6</ele>
        <time>2023-09-03T09:16:13Z</time>
      </trkpt>
      <trkpt lat="48.6296" lon="1.97619">
        <ele>123.9</ele>
        <time>2023-09-03T09:16:15Z</time>
      </trkpt>
      <trkpt lat="48.62959" lon="1.97637">
        <ele>124</ele>
        <time>2023-09-03T09:16:18Z</time>
      </trkpt>
      <trkpt lat="48.62957" lon="1.97656">
        <ele>124.7</ele>
        <time>2023-09-03T09:16:21Z</time>
      </trkpt>
      <trkpt lat="48.62956" lon="1.97675">
        <ele>125</ele>
        <time>2023-09-03T09:16:24Z</time>
      </trkpt>
      <trkpt lat="48.62956" lon="1.97692">
        <ele>124.6</ele>
        <time>2023-09-03T09:16:27Z</time>
      </trkpt>
      <trkpt lat="48.62954" lon="1.97708">
        <ele>124.5</ele>
        <time>2023-09-03T09:16:29Z</time>
      </trkpt>
      <trkpt lat="48.6295" lon="1.97723">
        <ele>124.6</ele>
        <time>2023-09-03T09:16:31Z</time>
      </trkpt>
      <trkpt lat="48.62947" lon="1.97743">
        <ele>124.7</ele>
        <time>2023-09-03T09:16:34Z</time>
      </trkpt>
      <trkpt lat="48.62945" lon="1.97756">
        <ele>124.8</ele>
        <time>2023-09-03T09:16:36Z</time>
      </trkpt>
      <trkpt lat="48.6294" lon="1.97771">
        <ele>124.4</ele>
        <time>2023-09-03T09:16:38Z</time>
      </trkpt>
      <trkpt lat="48.62936" lon="1.9779">
        <ele>124</ele>
        <time>2023-09-03T09:16:41Z</time>
      </trkpt>
      <trkpt lat="48.62933" lon="1.97808">
        <ele>123.8</ele>
        <time>2023-09-03T09:16:44Z</time>
      </trkpt>
      <trkpt lat="48.62931" lon="1.97831">
        <ele>123.5</ele>
        <time>2023-09-03T09:16:47Z</time>
      </trkpt>
      <trkpt lat="48.62929" lon="1.97846">
        <ele>123.4</ele>
        <time>2023-09-03T09:16:49Z</time>
      </trkpt>
      <trkpt lat="48.62925" lon="1.97864">
        <ele>123.3</ele>
        <time>2023-09-03T09:16:51Z</time>
      </trkpt>
      <trkpt lat="48.62922" lon="1.97881">
        <ele>122.9</ele>
        <time>2023-09-03T09:16:53Z</time>
      </trkpt>
      <trkpt lat="48.6292" lon="1.97897">
        <ele>122.8</ele>
        <time>2023-09-03T09:16:55Z</time>
      </trkpt>
      <trkpt lat="48.62918" lon="1.97912">
        <ele>122.9</ele>
        <time>2023-09-03T09:16:57Z</time>
      </trkpt>
      <trkpt lat="48.62914" lon="1.97929">
        <ele>122.6</ele>
        <time>2023-09-03T09:16:59Z</time>
      </trkpt>
      <trkpt lat="48.6291" lon="1.97947">
        <ele>122.2</ele>
        <time>2023-09-03T09:17:01Z</time>
      </trkpt>
      <trkpt lat="48.62906" lon="1.97966">
        <ele>122.4</ele>
        <time>2023-09-03T09:17:03Z</time>
      </trkpt>
      <trkpt lat="48.62904" lon="1.97982">
        <ele>122.3</ele>
        <time>2023-09-03T09:17:05Z</time>
      </trkpt>
      <trkpt lat="48.629" lon="1.97996">
        <ele>122.3</ele>
        <time>2023-09-03T09:17:07Z</time>
      </trkpt>
      <trkpt lat="48.62898" lon="1.98009">
        <ele>122.1</ele>
        <time>2023-09-03T09:17:09Z</time>
      </trkpt>
      <trkpt lat="48.62902" lon="1.98026">
        <ele>121.5</ele>
        <time>2023-09-03T09:17:12Z</time>
      </trkpt>
      <trkpt lat="48.62912" lon="1.98032">
        <ele>121.2</ele>
        <time>2023-09-03T09:17:14Z</time>
      </trkpt>
      <trkpt lat="48.62923" lon="1.98036">
        <ele>120.6</ele>
        <time>2023-09-03T09:17:16Z</time>
      </trkpt>
      <trkpt lat="48.62934" lon="1.98038">
        <ele>119.7</ele>
        <time>2023-09-03T09:17:18Z</time>
      </trkpt>
      <trkpt lat="48.62946" lon="1.9804">
        <ele>118.9</ele>
        <time>2023-09-03T09:17:20Z</time>
      </trkpt>
      <trkpt lat="48.62958" lon="1.98046">
        <ele>118</ele>
        <time>2023-09-03T09:17:22Z</time>
      </trkpt>
      <trkpt lat="48.62971" lon="1.98057">
        <ele>117.1</ele>
        <time>2023-09-03T09:17:24Z</time>
      </trkpt>
      <trkpt lat="48.6298" lon="1.98074">
        <ele>116.9</ele>
        <time>2023-09-03T09:17:26Z</time>
      </trkpt>
      <trkpt lat="48.62987" lon="1.98092">
        <ele>116.4</ele>
        <time>2023-09-03T09:17:28Z</time>
      </trkpt>
      <trkpt lat="48.6299" lon="1.98111">
        <ele>116.1</ele>
        <time>2023-09-03T09:17:30Z</time>
      </trkpt>
      <trkpt lat="48.62995" lon="1.9813">
        <ele>115.5</ele>
        <time>2023-09-03T09:17:32Z</time>
      </trkpt>
      <trkpt lat="48.62998" lon="1.98144">
        <ele>115.2</ele>
        <time>2023-09-03T09:17:34Z</time>
      </trkpt>
      <trkpt lat="48.63006" lon="1.98156">
        <ele>114.4</ele>
        <time>2023-09-03T09:17:36Z</time>
      </trkpt>
      <trkpt lat="48.63019" lon="1.98169">
        <ele>112.9</ele>
        <time>2023-09-03T09:17:38Z</time>
      </trkpt>
      <trkpt lat="48.63025" lon="1.98188">
        <ele>112.3</ele>
        <time>2023-09-03T09:17:40Z</time>
      </trkpt>
      <trkpt lat="48.63026" lon="1.98209">
        <ele>112.1</ele>
        <time>2023-09-03T09:17:42Z</time>
      </trkpt>
      <trkpt lat="48.63026" lon="1.98228">
        <ele>112.1</ele>
        <time>2023-09-03T09:17:44Z</time>
      </trkpt>
      <trkpt lat="48.63025" lon="1.98248">
        <ele>112.1</ele>
        <time>2023-09-03T09:17:46Z</time>
      </trkpt>
      <trkpt lat="48.63025" lon="1.98267">
        <ele>111.6</ele>
        <time>2023-09-03T09:17:48Z</time>
      </trkpt>
      <trkpt lat="48.63024" lon="1.98286">
        <ele>111.3</ele>
        <time>2023-09-03T09:17:50Z</time>
      </trkpt>
      <trkpt lat="48.63024" lon="1.98302">
        <ele>111.3</ele>
        <time>2023-09-03T09:17:52Z</time>
      </trkpt>
      <trkpt lat="48.63022" lon="1.98318">
        <ele>111.3</ele>
        <time>2023-09-03T09:17:54Z</time>
      </trkpt>
      <trkpt lat="48.63024" lon="1.98338">
        <ele>111.1</ele>
        <time>2023-09-03T09:17:56Z</time>
      </trkpt>
      <trkpt lat="48.63027" lon="1.98358">
        <ele>111</ele>
        <time>2023-09-03T09:17:58Z</time>
      </trkpt>
      <trkpt lat="48.63029" lon="1.98378">
        <ele>111</ele>
        <time>2023-09-03T09:18:00Z</time>
      </trkpt>
      <trkpt lat="48.63032" lon="1.98395">
        <ele>111</ele>
        <time>2023-09-03T09:18:02Z</time>
      </trkpt>
      <trkpt lat="48.63034" lon="1.98417">
        <ele>110.8</ele>
        <time>2023-09-03T09:18:04Z</time>
      </trkpt>
      <trkpt lat="48.63035" lon="1.98437">
        <ele>110.2</ele>
        <time>2023-09-03T09:18:06Z</time>
      </trkpt>
      <trkpt lat="48.63037" lon="1.98456">
        <ele>110</ele>
        <time>2023-09-03T09:18:08Z</time>
      </trkpt>
      <trkpt lat="48.63038" lon="1.98473">
        <ele>110</ele>
        <time>2023-09-03T09:18:10Z</time>
      </trkpt>
      <trkpt lat="48.63037" lon="1.98494">
        <ele>110</ele>
        <time>2023-09-03T09:18:12Z</time>
      </trkpt>
      <trkpt lat="48.63034" lon="1.98512">
        <ele>110</ele>
        <time>2023-09-03T09:18:14Z</time>
      </trkpt>
      <trkpt lat="48.63031" lon="1.98531">
        <ele>110</ele>
        <time>2023-09-03T09:18:16Z</time>
      </trkpt>
      <trkpt lat="48.63027" lon="1.98547">
        <ele>110</ele>
        <time>2023-09-03T09:18:18Z</time>
      </trkpt>
      <trkpt lat="48.63021" lon="1.98562">
        <ele>110</ele>
        <time>2023-09-03T09:18:20Z</time>
      </trkpt>
      <trkpt lat="48.63021" lon="1.98576">
        <ele>110</ele>
        <time>2023-09-03T09:18:22Z</time>
      </trkpt>
      <trkpt lat="48.63018" lon="1.98593">
        <ele>110</ele>
        <time>2023-09-03T09:18:24Z</time>
      </trkpt>
      <trkpt lat="48.63014" lon="1.98611">
        <ele>110</ele>
        <time>2023-09-03T09:18:26Z</time>
      </trkpt>
      <trkpt lat="48.63011" lon="1.98627">
        <ele>110</ele>
        <time>2023-09-03T09:18:28Z</time>
      </trkpt>
      <trkpt lat="48.63003" lon="1.98645">
        <ele>110</ele>
        <time>2023-09-03T09:18:30Z</time>
      </trkpt>
      <trkpt lat="48.62997" lon="1.98661">
        <ele>110</ele>
        <time>2023-09-03T09:18:32Z</time>
      </trkpt>
      <trkpt lat="48.62992" lon="1.98677">
        <ele>109.8</ele>
        <time>2023-09-03T09:18:34Z</time>
      </trkpt>
      <trkpt lat="48.62987" lon="1.9869">
        <ele>109.6</ele>
        <time>2023-09-03T09:18:36Z</time>
      </trkpt>
      <trkpt lat="48.62982" lon="1.98705">
        <ele>109.6</ele>
        <time>2023-09-03T09:18:38Z</time>
      </trkpt>
      <trkpt lat="48.62978" lon="1.9872">
        <ele>109.8</ele>
        <time>2023-09-03T09:18:40Z</time>
      </trkpt>
      <trkpt lat="48.62973" lon="1.98735">
        <ele>110</ele>
        <time>2023-09-03T09:18:42Z</time>
      </trkpt>
      <trkpt lat="48.62967" lon="1.98749">
        <ele>110</ele>
        <time>2023-09-03T09:18:44Z</time>
      </trkpt>
      <trkpt lat="48.62962" lon="1.98763">
        <ele>109.7</ele>
        <time>2023-09-03T09:18:46Z</time>
      </trkpt>
      <trkpt lat="48.62957" lon="1.98776">
        <ele>109.6</ele>
        <time>2023-09-03T09:18:48Z</time>
      </trkpt>
      <trkpt lat="48.62948" lon="1.98785">
        <ele>109.9</ele>
        <time>2023-09-03T09:18:50Z</time>
      </trkpt>
      <trkpt lat="48.6294" lon="1.98795">
        <ele>110</ele>
        <time>2023-09-03T09:18:52Z</time>
      </trkpt>
      <trkpt lat="48.62931" lon="1.98804">
        <ele>110</ele>
        <time>2023-09-03T09:18:54Z</time>
      </trkpt>
      <trkpt lat="48.62922" lon="1.98816">
        <ele>109.9</ele>
        <time>2023-09-03T09:18:56Z</time>
      </trkpt>
      <trkpt lat="48.62914" lon="1.98829">
        <ele>109.9</ele>
        <time>2023-09-03T09:18:58Z</time>
      </trkpt>
      <trkpt lat="48.62908" lon="1.98839">
        <ele>109.5</ele>
        <time>2023-09-03T09:19:00Z</time>
      </trkpt>
      <trkpt lat="48.62901" lon="1.98854">
        <ele>109.1</ele>
        <time>2023-09-03T09:19:03Z</time>
      </trkpt>
      <trkpt lat="48.62907" lon="1.98865">
        <ele>109</ele>
        <time>2023-09-03T09:19:06Z</time>
      </trkpt>
      <trkpt lat="48.62917" lon="1.98873">
        <ele>109</ele>
        <time>2023-09-03T09:19:08Z</time>
      </trkpt>
      <trkpt lat="48.62926" lon="1.98881">
        <ele>109</ele>
        <time>2023-09-03T09:19:10Z</time>
      </trkpt>
      <trkpt lat="48.62933" lon="1.9889">
        <ele>109</ele>
        <time>2023-09-03T09:19:12Z</time>
      </trkpt>
      <trkpt lat="48.62941" lon="1.98899">
        <ele>109</ele>
        <time>2023-09-03T09:19:14Z</time>
      </trkpt>
      <trkpt lat="48.62952" lon="1.98913">
        <ele>109</ele>
        <time>2023-09-03T09:19:17Z</time>
      </trkpt>
      <trkpt lat="48.6296" lon="1.98921">
        <ele>108.9</ele>
        <time>2023-09-03T09:19:19Z</time>
      </trkpt>
      <trkpt lat="48.62968" lon="1.98928">
        <ele>108.9</ele>
        <time>2023-09-03T09:19:21Z</time>
      </trkpt>
      <trkpt lat="48.62976" lon="1.98936">
        <ele>109</ele>
        <time>2023-09-03T09:19:23Z</time>
      </trkpt>
      <trkpt lat="48.62986" lon="1.98946">
        <ele>109</ele>
        <time>2023-09-03T09:19:25Z</time>
      </trkpt>
      <trkpt lat="48.62994" lon="1.98954">
        <ele>109</ele>
        <time>2023-09-03T09:19:27Z</time>
      </trkpt>
      <trkpt lat="48.63003" lon="1.98961">
        <ele>109</ele>
        <time>2023-09-03T09:19:29Z</time>
      </trkpt>
      <trkpt lat="48.63012" lon="1.98969">
        <ele>108.9</ele>
        <time>2023-09-03T09:19:31Z</time>
      </trkpt>
      <trkpt lat="48.63023" lon="1.98975">
        <ele>109</ele>
        <time>2023-09-03T09:19:33Z</time>
      </trkpt>
      <trkpt lat="48.63032" lon="1.98979">
        <ele>109</ele>
        <time>2023-09-03T09:19:35Z</time>
      </trkpt>
      <trkpt lat="48.63042" lon="1.98985">
        <ele>109</ele>
        <time>2023-09-03T09:19:37Z</time>
      </trkpt>
      <trkpt lat="48.63053" lon="1.98994">
        <ele>109</ele>
        <time>2023-09-03T09:19:39Z</time>
      </trkpt>
      <trkpt lat="48.63063" lon="1.98996">
        <ele>109.2</ele>
        <time>2023-09-03T09:19:41Z</time>
      </trkpt>
      <trkpt lat="48.63072" lon="1.98999">
        <ele>109.6</ele>
        <time>2023-09-03T09:19:43Z</time>
      </trkpt>
      <trkpt lat="48.63083" lon="1.99005">
        <ele>110</ele>
        <time>2023-09-03T09:19:45Z</time>
      </trkpt>
      <trkpt lat="48.63095" lon="1.99011">
        <ele>110.2</ele>
        <time>2023-09-03T09:19:47Z</time>
      </trkpt>
      <trkpt lat="48.63103" lon="1.99015">
        <ele>110.4</ele>
        <time>2023-09-03T09:19:49Z</time>
      </trkpt>
      <trkpt lat="48.63112" lon="1.9902">
        <ele>110.7</ele>
        <time>2023-09-03T09:19:51Z</time>
      </trkpt>
      <trkpt lat="48.63124" lon="1.99024">
        <ele>111.3</ele>
        <time>2023-09-03T09:19:54Z</time>
      </trkpt>
      <trkpt lat="48.63133" lon="1.9903">
        <ele>111.9</ele>
        <time>2023-09-03T09:20:01Z</time>
      </trkpt>
      <trkpt lat="48.63141" lon="1.99042">
        <ele>112.6</ele>
        <time>2023-09-03T09:20:07Z</time>
      </trkpt>
      <trkpt lat="48.63146" lon="1.99053">
        <ele>113.2</ele>
        <time>2023-09-03T09:20:10Z</time>
      </trkpt>
      <trkpt lat="48.63149" lon="1.99068">
        <ele>113.8</ele>
        <time>2023-09-03T09:20:15Z</time>
      </trkpt>
      <trkpt lat="48.63156" lon="1.9908">
        <ele>114.5</ele>
        <time>2023-09-03T09:20:22Z</time>
      </trkpt>
      <trkpt lat="48.63163" lon="1.99094">
        <ele>115.6</ele>
        <time>2023-09-03T09:20:27Z</time>
      </trkpt>
      <trkpt lat="48.6317" lon="1.99105">
        <ele>116.7</ele>
        <time>2023-09-03T09:20:32Z</time>
      </trkpt>
      <trkpt lat="48.63176" lon="1.99116">
        <ele>117.5</ele>
        <time>2023-09-03T09:20:38Z</time>
      </trkpt>
      <trkpt lat="48.63186" lon="1.99122">
        <ele>118.1</ele>
        <time>2023-09-03T09:20:44Z</time>
      </trkpt>
      <trkpt lat="48.63194" lon="1.99127">
        <ele>118.6</ele>
        <time>2023-09-03T09:20:50Z</time>
      </trkpt>
      <trkpt lat="48.63203" lon="1.99132">
        <ele>119.1</ele>
        <time>2023-09-03T09:20:55Z</time>
      </trkpt>
      <trkpt lat="48.63212" lon="1.99138">
        <ele>119.6</ele>
        <time>2023-09-03T09:21:00Z</time>
      </trkpt>
      <trkpt lat="48.63221" lon="1.99148">
        <ele>120.3</ele>
        <time>2023-09-03T09:21:05Z</time>
      </trkpt>
      <trkpt lat="48.6323" lon="1.99156">
        <ele>120.8</ele>
        <time>2023-09-03T09:21:10Z</time>
      </trkpt>
      <trkpt lat="48.63239" lon="1.99164">
        <ele>121.5</ele>
        <time>2023-09-03T09:21:14Z</time>
      </trkpt>
      <trkpt lat="48.63246" lon="1.99175">
        <ele>122.4</ele>
        <time>2023-09-03T09:21:20Z</time>
      </trkpt>
      <trkpt lat="48.63254" lon="1.99185">
        <ele>123.4</ele>
        <time>2023-09-03T09:21:24Z</time>
      </trkpt>
      <trkpt lat="48.63263" lon="1.99194">
        <ele>124</ele>
        <time>2023-09-03T09:21:28Z</time>
      </trkpt>
      <trkpt lat="48.63271" lon="1.99204">
        <ele>124.7</ele>
        <time>2023-09-03T09:21:33Z</time>
      </trkpt>
      <trkpt lat="48.6328" lon="1.99214">
        <ele>125.6</ele>
        <time>2023-09-03T09:21:38Z</time>
      </trkpt>
      <trkpt lat="48.63288" lon="1.99221">
        <ele>127</ele>
        <time>2023-09-03T09:21:43Z</time>
      </trkpt>
      <trkpt lat="48.63298" lon="1.99215">
        <ele>127.7</ele>
        <time>2023-09-03T09:21:49Z</time>
      </trkpt>
      <trkpt lat="48.63305" lon="1.99206">
        <ele>127.7</ele>
        <time>2023-09-03T09:21:52Z</time>
      </trkpt>
      <trkpt lat="48.63311" lon="1.99194">
        <ele>127.4</ele>
        <time>2023-09-03T09:21:55Z</time>
      </trkpt>
      <trkpt lat="48.63319" lon="1.99185">
        <ele>127</ele>
        <time>2023-09-03T09:21:58Z</time>
      </trkpt>
      <trkpt lat="48.63329" lon="1.99175">
        <ele>126.6</ele>
        <time>2023-09-03T09:22:01Z</time>
      </trkpt>
      <trkpt lat="48.63338" lon="1.99164">
        <ele>126.4</ele>
        <time>2023-09-03T09:22:04Z</time>
      </trkpt>
      <trkpt lat="48.63347" lon="1.99153">
        <ele>127.2</ele>
        <time>2023-09-03T09:22:07Z</time>
      </trkpt>
      <trkpt lat="48.63354" lon="1.99142">
        <ele>128</ele>
        <time>2023-09-03T09:22:11Z</time>
      </trkpt>
      <trkpt lat="48.63361" lon="1.9913">
        <ele>128.9</ele>
        <time>2023-09-03T09:22:16Z</time>
      </trkpt>
      <trkpt lat="48.63366" lon="1.99118">
        <ele>129.7</ele>
        <time>2023-09-03T09:22:20Z</time>
      </trkpt>
      <trkpt lat="48.6337" lon="1.99106">
        <ele>130.6</ele>
        <time>2023-09-03T09:22:25Z</time>
      </trkpt>
      <trkpt lat="48.63372" lon="1.99093">
        <ele>131.5</ele>
        <time>2023-09-03T09:22:31Z</time>
      </trkpt>
      <trkpt lat="48.63376" lon="1.99078">
        <ele>133</ele>
        <time>2023-09-03T09:22:38Z</time>
      </trkpt>
      <trkpt lat="48.63382" lon="1.99067">
        <ele>134.7</ele>
        <time>2023-09-03T09:22:44Z</time>
      </trkpt>
      <trkpt lat="48.63385" lon="1.99053">
        <ele>136.4</ele>
        <time>2023-09-03T09:22:51Z</time>
      </trkpt>
      <trkpt lat="48.63391" lon="1.99042">
        <ele>138.4</ele>
        <time>2023-09-03T09:22:56Z</time>
      </trkpt>
      <trkpt lat="48.63396" lon="1.9903">
        <ele>140.1</ele>
        <time>2023-09-03T09:23:03Z</time>
      </trkpt>
      <trkpt lat="48.63399" lon="1.99017">
        <ele>140.3</ele>
        <time>2023-09-03T09:23:09Z</time>
      </trkpt>
      <trkpt lat="48.63404" lon="1.99002">
        <ele>140.3</ele>
        <time>2023-09-03T09:23:15Z</time>
      </trkpt>
      <trkpt lat="48.63409" lon="1.98986">
        <ele>139.6</ele>
        <time>2023-09-03T09:23:19Z</time>
      </trkpt>
      <trkpt lat="48.63412" lon="1.98971">
        <ele>138.6</ele>
        <time>2023-09-03T09:23:23Z</time>
      </trkpt>
      <trkpt lat="48.6341" lon="1.98957">
        <ele>137.6</ele>
        <time>2023-09-03T09:23:27Z</time>
      </trkpt>
      <trkpt lat="48.63413" lon="1.98945">
        <ele>136.9</ele>
        <time>2023-09-03T09:23:34Z</time>
      </trkpt>
      <trkpt lat="48.63422" lon="1.9894">
        <ele>136.5</ele>
        <time>2023-09-03T09:23:38Z</time>
      </trkpt>
      <trkpt lat="48.63425" lon="1.98924">
        <ele>134.8</ele>
        <time>2023-09-03T09:23:42Z</time>
      </trkpt>
      <trkpt lat="48.63421" lon="1.98908">
        <ele>133</ele>
        <time>2023-09-03T09:23:45Z</time>
      </trkpt>
      <trkpt lat="48.63419" lon="1.9889">
        <ele>131.2</ele>
        <time>2023-09-03T09:23:48Z</time>
      </trkpt>
      <trkpt lat="48.63418" lon="1.98874">
        <ele>128.9</ele>
        <time>2023-09-03T09:23:52Z</time>
      </trkpt>
      <trkpt lat="48.63416" lon="1.9886">
        <ele>126.9</ele>
        <time>2023-09-03T09:23:55Z</time>
      </trkpt>
      <trkpt lat="48.63417" lon="1.98842">
        <ele>125</ele>
        <time>2023-09-03T09:23:58Z</time>
      </trkpt>
      <trkpt lat="48.63416" lon="1.98824">
        <ele>123.3</ele>
        <time>2023-09-03T09:24:01Z</time>
      </trkpt>
      <trkpt lat="48.63416" lon="1.98808">
        <ele>122.2</ele>
        <time>2023-09-03T09:24:03Z</time>
      </trkpt>
      <trkpt lat="48.63425" lon="1.98791">
        <ele>122.6</ele>
        <time>2023-09-03T09:24:05Z</time>
      </trkpt>
      <trkpt lat="48.63426" lon="1.98775">
        <ele>122.7</ele>
        <time>2023-09-03T09:24:08Z</time>
      </trkpt>
      <trkpt lat="48.63434" lon="1.98763">
        <ele>123.2</ele>
        <time>2023-09-03T09:24:11Z</time>
      </trkpt>
      <trkpt lat="48.63436" lon="1.98749">
        <ele>123.4</ele>
        <time>2023-09-03T09:24:14Z</time>
      </trkpt>
      <trkpt lat="48.6344" lon="1.98733">
        <ele>124.3</ele>
        <time>2023-09-03T09:24:17Z</time>
      </trkpt>
      <trkpt lat="48.63445" lon="1.9872">
        <ele>125.1</ele>
        <time>2023-09-03T09:24:21Z</time>
      </trkpt>
      <trkpt lat="48.63449" lon="1.98704">
        <ele>125.8</ele>
        <time>2023-09-03T09:24:26Z</time>
      </trkpt>
      <trkpt lat="48.63452" lon="1.9869">
        <ele>126.5</ele>
        <time>2023-09-03T09:24:31Z</time>
      </trkpt>
      <trkpt lat="48.63454" lon="1.98677">
        <ele>127.2</ele>
        <time>2023-09-03T09:24:36Z</time>
      </trkpt>
      <trkpt lat="48.63456" lon="1.98662">
        <ele>128.1</ele>
        <time>2023-09-03T09:24:42Z</time>
      </trkpt>
      <trkpt lat="48.63459" lon="1.98648">
        <ele>129.5</ele>
        <time>2023-09-03T09:24:47Z</time>
      </trkpt>
      <trkpt lat="48.63464" lon="1.98635">
        <ele>130.7</ele>
        <time>2023-09-03T09:24:54Z</time>
      </trkpt>
      <trkpt lat="48.63465" lon="1.98621">
        <ele>131.6</ele>
        <time>2023-09-03T09:25:02Z</time>
      </trkpt>
      <trkpt lat="48.63464" lon="1.98607">
        <ele>132.3</ele>
        <time>2023-09-03T09:25:08Z</time>
      </trkpt>
      <trkpt lat="48.63467" lon="1.98591">
        <ele>133.1</ele>
        <time>2023-09-03T09:25:14Z</time>
      </trkpt>
      <trkpt lat="48.63474" lon="1.98581">
        <ele>134.3</ele>
        <time>2023-09-03T09:25:19Z</time>
      </trkpt>
      <trkpt lat="48.63481" lon="1.9857">
        <ele>135.7</ele>
        <time>2023-09-03T09:25:25Z</time>
      </trkpt>
      <trkpt lat="48.63486" lon="1.98557">
        <ele>136.9</ele>
        <time>2023-09-03T09:25:32Z</time>
      </trkpt>
      <trkpt lat="48.63489" lon="1.98542">
        <ele>137.9</ele>
        <time>2023-09-03T09:25:39Z</time>
      </trkpt>
      <trkpt lat="48.63492" lon="1.98529">
        <ele>139.1</ele>
        <time>2023-09-03T09:25:46Z</time>
      </trkpt>
      <trkpt lat="48.63495" lon="1.98516">
        <ele>140.2</ele>
        <time>2023-09-03T09:25:53Z</time>
      </trkpt>
      <trkpt lat="48.63502" lon="1.98504">
        <ele>142</ele>
        <time>2023-09-03T09:26:00Z</time>
      </trkpt>
      <trkpt lat="48.63505" lon="1.9849">
        <ele>143.1</ele>
        <time>2023-09-03T09:26:08Z</time>
      </trkpt>
      <trkpt lat="48.63509" lon="1.98477">
        <ele>144.1</ele>
        <time>2023-09-03T09:26:16Z</time>
      </trkpt>
      <trkpt lat="48.63512" lon="1.98462">
        <ele>145.1</ele>
        <time>2023-09-03T09:26:20Z</time>
      </trkpt>
      <trkpt lat="48.63519" lon="1.98452">
        <ele>146.4</ele>
        <time>2023-09-03T09:26:24Z</time>
      </trkpt>
      <trkpt lat="48.63522" lon="1.98439">
        <ele>147.4</ele>
        <time>2023-09-03T09:26:46Z</time>
      </trkpt>
      <trkpt lat="48.63525" lon="1.98426">
        <ele>148.3</ele>
        <time>2023-09-03T09:27:09Z</time>
      </trkpt>
      <trkpt lat="48.63528" lon="1.98413">
        <ele>149</ele>
        <time>2023-09-03T09:27:27Z</time>
      </trkpt>
      <trkpt lat="48.63533" lon="1.98399">
        <ele>149.3</ele>
        <time>2023-09-03T09:27:50Z</time>
      </trkpt>
      <trkpt lat="48.63537" lon="1.98387">
        <ele>149.2</ele>
        <time>2023-09-03T09:27:53Z</time>
      </trkpt>
      <trkpt lat="48.63543" lon="1.98375">
        <ele>148.6</ele>
        <time>2023-09-03T09:27:55Z</time>
      </trkpt>
      <trkpt lat="48.63552" lon="1.98364">
        <ele>148.1</ele>
        <time>2023-09-03T09:27:58Z</time>
      </trkpt>
      <trkpt lat="48.63562" lon="1.98356">
        <ele>147.5</ele>
        <time>2023-09-03T09:28:01Z</time>
      </trkpt>
      <trkpt lat="48.63571" lon="1.98358">
        <ele>147.7</ele>
        <time>2023-09-03T09:28:04Z</time>
      </trkpt>
      <trkpt lat="48.6358" lon="1.98365">
        <ele>148.4</ele>
        <time>2023-09-03T09:28:10Z</time>
      </trkpt>
      <trkpt lat="48.63588" lon="1.98374">
        <ele>149.7</ele>
        <time>2023-09-03T09:28:18Z</time>
      </trkpt>
      <trkpt lat="48.63595" lon="1.98385">
        <ele>151.4</ele>
        <time>2023-09-03T09:28:24Z</time>
      </trkpt>
      <trkpt lat="48.63601" lon="1.98397">
        <ele>152.9</ele>
        <time>2023-09-03T09:28:29Z</time>
      </trkpt>
      <trkpt lat="48.63603" lon="1.9841">
        <ele>154</ele>
        <time>2023-09-03T09:28:35Z</time>
      </trkpt>
      <trkpt lat="48.63604" lon="1.98426">
        <ele>155.1</ele>
        <time>2023-09-03T09:28:42Z</time>
      </trkpt>
      <trkpt lat="48.63604" lon="1.9844">
        <ele>156.1</ele>
        <time>2023-09-03T09:28:48Z</time>
      </trkpt>
      <trkpt lat="48.63604" lon="1.98454">
        <ele>156.8</ele>
        <time>2023-09-03T09:28:54Z</time>
      </trkpt>
      <trkpt lat="48.63606" lon="1.9847">
        <ele>157.5</ele>
        <time>2023-09-03T09:29:01Z</time>
      </trkpt>
      <trkpt lat="48.6361" lon="1.98485">
        <ele>157.4</ele>
        <time>2023-09-03T09:29:08Z</time>
      </trkpt>
      <trkpt lat="48.63615" lon="1.98497">
        <ele>157.6</ele>
        <time>2023-09-03T09:29:15Z</time>
      </trkpt>
      <trkpt lat="48.63621" lon="1.98509">
        <ele>158.1</ele>
        <time>2023-09-03T09:29:21Z</time>
      </trkpt>
      <trkpt lat="48.63622" lon="1.98525">
        <ele>157.6</ele>
        <time>2023-09-03T09:30:11Z</time>
      </trkpt>
      <trkpt lat="48.63621" lon="1.9854">
        <ele>156.9</ele>
        <time>2023-09-03T09:30:15Z</time>
      </trkpt>
      <trkpt lat="48.63622" lon="1.98562">
        <ele>155.9</ele>
        <time>2023-09-03T09:30:18Z</time>
      </trkpt>
      <trkpt lat="48.63626" lon="1.9858">
        <ele>154.5</ele>
        <time>2023-09-03T09:30:20Z</time>
      </trkpt>
      <trkpt lat="48.63633" lon="1.98597">
        <ele>153.4</ele>
        <time>2023-09-03T09:30:22Z</time>
      </trkpt>
      <trkpt lat="48.63642" lon="1.98608">
        <ele>152.7</ele>
        <time>2023-09-03T09:30:24Z</time>
      </trkpt>
      <trkpt lat="48.63651" lon="1.98614">
        <ele>152.4</ele>
        <time>2023-09-03T09:30:26Z</time>
      </trkpt>
      <trkpt lat="48.63662" lon="1.98615">
        <ele>153</ele>
        <time>2023-09-03T09:30:28Z</time>
      </trkpt>
      <trkpt lat="48.6367" lon="1.98619">
        <ele>153.4</ele>
        <time>2023-09-03T09:30:31Z</time>
      </trkpt>
      <trkpt lat="48.63672" lon="1.98636">
        <ele>151.3</ele>
        <time>2023-09-03T09:30:34Z</time>
      </trkpt>
      <trkpt lat="48.63671" lon="1.98651">
        <ele>150.3</ele>
        <time>2023-09-03T09:30:37Z</time>
      </trkpt>
      <trkpt lat="48.63672" lon="1.98667">
        <ele>149.7</ele>
        <time>2023-09-03T09:30:41Z</time>
      </trkpt>
      <trkpt lat="48.6367" lon="1.98683">
        <ele>150</ele>
        <time>2023-09-03T09:30:45Z</time>
      </trkpt>
      <trkpt lat="48.63668" lon="1.987">
        <ele>150.4</ele>
        <time>2023-09-03T09:30:49Z</time>
      </trkpt>
      <trkpt lat="48.63675" lon="1.98714">
        <ele>151.9</ele>
        <time>2023-09-03T09:30:53Z</time>
      </trkpt>
      <trkpt lat="48.63682" lon="1.98725">
        <ele>153.2</ele>
        <time>2023-09-03T09:30:56Z</time>
      </trkpt>
      <trkpt lat="48.63688" lon="1.98736">
        <ele>154</ele>
        <time>2023-09-03T09:30:59Z</time>
      </trkpt>
      <trkpt lat="48.63694" lon="1.98749">
        <ele>155</ele>
        <time>2023-09-03T09:31:04Z</time>
      </trkpt>
      <trkpt lat="48.63703" lon="1.98758">
        <ele>156.1</ele>
        <time>2023-09-03T09:31:10Z</time>
      </trkpt>
      <trkpt lat="48.63712" lon="1.98761">
        <ele>157.6</ele>
        <time>2023-09-03T09:31:19Z</time>
      </trkpt>
      <trkpt lat="48.63721" lon="1.98761">
        <ele>159.2</ele>
        <time>2023-09-03T09:31:28Z</time>
      </trkpt>
      <trkpt lat="48.6373" lon="1.9876">
        <ele>160.9</ele>
        <time>2023-09-03T09:31:35Z</time>
      </trkpt>
      <trkpt lat="48.63739" lon="1.98765">
        <ele>162.8</ele>
        <time>2023-09-03T09:31:44Z</time>
      </trkpt>
      <trkpt lat="48.63744" lon="1.98777">
        <ele>164.7</ele>
        <time>2023-09-03T09:31:50Z</time>
      </trkpt>
      <trkpt lat="48.63747" lon="1.98791">
        <ele>166.3</ele>
        <time>2023-09-03T09:31:57Z</time>
      </trkpt>
      <trkpt lat="48.63749" lon="1.98805">
        <ele>167.8</ele>
        <time>2023-09-03T09:32:04Z</time>
      </trkpt>
      <trkpt lat="48.63753" lon="1.98818">
        <ele>169.1</ele>
        <time>2023-09-03T09:32:12Z</time>
      </trkpt>
      <trkpt lat="48.63758" lon="1.9883">
        <ele>170.4</ele>
        <time>2023-09-03T09:32:21Z</time>
      </trkpt>
      <trkpt lat="48.63762" lon="1.98844">
        <ele>171.3</ele>
        <time>2023-09-03T09:32:30Z</time>
      </trkpt>
      <trkpt lat="48.63754" lon="1.98852">
        <ele>171</ele>
        <time>2023-09-03T09:33:08Z</time>
      </trkpt>
      <trkpt lat="48.63744" lon="1.98855">
        <ele>169.9</ele>
        <time>2023-09-03T09:33:11Z</time>
      </trkpt>
      <trkpt lat="48.63732" lon="1.98859">
        <ele>168.2</ele>
        <time>2023-09-03T09:33:14Z</time>
      </trkpt>
      <trkpt lat="48.63719" lon="1.98867">
        <ele>166.7</ele>
        <time>2023-09-03T09:33:16Z</time>
      </trkpt>
      <trkpt lat="48.63707" lon="1.98872">
        <ele>165.2</ele>
        <time>2023-09-03T09:33:18Z</time>
      </trkpt>
      <trkpt lat="48.63693" lon="1.98877">
        <ele>163.4</ele>
        <time>2023-09-03T09:33:20Z</time>
      </trkpt>
      <trkpt lat="48.63678" lon="1.98883">
        <ele>161.5</ele>
        <time>2023-09-03T09:33:23Z</time>
      </trkpt>
      <trkpt lat="48.63666" lon="1.98884">
        <ele>159.7</ele>
        <time>2023-09-03T09:33:25Z</time>
      </trkpt>
      <trkpt lat="48.63654" lon="1.98885">
        <ele>157.7</ele>
        <time>2023-09-03T09:33:27Z</time>
      </trkpt>
      <trkpt lat="48.63642" lon="1.98882">
        <ele>155.8</ele>
        <time>2023-09-03T09:33:29Z</time>
      </trkpt>
      <trkpt lat="48.6363" lon="1.98881">
        <ele>153.9</ele>
        <time>2023-09-03T09:33:31Z</time>
      </trkpt>
      <trkpt lat="48.63616" lon="1.98881">
        <ele>151.5</ele>
        <time>2023-09-03T09:33:33Z</time>
      </trkpt>
      <trkpt lat="48.63605" lon="1.98881">
        <ele>149.7</ele>
        <time>2023-09-03T09:33:35Z</time>
      </trkpt>
      <trkpt lat="48.63595" lon="1.9888">
        <ele>148.1</ele>
        <time>2023-09-03T09:33:36Z</time>
      </trkpt>
      <trkpt lat="48.6358" lon="1.98882">
        <ele>145.1</ele>
        <time>2023-09-03T09:33:38Z</time>
      </trkpt>
      <trkpt lat="48.63562" lon="1.98882">
        <ele>141.6</ele>
        <time>2023-09-03T09:33:40Z</time>
      </trkpt>
      <trkpt lat="48.63545" lon="1.98879">
        <ele>138.6</ele>
        <time>2023-09-03T09:33:42Z</time>
      </trkpt>
      <trkpt lat="48.63531" lon="1.98878">
        <ele>136</ele>
        <time>2023-09-03T09:33:44Z</time>
      </trkpt>
      <trkpt lat="48.63518" lon="1.98882">
        <ele>134.3</ele>
        <time>2023-09-03T09:33:46Z</time>
      </trkpt>
      <trkpt lat="48.63512" lon="1.98898">
        <ele>134.7</ele>
        <time>2023-09-03T09:33:50Z</time>
      </trkpt>
      <trkpt lat="48.63523" lon="1.98911">
        <ele>136.4</ele>
        <time>2023-09-03T09:33:51Z</time>
      </trkpt>
      <trkpt lat="48.63525" lon="1.98925">
        <ele>137.8</ele>
        <time>2023-09-03T09:33:56Z</time>
      </trkpt>
      <trkpt lat="48.63527" lon="1.9894">
        <ele>139.5</ele>
        <time>2023-09-03T09:34:04Z</time>
      </trkpt>
      <trkpt lat="48.63522" lon="1.98953">
        <ele>141.2</ele>
        <time>2023-09-03T09:34:13Z</time>
      </trkpt>
      <trkpt lat="48.63517" lon="1.98966">
        <ele>143.1</ele>
        <time>2023-09-03T09:34:22Z</time>
      </trkpt>
      <trkpt lat="48.63515" lon="1.98981">
        <ele>145.3</ele>
        <time>2023-09-03T09:34:32Z</time>
      </trkpt>
      <trkpt lat="48.63518" lon="1.98995">
        <ele>147.6</ele>
        <time>2023-09-03T09:34:39Z</time>
      </trkpt>
      <trkpt lat="48.63519" lon="1.9901">
        <ele>149.9</ele>
        <time>2023-09-03T09:34:49Z</time>
      </trkpt>
      <trkpt lat="48.63521" lon="1.99024">
        <ele>152</ele>
        <time>2023-09-03T09:34:58Z</time>
      </trkpt>
      <trkpt lat="48.63521" lon="1.99038">
        <ele>154</ele>
        <time>2023-09-03T09:35:09Z</time>
      </trkpt>
      <trkpt lat="48.63523" lon="1.99053">
        <ele>156.2</ele>
        <time>2023-09-03T09:35:20Z</time>
      </trkpt>
      <trkpt lat="48.63522" lon="1.99066">
        <ele>157.8</ele>
        <time>2023-09-03T09:35:30Z</time>
      </trkpt>
      <trkpt lat="48.6352" lon="1.9908">
        <ele>159.3</ele>
        <time>2023-09-03T09:35:40Z</time>
      </trkpt>
      <trkpt lat="48.63518" lon="1.99093">
        <ele>160.7</ele>
        <time>2023-09-03T09:35:51Z</time>
      </trkpt>
      <trkpt lat="48.63515" lon="1.99106">
        <ele>162</ele>
        <time>2023-09-03T09:36:02Z</time>
      </trkpt>
      <trkpt lat="48.63517" lon="1.99121">
        <ele>163.3</ele>
        <time>2023-09-03T09:36:11Z</time>
      </trkpt>
      <trkpt lat="48.63514" lon="1.99134">
        <ele>164.2</ele>
        <time>2023-09-03T09:36:21Z</time>
      </trkpt>
      <trkpt lat="48.63512" lon="1.99148">
        <ele>164.9</ele>
        <time>2023-09-03T09:36:30Z</time>
      </trkpt>
      <trkpt lat="48.63511" lon="1.99162">
        <ele>165.6</ele>
        <time>2023-09-03T09:36:40Z</time>
      </trkpt>
      <trkpt lat="48.63511" lon="1.99177">
        <ele>165.8</ele>
        <time>2023-09-03T09:36:49Z</time>
      </trkpt>
      <trkpt lat="48.6351" lon="1.99192">
        <ele>165.7</ele>
        <time>2023-09-03T09:36:57Z</time>
      </trkpt>
      <trkpt lat="48.63511" lon="1.99207">
        <ele>165.8</ele>
        <time>2023-09-03T09:38:05Z</time>
      </trkpt>
      <trkpt lat="48.63511" lon="1.99221">
        <ele>165.8</ele>
        <time>2023-09-03T09:38:10Z</time>
      </trkpt>
      <trkpt lat="48.63511" lon="1.99238">
        <ele>165.4</ele>
        <time>2023-09-03T09:38:14Z</time>
      </trkpt>
      <trkpt lat="48.6351" lon="1.99255">
        <ele>165.1</ele>
        <time>2023-09-03T09:38:18Z</time>
      </trkpt>
      <trkpt lat="48.6351" lon="1.99274">
        <ele>165.1</ele>
        <time>2023-09-03T09:38:22Z</time>
      </trkpt>
      <trkpt lat="48.63509" lon="1.99292">
        <ele>164.8</ele>
        <time>2023-09-03T09:38:26Z</time>
      </trkpt>
      <trkpt lat="48.63507" lon="1.99308">
        <ele>164.6</ele>
        <time>2023-09-03T09:38:30Z</time>
      </trkpt>
      <trkpt lat="48.63497" lon="1.99313">
        <ele>163.7</ele>
        <time>2023-09-03T09:38:34Z</time>
      </trkpt>
      <trkpt lat="48.63487" lon="1.99319">
        <ele>162.2</ele>
        <time>2023-09-03T09:38:37Z</time>
      </trkpt>
      <trkpt lat="48.63474" lon="1.99328">
        <ele>160.1</ele>
        <time>2023-09-03T09:38:39Z</time>
      </trkpt>
      <trkpt lat="48.63462" lon="1.99337">
        <ele>158</ele>
        <time>2023-09-03T09:38:41Z</time>
      </trkpt>
      <trkpt lat="48.63448" lon="1.99346">
        <ele>155.6</ele>
        <time>2023-09-03T09:38:43Z</time>
      </trkpt>
      <trkpt lat="48.63433" lon="1.99359">
        <ele>154.6</ele>
        <time>2023-09-03T09:38:45Z</time>
      </trkpt>
      <trkpt lat="48.63422" lon="1.9937">
        <ele>153.6</ele>
        <time>2023-09-03T09:38:47Z</time>
      </trkpt>
      <trkpt lat="48.63413" lon="1.99381">
        <ele>152.7</ele>
        <time>2023-09-03T09:38:49Z</time>
      </trkpt>
      <trkpt lat="48.63407" lon="1.99391">
        <ele>152.2</ele>
        <time>2023-09-03T09:38:51Z</time>
      </trkpt>
      <trkpt lat="48.63397" lon="1.99398">
        <ele>151.2</ele>
        <time>2023-09-03T09:38:53Z</time>
      </trkpt>
      <trkpt lat="48.63389" lon="1.99406">
        <ele>150.4</ele>
        <time>2023-09-03T09:38:55Z</time>
      </trkpt>
      <trkpt lat="48.63379" lon="1.99415">
        <ele>148.6</ele>
        <time>2023-09-03T09:38:59Z</time>
      </trkpt>
      <trkpt lat="48.6337" lon="1.99422">
        <ele>146.8</ele>
        <time>2023-09-03T09:39:02Z</time>
      </trkpt>
      <trkpt lat="48.6336" lon="1.99424">
        <ele>145.3</ele>
        <time>2023-09-03T09:39:04Z</time>
      </trkpt>
      <trkpt lat="48.63351" lon="1.99435">
        <ele>143</ele>
        <time>2023-09-03T09:39:06Z</time>
      </trkpt>
      <trkpt lat="48.63339" lon="1.99442">
        <ele>141</ele>
        <time>2023-09-03T09:39:08Z</time>
      </trkpt>
      <trkpt lat="48.63328" lon="1.99455">
        <ele>139.4</ele>
        <time>2023-09-03T09:39:10Z</time>
      </trkpt>
      <trkpt lat="48.63313" lon="1.9946">
        <ele>137.8</ele>
        <time>2023-09-03T09:39:13Z</time>
      </trkpt>
      <trkpt lat="48.63302" lon="1.99468">
        <ele>136.7</ele>
        <time>2023-09-03T09:39:15Z</time>
      </trkpt>
      <trkpt lat="48.63296" lon="1.99481">
        <ele>136.4</ele>
        <time>2023-09-03T09:39:17Z</time>
      </trkpt>
      <trkpt lat="48.63292" lon="1.99497">
        <ele>136.1</ele>
        <time>2023-09-03T09:39:20Z</time>
      </trkpt>
      <trkpt lat="48.633" lon="1.99511">
        <ele>137</ele>
        <time>2023-09-03T09:39:23Z</time>
      </trkpt>
      <trkpt lat="48.63302" lon="1.99525">
        <ele>136.8</ele>
        <time>2023-09-03T09:39:26Z</time>
      </trkpt>
      <trkpt lat="48.63311" lon="1.99531">
        <ele>137.5</ele>
        <time>2023-09-03T09:39:30Z</time>
      </trkpt>
      <trkpt lat="48.6332" lon="1.99529">
        <ele>138.1</ele>
        <time>2023-09-03T09:39:34Z</time>
      </trkpt>
      <trkpt lat="48.63327" lon="1.9954">
        <ele>139</ele>
        <time>2023-09-03T09:39:42Z</time>
      </trkpt>
      <trkpt lat="48.63332" lon="1.99552">
        <ele>139.8</ele>
        <time>2023-09-03T09:39:54Z</time>
      </trkpt>
      <trkpt lat="48.63341" lon="1.99559">
        <ele>141.1</ele>
        <time>2023-09-03T09:40:01Z</time>
      </trkpt>
      <trkpt lat="48.63349" lon="1.99568">
        <ele>142.5</ele>
        <time>2023-09-03T09:40:11Z</time>
      </trkpt>
      <trkpt lat="48.63348" lon="1.99582">
        <ele>143.5</ele>
        <time>2023-09-03T09:40:21Z</time>
      </trkpt>
      <trkpt lat="48.6335" lon="1.99598">
        <ele>144.9</ele>
        <time>2023-09-03T09:40:28Z</time>
      </trkpt>
      <trkpt lat="48.63354" lon="1.99613">
        <ele>146.3</ele>
        <time>2023-09-03T09:40:34Z</time>
      </trkpt>
      <trkpt lat="48.63355" lon="1.99628">
        <ele>147.5</ele>
        <time>2023-09-03T09:40:41Z</time>
      </trkpt>
      <trkpt lat="48.6335" lon="1.99642">
        <ele>148</ele>
        <time>2023-09-03T09:40:49Z</time>
      </trkpt>
      <trkpt lat="48.63347" lon="1.99656">
        <ele>148.4</ele>
        <time>2023-09-03T09:40:55Z</time>
      </trkpt>
      <trkpt lat="48.63345" lon="1.9967">
        <ele>148.9</ele>
        <time>2023-09-03T09:41:00Z</time>
      </trkpt>
      <trkpt lat="48.63343" lon="1.99686">
        <ele>149.4</ele>
        <time>2023-09-03T09:41:05Z</time>
      </trkpt>
      <trkpt lat="48.63341" lon="1.997">
        <ele>149.5</ele>
        <time>2023-09-03T09:41:09Z</time>
      </trkpt>
      <trkpt lat="48.63339" lon="1.99715">
        <ele>149.3</ele>
        <time>2023-09-03T09:41:14Z</time>
      </trkpt>
      <trkpt lat="48.63339" lon="1.9973">
        <ele>149.1</ele>
        <time>2023-09-03T09:41:19Z</time>
      </trkpt>
      <trkpt lat="48.6334" lon="1.99749">
        <ele>149</ele>
        <time>2023-09-03T09:41:23Z</time>
      </trkpt>
      <trkpt lat="48.6334" lon="1.99771">
        <ele>147.5</ele>
        <time>2023-09-03T09:41:26Z</time>
      </trkpt>
      <trkpt lat="48.63337" lon="1.9979">
        <ele>146.1</ele>
        <time>2023-09-03T09:41:28Z</time>
      </trkpt>
      <trkpt lat="48.63335" lon="1.99813">
        <ele>144.4</ele>
        <time>2023-09-03T09:41:30Z</time>
      </trkpt>
      <trkpt lat="48.63333" lon="1.99839">
        <ele>142.6</ele>
        <time>2023-09-03T09:41:32Z</time>
      </trkpt>
      <trkpt lat="48.63332" lon="1.99852">
        <ele>141.6</ele>
        <time>2023-09-03T09:41:33Z</time>
      </trkpt>
      <trkpt lat="48.63332" lon="1.99867">
        <ele>140.8</ele>
        <time>2023-09-03T09:41:34Z</time>
      </trkpt>
      <trkpt lat="48.63332" lon="1.99882">
        <ele>140.2</ele>
        <time>2023-09-03T09:41:35Z</time>
      </trkpt>
      <trkpt lat="48.63332" lon="1.99897">
        <ele>139.5</ele>
        <time>2023-09-03T09:41:36Z</time>
      </trkpt>
      <trkpt lat="48.63331" lon="1.99911">
        <ele>138.4</ele>
        <time>2023-09-03T09:41:37Z</time>
      </trkpt>
      <trkpt lat="48.63331" lon="1.99937">
        <ele>137.3</ele>
        <time>2023-09-03T09:41:39Z</time>
      </trkpt>
      <trkpt lat="48.63331" lon="1.99963">
        <ele>136.3</ele>
        <time>2023-09-03T09:41:41Z</time>
      </trkpt>
      <trkpt lat="48.6333" lon="1.99985">
        <ele>135.5</ele>
        <time>2023-09-03T09:41:43Z</time>
      </trkpt>
      <trkpt lat="48.63331" lon="2.00003">
        <ele>134.8</ele>
        <time>2023-09-03T09:41:46Z</time>
      </trkpt>
      <trkpt lat="48.63341" lon="2.00009">
        <ele>134.3</ele>
        <time>2023-09-03T09:41:49Z</time>
      </trkpt>
      <trkpt lat="48.63351" lon="2.0001">
        <ele>134.3</ele>
        <time>2023-09-03T09:41:52Z</time>
      </trkpt>
      <trkpt lat="48.63363" lon="2.00012">
        <ele>134.1</ele>
        <time>2023-09-03T09:41:55Z</time>
      </trkpt>
      <trkpt lat="48.63375" lon="2.00015">
        <ele>133.9</ele>
        <time>2023-09-03T09:41:58Z</time>
      </trkpt>
      <trkpt lat="48.63388" lon="2.0002">
        <ele>133.5</ele>
        <time>2023-09-03T09:42:01Z</time>
      </trkpt>
      <trkpt lat="48.63397" lon="2.00023">
        <ele>133.6</ele>
        <time>2023-09-03T09:42:03Z</time>
      </trkpt>
      <trkpt lat="48.63407" lon="2.00026">
        <ele>133.8</ele>
        <time>2023-09-03T09:42:05Z</time>
      </trkpt>
      <trkpt lat="48.63418" lon="2.00029">
        <ele>134</ele>
        <time>2023-09-03T09:42:07Z</time>
      </trkpt>
      <trkpt lat="48.63429" lon="2.00031">
        <ele>134.2</ele>
        <time>2023-09-03T09:42:09Z</time>
      </trkpt>
      <trkpt lat="48.63442" lon="2.00034">
        <ele>134.4</ele>
        <time>2023-09-03T09:42:11Z</time>
      </trkpt>
      <trkpt lat="48.63455" lon="2.00037">
        <ele>134.5</ele>
        <time>2023-09-03T09:42:13Z</time>
      </trkpt>
      <trkpt lat="48.63468" lon="2.00039">
        <ele>134.5</ele>
        <time>2023-09-03T09:42:16Z</time>
      </trkpt>
      <trkpt lat="48.63482" lon="2.00045">
        <ele>134.7</ele>
        <time>2023-09-03T09:42:18Z</time>
      </trkpt>
      <trkpt lat="48.63493" lon="2.00053">
        <ele>134.9</ele>
        <time>2023-09-03T09:42:20Z</time>
      </trkpt>
      <trkpt lat="48.63503" lon="2.00056">
        <ele>135.1</ele>
        <time>2023-09-03T09:42:22Z</time>
      </trkpt>
      <trkpt lat="48.63515" lon="2.00061">
        <ele>135.4</ele>
        <time>2023-09-03T09:42:25Z</time>
      </trkpt>
      <trkpt lat="48.63525" lon="2.00066">
        <ele>135.5</ele>
        <time>2023-09-03T09:42:29Z</time>
      </trkpt>
      <trkpt lat="48.63535" lon="2.0007">
        <ele>135.8</ele>
        <time>2023-09-03T09:42:33Z</time>
      </trkpt>
      <trkpt lat="48.63543" lon="2.00076">
        <ele>135.8</ele>
        <time>2023-09-03T09:42:36Z</time>
      </trkpt>
      <trkpt lat="48.63553" lon="2.00083">
        <ele>135.9</ele>
        <time>2023-09-03T09:42:40Z</time>
      </trkpt>
      <trkpt lat="48.63563" lon="2.00089">
        <ele>136.7</ele>
        <time>2023-09-03T09:42:44Z</time>
      </trkpt>
      <trkpt lat="48.63572" lon="2.00098">
        <ele>137.8</ele>
        <time>2023-09-03T09:42:48Z</time>
      </trkpt>
      <trkpt lat="48.63581" lon="2.00108">
        <ele>138.7</ele>
        <time>2023-09-03T09:42:52Z</time>
      </trkpt>
      <trkpt lat="48.63587" lon="2.00119">
        <ele>139.5</ele>
        <time>2023-09-03T09:42:55Z</time>
      </trkpt>
      <trkpt lat="48.63584" lon="2.00132">
        <ele>139.8</ele>
        <time>2023-09-03T09:43:01Z</time>
      </trkpt>
      <trkpt lat="48.63573" lon="2.00133">
        <ele>139.1</ele>
        <time>2023-09-03T09:43:04Z</time>
      </trkpt>
      <trkpt lat="48.63564" lon="2.00133">
        <ele>138.3</ele>
        <time>2023-09-03T09:43:05Z</time>
      </trkpt>
      <trkpt lat="48.63553" lon="2.00141">
        <ele>137.9</ele>
        <time>2023-09-03T09:43:08Z</time>
      </trkpt>
      <trkpt lat="48.6354" lon="2.00146">
        <ele>137.3</ele>
        <time>2023-09-03T09:43:10Z</time>
      </trkpt>
      <trkpt lat="48.6353" lon="2.00154">
        <ele>137.2</ele>
        <time>2023-09-03T09:43:12Z</time>
      </trkpt>
      <trkpt lat="48.63521" lon="2.00159">
        <ele>137</ele>
        <time>2023-09-03T09:43:14Z</time>
      </trkpt>
      <trkpt lat="48.6352" lon="2.00176">
        <ele>138.4</ele>
        <time>2023-09-03T09:43:18Z</time>
      </trkpt>
      <trkpt lat="48.63519" lon="2.00192">
        <ele>139.8</ele>
        <time>2023-09-03T09:43:24Z</time>
      </trkpt>
      <trkpt lat="48.63522" lon="2.00206">
        <ele>142</ele>
        <time>2023-09-03T09:43:31Z</time>
      </trkpt>
      <trkpt lat="48.63522" lon="2.00221">
        <ele>144.1</ele>
        <time>2023-09-03T09:43:41Z</time>
      </trkpt>
      <trkpt lat="48.63525" lon="2.00234">
        <ele>146.8</ele>
        <time>2023-09-03T09:43:51Z</time>
      </trkpt>
      <trkpt lat="48.63523" lon="2.00248">
        <ele>148.9</ele>
        <time>2023-09-03T09:44:01Z</time>
      </trkpt>
      <trkpt lat="48.63516" lon="2.00258">
        <ele>149.5</ele>
        <time>2023-09-03T09:44:19Z</time>
      </trkpt>
      <trkpt lat="48.63508" lon="2.00267">
        <ele>149.6</ele>
        <time>2023-09-03T09:44:29Z</time>
      </trkpt>
      <trkpt lat="48.63501" lon="2.00275">
        <ele>149.7</ele>
        <time>2023-09-03T09:44:48Z</time>
      </trkpt>
      <trkpt lat="48.63492" lon="2.0028">
        <ele>149.8</ele>
        <time>2023-09-03T09:45:05Z</time>
      </trkpt>
      <trkpt lat="48.63495" lon="2.00293">
        <ele>151.1</ele>
        <time>2023-09-03T09:45:21Z</time>
      </trkpt>
      <trkpt lat="48.63501" lon="2.00304">
        <ele>153</ele>
        <time>2023-09-03T09:45:28Z</time>
      </trkpt>
      <trkpt lat="48.63508" lon="2.00314">
        <ele>154.6</ele>
        <time>2023-09-03T09:45:37Z</time>
      </trkpt>
      <trkpt lat="48.63513" lon="2.00325">
        <ele>156</ele>
        <time>2023-09-03T09:45:44Z</time>
      </trkpt>
      <trkpt lat="48.6352" lon="2.00336">
        <ele>157.9</ele>
        <time>2023-09-03T09:45:50Z</time>
      </trkpt>
      <trkpt lat="48.63526" lon="2.00348">
        <ele>159.6</ele>
        <time>2023-09-03T09:45:59Z</time>
      </trkpt>
      <trkpt lat="48.63535" lon="2.00355">
        <ele>161.6</ele>
        <time>2023-09-03T09:46:05Z</time>
      </trkpt>
      <trkpt lat="48.63545" lon="2.00354">
        <ele>163.5</ele>
        <time>2023-09-03T09:46:11Z</time>
      </trkpt>
      <trkpt lat="48.6355" lon="2.00341">
        <ele>164.2</ele>
        <time>2023-09-03T09:46:19Z</time>
      </trkpt>
      <trkpt lat="48.63556" lon="2.0033">
        <ele>165</ele>
        <time>2023-09-03T09:46:28Z</time>
      </trkpt>
      <trkpt lat="48.63564" lon="2.0032">
        <ele>165.2</ele>
        <time>2023-09-03T09:46:38Z</time>
      </trkpt>
      <trkpt lat="48.63573" lon="2.00314">
        <ele>165.8</ele>
        <time>2023-09-03T09:46:45Z</time>
      </trkpt>
      <trkpt lat="48.63583" lon="2.00307">
        <ele>166.1</ele>
        <time>2023-09-03T09:46:52Z</time>
      </trkpt>
      <trkpt lat="48.63593" lon="2.00312">
        <ele>166.4</ele>
        <time>2023-09-03T09:46:55Z</time>
      </trkpt>
      <trkpt lat="48.63602" lon="2.00318">
        <ele>166.6</ele>
        <time>2023-09-03T09:47:03Z</time>
      </trkpt>
      <trkpt lat="48.63611" lon="2.0032">
        <ele>166.5</ele>
        <time>2023-09-03T09:47:10Z</time>
      </trkpt>
      <trkpt lat="48.63619" lon="2.00329">
        <ele>166.2</ele>
        <time>2023-09-03T09:47:59Z</time>
      </trkpt>
      <trkpt lat="48.63627" lon="2.00339">
        <ele>166.2</ele>
        <time>2023-09-03T09:48:03Z</time>
      </trkpt>
      <trkpt lat="48.63635" lon="2.00346">
        <ele>166.2</ele>
        <time>2023-09-03T09:48:06Z</time>
      </trkpt>
      <trkpt lat="48.63643" lon="2.00359">
        <ele>166.3</ele>
        <time>2023-09-03T09:48:10Z</time>
      </trkpt>
      <trkpt lat="48.63652" lon="2.00371">
        <ele>165.8</ele>
        <time>2023-09-03T09:48:14Z</time>
      </trkpt>
      <trkpt lat="48.63655" lon="2.00385">
        <ele>166.6</ele>
        <time>2023-09-03T09:48:18Z</time>
      </trkpt>
      <trkpt lat="48.63646" lon="2.00396">
        <ele>167.8</ele>
        <time>2023-09-03T09:48:23Z</time>
      </trkpt>
      <trkpt lat="48.63638" lon="2.00406">
        <ele>168.6</ele>
        <time>2023-09-03T09:48:27Z</time>
      </trkpt>
      <trkpt lat="48.63631" lon="2.00417">
        <ele>169</ele>
        <time>2023-09-03T09:48:31Z</time>
      </trkpt>
      <trkpt lat="48.63623" lon="2.00424">
        <ele>169</ele>
        <time>2023-09-03T09:48:35Z</time>
      </trkpt>
      <trkpt lat="48.63615" lon="2.00437">
        <ele>169</ele>
        <time>2023-09-03T09:48:38Z</time>
      </trkpt>
      <trkpt lat="48.63608" lon="2.00447">
        <ele>168.9</ele>
        <time>2023-09-03T09:48:40Z</time>
      </trkpt>
      <trkpt lat="48.63596" lon="2.00452">
        <ele>168.5</ele>
        <time>2023-09-03T09:48:43Z</time>
      </trkpt>
      <trkpt lat="48.63583" lon="2.00461">
        <ele>168</ele>
        <time>2023-09-03T09:48:46Z</time>
      </trkpt>
      <trkpt lat="48.63572" lon="2.00467">
        <ele>167.5</ele>
        <time>2023-09-03T09:48:47Z</time>
      </trkpt>
      <trkpt lat="48.63562" lon="2.00479">
        <ele>167.7</ele>
        <time>2023-09-03T09:48:50Z</time>
      </trkpt>
      <trkpt lat="48.63555" lon="2.00489">
        <ele>168.1</ele>
        <time>2023-09-03T09:48:52Z</time>
      </trkpt>
      <trkpt lat="48.63546" lon="2.00499">
        <ele>167.9</ele>
        <time>2023-09-03T09:48:54Z</time>
      </trkpt>
      <trkpt lat="48.63534" lon="2.00504">
        <ele>166.9</ele>
        <time>2023-09-03T09:48:56Z</time>
      </trkpt>
      <trkpt lat="48.63522" lon="2.00509">
        <ele>166</ele>
        <time>2023-09-03T09:48:58Z</time>
      </trkpt>
      <trkpt lat="48.63512" lon="2.00512">
        <ele>164.9</ele>
        <time>2023-09-03T09:49:00Z</time>
      </trkpt>
      <trkpt lat="48.635" lon="2.00517">
        <ele>163.7</ele>
        <time>2023-09-03T09:49:02Z</time>
      </trkpt>
      <trkpt lat="48.6349" lon="2.00522">
        <ele>162.3</ele>
        <time>2023-09-03T09:49:04Z</time>
      </trkpt>
      <trkpt lat="48.63478" lon="2.00524">
        <ele>160.7</ele>
        <time>2023-09-03T09:49:06Z</time>
      </trkpt>
      <trkpt lat="48.63464" lon="2.00519">
        <ele>158.3</ele>
        <time>2023-09-03T09:49:08Z</time>
      </trkpt>
      <trkpt lat="48.63451" lon="2.00511">
        <ele>156</ele>
        <time>2023-09-03T09:49:10Z</time>
      </trkpt>
      <trkpt lat="48.63442" lon="2.00507">
        <ele>154.7</ele>
        <time>2023-09-03T09:49:12Z</time>
      </trkpt>
      <trkpt lat="48.63433" lon="2.00493">
        <ele>153.9</ele>
        <time>2023-09-03T09:49:15Z</time>
      </trkpt>
      <trkpt lat="48.63425" lon="2.0048">
        <ele>153.4</ele>
        <time>2023-09-03T09:49:17Z</time>
      </trkpt>
      <trkpt lat="48.63416" lon="2.00473">
        <ele>152.9</ele>
        <time>2023-09-03T09:49:19Z</time>
      </trkpt>
      <trkpt lat="48.63405" lon="2.00475">
        <ele>151.7</ele>
        <time>2023-09-03T09:49:21Z</time>
      </trkpt>
      <trkpt lat="48.63396" lon="2.00485">
        <ele>150.3</ele>
        <time>2023-09-03T09:49:23Z</time>
      </trkpt>
      <trkpt lat="48.63388" lon="2.00497">
        <ele>149</ele>
        <time>2023-09-03T09:49:25Z</time>
      </trkpt>
      <trkpt lat="48.6338" lon="2.0051">
        <ele>147.7</ele>
        <time>2023-09-03T09:49:27Z</time>
      </trkpt>
      <trkpt lat="48.63369" lon="2.00513">
        <ele>146.4</ele>
        <time>2023-09-03T09:49:30Z</time>
      </trkpt>
      <trkpt lat="48.63359" lon="2.00506">
        <ele>145.5</ele>
        <time>2023-09-03T09:49:33Z</time>
      </trkpt>
      <trkpt lat="48.63349" lon="2.00504">
        <ele>144.1</ele>
        <time>2023-09-03T09:49:37Z</time>
      </trkpt>
      <trkpt lat="48.63342" lon="2.00513">
        <ele>142.7</ele>
        <time>2023-09-03T09:49:40Z</time>
      </trkpt>
      <trkpt lat="48.63334" lon="2.00523">
        <ele>141.3</ele>
        <time>2023-09-03T09:49:43Z</time>
      </trkpt>
      <trkpt lat="48.63325" lon="2.00523">
        <ele>141</ele>
        <time>2023-09-03T09:49:48Z</time>
      </trkpt>
      <trkpt lat="48.63316" lon="2.00528">
        <ele>141</ele>
        <time>2023-09-03T09:49:52Z</time>
      </trkpt>
      <trkpt lat="48.63307" lon="2.00536">
        <ele>141.8</ele>
        <time>2023-09-03T09:49:56Z</time>
      </trkpt>
      <trkpt lat="48.63297" lon="2.00534">
        <ele>142.4</ele>
        <time>2023-09-03T09:50:01Z</time>
      </trkpt>
      <trkpt lat="48.63288" lon="2.00534">
        <ele>143.2</ele>
        <time>2023-09-03T09:50:07Z</time>
      </trkpt>
      <trkpt lat="48.63278" lon="2.00531">
        <ele>143.6</ele>
        <time>2023-09-03T09:50:13Z</time>
      </trkpt>
      <trkpt lat="48.63267" lon="2.00529">
        <ele>144.6</ele>
        <time>2023-09-03T09:50:18Z</time>
      </trkpt>
      <trkpt lat="48.63258" lon="2.00527">
        <ele>145.8</ele>
        <time>2023-09-03T09:50:24Z</time>
      </trkpt>
      <trkpt lat="48.63248" lon="2.00527">
        <ele>147.4</ele>
        <time>2023-09-03T09:50:32Z</time>
      </trkpt>
      <trkpt lat="48.63238" lon="2.00525">
        <ele>149.2</ele>
        <time>2023-09-03T09:50:40Z</time>
      </trkpt>
      <trkpt lat="48.63228" lon="2.00525">
        <ele>151.4</ele>
        <time>2023-09-03T09:50:49Z</time>
      </trkpt>
      <trkpt lat="48.63219" lon="2.00522">
        <ele>153.3</ele>
        <time>2023-09-03T09:50:59Z</time>
      </trkpt>
      <trkpt lat="48.6321" lon="2.00518">
        <ele>155.3</ele>
        <time>2023-09-03T09:51:14Z</time>
      </trkpt>
      <trkpt lat="48.63202" lon="2.00521">
        <ele>158.2</ele>
        <time>2023-09-03T09:51:31Z</time>
      </trkpt>
      <trkpt lat="48.63192" lon="2.00524">
        <ele>160.8</ele>
        <time>2023-09-03T09:51:49Z</time>
      </trkpt>
      <trkpt lat="48.63183" lon="2.00529">
        <ele>162.3</ele>
        <time>2023-09-03T09:52:07Z</time>
      </trkpt>
      <trkpt lat="48.63176" lon="2.00538">
        <ele>163.8</ele>
        <time>2023-09-03T09:52:24Z</time>
      </trkpt>
      <trkpt lat="48.63168" lon="2.00546">
        <ele>165.1</ele>
        <time>2023-09-03T09:52:34Z</time>
      </trkpt>
      <trkpt lat="48.63159" lon="2.00544">
        <ele>165.2</ele>
        <time>2023-09-03T09:52:43Z</time>
      </trkpt>
      <trkpt lat="48.63149" lon="2.00541">
        <ele>165</ele>
        <time>2023-09-03T09:52:50Z</time>
      </trkpt>
      <trkpt lat="48.63138" lon="2.00541">
        <ele>164.9</ele>
        <time>2023-09-03T09:52:56Z</time>
      </trkpt>
      <trkpt lat="48.63127" lon="2.00543">
        <ele>164</ele>
        <time>2023-09-03T09:54:06Z</time>
      </trkpt>
      <trkpt lat="48.63121" lon="2.00555">
        <ele>164.1</ele>
        <time>2023-09-03T09:54:09Z</time>
      </trkpt>
      <trkpt lat="48.63117" lon="2.0057">
        <ele>164.6</ele>
        <time>2023-09-03T09:54:12Z</time>
      </trkpt>
      <trkpt lat="48.63111" lon="2.00583">
        <ele>164.9</ele>
        <time>2023-09-03T09:54:14Z</time>
      </trkpt>
      <trkpt lat="48.63104" lon="2.00597">
        <ele>163.2</ele>
        <time>2023-09-03T09:54:16Z</time>
      </trkpt>
      <trkpt lat="48.63092" lon="2.00614">
        <ele>161</ele>
        <time>2023-09-03T09:54:18Z</time>
      </trkpt>
      <trkpt lat="48.63081" lon="2.00634">
        <ele>160</ele>
        <time>2023-09-03T09:54:20Z</time>
      </trkpt>
      <trkpt lat="48.6307" lon="2.00645">
        <ele>158.1</ele>
        <time>2023-09-03T09:54:22Z</time>
      </trkpt>
      <trkpt lat="48.63058" lon="2.00653">
        <ele>155.5</ele>
        <time>2023-09-03T09:54:24Z</time>
      </trkpt>
      <trkpt lat="48.63047" lon="2.00657">
        <ele>153.3</ele>
        <time>2023-09-03T09:54:26Z</time>
      </trkpt>
      <trkpt lat="48.63037" lon="2.00665">
        <ele>151</ele>
        <time>2023-09-03T09:54:29Z</time>
      </trkpt>
      <trkpt lat="48.63031" lon="2.0068">
        <ele>148.4</ele>
        <time>2023-09-03T09:54:32Z</time>
      </trkpt>
      <trkpt lat="48.63032" lon="2.00694">
        <ele>147.1</ele>
        <time>2023-09-03T09:54:33Z</time>
      </trkpt>
      <trkpt lat="48.63024" lon="2.00708">
        <ele>143.9</ele>
        <time>2023-09-03T09:54:35Z</time>
      </trkpt>
      <trkpt lat="48.63031" lon="2.00729">
        <ele>143.5</ele>
        <time>2023-09-03T09:54:37Z</time>
      </trkpt>
      <trkpt lat="48.6303" lon="2.00747">
        <ele>141.9</ele>
        <time>2023-09-03T09:54:39Z</time>
      </trkpt>
      <trkpt lat="48.6303" lon="2.00775">
        <ele>139.9</ele>
        <time>2023-09-03T09:54:41Z</time>
      </trkpt>
      <trkpt lat="48.6303" lon="2.00802">
        <ele>137.9</ele>
        <time>2023-09-03T09:54:43Z</time>
      </trkpt>
      <trkpt lat="48.6303" lon="2.00826">
        <ele>136.7</ele>
        <time>2023-09-03T09:54:45Z</time>
      </trkpt>
      <trkpt lat="48.63031" lon="2.00853">
        <ele>135.2</ele>
        <time>2023-09-03T09:54:47Z</time>
      </trkpt>
      <trkpt lat="48.63032" lon="2.00866">
        <ele>134.4</ele>
        <time>2023-09-03T09:54:48Z</time>
      </trkpt>
      <trkpt lat="48.63033" lon="2.00892">
        <ele>133.6</ele>
        <time>2023-09-03T09:54:50Z</time>
      </trkpt>
      <trkpt lat="48.63029" lon="2.00908">
        <ele>133.1</ele>
        <time>2023-09-03T09:54:52Z</time>
      </trkpt>
      <trkpt lat="48.63027" lon="2.00924">
        <ele>133.5</ele>
        <time>2023-09-03T09:54:54Z</time>
      </trkpt>
      <trkpt lat="48.63024" lon="2.00939">
        <ele>134.6</ele>
        <time>2023-09-03T09:54:58Z</time>
      </trkpt>
      <trkpt lat="48.63015" lon="2.00944">
        <ele>135</ele>
        <time>2023-09-03T09:55:04Z</time>
      </trkpt>
      <trkpt lat="48.63009" lon="2.00956">
        <ele>136.9</ele>
        <time>2023-09-03T09:55:11Z</time>
      </trkpt>
      <trkpt lat="48.63001" lon="2.00961">
        <ele>138</ele>
        <time>2023-09-03T09:55:17Z</time>
      </trkpt>
      <trkpt lat="48.62989" lon="2.00963">
        <ele>138.6</ele>
        <time>2023-09-03T09:55:22Z</time>
      </trkpt>
      <trkpt lat="48.62978" lon="2.00963">
        <ele>138.9</ele>
        <time>2023-09-03T09:55:28Z</time>
      </trkpt>
      <trkpt lat="48.62967" lon="2.00956">
        <ele>137.3</ele>
        <time>2023-09-03T09:55:30Z</time>
      </trkpt>
      <trkpt lat="48.62954" lon="2.00948">
        <ele>135.1</ele>
        <time>2023-09-03T09:55:32Z</time>
      </trkpt>
      <trkpt lat="48.62945" lon="2.00952">
        <ele>135.4</ele>
        <time>2023-09-03T09:55:34Z</time>
      </trkpt>
      <trkpt lat="48.62936" lon="2.00944">
        <ele>133</ele>
        <time>2023-09-03T09:55:37Z</time>
      </trkpt>
      <trkpt lat="48.62928" lon="2.00934">
        <ele>130.8</ele>
        <time>2023-09-03T09:55:39Z</time>
      </trkpt>
      <trkpt lat="48.62918" lon="2.0093">
        <ele>129.6</ele>
        <time>2023-09-03T09:55:41Z</time>
      </trkpt>
      <trkpt lat="48.62911" lon="2.00941">
        <ele>130.3</ele>
        <time>2023-09-03T09:55:45Z</time>
      </trkpt>
      <trkpt lat="48.62901" lon="2.00949">
        <ele>130.4</ele>
        <time>2023-09-03T09:55:48Z</time>
      </trkpt>
      <trkpt lat="48.62895" lon="2.00963">
        <ele>131.4</ele>
        <time>2023-09-03T09:55:51Z</time>
      </trkpt>
      <trkpt lat="48.62891" lon="2.00976">
        <ele>132.4</ele>
        <time>2023-09-03T09:55:59Z</time>
      </trkpt>
      <trkpt lat="48.62892" lon="2.0099">
        <ele>133.6</ele>
        <time>2023-09-03T09:56:07Z</time>
      </trkpt>
      <trkpt lat="48.6289" lon="2.01006">
        <ele>134.4</ele>
        <time>2023-09-03T09:56:13Z</time>
      </trkpt>
      <trkpt lat="48.62887" lon="2.01022">
        <ele>134.6</ele>
        <time>2023-09-03T09:56:18Z</time>
      </trkpt>
      <trkpt lat="48.62887" lon="2.01035">
        <ele>135.3</ele>
        <time>2023-09-03T09:56:21Z</time>
      </trkpt>
      <trkpt lat="48.62882" lon="2.01055">
        <ele>135.9</ele>
        <time>2023-09-03T09:56:24Z</time>
      </trkpt>
      <trkpt lat="48.62875" lon="2.01069">
        <ele>135.8</ele>
        <time>2023-09-03T09:56:26Z</time>
      </trkpt>
      <trkpt lat="48.62869" lon="2.0108">
        <ele>135.2</ele>
        <time>2023-09-03T09:56:28Z</time>
      </trkpt>
      <trkpt lat="48.6286" lon="2.01085">
        <ele>134</ele>
        <time>2023-09-03T09:56:30Z</time>
      </trkpt>
      <trkpt lat="48.62857" lon="2.01099">
        <ele>134.8</ele>
        <time>2023-09-03T09:56:33Z</time>
      </trkpt>
      <trkpt lat="48.62849" lon="2.01112">
        <ele>135.2</ele>
        <time>2023-09-03T09:56:37Z</time>
      </trkpt>
      <trkpt lat="48.62841" lon="2.01124">
        <ele>135</ele>
        <time>2023-09-03T09:56:42Z</time>
      </trkpt>
      <trkpt lat="48.62827" lon="2.01137">
        <ele>134.2</ele>
        <time>2023-09-03T09:56:45Z</time>
      </trkpt>
      <trkpt lat="48.62816" lon="2.01147">
        <ele>133.3</ele>
        <time>2023-09-03T09:56:47Z</time>
      </trkpt>
      <trkpt lat="48.62819" lon="2.01163">
        <ele>133.9</ele>
        <time>2023-09-03T09:56:50Z</time>
      </trkpt>
      <trkpt lat="48.62821" lon="2.01177">
        <ele>134.3</ele>
        <time>2023-09-03T09:56:53Z</time>
      </trkpt>
      <trkpt lat="48.62816" lon="2.01189">
        <ele>134.3</ele>
        <time>2023-09-03T09:56:56Z</time>
      </trkpt>
      <trkpt lat="48.62816" lon="2.01205">
        <ele>134.9</ele>
        <time>2023-09-03T09:57:00Z</time>
      </trkpt>
      <trkpt lat="48.62814" lon="2.0122">
        <ele>135.6</ele>
        <time>2023-09-03T09:57:05Z</time>
      </trkpt>
      <trkpt lat="48.6281" lon="2.01234">
        <ele>137</ele>
        <time>2023-09-03T09:57:11Z</time>
      </trkpt>
      <trkpt lat="48.62805" lon="2.01246">
        <ele>138.7</ele>
        <time>2023-09-03T09:57:19Z</time>
      </trkpt>
      <trkpt lat="48.62799" lon="2.01256">
        <ele>140.5</ele>
        <time>2023-09-03T09:57:28Z</time>
      </trkpt>
      <trkpt lat="48.62792" lon="2.01266">
        <ele>142.3</ele>
        <time>2023-09-03T09:57:36Z</time>
      </trkpt>
      <trkpt lat="48.62786" lon="2.01278">
        <ele>143.7</ele>
        <time>2023-09-03T09:57:44Z</time>
      </trkpt>
      <trkpt lat="48.62775" lon="2.01274">
        <ele>143.8</ele>
        <time>2023-09-03T09:57:50Z</time>
      </trkpt>
      <trkpt lat="48.62766" lon="2.01274">
        <ele>144.2</ele>
        <time>2023-09-03T09:57:54Z</time>
      </trkpt>
      <trkpt lat="48.62758" lon="2.01286">
        <ele>144.6</ele>
        <time>2023-09-03T09:57:58Z</time>
      </trkpt>
      <trkpt lat="48.62748" lon="2.01296">
        <ele>144.2</ele>
        <time>2023-09-03T09:58:01Z</time>
      </trkpt>
      <trkpt lat="48.62738" lon="2.01297">
        <ele>143.3</ele>
        <time>2023-09-03T09:58:03Z</time>
      </trkpt>
      <trkpt lat="48.62727" lon="2.01299">
        <ele>142.4</ele>
        <time>2023-09-03T09:58:04Z</time>
      </trkpt>
      <trkpt lat="48.62717" lon="2.01308">
        <ele>141.7</ele>
        <time>2023-09-03T09:58:06Z</time>
      </trkpt>
      <trkpt lat="48.62713" lon="2.01326">
        <ele>141.8</ele>
        <time>2023-09-03T09:58:08Z</time>
      </trkpt>
      <trkpt lat="48.62702" lon="2.01331">
        <ele>141.9</ele>
        <time>2023-09-03T09:58:10Z</time>
      </trkpt>
      <trkpt lat="48.62691" lon="2.01335">
        <ele>141.9</ele>
        <time>2023-09-03T09:58:12Z</time>
      </trkpt>
      <trkpt lat="48.6268" lon="2.01335">
        <ele>141.6</ele>
        <time>2023-09-03T09:58:14Z</time>
      </trkpt>
      <trkpt lat="48.62671" lon="2.0134">
        <ele>141.6</ele>
        <time>2023-09-03T09:58:16Z</time>
      </trkpt>
      <trkpt lat="48.62662" lon="2.01348">
        <ele>142.1</ele>
        <time>2023-09-03T09:58:19Z</time>
      </trkpt>
      <trkpt lat="48.62651" lon="2.01357">
        <ele>142.7</ele>
        <time>2023-09-03T09:58:23Z</time>
      </trkpt>
      <trkpt lat="48.62641" lon="2.01369">
        <ele>143</ele>
        <time>2023-09-03T09:58:26Z</time>
      </trkpt>
      <trkpt lat="48.62631" lon="2.01383">
        <ele>142.7</ele>
        <time>2023-09-03T09:58:28Z</time>
      </trkpt>
      <trkpt lat="48.62619" lon="2.01393">
        <ele>142.1</ele>
        <time>2023-09-03T09:58:30Z</time>
      </trkpt>
      <trkpt lat="48.6261" lon="2.01407">
        <ele>141.3</ele>
        <time>2023-09-03T09:58:32Z</time>
      </trkpt>
      <trkpt lat="48.62601" lon="2.01418">
        <ele>140.9</ele>
        <time>2023-09-03T09:58:34Z</time>
      </trkpt>
      <trkpt lat="48.62591" lon="2.01422">
        <ele>140.8</ele>
        <time>2023-09-03T09:58:38Z</time>
      </trkpt>
      <trkpt lat="48.62585" lon="2.01411">
        <ele>141</ele>
        <time>2023-09-03T10:01:22Z</time>
      </trkpt>
      <trkpt lat="48.62581" lon="2.01394">
        <ele>140.9</ele>
        <time>2023-09-03T10:01:27Z</time>
      </trkpt>
      <trkpt lat="48.62576" lon="2.01379">
        <ele>140.5</ele>
        <time>2023-09-03T10:01:30Z</time>
      </trkpt>
      <trkpt lat="48.62573" lon="2.01357">
        <ele>139.9</ele>
        <time>2023-09-03T10:01:33Z</time>
      </trkpt>
      <trkpt lat="48.6257" lon="2.01341">
        <ele>139.3</ele>
        <time>2023-09-03T10:01:35Z</time>
      </trkpt>
      <trkpt lat="48.62567" lon="2.01326">
        <ele>138.7</ele>
        <time>2023-09-03T10:01:37Z</time>
      </trkpt>
      <trkpt lat="48.62563" lon="2.01313">
        <ele>138.3</ele>
        <time>2023-09-03T10:01:39Z</time>
      </trkpt>
      <trkpt lat="48.62555" lon="2.01303">
        <ele>138</ele>
        <time>2023-09-03T10:01:42Z</time>
      </trkpt>
      <trkpt lat="48.62544" lon="2.01304">
        <ele>138</ele>
        <time>2023-09-03T10:01:45Z</time>
      </trkpt>
      <trkpt lat="48.62537" lon="2.01316">
        <ele>138.1</ele>
        <time>2023-09-03T10:01:48Z</time>
      </trkpt>
      <trkpt lat="48.62532" lon="2.01328">
        <ele>138.1</ele>
        <time>2023-09-03T10:01:51Z</time>
      </trkpt>
      <trkpt lat="48.62526" lon="2.01342">
        <ele>138.2</ele>
        <time>2023-09-03T10:01:55Z</time>
      </trkpt>
      <trkpt lat="48.62519" lon="2.01357">
        <ele>138.5</ele>
        <time>2023-09-03T10:01:59Z</time>
      </trkpt>
      <trkpt lat="48.62513" lon="2.01368">
        <ele>138.6</ele>
        <time>2023-09-03T10:02:02Z</time>
      </trkpt>
      <trkpt lat="48.62507" lon="2.01382">
        <ele>138.4</ele>
        <time>2023-09-03T10:02:05Z</time>
      </trkpt>
      <trkpt lat="48.62498" lon="2.01391">
        <ele>137.9</ele>
        <time>2023-09-03T10:02:07Z</time>
      </trkpt>
      <trkpt lat="48.62491" lon="2.01403">
        <ele>137.9</ele>
        <time>2023-09-03T10:02:09Z</time>
      </trkpt>
      <trkpt lat="48.62487" lon="2.01416">
        <ele>138</ele>
        <time>2023-09-03T10:02:11Z</time>
      </trkpt>
      <trkpt lat="48.62479" lon="2.01434">
        <ele>137.5</ele>
        <time>2023-09-03T10:02:14Z</time>
      </trkpt>
      <trkpt lat="48.62477" lon="2.01448">
        <ele>137.4</ele>
        <time>2023-09-03T10:02:16Z</time>
      </trkpt>
      <trkpt lat="48.62472" lon="2.01467">
        <ele>137</ele>
        <time>2023-09-03T10:02:19Z</time>
      </trkpt>
      <trkpt lat="48.62464" lon="2.01484">
        <ele>136.5</ele>
        <time>2023-09-03T10:02:22Z</time>
      </trkpt>
      <trkpt lat="48.62462" lon="2.01498">
        <ele>136.6</ele>
        <time>2023-09-03T10:02:24Z</time>
      </trkpt>
      <trkpt lat="48.62454" lon="2.01514">
        <ele>136.2</ele>
        <time>2023-09-03T10:02:27Z</time>
      </trkpt>
      <trkpt lat="48.62446" lon="2.01531">
        <ele>135.9</ele>
        <time>2023-09-03T10:02:30Z</time>
      </trkpt>
      <trkpt lat="48.62442" lon="2.01544">
        <ele>135.3</ele>
        <time>2023-09-03T10:02:32Z</time>
      </trkpt>
      <trkpt lat="48.62436" lon="2.01556">
        <ele>134.7</ele>
        <time>2023-09-03T10:02:34Z</time>
      </trkpt>
      <trkpt lat="48.62432" lon="2.01573">
        <ele>133.9</ele>
        <time>2023-09-03T10:02:36Z</time>
      </trkpt>
      <trkpt lat="48.62422" lon="2.01589">
        <ele>133</ele>
        <time>2023-09-03T10:02:38Z</time>
      </trkpt>
      <trkpt lat="48.62418" lon="2.01608">
        <ele>132.1</ele>
        <time>2023-09-03T10:02:40Z</time>
      </trkpt>
      <trkpt lat="48.6241" lon="2.01628">
        <ele>130.5</ele>
        <time>2023-09-03T10:02:42Z</time>
      </trkpt>
      <trkpt lat="48.62405" lon="2.0165">
        <ele>129.2</ele>
        <time>2023-09-03T10:02:44Z</time>
      </trkpt>
      <trkpt lat="48.62399" lon="2.01673">
        <ele>128.1</ele>
        <time>2023-09-03T10:02:46Z</time>
      </trkpt>
      <trkpt lat="48.62396" lon="2.01686">
        <ele>127.6</ele>
        <time>2023-09-03T10:02:47Z</time>
      </trkpt>
      <trkpt lat="48.62393" lon="2.017">
        <ele>127</ele>
        <time>2023-09-03T10:02:48Z</time>
      </trkpt>
      <trkpt lat="48.62386" lon="2.0172">
        <ele>126</ele>
        <time>2023-09-03T10:02:50Z</time>
      </trkpt>
      <trkpt lat="48.62381" lon="2.01739">
        <ele>125.3</ele>
        <time>2023-09-03T10:02:52Z</time>
      </trkpt>
      <trkpt lat="48.62372" lon="2.01746">
        <ele>125.1</ele>
        <time>2023-09-03T10:02:53Z</time>
      </trkpt>
      <trkpt lat="48.62362" lon="2.01753">
        <ele>125</ele>
        <time>2023-09-03T10:02:55Z</time>
      </trkpt>
      <trkpt lat="48.62349" lon="2.01753">
        <ele>124.6</ele>
        <time>2023-09-03T10:02:57Z</time>
      </trkpt>
      <trkpt lat="48.62337" lon="2.0175">
        <ele>124.1</ele>
        <time>2023-09-03T10:02:59Z</time>
      </trkpt>
      <trkpt lat="48.62326" lon="2.01749">
        <ele>124</ele>
        <time>2023-09-03T10:03:01Z</time>
      </trkpt>
      <trkpt lat="48.62317" lon="2.01746">
        <ele>123.9</ele>
        <time>2023-09-03T10:03:03Z</time>
      </trkpt>
      <trkpt lat="48.6231" lon="2.01735">
        <ele>123.5</ele>
        <time>2023-09-03T10:03:05Z</time>
      </trkpt>
      <trkpt lat="48.62304" lon="2.01721">
        <ele>123</ele>
        <time>2023-09-03T10:03:07Z</time>
      </trkpt>
      <trkpt lat="48.62294" lon="2.01705">
        <ele>123</ele>
        <time>2023-09-03T10:03:10Z</time>
      </trkpt>
      <trkpt lat="48.62286" lon="2.01692">
        <ele>123</ele>
        <time>2023-09-03T10:03:12Z</time>
      </trkpt>
      <trkpt lat="48.62278" lon="2.0168">
        <ele>123</ele>
        <time>2023-09-03T10:03:14Z</time>
      </trkpt>
      <trkpt lat="48.62271" lon="2.01667">
        <ele>123</ele>
        <time>2023-09-03T10:03:17Z</time>
      </trkpt>
      <trkpt lat="48.62261" lon="2.01659">
        <ele>123</ele>
        <time>2023-09-03T10:03:19Z</time>
      </trkpt>
      <trkpt lat="48.62252" lon="2.01653">
        <ele>123</ele>
        <time>2023-09-03T10:03:22Z</time>
      </trkpt>
      <trkpt lat="48.62246" lon="2.01641">
        <ele>123</ele>
        <time>2023-09-03T10:03:25Z</time>
      </trkpt>
      <trkpt lat="48.62245" lon="2.01624">
        <ele>123</ele>
        <time>2023-09-03T10:03:29Z</time>
      </trkpt>
      <trkpt lat="48.62243" lon="2.01604">
        <ele>123</ele>
        <time>2023-09-03T10:03:32Z</time>
      </trkpt>
      <trkpt lat="48.62245" lon="2.01584">
        <ele>123</ele>
        <time>2023-09-03T10:03:35Z</time>
      </trkpt>
      <trkpt lat="48.62245" lon="2.01564">
        <ele>123.6</ele>
        <time>2023-09-03T10:03:38Z</time>
      </trkpt>
      <trkpt lat="48.62244" lon="2.01545">
        <ele>123.8</ele>
        <time>2023-09-03T10:03:41Z</time>
      </trkpt>
      <trkpt lat="48.62244" lon="2.01526">
        <ele>123.8</ele>
        <time>2023-09-03T10:03:44Z</time>
      </trkpt>
      <trkpt lat="48.62245" lon="2.01506">
        <ele>123.8</ele>
        <time>2023-09-03T10:03:47Z</time>
      </trkpt>
      <trkpt lat="48.62245" lon="2.01487">
        <ele>123.9</ele>
        <time>2023-09-03T10:03:50Z</time>
      </trkpt>
      <trkpt lat="48.62246" lon="2.01468">
        <ele>124</ele>
        <time>2023-09-03T10:03:53Z</time>
      </trkpt>
      <trkpt lat="48.62246" lon="2.01448">
        <ele>124</ele>
        <time>2023-09-03T10:03:56Z</time>
      </trkpt>
      <trkpt lat="48.62247" lon="2.01434">
        <ele>124.3</ele>
        <time>2023-09-03T10:03:58Z</time>
      </trkpt>
      <trkpt lat="48.62247" lon="2.0142">
        <ele>124.8</ele>
        <time>2023-09-03T10:04:00Z</time>
      </trkpt>
      <trkpt lat="48.62247" lon="2.01406">
        <ele>124.9</ele>
        <time>2023-09-03T10:04:02Z</time>
      </trkpt>
      <trkpt lat="48.62247" lon="2.01386">
        <ele>124.9</ele>
        <time>2023-09-03T10:04:05Z</time>
      </trkpt>
      <trkpt lat="48.62247" lon="2.01367">
        <ele>125</ele>
        <time>2023-09-03T10:04:08Z</time>
      </trkpt>
      <trkpt lat="48.62247" lon="2.01348">
        <ele>125.4</ele>
        <time>2023-09-03T10:04:11Z</time>
      </trkpt>
      <trkpt lat="48.62247" lon="2.01329">
        <ele>126</ele>
        <time>2023-09-03T10:04:14Z</time>
      </trkpt>
      <trkpt lat="48.62248" lon="2.01312">
        <ele>126.7</ele>
        <time>2023-09-03T10:04:17Z</time>
      </trkpt>
      <trkpt lat="48.62248" lon="2.01295">
        <ele>126.9</ele>
        <time>2023-09-03T10:04:20Z</time>
      </trkpt>
      <trkpt lat="48.62248" lon="2.01278">
        <ele>126.9</ele>
        <time>2023-09-03T10:04:23Z</time>
      </trkpt>
      <trkpt lat="48.62249" lon="2.01261">
        <ele>127.5</ele>
        <time>2023-09-03T10:04:26Z</time>
      </trkpt>
      <trkpt lat="48.62249" lon="2.01245">
        <ele>128</ele>
        <time>2023-09-03T10:04:29Z</time>
      </trkpt>
      <trkpt lat="48.62249" lon="2.0123">
        <ele>128</ele>
        <time>2023-09-03T10:04:32Z</time>
      </trkpt>
      <trkpt lat="48.6225" lon="2.01214">
        <ele>128.3</ele>
        <time>2023-09-03T10:04:35Z</time>
      </trkpt>
      <trkpt lat="48.62251" lon="2.01197">
        <ele>128.9</ele>
        <time>2023-09-03T10:04:38Z</time>
      </trkpt>
      <trkpt lat="48.62251" lon="2.0118">
        <ele>129.5</ele>
        <time>2023-09-03T10:04:41Z</time>
      </trkpt>
      <trkpt lat="48.62252" lon="2.01164">
        <ele>130</ele>
        <time>2023-09-03T10:04:44Z</time>
      </trkpt>
      <trkpt lat="48.62251" lon="2.01148">
        <ele>130</ele>
        <time>2023-09-03T10:04:47Z</time>
      </trkpt>
      <trkpt lat="48.62247" lon="2.01135">
        <ele>130</ele>
        <time>2023-09-03T10:04:50Z</time>
      </trkpt>
      <trkpt lat="48.62247" lon="2.01118">
        <ele>130</ele>
        <time>2023-09-03T10:04:54Z</time>
      </trkpt>
      <trkpt lat="48.62246" lon="2.01104">
        <ele>130</ele>
        <time>2023-09-03T10:04:57Z</time>
      </trkpt>
      <trkpt lat="48.62244" lon="2.01088">
        <ele>129.8</ele>
        <time>2023-09-03T10:05:00Z</time>
      </trkpt>
      <trkpt lat="48.6224" lon="2.01073">
        <ele>128.9</ele>
        <time>2023-09-03T10:05:03Z</time>
      </trkpt>
      <trkpt lat="48.62229" lon="2.0107">
        <ele>128.3</ele>
        <time>2023-09-03T10:05:07Z</time>
      </trkpt>
      <trkpt lat="48.62219" lon="2.01074">
        <ele>128.2</ele>
        <time>2023-09-03T10:05:11Z</time>
      </trkpt>
      <trkpt lat="48.6221" lon="2.0108">
        <ele>128.3</ele>
        <time>2023-09-03T10:05:15Z</time>
      </trkpt>
      <trkpt lat="48.62201" lon="2.01085">
        <ele>128.3</ele>
        <time>2023-09-03T10:05:18Z</time>
      </trkpt>
      <trkpt lat="48.62191" lon="2.0109">
        <ele>128.5</ele>
        <time>2023-09-03T10:05:21Z</time>
      </trkpt>
      <trkpt lat="48.62181" lon="2.01096">
        <ele>128.9</ele>
        <time>2023-09-03T10:05:24Z</time>
      </trkpt>
      <trkpt lat="48.6217" lon="2.01101">
        <ele>129.3</ele>
        <time>2023-09-03T10:05:27Z</time>
      </trkpt>
      <trkpt lat="48.6216" lon="2.0111">
        <ele>129.4</ele>
        <time>2023-09-03T10:05:30Z</time>
      </trkpt>
      <trkpt lat="48.62149" lon="2.01119">
        <ele>129.1</ele>
        <time>2023-09-03T10:05:33Z</time>
      </trkpt>
      <trkpt lat="48.6214" lon="2.01126">
        <ele>129.1</ele>
        <time>2023-09-03T10:05:35Z</time>
      </trkpt>
      <trkpt lat="48.62127" lon="2.01134">
        <ele>128.9</ele>
        <time>2023-09-03T10:05:38Z</time>
      </trkpt>
      <trkpt lat="48.62118" lon="2.01143">
        <ele>128.6</ele>
        <time>2023-09-03T10:05:40Z</time>
      </trkpt>
      <trkpt lat="48.6211" lon="2.0115">
        <ele>128.3</ele>
        <time>2023-09-03T10:05:42Z</time>
      </trkpt>
      <trkpt lat="48.62102" lon="2.01159">
        <ele>128.4</ele>
        <time>2023-09-03T10:05:44Z</time>
      </trkpt>
      <trkpt lat="48.62094" lon="2.01168">
        <ele>128.4</ele>
        <time>2023-09-03T10:05:46Z</time>
      </trkpt>
      <trkpt lat="48.62086" lon="2.01176">
        <ele>128.1</ele>
        <time>2023-09-03T10:05:48Z</time>
      </trkpt>
      <trkpt lat="48.62077" lon="2.01181">
        <ele>127.9</ele>
        <time>2023-09-03T10:05:50Z</time>
      </trkpt>
      <trkpt lat="48.62067" lon="2.0118">
        <ele>127.7</ele>
        <time>2023-09-03T10:05:52Z</time>
      </trkpt>
      <trkpt lat="48.62057" lon="2.01175">
        <ele>127.3</ele>
        <time>2023-09-03T10:05:54Z</time>
      </trkpt>
      <trkpt lat="48.62046" lon="2.01168">
        <ele>127</ele>
        <time>2023-09-03T10:05:56Z</time>
      </trkpt>
      <trkpt lat="48.62035" lon="2.01157">
        <ele>126.3</ele>
        <time>2023-09-03T10:05:58Z</time>
      </trkpt>
      <trkpt lat="48.62021" lon="2.01147">
        <ele>125.4</ele>
        <time>2023-09-03T10:06:00Z</time>
      </trkpt>
      <trkpt lat="48.62008" lon="2.01144">
        <ele>124.8</ele>
        <time>2023-09-03T10:06:02Z</time>
      </trkpt>
      <trkpt lat="48.61998" lon="2.01141">
        <ele>124.3</ele>
        <time>2023-09-03T10:06:04Z</time>
      </trkpt>
      <trkpt lat="48.61992" lon="2.01127">
        <ele>123.4</ele>
        <time>2023-09-03T10:06:06Z</time>
      </trkpt>
      <trkpt lat="48.61986" lon="2.01111">
        <ele>122.5</ele>
        <time>2023-09-03T10:06:08Z</time>
      </trkpt>
      <trkpt lat="48.61979" lon="2.01092">
        <ele>121.2</ele>
        <time>2023-09-03T10:06:10Z</time>
      </trkpt>
      <trkpt lat="48.61974" lon="2.0108">
        <ele>120.6</ele>
        <time>2023-09-03T10:06:12Z</time>
      </trkpt>
      <trkpt lat="48.61969" lon="2.01067">
        <ele>119.7</ele>
        <time>2023-09-03T10:06:14Z</time>
      </trkpt>
      <trkpt lat="48.61962" lon="2.01048">
        <ele>119</ele>
        <time>2023-09-03T10:06:16Z</time>
      </trkpt>
      <trkpt lat="48.61956" lon="2.01032">
        <ele>118.7</ele>
        <time>2023-09-03T10:06:18Z</time>
      </trkpt>
      <trkpt lat="48.61945" lon="2.01009">
        <ele>117.9</ele>
        <time>2023-09-03T10:06:20Z</time>
      </trkpt>
      <trkpt lat="48.61938" lon="2.0099">
        <ele>117.9</ele>
        <time>2023-09-03T10:06:22Z</time>
      </trkpt>
      <trkpt lat="48.61933" lon="2.00974">
        <ele>118.1</ele>
        <time>2023-09-03T10:06:24Z</time>
      </trkpt>
      <trkpt lat="48.61928" lon="2.00961">
        <ele>118.1</ele>
        <time>2023-09-03T10:06:26Z</time>
      </trkpt>
      <trkpt lat="48.6192" lon="2.00952">
        <ele>118.3</ele>
        <time>2023-09-03T10:06:27Z</time>
      </trkpt>
      <trkpt lat="48.61913" lon="2.0094">
        <ele>118.4</ele>
        <time>2023-09-03T10:06:29Z</time>
      </trkpt>
      <trkpt lat="48.61907" lon="2.00928">
        <ele>118.8</ele>
        <time>2023-09-03T10:06:31Z</time>
      </trkpt>
      <trkpt lat="48.61898" lon="2.00914">
        <ele>119.5</ele>
        <time>2023-09-03T10:06:33Z</time>
      </trkpt>
      <trkpt lat="48.61888" lon="2.009">
        <ele>119.4</ele>
        <time>2023-09-03T10:06:35Z</time>
      </trkpt>
      <trkpt lat="48.61875" lon="2.00882">
        <ele>120.1</ele>
        <time>2023-09-03T10:06:38Z</time>
      </trkpt>
      <trkpt lat="48.61866" lon="2.00869">
        <ele>120.3</ele>
        <time>2023-09-03T10:06:40Z</time>
      </trkpt>
      <trkpt lat="48.61859" lon="2.00854">
        <ele>119.8</ele>
        <time>2023-09-03T10:06:42Z</time>
      </trkpt>
      <trkpt lat="48.61853" lon="2.00842">
        <ele>119.9</ele>
        <time>2023-09-03T10:06:44Z</time>
      </trkpt>
      <trkpt lat="48.61846" lon="2.0083">
        <ele>120.5</ele>
        <time>2023-09-03T10:06:46Z</time>
      </trkpt>
      <trkpt lat="48.61838" lon="2.00818">
        <ele>121.2</ele>
        <time>2023-09-03T10:06:48Z</time>
      </trkpt>
      <trkpt lat="48.61831" lon="2.00804">
        <ele>121.2</ele>
        <time>2023-09-03T10:06:50Z</time>
      </trkpt>
      <trkpt lat="48.61828" lon="2.00791">
        <ele>120.5</ele>
        <time>2023-09-03T10:06:53Z</time>
      </trkpt>
      <trkpt lat="48.61818" lon="2.00774">
        <ele>120.5</ele>
        <time>2023-09-03T10:06:56Z</time>
      </trkpt>
      <trkpt lat="48.61813" lon="2.00756">
        <ele>120.2</ele>
        <time>2023-09-03T10:07:00Z</time>
      </trkpt>
      <trkpt lat="48.61804" lon="2.00742">
        <ele>120.6</ele>
        <time>2023-09-03T10:07:02Z</time>
      </trkpt>
      <trkpt lat="48.61799" lon="2.00727">
        <ele>120.3</ele>
        <time>2023-09-03T10:07:05Z</time>
      </trkpt>
      <trkpt lat="48.61792" lon="2.00717">
        <ele>120.6</ele>
        <time>2023-09-03T10:07:07Z</time>
      </trkpt>
      <trkpt lat="48.61784" lon="2.00704">
        <ele>120.8</ele>
        <time>2023-09-03T10:07:10Z</time>
      </trkpt>
      <trkpt lat="48.61776" lon="2.00693">
        <ele>121.1</ele>
        <time>2023-09-03T10:07:13Z</time>
      </trkpt>
      <trkpt lat="48.6177" lon="2.00683">
        <ele>121</ele>
        <time>2023-09-03T10:07:15Z</time>
      </trkpt>
      <trkpt lat="48.61762" lon="2.00669">
        <ele>120.8</ele>
        <time>2023-09-03T10:07:18Z</time>
      </trkpt>
      <trkpt lat="48.61757" lon="2.00657">
        <ele>120.5</ele>
        <time>2023-09-03T10:07:19Z</time>
      </trkpt>
      <trkpt lat="48.6175" lon="2.00642">
        <ele>120.3</ele>
        <time>2023-09-03T10:07:21Z</time>
      </trkpt>
      <trkpt lat="48.61741" lon="2.0063">
        <ele>120.5</ele>
        <time>2023-09-03T10:07:23Z</time>
      </trkpt>
      <trkpt lat="48.61734" lon="2.00617">
        <ele>120.5</ele>
        <time>2023-09-03T10:07:25Z</time>
      </trkpt>
      <trkpt lat="48.61727" lon="2.00601">
        <ele>120.3</ele>
        <time>2023-09-03T10:07:28Z</time>
      </trkpt>
      <trkpt lat="48.6172" lon="2.00587">
        <ele>120.2</ele>
        <time>2023-09-03T10:07:30Z</time>
      </trkpt>
      <trkpt lat="48.61713" lon="2.00571">
        <ele>119.9</ele>
        <time>2023-09-03T10:07:32Z</time>
      </trkpt>
      <trkpt lat="48.61708" lon="2.00559">
        <ele>119.6</ele>
        <time>2023-09-03T10:07:34Z</time>
      </trkpt>
      <trkpt lat="48.61703" lon="2.00546">
        <ele>119.4</ele>
        <time>2023-09-03T10:07:36Z</time>
      </trkpt>
      <trkpt lat="48.61696" lon="2.00535">
        <ele>119.2</ele>
        <time>2023-09-03T10:07:38Z</time>
      </trkpt>
      <trkpt lat="48.61689" lon="2.00522">
        <ele>119.2</ele>
        <time>2023-09-03T10:07:41Z</time>
      </trkpt>
      <trkpt lat="48.61681" lon="2.00511">
        <ele>119.4</ele>
        <time>2023-09-03T10:07:43Z</time>
      </trkpt>
      <trkpt lat="48.61676" lon="2.00496">
        <ele>119.3</ele>
        <time>2023-09-03T10:07:47Z</time>
      </trkpt>
      <trkpt lat="48.61668" lon="2.00478">
        <ele>119.1</ele>
        <time>2023-09-03T10:07:50Z</time>
      </trkpt>
      <trkpt lat="48.61662" lon="2.00465">
        <ele>118.9</ele>
        <time>2023-09-03T10:07:52Z</time>
      </trkpt>
      <trkpt lat="48.61656" lon="2.00451">
        <ele>118.9</ele>
        <time>2023-09-03T10:07:55Z</time>
      </trkpt>
      <trkpt lat="48.61649" lon="2.00437">
        <ele>119.1</ele>
        <time>2023-09-03T10:07:57Z</time>
      </trkpt>
      <trkpt lat="48.61643" lon="2.00424">
        <ele>119.1</ele>
        <time>2023-09-03T10:07:59Z</time>
      </trkpt>
      <trkpt lat="48.61638" lon="2.0041">
        <ele>118.8</ele>
        <time>2023-09-03T10:08:01Z</time>
      </trkpt>
      <trkpt lat="48.61632" lon="2.00398">
        <ele>118.7</ele>
        <time>2023-09-03T10:08:03Z</time>
      </trkpt>
      <trkpt lat="48.61627" lon="2.00384">
        <ele>118.8</ele>
        <time>2023-09-03T10:08:05Z</time>
      </trkpt>
      <trkpt lat="48.61623" lon="2.00367">
        <ele>118.7</ele>
        <time>2023-09-03T10:08:07Z</time>
      </trkpt>
      <trkpt lat="48.61618" lon="2.00351">
        <ele>118.7</ele>
        <time>2023-09-03T10:08:09Z</time>
      </trkpt>
      <trkpt lat="48.61614" lon="2.00338">
        <ele>118.9</ele>
        <time>2023-09-03T10:08:11Z</time>
      </trkpt>
      <trkpt lat="48.61611" lon="2.00323">
        <ele>119</ele>
        <time>2023-09-03T10:08:13Z</time>
      </trkpt>
      <trkpt lat="48.61606" lon="2.00307">
        <ele>119.3</ele>
        <time>2023-09-03T10:08:15Z</time>
      </trkpt>
      <trkpt lat="48.61603" lon="2.0029">
        <ele>119.6</ele>
        <time>2023-09-03T10:08:18Z</time>
      </trkpt>
      <trkpt lat="48.61597" lon="2.00276">
        <ele>120</ele>
        <time>2023-09-03T10:08:22Z</time>
      </trkpt>
      <trkpt lat="48.61591" lon="2.00286">
        <ele>120.5</ele>
        <time>2023-09-03T10:08:30Z</time>
      </trkpt>
      <trkpt lat="48.61587" lon="2.00299">
        <ele>120.7</ele>
        <time>2023-09-03T10:08:34Z</time>
      </trkpt>
      <trkpt lat="48.61584" lon="2.00314">
        <ele>120.9</ele>
        <time>2023-09-03T10:08:39Z</time>
      </trkpt>
      <trkpt lat="48.61578" lon="2.00327">
        <ele>121.4</ele>
        <time>2023-09-03T10:08:44Z</time>
      </trkpt>
      <trkpt lat="48.61568" lon="2.00325">
        <ele>122.1</ele>
        <time>2023-09-03T10:08:50Z</time>
      </trkpt>
      <trkpt lat="48.61561" lon="2.00315">
        <ele>122.6</ele>
        <time>2023-09-03T10:08:54Z</time>
      </trkpt>
      <trkpt lat="48.61554" lon="2.00305">
        <ele>123</ele>
        <time>2023-09-03T10:08:58Z</time>
      </trkpt>
      <trkpt lat="48.61546" lon="2.00295">
        <ele>123.1</ele>
        <time>2023-09-03T10:09:01Z</time>
      </trkpt>
      <trkpt lat="48.61538" lon="2.00283">
        <ele>123.3</ele>
        <time>2023-09-03T10:09:04Z</time>
      </trkpt>
      <trkpt lat="48.61531" lon="2.00273">
        <ele>123.5</ele>
        <time>2023-09-03T10:09:07Z</time>
      </trkpt>
      <trkpt lat="48.61523" lon="2.00258">
        <ele>122.7</ele>
        <time>2023-09-03T10:09:10Z</time>
      </trkpt>
      <trkpt lat="48.61514" lon="2.00243">
        <ele>122.3</ele>
        <time>2023-09-03T10:09:13Z</time>
      </trkpt>
      <trkpt lat="48.61507" lon="2.00233">
        <ele>122.2</ele>
        <time>2023-09-03T10:09:15Z</time>
      </trkpt>
      <trkpt lat="48.61497" lon="2.00218">
        <ele>121.9</ele>
        <time>2023-09-03T10:09:17Z</time>
      </trkpt>
      <trkpt lat="48.61488" lon="2.00206">
        <ele>121.5</ele>
        <time>2023-09-03T10:09:19Z</time>
      </trkpt>
      <trkpt lat="48.61482" lon="2.00194">
        <ele>121.3</ele>
        <time>2023-09-03T10:09:21Z</time>
      </trkpt>
      <trkpt lat="48.61474" lon="2.00181">
        <ele>120.9</ele>
        <time>2023-09-03T10:09:24Z</time>
      </trkpt>
      <trkpt lat="48.61468" lon="2.0017">
        <ele>120.6</ele>
        <time>2023-09-03T10:09:26Z</time>
      </trkpt>
      <trkpt lat="48.61459" lon="2.00158">
        <ele>120.7</ele>
        <time>2023-09-03T10:09:29Z</time>
      </trkpt>
      <trkpt lat="48.61451" lon="2.0015">
        <ele>120.6</ele>
        <time>2023-09-03T10:09:31Z</time>
      </trkpt>
      <trkpt lat="48.61443" lon="2.00143">
        <ele>120.4</ele>
        <time>2023-09-03T10:09:34Z</time>
      </trkpt>
      <trkpt lat="48.61436" lon="2.00134">
        <ele>120.5</ele>
        <time>2023-09-03T10:09:37Z</time>
      </trkpt>
      <trkpt lat="48.61427" lon="2.0013">
        <ele>121</ele>
        <time>2023-09-03T10:09:40Z</time>
      </trkpt>
      <trkpt lat="48.61418" lon="2.00135">
        <ele>121.8</ele>
        <time>2023-09-03T10:09:45Z</time>
      </trkpt>
      <trkpt lat="48.61409" lon="2.00145">
        <ele>122.9</ele>
        <time>2023-09-03T10:09:53Z</time>
      </trkpt>
      <trkpt lat="48.61402" lon="2.00154">
        <ele>123.8</ele>
        <time>2023-09-03T10:09:59Z</time>
      </trkpt>
      <trkpt lat="48.61394" lon="2.00161">
        <ele>124.6</ele>
        <time>2023-09-03T10:10:06Z</time>
      </trkpt>
      <trkpt lat="48.61386" lon="2.00169">
        <ele>125.4</ele>
        <time>2023-09-03T10:10:12Z</time>
      </trkpt>
      <trkpt lat="48.61378" lon="2.00178">
        <ele>126.4</ele>
        <time>2023-09-03T10:10:19Z</time>
      </trkpt>
      <trkpt lat="48.61369" lon="2.00187">
        <ele>127.4</ele>
        <time>2023-09-03T10:10:25Z</time>
      </trkpt>
      <trkpt lat="48.61362" lon="2.00195">
        <ele>128</ele>
        <time>2023-09-03T10:10:31Z</time>
      </trkpt>
      <trkpt lat="48.61356" lon="2.00206">
        <ele>129.2</ele>
        <time>2023-09-03T10:10:38Z</time>
      </trkpt>
      <trkpt lat="48.61349" lon="2.00213">
        <ele>130.2</ele>
        <time>2023-09-03T10:10:44Z</time>
      </trkpt>
      <trkpt lat="48.61341" lon="2.00223">
        <ele>131.5</ele>
        <time>2023-09-03T10:10:54Z</time>
      </trkpt>
      <trkpt lat="48.61333" lon="2.00232">
        <ele>133</ele>
        <time>2023-09-03T10:11:03Z</time>
      </trkpt>
      <trkpt lat="48.61324" lon="2.00236">
        <ele>134.5</ele>
        <time>2023-09-03T10:11:12Z</time>
      </trkpt>
      <trkpt lat="48.61314" lon="2.00237">
        <ele>135.7</ele>
        <time>2023-09-03T10:11:19Z</time>
      </trkpt>
      <trkpt lat="48.61304" lon="2.00234">
        <ele>136.5</ele>
        <time>2023-09-03T10:11:27Z</time>
      </trkpt>
      <trkpt lat="48.61296" lon="2.0024">
        <ele>138.1</ele>
        <time>2023-09-03T10:11:42Z</time>
      </trkpt>
      <trkpt lat="48.61287" lon="2.00244">
        <ele>139.5</ele>
        <time>2023-09-03T10:12:34Z</time>
      </trkpt>
      <trkpt lat="48.61279" lon="2.00238">
        <ele>140</ele>
        <time>2023-09-03T10:12:43Z</time>
      </trkpt>
      <trkpt lat="48.61271" lon="2.00231">
        <ele>140.6</ele>
        <time>2023-09-03T10:12:50Z</time>
      </trkpt>
      <trkpt lat="48.61263" lon="2.00224">
        <ele>141.2</ele>
        <time>2023-09-03T10:12:59Z</time>
      </trkpt>
      <trkpt lat="48.61254" lon="2.00219">
        <ele>142.1</ele>
        <time>2023-09-03T10:13:08Z</time>
      </trkpt>
      <trkpt lat="48.61246" lon="2.00212">
        <ele>142.7</ele>
        <time>2023-09-03T10:13:17Z</time>
      </trkpt>
      <trkpt lat="48.61237" lon="2.00213">
        <ele>143.8</ele>
        <time>2023-09-03T10:13:27Z</time>
      </trkpt>
      <trkpt lat="48.6123" lon="2.00221">
        <ele>145.1</ele>
        <time>2023-09-03T10:13:38Z</time>
      </trkpt>
      <trkpt lat="48.61222" lon="2.00231">
        <ele>146.7</ele>
        <time>2023-09-03T10:13:47Z</time>
      </trkpt>
      <trkpt lat="48.61213" lon="2.00237">
        <ele>147.9</ele>
        <time>2023-09-03T10:13:54Z</time>
      </trkpt>
      <trkpt lat="48.61204" lon="2.00244">
        <ele>149</ele>
        <time>2023-09-03T10:14:01Z</time>
      </trkpt>
      <trkpt lat="48.61195" lon="2.0025">
        <ele>149.9</ele>
        <time>2023-09-03T10:14:08Z</time>
      </trkpt>
      <trkpt lat="48.61185" lon="2.00255">
        <ele>150.5</ele>
        <time>2023-09-03T10:14:14Z</time>
      </trkpt>
      <trkpt lat="48.61176" lon="2.00262">
        <ele>151.1</ele>
        <time>2023-09-03T10:14:20Z</time>
      </trkpt>
      <trkpt lat="48.61167" lon="2.0027">
        <ele>151.7</ele>
        <time>2023-09-03T10:14:25Z</time>
      </trkpt>
      <trkpt lat="48.61158" lon="2.00274">
        <ele>152.2</ele>
        <time>2023-09-03T10:14:30Z</time>
      </trkpt>
      <trkpt lat="48.61149" lon="2.00279">
        <ele>152.6</ele>
        <time>2023-09-03T10:14:35Z</time>
      </trkpt>
      <trkpt lat="48.6114" lon="2.00273">
        <ele>152.8</ele>
        <time>2023-09-03T10:14:41Z</time>
      </trkpt>
      <trkpt lat="48.61132" lon="2.00282">
        <ele>153</ele>
        <time>2023-09-03T10:14:48Z</time>
      </trkpt>
      <trkpt lat="48.61124" lon="2.00288">
        <ele>152.8</ele>
        <time>2023-09-03T10:14:58Z</time>
      </trkpt>
      <trkpt lat="48.61113" lon="2.00291">
        <ele>152.5</ele>
        <time>2023-09-03T10:15:32Z</time>
      </trkpt>
      <trkpt lat="48.61103" lon="2.00295">
        <ele>152.3</ele>
        <time>2023-09-03T10:15:37Z</time>
      </trkpt>
      <trkpt lat="48.61093" lon="2.00302">
        <ele>152.1</ele>
        <time>2023-09-03T10:15:41Z</time>
      </trkpt>
      <trkpt lat="48.61082" lon="2.00309">
        <ele>152</ele>
        <time>2023-09-03T10:15:45Z</time>
      </trkpt>
      <trkpt lat="48.61073" lon="2.00316">
        <ele>152</ele>
        <time>2023-09-03T10:15:48Z</time>
      </trkpt>
      <trkpt lat="48.61064" lon="2.00323">
        <ele>152</ele>
        <time>2023-09-03T10:15:51Z</time>
      </trkpt>
      <trkpt lat="48.61055" lon="2.00328">
        <ele>152</ele>
        <time>2023-09-03T10:15:54Z</time>
      </trkpt>
      <trkpt lat="48.61043" lon="2.00334">
        <ele>152</ele>
        <time>2023-09-03T10:15:57Z</time>
      </trkpt>
      <trkpt lat="48.61032" lon="2.00341">
        <ele>152</ele>
        <time>2023-09-03T10:16:00Z</time>
      </trkpt>
      <trkpt lat="48.61021" lon="2.00349">
        <ele>152.2</ele>
        <time>2023-09-03T10:16:03Z</time>
      </trkpt>
      <trkpt lat="48.6101" lon="2.0036">
        <ele>152.6</ele>
        <time>2023-09-03T10:16:06Z</time>
      </trkpt>
      <trkpt lat="48.61" lon="2.00367">
        <ele>152.8</ele>
        <time>2023-09-03T10:16:09Z</time>
      </trkpt>
      <trkpt lat="48.6099" lon="2.00374">
        <ele>152.7</ele>
        <time>2023-09-03T10:16:12Z</time>
      </trkpt>
      <trkpt lat="48.60979" lon="2.00381">
        <ele>152.8</ele>
        <time>2023-09-03T10:16:15Z</time>
      </trkpt>
      <trkpt lat="48.60969" lon="2.00387">
        <ele>153</ele>
        <time>2023-09-03T10:16:18Z</time>
      </trkpt>
      <trkpt lat="48.60959" lon="2.00394">
        <ele>152.8</ele>
        <time>2023-09-03T10:16:21Z</time>
      </trkpt>
      <trkpt lat="48.6095" lon="2.00399">
        <ele>152.6</ele>
        <time>2023-09-03T10:16:23Z</time>
      </trkpt>
      <trkpt lat="48.60941" lon="2.00403">
        <ele>152.4</ele>
        <time>2023-09-03T10:16:25Z</time>
      </trkpt>
      <trkpt lat="48.60931" lon="2.00406">
        <ele>152.2</ele>
        <time>2023-09-03T10:16:27Z</time>
      </trkpt>
      <trkpt lat="48.60921" lon="2.00407">
        <ele>152.1</ele>
        <time>2023-09-03T10:16:29Z</time>
      </trkpt>
      <trkpt lat="48.60909" lon="2.0041">
        <ele>152</ele>
        <time>2023-09-03T10:16:31Z</time>
      </trkpt>
      <trkpt lat="48.60897" lon="2.00413">
        <ele>152</ele>
        <time>2023-09-03T10:16:33Z</time>
      </trkpt>
      <trkpt lat="48.60885" lon="2.00416">
        <ele>151.9</ele>
        <time>2023-09-03T10:16:35Z</time>
      </trkpt>
      <trkpt lat="48.60873" lon="2.0042">
        <ele>151.3</ele>
        <time>2023-09-03T10:16:37Z</time>
      </trkpt>
      <trkpt lat="48.60861" lon="2.00423">
        <ele>150.8</ele>
        <time>2023-09-03T10:16:39Z</time>
      </trkpt>
      <trkpt lat="48.60849" lon="2.00426">
        <ele>150.5</ele>
        <time>2023-09-03T10:16:41Z</time>
      </trkpt>
      <trkpt lat="48.60838" lon="2.00432">
        <ele>150</ele>
        <time>2023-09-03T10:16:43Z</time>
      </trkpt>
      <trkpt lat="48.60828" lon="2.00437">
        <ele>149.8</ele>
        <time>2023-09-03T10:16:45Z</time>
      </trkpt>
      <trkpt lat="48.60819" lon="2.00442">
        <ele>149.7</ele>
        <time>2023-09-03T10:16:47Z</time>
      </trkpt>
      <trkpt lat="48.6081" lon="2.0045">
        <ele>149.4</ele>
        <time>2023-09-03T10:16:49Z</time>
      </trkpt>
      <trkpt lat="48.608" lon="2.00462">
        <ele>149.2</ele>
        <time>2023-09-03T10:16:52Z</time>
      </trkpt>
      <trkpt lat="48.60792" lon="2.00481">
        <ele>148.9</ele>
        <time>2023-09-03T10:16:54Z</time>
      </trkpt>
      <trkpt lat="48.60787" lon="2.00498">
        <ele>148.4</ele>
        <time>2023-09-03T10:16:56Z</time>
      </trkpt>
      <trkpt lat="48.60785" lon="2.00515">
        <ele>148.1</ele>
        <time>2023-09-03T10:16:58Z</time>
      </trkpt>
      <trkpt lat="48.60782" lon="2.00531">
        <ele>148</ele>
        <time>2023-09-03T10:17:00Z</time>
      </trkpt>
      <trkpt lat="48.60781" lon="2.00549">
        <ele>147.6</ele>
        <time>2023-09-03T10:17:02Z</time>
      </trkpt>
      <trkpt lat="48.60779" lon="2.00567">
        <ele>146.9</ele>
        <time>2023-09-03T10:17:04Z</time>
      </trkpt>
      <trkpt lat="48.6078" lon="2.00584">
        <ele>145.5</ele>
        <time>2023-09-03T10:17:06Z</time>
      </trkpt>
      <trkpt lat="48.60778" lon="2.00599">
        <ele>144.8</ele>
        <time>2023-09-03T10:17:08Z</time>
      </trkpt>
      <trkpt lat="48.60775" lon="2.00613">
        <ele>143.6</ele>
        <time>2023-09-03T10:17:10Z</time>
      </trkpt>
      <trkpt lat="48.60774" lon="2.00629">
        <ele>142.3</ele>
        <time>2023-09-03T10:17:12Z</time>
      </trkpt>
      <trkpt lat="48.6077" lon="2.00643">
        <ele>140.9</ele>
        <time>2023-09-03T10:17:14Z</time>
      </trkpt>
      <trkpt lat="48.60761" lon="2.00653">
        <ele>139.3</ele>
        <time>2023-09-03T10:17:16Z</time>
      </trkpt>
      <trkpt lat="48.60747" lon="2.00658">
        <ele>137.9</ele>
        <time>2023-09-03T10:17:18Z</time>
      </trkpt>
      <trkpt lat="48.60738" lon="2.00651">
        <ele>136.6</ele>
        <time>2023-09-03T10:17:19Z</time>
      </trkpt>
      <trkpt lat="48.60727" lon="2.00654">
        <ele>134.8</ele>
        <time>2023-09-03T10:17:21Z</time>
      </trkpt>
      <trkpt lat="48.60713" lon="2.00657">
        <ele>132.6</ele>
        <time>2023-09-03T10:17:23Z</time>
      </trkpt>
      <trkpt lat="48.60701" lon="2.0066">
        <ele>130.8</ele>
        <time>2023-09-03T10:17:25Z</time>
      </trkpt>
      <trkpt lat="48.60687" lon="2.00662">
        <ele>128.8</ele>
        <time>2023-09-03T10:17:27Z</time>
      </trkpt>
      <trkpt lat="48.60673" lon="2.00665">
        <ele>126.8</ele>
        <time>2023-09-03T10:17:29Z</time>
      </trkpt>
      <trkpt lat="48.60656" lon="2.00664">
        <ele>124.7</ele>
        <time>2023-09-03T10:17:31Z</time>
      </trkpt>
      <trkpt lat="48.60646" lon="2.00665">
        <ele>123.7</ele>
        <time>2023-09-03T10:17:32Z</time>
      </trkpt>
      <trkpt lat="48.60637" lon="2.00665">
        <ele>122.9</ele>
        <time>2023-09-03T10:17:33Z</time>
      </trkpt>
      <trkpt lat="48.6062" lon="2.00669">
        <ele>122.3</ele>
        <time>2023-09-03T10:17:35Z</time>
      </trkpt>
      <trkpt lat="48.60605" lon="2.00674">
        <ele>121.5</ele>
        <time>2023-09-03T10:17:37Z</time>
      </trkpt>
      <trkpt lat="48.6059" lon="2.00679">
        <ele>120.8</ele>
        <time>2023-09-03T10:17:39Z</time>
      </trkpt>
      <trkpt lat="48.60578" lon="2.00681">
        <ele>120.1</ele>
        <time>2023-09-03T10:17:41Z</time>
      </trkpt>
      <trkpt lat="48.60565" lon="2.00676">
        <ele>119.4</ele>
        <time>2023-09-03T10:17:43Z</time>
      </trkpt>
      <trkpt lat="48.60554" lon="2.00669">
        <ele>118.8</ele>
        <time>2023-09-03T10:17:45Z</time>
      </trkpt>
      <trkpt lat="48.60543" lon="2.00662">
        <ele>118.1</ele>
        <time>2023-09-03T10:17:47Z</time>
      </trkpt>
      <trkpt lat="48.60532" lon="2.00656">
        <ele>117.3</ele>
        <time>2023-09-03T10:17:49Z</time>
      </trkpt>
      <trkpt lat="48.60519" lon="2.00654">
        <ele>116.2</ele>
        <time>2023-09-03T10:17:51Z</time>
      </trkpt>
      <trkpt lat="48.60503" lon="2.00654">
        <ele>114.7</ele>
        <time>2023-09-03T10:17:53Z</time>
      </trkpt>
      <trkpt lat="48.60488" lon="2.00653">
        <ele>114.1</ele>
        <time>2023-09-03T10:17:55Z</time>
      </trkpt>
      <trkpt lat="48.60472" lon="2.00655">
        <ele>113.4</ele>
        <time>2023-09-03T10:17:57Z</time>
      </trkpt>
      <trkpt lat="48.60455" lon="2.00659">
        <ele>112.5</ele>
        <time>2023-09-03T10:17:59Z</time>
      </trkpt>
      <trkpt lat="48.60441" lon="2.0066">
        <ele>111.9</ele>
        <time>2023-09-03T10:18:01Z</time>
      </trkpt>
      <trkpt lat="48.60428" lon="2.00664">
        <ele>111.4</ele>
        <time>2023-09-03T10:18:03Z</time>
      </trkpt>
      <trkpt lat="48.60416" lon="2.00671">
        <ele>111</ele>
        <time>2023-09-03T10:18:05Z</time>
      </trkpt>
      <trkpt lat="48.60402" lon="2.00673">
        <ele>111</ele>
        <time>2023-09-03T10:18:07Z</time>
      </trkpt>
      <trkpt lat="48.60387" lon="2.00676">
        <ele>111</ele>
        <time>2023-09-03T10:18:09Z</time>
      </trkpt>
      <trkpt lat="48.60375" lon="2.00678">
        <ele>111</ele>
        <time>2023-09-03T10:18:11Z</time>
      </trkpt>
      <trkpt lat="48.60363" lon="2.00683">
        <ele>111</ele>
        <time>2023-09-03T10:18:13Z</time>
      </trkpt>
      <trkpt lat="48.60353" lon="2.00687">
        <ele>111</ele>
        <time>2023-09-03T10:18:15Z</time>
      </trkpt>
      <trkpt lat="48.60341" lon="2.00694">
        <ele>111</ele>
        <time>2023-09-03T10:18:18Z</time>
      </trkpt>
      <trkpt lat="48.60332" lon="2.00698">
        <ele>110.8</ele>
        <time>2023-09-03T10:18:24Z</time>
      </trkpt>
      <trkpt lat="48.60323" lon="2.00703">
        <ele>110.3</ele>
        <time>2023-09-03T10:18:28Z</time>
      </trkpt>
      <trkpt lat="48.60314" lon="2.00693">
        <ele>110.3</ele>
        <time>2023-09-03T10:18:31Z</time>
      </trkpt>
      <trkpt lat="48.60308" lon="2.00679">
        <ele>110.1</ele>
        <time>2023-09-03T10:18:34Z</time>
      </trkpt>
      <trkpt lat="48.60306" lon="2.00665">
        <ele>110.1</ele>
        <time>2023-09-03T10:18:36Z</time>
      </trkpt>
      <trkpt lat="48.60301" lon="2.00654">
        <ele>110.2</ele>
        <time>2023-09-03T10:18:38Z</time>
      </trkpt>
      <trkpt lat="48.60295" lon="2.00643">
        <ele>110.2</ele>
        <time>2023-09-03T10:18:40Z</time>
      </trkpt>
      <trkpt lat="48.60287" lon="2.00627">
        <ele>109.9</ele>
        <time>2023-09-03T10:18:43Z</time>
      </trkpt>
      <trkpt lat="48.60281" lon="2.00615">
        <ele>110</ele>
        <time>2023-09-03T10:18:45Z</time>
      </trkpt>
      <trkpt lat="48.60275" lon="2.00596">
        <ele>109.9</ele>
        <time>2023-09-03T10:18:48Z</time>
      </trkpt>
      <trkpt lat="48.6027" lon="2.00584">
        <ele>109.7</ele>
        <time>2023-09-03T10:18:50Z</time>
      </trkpt>
      <trkpt lat="48.60268" lon="2.00568">
        <ele>109.7</ele>
        <time>2023-09-03T10:18:52Z</time>
      </trkpt>
      <trkpt lat="48.60265" lon="2.00548">
        <ele>109.5</ele>
        <time>2023-09-03T10:18:55Z</time>
      </trkpt>
      <trkpt lat="48.60263" lon="2.00534">
        <ele>109.5</ele>
        <time>2023-09-03T10:18:57Z</time>
      </trkpt>
      <trkpt lat="48.6026" lon="2.00519">
        <ele>109.1</ele>
        <time>2023-09-03T10:18:59Z</time>
      </trkpt>
      <trkpt lat="48.6026" lon="2.00505">
        <ele>108.5</ele>
        <time>2023-09-03T10:19:01Z</time>
      </trkpt>
      <trkpt lat="48.60257" lon="2.00487">
        <ele>107.8</ele>
        <time>2023-09-03T10:19:03Z</time>
      </trkpt>
      <trkpt lat="48.60255" lon="2.00467">
        <ele>106.8</ele>
        <time>2023-09-03T10:19:05Z</time>
      </trkpt>
      <trkpt lat="48.60253" lon="2.00448">
        <ele>105.4</ele>
        <time>2023-09-03T10:19:07Z</time>
      </trkpt>
      <trkpt lat="48.60249" lon="2.00429">
        <ele>105</ele>
        <time>2023-09-03T10:19:09Z</time>
      </trkpt>
      <trkpt lat="48.60245" lon="2.00409">
        <ele>104.5</ele>
        <time>2023-09-03T10:19:11Z</time>
      </trkpt>
      <trkpt lat="48.60241" lon="2.00389">
        <ele>103.7</ele>
        <time>2023-09-03T10:19:13Z</time>
      </trkpt>
      <trkpt lat="48.60231" lon="2.00371">
        <ele>102.7</ele>
        <time>2023-09-03T10:19:15Z</time>
      </trkpt>
      <trkpt lat="48.60223" lon="2.00352">
        <ele>101.7</ele>
        <time>2023-09-03T10:19:17Z</time>
      </trkpt>
      <trkpt lat="48.60213" lon="2.00334">
        <ele>100.4</ele>
        <time>2023-09-03T10:19:19Z</time>
      </trkpt>
      <trkpt lat="48.60202" lon="2.00316">
        <ele>98.7</ele>
        <time>2023-09-03T10:19:21Z</time>
      </trkpt>
      <trkpt lat="48.60191" lon="2.00304">
        <ele>97.8</ele>
        <time>2023-09-03T10:19:23Z</time>
      </trkpt>
      <trkpt lat="48.60176" lon="2.003">
        <ele>97.1</ele>
        <time>2023-09-03T10:19:25Z</time>
      </trkpt>
      <trkpt lat="48.60161" lon="2.00299">
        <ele>96.4</ele>
        <time>2023-09-03T10:19:27Z</time>
      </trkpt>
      <trkpt lat="48.60146" lon="2.003">
        <ele>95.3</ele>
        <time>2023-09-03T10:19:29Z</time>
      </trkpt>
      <trkpt lat="48.60133" lon="2.003">
        <ele>94.6</ele>
        <time>2023-09-03T10:19:31Z</time>
      </trkpt>
      <trkpt lat="48.60121" lon="2.00298">
        <ele>94.1</ele>
        <time>2023-09-03T10:19:34Z</time>
      </trkpt>
      <trkpt lat="48.60113" lon="2.00305">
        <ele>94</ele>
        <time>2023-09-03T10:19:37Z</time>
      </trkpt>
      <trkpt lat="48.60103" lon="2.0031">
        <ele>94.1</ele>
        <time>2023-09-03T10:19:47Z</time>
      </trkpt>
      <trkpt lat="48.60093" lon="2.00303">
        <ele>93.9</ele>
        <time>2023-09-03T10:19:50Z</time>
      </trkpt>
      <trkpt lat="48.60085" lon="2.00292">
        <ele>93.5</ele>
        <time>2023-09-03T10:19:52Z</time>
      </trkpt>
      <trkpt lat="48.60077" lon="2.00285">
        <ele>93</ele>
        <time>2023-09-03T10:19:54Z</time>
      </trkpt>
      <trkpt lat="48.60067" lon="2.00276">
        <ele>92.4</ele>
        <time>2023-09-03T10:19:56Z</time>
      </trkpt>
      <trkpt lat="48.60058" lon="2.00267">
        <ele>92</ele>
        <time>2023-09-03T10:19:58Z</time>
      </trkpt>
      <trkpt lat="48.60049" lon="2.00258">
        <ele>92</ele>
        <time>2023-09-03T10:20:00Z</time>
      </trkpt>
      <trkpt lat="48.60039" lon="2.00251">
        <ele>92</ele>
        <time>2023-09-03T10:20:02Z</time>
      </trkpt>
      <trkpt lat="48.60029" lon="2.00243">
        <ele>92</ele>
        <time>2023-09-03T10:20:04Z</time>
      </trkpt>
      <trkpt lat="48.6002" lon="2.00234">
        <ele>91.9</ele>
        <time>2023-09-03T10:20:06Z</time>
      </trkpt>
      <trkpt lat="48.6001" lon="2.00225">
        <ele>91.9</ele>
        <time>2023-09-03T10:20:08Z</time>
      </trkpt>
      <trkpt lat="48.59999" lon="2.00217">
        <ele>91.8</ele>
        <time>2023-09-03T10:20:10Z</time>
      </trkpt>
      <trkpt lat="48.59989" lon="2.00209">
        <ele>91.7</ele>
        <time>2023-09-03T10:20:12Z</time>
      </trkpt>
      <trkpt lat="48.59979" lon="2.00199">
        <ele>91.8</ele>
        <time>2023-09-03T10:20:14Z</time>
      </trkpt>
      <trkpt lat="48.5997" lon="2.00193">
        <ele>92.1</ele>
        <time>2023-09-03T10:20:16Z</time>
      </trkpt>
      <trkpt lat="48.59962" lon="2.00185">
        <ele>92.4</ele>
        <time>2023-09-03T10:20:18Z</time>
      </trkpt>
      <trkpt lat="48.59953" lon="2.00179">
        <ele>92.7</ele>
        <time>2023-09-03T10:20:20Z</time>
      </trkpt>
      <trkpt lat="48.59945" lon="2.00173">
        <ele>93</ele>
        <time>2023-09-03T10:20:22Z</time>
      </trkpt>
      <trkpt lat="48.59937" lon="2.00166">
        <ele>93</ele>
        <time>2023-09-03T10:20:24Z</time>
      </trkpt>
      <trkpt lat="48.59927" lon="2.00155">
        <ele>92.9</ele>
        <time>2023-09-03T10:20:27Z</time>
      </trkpt>
      <trkpt lat="48.59919" lon="2.00149">
        <ele>93</ele>
        <time>2023-09-03T10:20:29Z</time>
      </trkpt>
      <trkpt lat="48.59911" lon="2.00141">
        <ele>93.2</ele>
        <time>2023-09-03T10:20:31Z</time>
      </trkpt>
      <trkpt lat="48.59901" lon="2.00129">
        <ele>93.8</ele>
        <time>2023-09-03T10:20:34Z</time>
      </trkpt>
      <trkpt lat="48.59891" lon="2.00117">
        <ele>94.7</ele>
        <time>2023-09-03T10:20:37Z</time>
      </trkpt>
      <trkpt lat="48.59881" lon="2.00105">
        <ele>95.1</ele>
        <time>2023-09-03T10:20:40Z</time>
      </trkpt>
      <trkpt lat="48.59874" lon="2.00096">
        <ele>95.3</ele>
        <time>2023-09-03T10:20:42Z</time>
      </trkpt>
      <trkpt lat="48.59867" lon="2.00088">
        <ele>95.7</ele>
        <time>2023-09-03T10:20:44Z</time>
      </trkpt>
      <trkpt lat="48.59857" lon="2.00075">
        <ele>96.3</ele>
        <time>2023-09-03T10:20:47Z</time>
      </trkpt>
      <trkpt lat="48.59848" lon="2.00064">
        <ele>96.7</ele>
        <time>2023-09-03T10:20:50Z</time>
      </trkpt>
      <trkpt lat="48.59839" lon="2.00052">
        <ele>97.2</ele>
        <time>2023-09-03T10:20:53Z</time>
      </trkpt>
      <trkpt lat="48.59831" lon="2.00041">
        <ele>98</ele>
        <time>2023-09-03T10:20:56Z</time>
      </trkpt>
      <trkpt lat="48.59822" lon="2.0003">
        <ele>98.9</ele>
        <time>2023-09-03T10:20:59Z</time>
      </trkpt>
      <trkpt lat="48.59813" lon="2.00017">
        <ele>99.4</ele>
        <time>2023-09-03T10:21:02Z</time>
      </trkpt>
      <trkpt lat="48.59805" lon="2.00007">
        <ele>99.7</ele>
        <time>2023-09-03T10:21:05Z</time>
      </trkpt>
      <trkpt lat="48.59797" lon="1.99997">
        <ele>99.8</ele>
        <time>2023-09-03T10:21:08Z</time>
      </trkpt>
      <trkpt lat="48.59788" lon="1.99987">
        <ele>100.1</ele>
        <time>2023-09-03T10:21:11Z</time>
      </trkpt>
      <trkpt lat="48.5978" lon="1.99977">
        <ele>100.7</ele>
        <time>2023-09-03T10:21:14Z</time>
      </trkpt>
      <trkpt lat="48.59773" lon="1.99967">
        <ele>100.8</ele>
        <time>2023-09-03T10:21:17Z</time>
      </trkpt>
      <trkpt lat="48.59765" lon="1.99957">
        <ele>100.6</ele>
        <time>2023-09-03T10:21:20Z</time>
      </trkpt>
      <trkpt lat="48.59756" lon="1.99948">
        <ele>100.3</ele>
        <time>2023-09-03T10:21:23Z</time>
      </trkpt>
      <trkpt lat="48.59748" lon="1.99939">
        <ele>100.1</ele>
        <time>2023-09-03T10:21:26Z</time>
      </trkpt>
      <trkpt lat="48.5974" lon="1.9993">
        <ele>100.2</ele>
        <time>2023-09-03T10:21:29Z</time>
      </trkpt>
      <trkpt lat="48.59733" lon="1.9992">
        <ele>100.3</ele>
        <time>2023-09-03T10:21:32Z</time>
      </trkpt>
      <trkpt lat="48.59725" lon="1.99909">
        <ele>100.4</ele>
        <time>2023-09-03T10:21:35Z</time>
      </trkpt>
      <trkpt lat="48.59717" lon="1.99898">
        <ele>100.5</ele>
        <time>2023-09-03T10:21:38Z</time>
      </trkpt>
      <trkpt lat="48.59708" lon="1.99887">
        <ele>100.6</ele>
        <time>2023-09-03T10:21:41Z</time>
      </trkpt>
      <trkpt lat="48.597" lon="1.99876">
        <ele>100.6</ele>
        <time>2023-09-03T10:21:44Z</time>
      </trkpt>
      <trkpt lat="48.59691" lon="1.99867">
        <ele>100.8</ele>
        <time>2023-09-03T10:21:47Z</time>
      </trkpt>
      <trkpt lat="48.59679" lon="1.99862">
        <ele>101</ele>
        <time>2023-09-03T10:21:50Z</time>
      </trkpt>
      <trkpt lat="48.5967" lon="1.99851">
        <ele>101.4</ele>
        <time>2023-09-03T10:21:53Z</time>
      </trkpt>
      <trkpt lat="48.5966" lon="1.99843">
        <ele>101.6</ele>
        <time>2023-09-03T10:21:57Z</time>
      </trkpt>
      <trkpt lat="48.5965" lon="1.99842">
        <ele>101.7</ele>
        <time>2023-09-03T10:22:00Z</time>
      </trkpt>
      <trkpt lat="48.59642" lon="1.99832">
        <ele>102</ele>
        <time>2023-09-03T10:22:03Z</time>
      </trkpt>
      <trkpt lat="48.59635" lon="1.99823">
        <ele>102</ele>
        <time>2023-09-03T10:22:06Z</time>
      </trkpt>
      <trkpt lat="48.59626" lon="1.99816">
        <ele>102</ele>
        <time>2023-09-03T10:22:09Z</time>
      </trkpt>
      <trkpt lat="48.5962" lon="1.99806">
        <ele>102</ele>
        <time>2023-09-03T10:22:13Z</time>
      </trkpt>
      <trkpt lat="48.59613" lon="1.99794">
        <ele>102.4</ele>
        <time>2023-09-03T10:22:19Z</time>
      </trkpt>
      <trkpt lat="48.59604" lon="1.99786">
        <ele>102.8</ele>
        <time>2023-09-03T10:22:23Z</time>
      </trkpt>
      <trkpt lat="48.59596" lon="1.99777">
        <ele>103</ele>
        <time>2023-09-03T10:22:27Z</time>
      </trkpt>
      <trkpt lat="48.59588" lon="1.99766">
        <ele>103.4</ele>
        <time>2023-09-03T10:22:33Z</time>
      </trkpt>
      <trkpt lat="48.59579" lon="1.99769">
        <ele>103.3</ele>
        <time>2023-09-03T10:22:36Z</time>
      </trkpt>
      <trkpt lat="48.59569" lon="1.99775">
        <ele>103.1</ele>
        <time>2023-09-03T10:22:39Z</time>
      </trkpt>
      <trkpt lat="48.59561" lon="1.99785">
        <ele>103</ele>
        <time>2023-09-03T10:22:41Z</time>
      </trkpt>
      <trkpt lat="48.59556" lon="1.99798">
        <ele>103</ele>
        <time>2023-09-03T10:22:43Z</time>
      </trkpt>
      <trkpt lat="48.59551" lon="1.99814">
        <ele>102.7</ele>
        <time>2023-09-03T10:22:45Z</time>
      </trkpt>
      <trkpt lat="48.59546" lon="1.99825">
        <ele>102.3</ele>
        <time>2023-09-03T10:22:47Z</time>
      </trkpt>
      <trkpt lat="48.59537" lon="1.99835">
        <ele>101.9</ele>
        <time>2023-09-03T10:22:49Z</time>
      </trkpt>
      <trkpt lat="48.59527" lon="1.99848">
        <ele>101.5</ele>
        <time>2023-09-03T10:22:51Z</time>
      </trkpt>
      <trkpt lat="48.5952" lon="1.99861">
        <ele>101</ele>
        <time>2023-09-03T10:22:53Z</time>
      </trkpt>
      <trkpt lat="48.59515" lon="1.99877">
        <ele>101</ele>
        <time>2023-09-03T10:22:55Z</time>
      </trkpt>
      <trkpt lat="48.59508" lon="1.9989">
        <ele>101</ele>
        <time>2023-09-03T10:22:57Z</time>
      </trkpt>
      <trkpt lat="48.59504" lon="1.99904">
        <ele>100.9</ele>
        <time>2023-09-03T10:22:59Z</time>
      </trkpt>
      <trkpt lat="48.59499" lon="1.99916">
        <ele>101.1</ele>
        <time>2023-09-03T10:23:01Z</time>
      </trkpt>
      <trkpt lat="48.59491" lon="1.99932">
        <ele>101.5</ele>
        <time>2023-09-03T10:23:04Z</time>
      </trkpt>
      <trkpt lat="48.59483" lon="1.99946">
        <ele>102.2</ele>
        <time>2023-09-03T10:23:07Z</time>
      </trkpt>
      <trkpt lat="48.59472" lon="1.99943">
        <ele>103</ele>
        <time>2023-09-03T10:23:10Z</time>
      </trkpt>
      <trkpt lat="48.59464" lon="1.99935">
        <ele>103.1</ele>
        <time>2023-09-03T10:23:13Z</time>
      </trkpt>
      <trkpt lat="48.59456" lon="1.99925">
        <ele>103.3</ele>
        <time>2023-09-03T10:23:16Z</time>
      </trkpt>
      <trkpt lat="48.59445" lon="1.99917">
        <ele>104</ele>
        <time>2023-09-03T10:23:19Z</time>
      </trkpt>
      <trkpt lat="48.59436" lon="1.99907">
        <ele>104.3</ele>
        <time>2023-09-03T10:23:22Z</time>
      </trkpt>
      <trkpt lat="48.59427" lon="1.99895">
        <ele>104.6</ele>
        <time>2023-09-03T10:23:25Z</time>
      </trkpt>
      <trkpt lat="48.5942" lon="1.99885">
        <ele>104.9</ele>
        <time>2023-09-03T10:23:29Z</time>
      </trkpt>
      <trkpt lat="48.59413" lon="1.99876">
        <ele>105</ele>
        <time>2023-09-03T10:23:32Z</time>
      </trkpt>
      <trkpt lat="48.59405" lon="1.99869">
        <ele>105</ele>
        <time>2023-09-03T10:23:35Z</time>
      </trkpt>
      <trkpt lat="48.59393" lon="1.9986">
        <ele>105</ele>
        <time>2023-09-03T10:23:38Z</time>
      </trkpt>
      <trkpt lat="48.59386" lon="1.99852">
        <ele>105.1</ele>
        <time>2023-09-03T10:23:40Z</time>
      </trkpt>
      <trkpt lat="48.59378" lon="1.99844">
        <ele>105.2</ele>
        <time>2023-09-03T10:23:42Z</time>
      </trkpt>
      <trkpt lat="48.59369" lon="1.99834">
        <ele>105</ele>
        <time>2023-09-03T10:23:45Z</time>
      </trkpt>
      <trkpt lat="48.5936" lon="1.99825">
        <ele>105.3</ele>
        <time>2023-09-03T10:23:48Z</time>
      </trkpt>
      <trkpt lat="48.59352" lon="1.99815">
        <ele>105.4</ele>
        <time>2023-09-03T10:23:51Z</time>
      </trkpt>
      <trkpt lat="48.59344" lon="1.99807">
        <ele>105.4</ele>
        <time>2023-09-03T10:23:54Z</time>
      </trkpt>
      <trkpt lat="48.59334" lon="1.99797">
        <ele>105.3</ele>
        <time>2023-09-03T10:23:58Z</time>
      </trkpt>
      <trkpt lat="48.59325" lon="1.99786">
        <ele>105.7</ele>
        <time>2023-09-03T10:24:01Z</time>
      </trkpt>
      <trkpt lat="48.59316" lon="1.99776">
        <ele>106</ele>
        <time>2023-09-03T10:24:04Z</time>
      </trkpt>
      <trkpt lat="48.59306" lon="1.99764">
        <ele>106</ele>
        <time>2023-09-03T10:24:07Z</time>
      </trkpt>
      <trkpt lat="48.59297" lon="1.99752">
        <ele>106</ele>
        <time>2023-09-03T10:24:10Z</time>
      </trkpt>
      <trkpt lat="48.59297" lon="1.99737">
        <ele>106.5</ele>
        <time>2023-09-03T10:24:14Z</time>
      </trkpt>
      <trkpt lat="48.59305" lon="1.99728">
        <ele>106.8</ele>
        <time>2023-09-03T10:24:19Z</time>
      </trkpt>
      <trkpt lat="48.59309" lon="1.99716">
        <ele>107.3</ele>
        <time>2023-09-03T10:24:22Z</time>
      </trkpt>
      <trkpt lat="48.59314" lon="1.99701">
        <ele>108</ele>
        <time>2023-09-03T10:24:25Z</time>
      </trkpt>
      <trkpt lat="48.59321" lon="1.9969">
        <ele>108.8</ele>
        <time>2023-09-03T10:24:31Z</time>
      </trkpt>
      <trkpt lat="48.59326" lon="1.99678">
        <ele>109.5</ele>
        <time>2023-09-03T10:24:37Z</time>
      </trkpt>
      <trkpt lat="48.59328" lon="1.99664">
        <ele>110.1</ele>
        <time>2023-09-03T10:24:41Z</time>
      </trkpt>
      <trkpt lat="48.59331" lon="1.9965">
        <ele>110.7</ele>
        <time>2023-09-03T10:24:46Z</time>
      </trkpt>
      <trkpt lat="48.59337" lon="1.99637">
        <ele>111</ele>
        <time>2023-09-03T10:24:52Z</time>
      </trkpt>
      <trkpt lat="48.5934" lon="1.99624">
        <ele>111.6</ele>
        <time>2023-09-03T10:24:58Z</time>
      </trkpt>
      <trkpt lat="48.59345" lon="1.9961">
        <ele>111.8</ele>
        <time>2023-09-03T10:25:04Z</time>
      </trkpt>
      <trkpt lat="48.59349" lon="1.99595">
        <ele>111.6</ele>
        <time>2023-09-03T10:25:09Z</time>
      </trkpt>
      <trkpt lat="48.59356" lon="1.99583">
        <ele>111.4</ele>
        <time>2023-09-03T10:25:12Z</time>
      </trkpt>
      <trkpt lat="48.59362" lon="1.99572">
        <ele>110.9</ele>
        <time>2023-09-03T10:25:14Z</time>
      </trkpt>
      <trkpt lat="48.59371" lon="1.99559">
        <ele>110.3</ele>
        <time>2023-09-03T10:25:16Z</time>
      </trkpt>
      <trkpt lat="48.59376" lon="1.99545">
        <ele>110.2</ele>
        <time>2023-09-03T10:25:17Z</time>
      </trkpt>
      <trkpt lat="48.59382" lon="1.99532">
        <ele>110.1</ele>
        <time>2023-09-03T10:25:19Z</time>
      </trkpt>
      <trkpt lat="48.59387" lon="1.9952">
        <ele>110.3</ele>
        <time>2023-09-03T10:25:21Z</time>
      </trkpt>
      <trkpt lat="48.59391" lon="1.99505">
        <ele>110.8</ele>
        <time>2023-09-03T10:25:23Z</time>
      </trkpt>
      <trkpt lat="48.59391" lon="1.99491">
        <ele>111</ele>
        <time>2023-09-03T10:25:27Z</time>
      </trkpt>
      <trkpt lat="48.59387" lon="1.99477">
        <ele>111.1</ele>
        <time>2023-09-03T10:25:33Z</time>
      </trkpt>
      <trkpt lat="48.5938" lon="1.99466">
        <ele>111.5</ele>
        <time>2023-09-03T10:25:37Z</time>
      </trkpt>
      <trkpt lat="48.59373" lon="1.99457">
        <ele>112.1</ele>
        <time>2023-09-03T10:25:41Z</time>
      </trkpt>
      <trkpt lat="48.59366" lon="1.99449">
        <ele>112.7</ele>
        <time>2023-09-03T10:25:45Z</time>
      </trkpt>
      <trkpt lat="48.59356" lon="1.9944">
        <ele>113.3</ele>
        <time>2023-09-03T10:25:51Z</time>
      </trkpt>
      <trkpt lat="48.5935" lon="1.9943">
        <ele>113.9</ele>
        <time>2023-09-03T10:25:55Z</time>
      </trkpt>
      <trkpt lat="48.59342" lon="1.99418">
        <ele>114.6</ele>
        <time>2023-09-03T10:25:59Z</time>
      </trkpt>
      <trkpt lat="48.59336" lon="1.99406">
        <ele>115.3</ele>
        <time>2023-09-03T10:26:03Z</time>
      </trkpt>
      <trkpt lat="48.59329" lon="1.99396">
        <ele>116.1</ele>
        <time>2023-09-03T10:26:07Z</time>
      </trkpt>
      <trkpt lat="48.59323" lon="1.99385">
        <ele>116.9</ele>
        <time>2023-09-03T10:26:11Z</time>
      </trkpt>
      <trkpt lat="48.59314" lon="1.99376">
        <ele>117.8</ele>
        <time>2023-09-03T10:26:15Z</time>
      </trkpt>
      <trkpt lat="48.59306" lon="1.99364">
        <ele>118.9</ele>
        <time>2023-09-03T10:26:19Z</time>
      </trkpt>
      <trkpt lat="48.59299" lon="1.99354">
        <ele>119.2</ele>
        <time>2023-09-03T10:26:22Z</time>
      </trkpt>
      <trkpt lat="48.59291" lon="1.99344">
        <ele>119.5</ele>
        <time>2023-09-03T10:26:25Z</time>
      </trkpt>
      <trkpt lat="48.59282" lon="1.99334">
        <ele>119.8</ele>
        <time>2023-09-03T10:26:28Z</time>
      </trkpt>
      <trkpt lat="48.59275" lon="1.99324">
        <ele>120</ele>
        <time>2023-09-03T10:26:31Z</time>
      </trkpt>
      <trkpt lat="48.59266" lon="1.99316">
        <ele>120</ele>
        <time>2023-09-03T10:26:34Z</time>
      </trkpt>
      <trkpt lat="48.59258" lon="1.99306">
        <ele>120</ele>
        <time>2023-09-03T10:26:37Z</time>
      </trkpt>
      <trkpt lat="48.5925" lon="1.99296">
        <ele>120</ele>
        <time>2023-09-03T10:26:40Z</time>
      </trkpt>
      <trkpt lat="48.59242" lon="1.99284">
        <ele>119.4</ele>
        <time>2023-09-03T10:26:43Z</time>
      </trkpt>
      <trkpt lat="48.59234" lon="1.99273">
        <ele>119</ele>
        <time>2023-09-03T10:26:45Z</time>
      </trkpt>
      <trkpt lat="48.59227" lon="1.99261">
        <ele>118.8</ele>
        <time>2023-09-03T10:26:47Z</time>
      </trkpt>
      <trkpt lat="48.59217" lon="1.99247">
        <ele>118.7</ele>
        <time>2023-09-03T10:26:50Z</time>
      </trkpt>
      <trkpt lat="48.5921" lon="1.99238">
        <ele>118.3</ele>
        <time>2023-09-03T10:26:52Z</time>
      </trkpt>
      <trkpt lat="48.59202" lon="1.99228">
        <ele>118.1</ele>
        <time>2023-09-03T10:26:54Z</time>
      </trkpt>
      <trkpt lat="48.59193" lon="1.9922">
        <ele>117.9</ele>
        <time>2023-09-03T10:26:56Z</time>
      </trkpt>
      <trkpt lat="48.59185" lon="1.9921">
        <ele>117.5</ele>
        <time>2023-09-03T10:26:58Z</time>
      </trkpt>
      <trkpt lat="48.59174" lon="1.99195">
        <ele>117.3</ele>
        <time>2023-09-03T10:27:00Z</time>
      </trkpt>
      <trkpt lat="48.59166" lon="1.99187">
        <ele>117</ele>
        <time>2023-09-03T10:27:02Z</time>
      </trkpt>
      <trkpt lat="48.59156" lon="1.99179">
        <ele>116.2</ele>
        <time>2023-09-03T10:27:04Z</time>
      </trkpt>
      <trkpt lat="48.59145" lon="1.99171">
        <ele>115.4</ele>
        <time>2023-09-03T10:27:06Z</time>
      </trkpt>
      <trkpt lat="48.59133" lon="1.99163">
        <ele>114.9</ele>
        <time>2023-09-03T10:27:08Z</time>
      </trkpt>
      <trkpt lat="48.59123" lon="1.99154">
        <ele>114.6</ele>
        <time>2023-09-03T10:27:10Z</time>
      </trkpt>
      <trkpt lat="48.59112" lon="1.99147">
        <ele>114</ele>
        <time>2023-09-03T10:27:12Z</time>
      </trkpt>
      <trkpt lat="48.591" lon="1.99138">
        <ele>113.6</ele>
        <time>2023-09-03T10:27:14Z</time>
      </trkpt>
      <trkpt lat="48.5909" lon="1.99135">
        <ele>113.2</ele>
        <time>2023-09-03T10:27:16Z</time>
      </trkpt>
      <trkpt lat="48.59082" lon="1.99125">
        <ele>113</ele>
        <time>2023-09-03T10:27:19Z</time>
      </trkpt>
      <trkpt lat="48.59079" lon="1.99108">
        <ele>112.7</ele>
        <time>2023-09-03T10:27:22Z</time>
      </trkpt>
      <trkpt lat="48.59087" lon="1.99099">
        <ele>112.7</ele>
        <time>2023-09-03T10:27:25Z</time>
      </trkpt>
      <trkpt lat="48.59095" lon="1.99091">
        <ele>113</ele>
        <time>2023-09-03T10:27:28Z</time>
      </trkpt>
      <trkpt lat="48.59103" lon="1.99083">
        <ele>113.4</ele>
        <time>2023-09-03T10:27:31Z</time>
      </trkpt>
      <trkpt lat="48.59112" lon="1.99072">
        <ele>113.6</ele>
        <time>2023-09-03T10:27:35Z</time>
      </trkpt>
      <trkpt lat="48.5912" lon="1.99064">
        <ele>113.8</ele>
        <time>2023-09-03T10:27:38Z</time>
      </trkpt>
      <trkpt lat="48.59127" lon="1.99055">
        <ele>114.1</ele>
        <time>2023-09-03T10:27:41Z</time>
      </trkpt>
      <trkpt lat="48.59134" lon="1.99047">
        <ele>114.7</ele>
        <time>2023-09-03T10:27:44Z</time>
      </trkpt>
      <trkpt lat="48.59144" lon="1.99037">
        <ele>115.6</ele>
        <time>2023-09-03T10:27:48Z</time>
      </trkpt>
      <trkpt lat="48.59155" lon="1.99029">
        <ele>116.7</ele>
        <time>2023-09-03T10:27:52Z</time>
      </trkpt>
      <trkpt lat="48.59164" lon="1.99019">
        <ele>117.5</ele>
        <time>2023-09-03T10:27:56Z</time>
      </trkpt>
      <trkpt lat="48.59172" lon="1.9901">
        <ele>117.7</ele>
        <time>2023-09-03T10:28:00Z</time>
      </trkpt>
      <trkpt lat="48.59179" lon="1.99001">
        <ele>117.9</ele>
        <time>2023-09-03T10:28:04Z</time>
      </trkpt>
      <trkpt lat="48.59188" lon="1.98994">
        <ele>118.1</ele>
        <time>2023-09-03T10:28:08Z</time>
      </trkpt>
      <trkpt lat="48.59196" lon="1.98987">
        <ele>118</ele>
        <time>2023-09-03T10:28:12Z</time>
      </trkpt>
      <trkpt lat="48.59203" lon="1.98977">
        <ele>117</ele>
        <time>2023-09-03T10:28:16Z</time>
      </trkpt>
      <trkpt lat="48.59206" lon="1.98965">
        <ele>116.4</ele>
        <time>2023-09-03T10:28:19Z</time>
      </trkpt>
      <trkpt lat="48.59211" lon="1.98952">
        <ele>116.2</ele>
        <time>2023-09-03T10:28:22Z</time>
      </trkpt>
      <trkpt lat="48.59218" lon="1.98938">
        <ele>116.7</ele>
        <time>2023-09-03T10:28:26Z</time>
      </trkpt>
      <trkpt lat="48.59222" lon="1.98925">
        <ele>117</ele>
        <time>2023-09-03T10:28:29Z</time>
      </trkpt>
      <trkpt lat="48.59228" lon="1.98913">
        <ele>117.6</ele>
        <time>2023-09-03T10:28:32Z</time>
      </trkpt>
      <trkpt lat="48.59235" lon="1.98899">
        <ele>118.1</ele>
        <time>2023-09-03T10:28:35Z</time>
      </trkpt>
      <trkpt lat="48.59245" lon="1.98888">
        <ele>118.6</ele>
        <time>2023-09-03T10:28:38Z</time>
      </trkpt>
      <trkpt lat="48.59257" lon="1.9888">
        <ele>118.8</ele>
        <time>2023-09-03T10:28:41Z</time>
      </trkpt>
      <trkpt lat="48.59268" lon="1.98873">
        <ele>118.7</ele>
        <time>2023-09-03T10:28:44Z</time>
      </trkpt>
      <trkpt lat="48.59279" lon="1.98866">
        <ele>118.4</ele>
        <time>2023-09-03T10:28:47Z</time>
      </trkpt>
      <trkpt lat="48.59289" lon="1.98861">
        <ele>118.4</ele>
        <time>2023-09-03T10:28:50Z</time>
      </trkpt>
      <trkpt lat="48.59299" lon="1.98857">
        <ele>118.5</ele>
        <time>2023-09-03T10:28:53Z</time>
      </trkpt>
      <trkpt lat="48.59311" lon="1.98853">
        <ele>118.3</ele>
        <time>2023-09-03T10:28:56Z</time>
      </trkpt>
      <trkpt lat="48.59324" lon="1.98849">
        <ele>117.7</ele>
        <time>2023-09-03T10:28:59Z</time>
      </trkpt>
      <trkpt lat="48.59336" lon="1.98843">
        <ele>117.3</ele>
        <time>2023-09-03T10:29:02Z</time>
      </trkpt>
      <trkpt lat="48.59348" lon="1.98838">
        <ele>117.2</ele>
        <time>2023-09-03T10:29:05Z</time>
      </trkpt>
      <trkpt lat="48.59361" lon="1.98832">
        <ele>116.9</ele>
        <time>2023-09-03T10:29:08Z</time>
      </trkpt>
      <trkpt lat="48.59369" lon="1.98827">
        <ele>117.1</ele>
        <time>2023-09-03T10:29:10Z</time>
      </trkpt>
      <trkpt lat="48.59379" lon="1.98827">
        <ele>117.4</ele>
        <time>2023-09-03T10:29:12Z</time>
      </trkpt>
      <trkpt lat="48.59388" lon="1.98831">
        <ele>117.9</ele>
        <time>2023-09-03T10:29:14Z</time>
      </trkpt>
      <trkpt lat="48.59398" lon="1.98832">
        <ele>118.3</ele>
        <time>2023-09-03T10:29:17Z</time>
      </trkpt>
      <trkpt lat="48.59409" lon="1.98829">
        <ele>118.6</ele>
        <time>2023-09-03T10:29:20Z</time>
      </trkpt>
      <trkpt lat="48.59419" lon="1.98826">
        <ele>118.8</ele>
        <time>2023-09-03T10:29:23Z</time>
      </trkpt>
      <trkpt lat="48.59429" lon="1.98824">
        <ele>119.1</ele>
        <time>2023-09-03T10:29:26Z</time>
      </trkpt>
      <trkpt lat="48.59438" lon="1.98823">
        <ele>119.4</ele>
        <time>2023-09-03T10:29:29Z</time>
      </trkpt>
      <trkpt lat="48.59448" lon="1.98821">
        <ele>119.7</ele>
        <time>2023-09-03T10:29:33Z</time>
      </trkpt>
      <trkpt lat="48.59459" lon="1.9882">
        <ele>120</ele>
        <time>2023-09-03T10:29:37Z</time>
      </trkpt>
      <trkpt lat="48.59469" lon="1.98819">
        <ele>120.4</ele>
        <time>2023-09-03T10:29:41Z</time>
      </trkpt>
      <trkpt lat="48.5948" lon="1.98814">
        <ele>120.9</ele>
        <time>2023-09-03T10:29:46Z</time>
      </trkpt>
      <trkpt lat="48.59491" lon="1.98813">
        <ele>121.6</ele>
        <time>2023-09-03T10:29:51Z</time>
      </trkpt>
      <trkpt lat="48.59502" lon="1.98809">
        <ele>122.2</ele>
        <time>2023-09-03T10:29:56Z</time>
      </trkpt>
      <trkpt lat="48.59511" lon="1.98805">
        <ele>122.4</ele>
        <time>2023-09-03T10:30:00Z</time>
      </trkpt>
      <trkpt lat="48.59522" lon="1.98803">
        <ele>122.8</ele>
        <time>2023-09-03T10:30:05Z</time>
      </trkpt>
      <trkpt lat="48.59531" lon="1.98802">
        <ele>123.1</ele>
        <time>2023-09-03T10:30:09Z</time>
      </trkpt>
      <trkpt lat="48.5954" lon="1.98803">
        <ele>123.4</ele>
        <time>2023-09-03T10:30:14Z</time>
      </trkpt>
      <trkpt lat="48.5955" lon="1.98805">
        <ele>123.8</ele>
        <time>2023-09-03T10:30:19Z</time>
      </trkpt>
      <trkpt lat="48.59559" lon="1.98802">
        <ele>124</ele>
        <time>2023-09-03T10:30:24Z</time>
      </trkpt>
      <trkpt lat="48.5957" lon="1.988">
        <ele>124.2</ele>
        <time>2023-09-03T10:30:30Z</time>
      </trkpt>
      <trkpt lat="48.59579" lon="1.98798">
        <ele>124.3</ele>
        <time>2023-09-03T10:30:34Z</time>
      </trkpt>
      <trkpt lat="48.59568" lon="1.988">
        <ele>124.2</ele>
        <time>2023-09-03T10:31:16Z</time>
      </trkpt>
      <trkpt lat="48.59558" lon="1.98801">
        <ele>123.9</ele>
        <time>2023-09-03T10:31:19Z</time>
      </trkpt>
      <trkpt lat="48.59548" lon="1.98803">
        <ele>123.6</ele>
        <time>2023-09-03T10:31:23Z</time>
      </trkpt>
      <trkpt lat="48.59538" lon="1.98801">
        <ele>123.3</ele>
        <time>2023-09-03T10:31:41Z</time>
      </trkpt>
      <trkpt lat="48.59528" lon="1.988">
        <ele>123</ele>
        <time>2023-09-03T10:31:45Z</time>
      </trkpt>
      <trkpt lat="48.59517" lon="1.988">
        <ele>122.5</ele>
        <time>2023-09-03T10:31:48Z</time>
      </trkpt>
      <trkpt lat="48.59506" lon="1.98801">
        <ele>122.1</ele>
        <time>2023-09-03T10:31:51Z</time>
      </trkpt>
      <trkpt lat="48.59497" lon="1.98803">
        <ele>121.7</ele>
        <time>2023-09-03T10:31:57Z</time>
      </trkpt>
      <trkpt lat="48.59486" lon="1.98802">
        <ele>120.9</ele>
        <time>2023-09-03T10:32:09Z</time>
      </trkpt>
      <trkpt lat="48.59476" lon="1.98802">
        <ele>120.3</ele>
        <time>2023-09-03T10:32:12Z</time>
      </trkpt>
      <trkpt lat="48.59466" lon="1.98801">
        <ele>119.8</ele>
        <time>2023-09-03T10:32:15Z</time>
      </trkpt>
      <trkpt lat="48.59454" lon="1.98802">
        <ele>119.2</ele>
        <time>2023-09-03T10:32:18Z</time>
      </trkpt>
      <trkpt lat="48.59442" lon="1.98806">
        <ele>118.9</ele>
        <time>2023-09-03T10:32:21Z</time>
      </trkpt>
      <trkpt lat="48.59433" lon="1.98807">
        <ele>118.6</ele>
        <time>2023-09-03T10:32:24Z</time>
      </trkpt>
      <trkpt lat="48.59422" lon="1.98806">
        <ele>118.2</ele>
        <time>2023-09-03T10:32:28Z</time>
      </trkpt>
      <trkpt lat="48.5941" lon="1.98809">
        <ele>117.9</ele>
        <time>2023-09-03T10:32:31Z</time>
      </trkpt>
      <trkpt lat="48.59398" lon="1.98811">
        <ele>117.5</ele>
        <time>2023-09-03T10:32:34Z</time>
      </trkpt>
      <trkpt lat="48.59387" lon="1.98814">
        <ele>117.3</ele>
        <time>2023-09-03T10:32:37Z</time>
      </trkpt>
      <trkpt lat="48.59375" lon="1.98818">
        <ele>117</ele>
        <time>2023-09-03T10:32:40Z</time>
      </trkpt>
      <trkpt lat="48.59363" lon="1.98825">
        <ele>116.8</ele>
        <time>2023-09-03T10:32:43Z</time>
      </trkpt>
      <trkpt lat="48.59351" lon="1.98832">
        <ele>116.9</ele>
        <time>2023-09-03T10:32:46Z</time>
      </trkpt>
      <trkpt lat="48.59339" lon="1.98837">
        <ele>117.1</ele>
        <time>2023-09-03T10:32:49Z</time>
      </trkpt>
      <trkpt lat="48.59329" lon="1.98841">
        <ele>117.3</ele>
        <time>2023-09-03T10:32:52Z</time>
      </trkpt>
      <trkpt lat="48.59319" lon="1.98845">
        <ele>117.6</ele>
        <time>2023-09-03T10:32:55Z</time>
      </trkpt>
      <trkpt lat="48.59308" lon="1.98848">
        <ele>118</ele>
        <time>2023-09-03T10:32:58Z</time>
      </trkpt>
      <trkpt lat="48.59296" lon="1.98854">
        <ele>118.2</ele>
        <time>2023-09-03T10:33:01Z</time>
      </trkpt>
      <trkpt lat="48.59284" lon="1.98858">
        <ele>118.1</ele>
        <time>2023-09-03T10:33:04Z</time>
      </trkpt>
      <trkpt lat="48.59272" lon="1.98865">
        <ele>118.3</ele>
        <time>2023-09-03T10:33:07Z</time>
      </trkpt>
      <trkpt lat="48.59261" lon="1.98871">
        <ele>118.5</ele>
        <time>2023-09-03T10:33:10Z</time>
      </trkpt>
      <trkpt lat="48.5925" lon="1.9888">
        <ele>118.7</ele>
        <time>2023-09-03T10:33:13Z</time>
      </trkpt>
      <trkpt lat="48.59241" lon="1.98888">
        <ele>118.3</ele>
        <time>2023-09-03T10:33:16Z</time>
      </trkpt>
      <trkpt lat="48.59233" lon="1.98898">
        <ele>117.9</ele>
        <time>2023-09-03T10:33:19Z</time>
      </trkpt>
      <trkpt lat="48.59226" lon="1.98911">
        <ele>117.4</ele>
        <time>2023-09-03T10:33:22Z</time>
      </trkpt>
      <trkpt lat="48.5922" lon="1.98926">
        <ele>116.9</ele>
        <time>2023-09-03T10:33:25Z</time>
      </trkpt>
      <trkpt lat="48.59214" lon="1.9894">
        <ele>116.4</ele>
        <time>2023-09-03T10:33:28Z</time>
      </trkpt>
      <trkpt lat="48.59207" lon="1.98954">
        <ele>116.1</ele>
        <time>2023-09-03T10:33:31Z</time>
      </trkpt>
      <trkpt lat="48.59201" lon="1.98969">
        <ele>116.6</ele>
        <time>2023-09-03T10:33:34Z</time>
      </trkpt>
      <trkpt lat="48.59196" lon="1.9898">
        <ele>117.5</ele>
        <time>2023-09-03T10:33:37Z</time>
      </trkpt>
      <trkpt lat="48.59203" lon="1.98972">
        <ele>116.7</ele>
        <time>2023-09-03T10:33:53Z</time>
      </trkpt>
      <trkpt lat="48.59195" lon="1.98961">
        <ele>116.2</ele>
        <time>2023-09-03T10:33:58Z</time>
      </trkpt>
      <trkpt lat="48.59189" lon="1.98948">
        <ele>115.3</ele>
        <time>2023-09-03T10:34:02Z</time>
      </trkpt>
      <trkpt lat="48.5918" lon="1.98937">
        <ele>114.9</ele>
        <time>2023-09-03T10:34:06Z</time>
      </trkpt>
      <trkpt lat="48.59175" lon="1.98916">
        <ele>114.3</ele>
        <time>2023-09-03T10:34:09Z</time>
      </trkpt>
      <trkpt lat="48.5917" lon="1.98902">
        <ele>113.7</ele>
        <time>2023-09-03T10:34:11Z</time>
      </trkpt>
      <trkpt lat="48.59163" lon="1.98891">
        <ele>113.1</ele>
        <time>2023-09-03T10:34:13Z</time>
      </trkpt>
      <trkpt lat="48.59155" lon="1.98882">
        <ele>112.9</ele>
        <time>2023-09-03T10:34:15Z</time>
      </trkpt>
      <trkpt lat="48.59148" lon="1.98874">
        <ele>112.6</ele>
        <time>2023-09-03T10:34:17Z</time>
      </trkpt>
      <trkpt lat="48.59141" lon="1.98865">
        <ele>112.2</ele>
        <time>2023-09-03T10:34:19Z</time>
      </trkpt>
      <trkpt lat="48.59133" lon="1.98856">
        <ele>112</ele>
        <time>2023-09-03T10:34:21Z</time>
      </trkpt>
      <trkpt lat="48.59124" lon="1.98845">
        <ele>112</ele>
        <time>2023-09-03T10:34:24Z</time>
      </trkpt>
      <trkpt lat="48.59116" lon="1.98834">
        <ele>112</ele>
        <time>2023-09-03T10:34:27Z</time>
      </trkpt>
      <trkpt lat="48.59108" lon="1.98823">
        <ele>111.9</ele>
        <time>2023-09-03T10:34:30Z</time>
      </trkpt>
      <trkpt lat="48.591" lon="1.98813">
        <ele>111.6</ele>
        <time>2023-09-03T10:34:32Z</time>
      </trkpt>
      <trkpt lat="48.59092" lon="1.98803">
        <ele>111.3</ele>
        <time>2023-09-03T10:34:34Z</time>
      </trkpt>
      <trkpt lat="48.59083" lon="1.98793">
        <ele>111</ele>
        <time>2023-09-03T10:34:36Z</time>
      </trkpt>
      <trkpt lat="48.59074" lon="1.98782">
        <ele>110.7</ele>
        <time>2023-09-03T10:34:38Z</time>
      </trkpt>
      <trkpt lat="48.59064" lon="1.9877">
        <ele>110.3</ele>
        <time>2023-09-03T10:34:40Z</time>
      </trkpt>
      <trkpt lat="48.59056" lon="1.98758">
        <ele>110</ele>
        <time>2023-09-03T10:34:42Z</time>
      </trkpt>
      <trkpt lat="48.59047" lon="1.98745">
        <ele>109.9</ele>
        <time>2023-09-03T10:34:44Z</time>
      </trkpt>
      <trkpt lat="48.59031" lon="1.98731">
        <ele>109.8</ele>
        <time>2023-09-03T10:34:45Z</time>
      </trkpt>
      <trkpt lat="48.5902" lon="1.98726">
        <ele>109.6</ele>
        <time>2023-09-03T10:34:47Z</time>
      </trkpt>
      <trkpt lat="48.59009" lon="1.98719">
        <ele>109.4</ele>
        <time>2023-09-03T10:34:49Z</time>
      </trkpt>
      <trkpt lat="48.59002" lon="1.98708">
        <ele>109.6</ele>
        <time>2023-09-03T10:34:51Z</time>
      </trkpt>
      <trkpt lat="48.5899" lon="1.98697">
        <ele>109.6</ele>
        <time>2023-09-03T10:34:53Z</time>
      </trkpt>
      <trkpt lat="48.58979" lon="1.98685">
        <ele>109.6</ele>
        <time>2023-09-03T10:34:55Z</time>
      </trkpt>
      <trkpt lat="48.58967" lon="1.98675">
        <ele>109.5</ele>
        <time>2023-09-03T10:34:57Z</time>
      </trkpt>
      <trkpt lat="48.58955" lon="1.98666">
        <ele>109.4</ele>
        <time>2023-09-03T10:34:59Z</time>
      </trkpt>
      <trkpt lat="48.58946" lon="1.98657">
        <ele>109.1</ele>
        <time>2023-09-03T10:35:01Z</time>
      </trkpt>
      <trkpt lat="48.58937" lon="1.98652">
        <ele>108.7</ele>
        <time>2023-09-03T10:35:03Z</time>
      </trkpt>
      <trkpt lat="48.58928" lon="1.98648">
        <ele>108.4</ele>
        <time>2023-09-03T10:35:05Z</time>
      </trkpt>
      <trkpt lat="48.58919" lon="1.98643">
        <ele>108.1</ele>
        <time>2023-09-03T10:35:07Z</time>
      </trkpt>
      <trkpt lat="48.58911" lon="1.98632">
        <ele>108.2</ele>
        <time>2023-09-03T10:35:09Z</time>
      </trkpt>
      <trkpt lat="48.58905" lon="1.98621">
        <ele>108.4</ele>
        <time>2023-09-03T10:35:11Z</time>
      </trkpt>
      <trkpt lat="48.58897" lon="1.98612">
        <ele>108.3</ele>
        <time>2023-09-03T10:35:13Z</time>
      </trkpt>
      <trkpt lat="48.58889" lon="1.98602">
        <ele>108</ele>
        <time>2023-09-03T10:35:15Z</time>
      </trkpt>
      <trkpt lat="48.58881" lon="1.98594">
        <ele>107.9</ele>
        <time>2023-09-03T10:35:17Z</time>
      </trkpt>
      <trkpt lat="48.58873" lon="1.98586">
        <ele>107.9</ele>
        <time>2023-09-03T10:35:19Z</time>
      </trkpt>
      <trkpt lat="48.58864" lon="1.98577">
        <ele>108</ele>
        <time>2023-09-03T10:35:21Z</time>
      </trkpt>
      <trkpt lat="48.58857" lon="1.98565">
        <ele>108</ele>
        <time>2023-09-03T10:35:23Z</time>
      </trkpt>
      <trkpt lat="48.58849" lon="1.98557">
        <ele>108</ele>
        <time>2023-09-03T10:35:25Z</time>
      </trkpt>
      <trkpt lat="48.58841" lon="1.98547">
        <ele>108.1</ele>
        <time>2023-09-03T10:35:27Z</time>
      </trkpt>
      <trkpt lat="48.58833" lon="1.98538">
        <ele>108</ele>
        <time>2023-09-03T10:35:29Z</time>
      </trkpt>
      <trkpt lat="48.58825" lon="1.98527">
        <ele>108</ele>
        <time>2023-09-03T10:35:31Z</time>
      </trkpt>
      <trkpt lat="48.58817" lon="1.98518">
        <ele>108</ele>
        <time>2023-09-03T10:35:33Z</time>
      </trkpt>
      <trkpt lat="48.58808" lon="1.9851">
        <ele>108</ele>
        <time>2023-09-03T10:35:35Z</time>
      </trkpt>
      <trkpt lat="48.58799" lon="1.98501">
        <ele>107.8</ele>
        <time>2023-09-03T10:35:37Z</time>
      </trkpt>
      <trkpt lat="48.5879" lon="1.9849">
        <ele>107.6</ele>
        <time>2023-09-03T10:35:39Z</time>
      </trkpt>
      <trkpt lat="48.58781" lon="1.9848">
        <ele>107.8</ele>
        <time>2023-09-03T10:35:41Z</time>
      </trkpt>
      <trkpt lat="48.58773" lon="1.98467">
        <ele>107.8</ele>
        <time>2023-09-03T10:35:43Z</time>
      </trkpt>
      <trkpt lat="48.58764" lon="1.98455">
        <ele>107.5</ele>
        <time>2023-09-03T10:35:45Z</time>
      </trkpt>
      <trkpt lat="48.58754" lon="1.98443">
        <ele>107.2</ele>
        <time>2023-09-03T10:35:47Z</time>
      </trkpt>
      <trkpt lat="48.58746" lon="1.98431">
        <ele>106.9</ele>
        <time>2023-09-03T10:35:49Z</time>
      </trkpt>
      <trkpt lat="48.58736" lon="1.9842">
        <ele>106.9</ele>
        <time>2023-09-03T10:35:51Z</time>
      </trkpt>
      <trkpt lat="48.58726" lon="1.98408">
        <ele>107</ele>
        <time>2023-09-03T10:35:53Z</time>
      </trkpt>
      <trkpt lat="48.58715" lon="1.98396">
        <ele>106.7</ele>
        <time>2023-09-03T10:35:55Z</time>
      </trkpt>
      <trkpt lat="48.58704" lon="1.98382">
        <ele>106.4</ele>
        <time>2023-09-03T10:35:57Z</time>
      </trkpt>
      <trkpt lat="48.58695" lon="1.98371">
        <ele>106</ele>
        <time>2023-09-03T10:35:59Z</time>
      </trkpt>
      <trkpt lat="48.58685" lon="1.9836">
        <ele>106</ele>
        <time>2023-09-03T10:36:01Z</time>
      </trkpt>
      <trkpt lat="48.58674" lon="1.98351">
        <ele>106.1</ele>
        <time>2023-09-03T10:36:03Z</time>
      </trkpt>
      <trkpt lat="48.5866" lon="1.98349">
        <ele>105.9</ele>
        <time>2023-09-03T10:36:06Z</time>
      </trkpt>
      <trkpt lat="48.58648" lon="1.98346">
        <ele>105.6</ele>
        <time>2023-09-03T10:36:08Z</time>
      </trkpt>
      <trkpt lat="48.58635" lon="1.98347">
        <ele>105.5</ele>
        <time>2023-09-03T10:36:10Z</time>
      </trkpt>
      <trkpt lat="48.58623" lon="1.98349">
        <ele>105.5</ele>
        <time>2023-09-03T10:36:12Z</time>
      </trkpt>
      <trkpt lat="48.58611" lon="1.9835">
        <ele>105.6</ele>
        <time>2023-09-03T10:36:14Z</time>
      </trkpt>
      <trkpt lat="48.58599" lon="1.9835">
        <ele>105.6</ele>
        <time>2023-09-03T10:36:16Z</time>
      </trkpt>
      <trkpt lat="48.58588" lon="1.98352">
        <ele>105.7</ele>
        <time>2023-09-03T10:36:18Z</time>
      </trkpt>
      <trkpt lat="48.58577" lon="1.98353">
        <ele>105.8</ele>
        <time>2023-09-03T10:36:20Z</time>
      </trkpt>
      <trkpt lat="48.58566" lon="1.98356">
        <ele>105.9</ele>
        <time>2023-09-03T10:36:22Z</time>
      </trkpt>
      <trkpt lat="48.58557" lon="1.9836">
        <ele>106</ele>
        <time>2023-09-03T10:36:24Z</time>
      </trkpt>
      <trkpt lat="48.58548" lon="1.98368">
        <ele>106.2</ele>
        <time>2023-09-03T10:36:27Z</time>
      </trkpt>
      <trkpt lat="48.58539" lon="1.98361">
        <ele>106.6</ele>
        <time>2023-09-03T10:36:31Z</time>
      </trkpt>
      <trkpt lat="48.5853" lon="1.9835">
        <ele>106.9</ele>
        <time>2023-09-03T10:36:34Z</time>
      </trkpt>
      <trkpt lat="48.58523" lon="1.98335">
        <ele>106.8</ele>
        <time>2023-09-03T10:36:37Z</time>
      </trkpt>
      <trkpt lat="48.58525" lon="1.98316">
        <ele>106.3</ele>
        <time>2023-09-03T10:36:40Z</time>
      </trkpt>
      <trkpt lat="48.5853" lon="1.98303">
        <ele>106</ele>
        <time>2023-09-03T10:36:42Z</time>
      </trkpt>
      <trkpt lat="48.58534" lon="1.9829">
        <ele>106</ele>
        <time>2023-09-03T10:36:44Z</time>
      </trkpt>
      <trkpt lat="48.58537" lon="1.98277">
        <ele>106</ele>
        <time>2023-09-03T10:36:46Z</time>
      </trkpt>
      <trkpt lat="48.5854" lon="1.98263">
        <ele>106.5</ele>
        <time>2023-09-03T10:36:48Z</time>
      </trkpt>
      <trkpt lat="48.58544" lon="1.98247">
        <ele>107</ele>
        <time>2023-09-03T10:36:50Z</time>
      </trkpt>
      <trkpt lat="48.58548" lon="1.98232">
        <ele>107</ele>
        <time>2023-09-03T10:36:52Z</time>
      </trkpt>
      <trkpt lat="48.58552" lon="1.98217">
        <ele>107</ele>
        <time>2023-09-03T10:36:54Z</time>
      </trkpt>
      <trkpt lat="48.58556" lon="1.98203">
        <ele>107</ele>
        <time>2023-09-03T10:36:56Z</time>
      </trkpt>
      <trkpt lat="48.5856" lon="1.9819">
        <ele>107.2</ele>
        <time>2023-09-03T10:36:58Z</time>
      </trkpt>
      <trkpt lat="48.58566" lon="1.98179">
        <ele>107.6</ele>
        <time>2023-09-03T10:37:00Z</time>
      </trkpt>
      <trkpt lat="48.58572" lon="1.98166">
        <ele>108</ele>
        <time>2023-09-03T10:37:03Z</time>
      </trkpt>
      <trkpt lat="48.58576" lon="1.98151">
        <ele>108</ele>
        <time>2023-09-03T10:37:13Z</time>
      </trkpt>
      <trkpt lat="48.5858" lon="1.98135">
        <ele>108</ele>
        <time>2023-09-03T10:37:17Z</time>
      </trkpt>
      <trkpt lat="48.58584" lon="1.98119">
        <ele>108</ele>
        <time>2023-09-03T10:37:20Z</time>
      </trkpt>
      <trkpt lat="48.58586" lon="1.98102">
        <ele>107.9</ele>
        <time>2023-09-03T10:37:23Z</time>
      </trkpt>
      <trkpt lat="48.58589" lon="1.98088">
        <ele>107.8</ele>
        <time>2023-09-03T10:37:26Z</time>
      </trkpt>
      <trkpt lat="48.58585" lon="1.98075">
        <ele>108</ele>
        <time>2023-09-03T10:37:31Z</time>
      </trkpt>
      <trkpt lat="48.58575" lon="1.9807">
        <ele>108</ele>
        <time>2023-09-03T10:37:35Z</time>
      </trkpt>
      <trkpt lat="48.58566" lon="1.98063">
        <ele>108</ele>
        <time>2023-09-03T10:37:38Z</time>
      </trkpt>
      <trkpt lat="48.58554" lon="1.98059">
        <ele>108</ele>
        <time>2023-09-03T10:37:41Z</time>
      </trkpt>
      <trkpt lat="48.58542" lon="1.98051">
        <ele>108</ele>
        <time>2023-09-03T10:37:44Z</time>
      </trkpt>
      <trkpt lat="48.58534" lon="1.98043">
        <ele>108</ele>
        <time>2023-09-03T10:37:46Z</time>
      </trkpt>
      <trkpt lat="48.58526" lon="1.98035">
        <ele>108</ele>
        <time>2023-09-03T10:37:48Z</time>
      </trkpt>
      <trkpt lat="48.58517" lon="1.98029">
        <ele>108</ele>
        <time>2023-09-03T10:37:50Z</time>
      </trkpt>
      <trkpt lat="48.58508" lon="1.98016">
        <ele>108</ele>
        <time>2023-09-03T10:37:53Z</time>
      </trkpt>
      <trkpt lat="48.58496" lon="1.98008">
        <ele>108</ele>
        <time>2023-09-03T10:37:56Z</time>
      </trkpt>
      <trkpt lat="48.58485" lon="1.98001">
        <ele>108</ele>
        <time>2023-09-03T10:37:59Z</time>
      </trkpt>
      <trkpt lat="48.58478" lon="1.9799">
        <ele>108</ele>
        <time>2023-09-03T10:38:01Z</time>
      </trkpt>
      <trkpt lat="48.58469" lon="1.97984">
        <ele>108</ele>
        <time>2023-09-03T10:38:03Z</time>
      </trkpt>
      <trkpt lat="48.58461" lon="1.97977">
        <ele>108</ele>
        <time>2023-09-03T10:38:05Z</time>
      </trkpt>
      <trkpt lat="48.58454" lon="1.97964">
        <ele>108</ele>
        <time>2023-09-03T10:38:07Z</time>
      </trkpt>
      <trkpt lat="48.58443" lon="1.97952">
        <ele>108</ele>
        <time>2023-09-03T10:38:10Z</time>
      </trkpt>
      <trkpt lat="48.58436" lon="1.97939">
        <ele>108</ele>
        <time>2023-09-03T10:38:12Z</time>
      </trkpt>
      <trkpt lat="48.5843" lon="1.97928">
        <ele>108</ele>
        <time>2023-09-03T10:38:14Z</time>
      </trkpt>
      <trkpt lat="48.58424" lon="1.97914">
        <ele>108</ele>
        <time>2023-09-03T10:38:16Z</time>
      </trkpt>
      <trkpt lat="48.58416" lon="1.97905">
        <ele>108</ele>
        <time>2023-09-03T10:38:18Z</time>
      </trkpt>
      <trkpt lat="48.5841" lon="1.97894">
        <ele>108.2</ele>
        <time>2023-09-03T10:38:20Z</time>
      </trkpt>
      <trkpt lat="48.58402" lon="1.97879">
        <ele>108.7</ele>
        <time>2023-09-03T10:38:23Z</time>
      </trkpt>
      <trkpt lat="48.58394" lon="1.97869">
        <ele>108.9</ele>
        <time>2023-09-03T10:38:25Z</time>
      </trkpt>
      <trkpt lat="48.58387" lon="1.97859">
        <ele>109</ele>
        <time>2023-09-03T10:38:27Z</time>
      </trkpt>
      <trkpt lat="48.58376" lon="1.97846">
        <ele>109</ele>
        <time>2023-09-03T10:38:30Z</time>
      </trkpt>
      <trkpt lat="48.58367" lon="1.97833">
        <ele>109</ele>
        <time>2023-09-03T10:38:33Z</time>
      </trkpt>
      <trkpt lat="48.5836" lon="1.97824">
        <ele>109</ele>
        <time>2023-09-03T10:38:35Z</time>
      </trkpt>
      <trkpt lat="48.58353" lon="1.97814">
        <ele>109.2</ele>
        <time>2023-09-03T10:38:37Z</time>
      </trkpt>
      <trkpt lat="48.58346" lon="1.97804">
        <ele>109.6</ele>
        <time>2023-09-03T10:38:39Z</time>
      </trkpt>
      <trkpt lat="48.58339" lon="1.97794">
        <ele>109.9</ele>
        <time>2023-09-03T10:38:41Z</time>
      </trkpt>
      <trkpt lat="48.58333" lon="1.97782">
        <ele>110</ele>
        <time>2023-09-03T10:38:43Z</time>
      </trkpt>
      <trkpt lat="48.58327" lon="1.97771">
        <ele>110</ele>
        <time>2023-09-03T10:38:45Z</time>
      </trkpt>
      <trkpt lat="48.58319" lon="1.97756">
        <ele>110</ele>
        <time>2023-09-03T10:38:48Z</time>
      </trkpt>
      <trkpt lat="48.58314" lon="1.97741">
        <ele>109.7</ele>
        <time>2023-09-03T10:38:51Z</time>
      </trkpt>
      <trkpt lat="48.58306" lon="1.97724">
        <ele>109</ele>
        <time>2023-09-03T10:38:54Z</time>
      </trkpt>
      <trkpt lat="48.58299" lon="1.97706">
        <ele>109</ele>
        <time>2023-09-03T10:38:57Z</time>
      </trkpt>
      <trkpt lat="48.58293" lon="1.97694">
        <ele>109</ele>
        <time>2023-09-03T10:39:00Z</time>
      </trkpt>
      <trkpt lat="48.58289" lon="1.97679">
        <ele>109</ele>
        <time>2023-09-03T10:39:03Z</time>
      </trkpt>
      <trkpt lat="48.58278" lon="1.97667">
        <ele>109</ele>
        <time>2023-09-03T10:39:06Z</time>
      </trkpt>
      <trkpt lat="48.58271" lon="1.97652">
        <ele>109</ele>
        <time>2023-09-03T10:39:08Z</time>
      </trkpt>
      <trkpt lat="48.58266" lon="1.97638">
        <ele>109</ele>
        <time>2023-09-03T10:39:10Z</time>
      </trkpt>
      <trkpt lat="48.58262" lon="1.97624">
        <ele>109</ele>
        <time>2023-09-03T10:39:12Z</time>
      </trkpt>
      <trkpt lat="48.58257" lon="1.9761">
        <ele>109</ele>
        <time>2023-09-03T10:39:14Z</time>
      </trkpt>
      <trkpt lat="48.58251" lon="1.97591">
        <ele>109</ele>
        <time>2023-09-03T10:39:17Z</time>
      </trkpt>
      <trkpt lat="48.58245" lon="1.97578">
        <ele>109</ele>
        <time>2023-09-03T10:39:19Z</time>
      </trkpt>
      <trkpt lat="48.58241" lon="1.97559">
        <ele>109</ele>
        <time>2023-09-03T10:39:22Z</time>
      </trkpt>
      <trkpt lat="48.58234" lon="1.97545">
        <ele>109</ele>
        <time>2023-09-03T10:39:24Z</time>
      </trkpt>
      <trkpt lat="48.58228" lon="1.97531">
        <ele>109</ele>
        <time>2023-09-03T10:39:26Z</time>
      </trkpt>
      <trkpt lat="48.58224" lon="1.97515">
        <ele>109</ele>
        <time>2023-09-03T10:39:28Z</time>
      </trkpt>
      <trkpt lat="48.5822" lon="1.97499">
        <ele>109</ele>
        <time>2023-09-03T10:39:30Z</time>
      </trkpt>
      <trkpt lat="48.58214" lon="1.97483">
        <ele>109.2</ele>
        <time>2023-09-03T10:39:32Z</time>
      </trkpt>
      <trkpt lat="48.58206" lon="1.97469">
        <ele>109.6</ele>
        <time>2023-09-03T10:39:35Z</time>
      </trkpt>
      <trkpt lat="48.58201" lon="1.97454">
        <ele>109.8</ele>
        <time>2023-09-03T10:39:37Z</time>
      </trkpt>
      <trkpt lat="48.58196" lon="1.97439">
        <ele>110</ele>
        <time>2023-09-03T10:39:39Z</time>
      </trkpt>
      <trkpt lat="48.58191" lon="1.97427">
        <ele>110</ele>
        <time>2023-09-03T10:39:41Z</time>
      </trkpt>
      <trkpt lat="48.58187" lon="1.97411">
        <ele>110.1</ele>
        <time>2023-09-03T10:39:44Z</time>
      </trkpt>
      <trkpt lat="48.58183" lon="1.97396">
        <ele>110.3</ele>
        <time>2023-09-03T10:39:46Z</time>
      </trkpt>
      <trkpt lat="48.58178" lon="1.97378">
        <ele>110.6</ele>
        <time>2023-09-03T10:39:49Z</time>
      </trkpt>
      <trkpt lat="48.58174" lon="1.97365">
        <ele>110.7</ele>
        <time>2023-09-03T10:39:52Z</time>
      </trkpt>
      <trkpt lat="48.58163" lon="1.97363">
        <ele>111.1</ele>
        <time>2023-09-03T10:39:56Z</time>
      </trkpt>
      <trkpt lat="48.58153" lon="1.97361">
        <ele>111.5</ele>
        <time>2023-09-03T10:39:59Z</time>
      </trkpt>
      <trkpt lat="48.58143" lon="1.97356">
        <ele>112.1</ele>
        <time>2023-09-03T10:40:02Z</time>
      </trkpt>
      <trkpt lat="48.58135" lon="1.97348">
        <ele>112.6</ele>
        <time>2023-09-03T10:40:05Z</time>
      </trkpt>
      <trkpt lat="48.58131" lon="1.97335">
        <ele>113.2</ele>
        <time>2023-09-03T10:40:08Z</time>
      </trkpt>
      <trkpt lat="48.58125" lon="1.97322">
        <ele>113.5</ele>
        <time>2023-09-03T10:40:12Z</time>
      </trkpt>
      <trkpt lat="48.5812" lon="1.97307">
        <ele>113.7</ele>
        <time>2023-09-03T10:40:18Z</time>
      </trkpt>
      <trkpt lat="48.58117" lon="1.97292">
        <ele>114.3</ele>
        <time>2023-09-03T10:40:24Z</time>
      </trkpt>
      <trkpt lat="48.5812" lon="1.97275">
        <ele>114.8</ele>
        <time>2023-09-03T10:40:29Z</time>
      </trkpt>
      <trkpt lat="48.5812" lon="1.97261">
        <ele>115.1</ele>
        <time>2023-09-03T10:40:33Z</time>
      </trkpt>
      <trkpt lat="48.58118" lon="1.97248">
        <ele>115.6</ele>
        <time>2023-09-03T10:40:38Z</time>
      </trkpt>
      <trkpt lat="48.58112" lon="1.97235">
        <ele>116.4</ele>
        <time>2023-09-03T10:40:43Z</time>
      </trkpt>
      <trkpt lat="48.58105" lon="1.97227">
        <ele>117.5</ele>
        <time>2023-09-03T10:40:49Z</time>
      </trkpt>
      <trkpt lat="48.58107" lon="1.97212">
        <ele>117.8</ele>
        <time>2023-09-03T10:40:57Z</time>
      </trkpt>
      <trkpt lat="48.58101" lon="1.97199">
        <ele>118.6</ele>
        <time>2023-09-03T10:41:04Z</time>
      </trkpt>
      <trkpt lat="48.58098" lon="1.97186">
        <ele>119</ele>
        <time>2023-09-03T10:41:12Z</time>
      </trkpt>
      <trkpt lat="48.58098" lon="1.97172">
        <ele>118.9</ele>
        <time>2023-09-03T10:41:18Z</time>
      </trkpt>
      <trkpt lat="48.58093" lon="1.9716">
        <ele>119.3</ele>
        <time>2023-09-03T10:41:24Z</time>
      </trkpt>
      <trkpt lat="48.58085" lon="1.97151">
        <ele>119.9</ele>
        <time>2023-09-03T10:41:29Z</time>
      </trkpt>
      <trkpt lat="48.58082" lon="1.97138">
        <ele>120</ele>
        <time>2023-09-03T10:41:33Z</time>
      </trkpt>
      <trkpt lat="48.58083" lon="1.9712">
        <ele>120</ele>
        <time>2023-09-03T10:41:37Z</time>
      </trkpt>
      <trkpt lat="48.58078" lon="1.97102">
        <ele>120</ele>
        <time>2023-09-03T10:41:40Z</time>
      </trkpt>
      <trkpt lat="48.58077" lon="1.97083">
        <ele>120</ele>
        <time>2023-09-03T10:41:43Z</time>
      </trkpt>
      <trkpt lat="48.58075" lon="1.97066">
        <ele>119.6</ele>
        <time>2023-09-03T10:41:46Z</time>
      </trkpt>
      <trkpt lat="48.58072" lon="1.9705">
        <ele>119.4</ele>
        <time>2023-09-03T10:41:49Z</time>
      </trkpt>
      <trkpt lat="48.58069" lon="1.97033">
        <ele>119.5</ele>
        <time>2023-09-03T10:41:52Z</time>
      </trkpt>
      <trkpt lat="48.58068" lon="1.97015">
        <ele>119.8</ele>
        <time>2023-09-03T10:41:55Z</time>
      </trkpt>
      <trkpt lat="48.58063" lon="1.96999">
        <ele>120.5</ele>
        <time>2023-09-03T10:41:58Z</time>
      </trkpt>
      <trkpt lat="48.58059" lon="1.96986">
        <ele>120.7</ele>
        <time>2023-09-03T10:42:01Z</time>
      </trkpt>
      <trkpt lat="48.5806" lon="1.96972">
        <ele>120.7</ele>
        <time>2023-09-03T10:42:05Z</time>
      </trkpt>
      <trkpt lat="48.58058" lon="1.96958">
        <ele>120.8</ele>
        <time>2023-09-03T10:42:09Z</time>
      </trkpt>
      <trkpt lat="48.58056" lon="1.96942">
        <ele>121.1</ele>
        <time>2023-09-03T10:42:14Z</time>
      </trkpt>
      <trkpt lat="48.58053" lon="1.96925">
        <ele>121.8</ele>
        <time>2023-09-03T10:42:18Z</time>
      </trkpt>
      <trkpt lat="48.58052" lon="1.96911">
        <ele>122.1</ele>
        <time>2023-09-03T10:42:21Z</time>
      </trkpt>
      <trkpt lat="48.5805" lon="1.96893">
        <ele>122.3</ele>
        <time>2023-09-03T10:42:25Z</time>
      </trkpt>
      <trkpt lat="48.58046" lon="1.96877">
        <ele>122.8</ele>
        <time>2023-09-03T10:42:29Z</time>
      </trkpt>
      <trkpt lat="48.58045" lon="1.96861">
        <ele>123.2</ele>
        <time>2023-09-03T10:42:32Z</time>
      </trkpt>
      <trkpt lat="48.58044" lon="1.96842">
        <ele>122.8</ele>
        <time>2023-09-03T10:42:35Z</time>
      </trkpt>
      <trkpt lat="48.58043" lon="1.96823">
        <ele>122.6</ele>
        <time>2023-09-03T10:42:38Z</time>
      </trkpt>
      <trkpt lat="48.5804" lon="1.96807">
        <ele>122.8</ele>
        <time>2023-09-03T10:42:41Z</time>
      </trkpt>
      <trkpt lat="48.58037" lon="1.96788">
        <ele>122.9</ele>
        <time>2023-09-03T10:42:44Z</time>
      </trkpt>
      <trkpt lat="48.58034" lon="1.96773">
        <ele>122.9</ele>
        <time>2023-09-03T10:42:47Z</time>
      </trkpt>
      <trkpt lat="48.5803" lon="1.96758">
        <ele>123</ele>
        <time>2023-09-03T10:42:51Z</time>
      </trkpt>
      <trkpt lat="48.58027" lon="1.96743">
        <ele>122.8</ele>
        <time>2023-09-03T10:42:55Z</time>
      </trkpt>
      <trkpt lat="48.58022" lon="1.96731">
        <ele>122.8</ele>
        <time>2023-09-03T10:43:01Z</time>
      </trkpt>
      <trkpt lat="48.5802" lon="1.96716">
        <ele>122.7</ele>
        <time>2023-09-03T10:43:08Z</time>
      </trkpt>
      <trkpt lat="48.58017" lon="1.96701">
        <ele>122.7</ele>
        <time>2023-09-03T10:43:13Z</time>
      </trkpt>
      <trkpt lat="48.58012" lon="1.96685">
        <ele>123.2</ele>
        <time>2023-09-03T10:43:17Z</time>
      </trkpt>
      <trkpt lat="48.58013" lon="1.96666">
        <ele>123.1</ele>
        <time>2023-09-03T10:43:21Z</time>
      </trkpt>
      <trkpt lat="48.58013" lon="1.96652">
        <ele>122.9</ele>
        <time>2023-09-03T10:43:24Z</time>
      </trkpt>
      <trkpt lat="48.58009" lon="1.96635">
        <ele>123</ele>
        <time>2023-09-03T10:43:28Z</time>
      </trkpt>
      <trkpt lat="48.58006" lon="1.96618">
        <ele>123.3</ele>
        <time>2023-09-03T10:43:32Z</time>
      </trkpt>
      <trkpt lat="48.58002" lon="1.96603">
        <ele>123.7</ele>
        <time>2023-09-03T10:43:36Z</time>
      </trkpt>
      <trkpt lat="48.58" lon="1.96587">
        <ele>124</ele>
        <time>2023-09-03T10:43:40Z</time>
      </trkpt>
      <trkpt lat="48.57997" lon="1.96573">
        <ele>123.8</ele>
        <time>2023-09-03T10:43:43Z</time>
      </trkpt>
      <trkpt lat="48.57997" lon="1.96558">
        <ele>123.3</ele>
        <time>2023-09-03T10:43:46Z</time>
      </trkpt>
      <trkpt lat="48.57998" lon="1.96541">
        <ele>122.7</ele>
        <time>2023-09-03T10:43:49Z</time>
      </trkpt>
      <trkpt lat="48.57997" lon="1.96526">
        <ele>122.3</ele>
        <time>2023-09-03T10:43:52Z</time>
      </trkpt>
      <trkpt lat="48.57994" lon="1.96513">
        <ele>122.6</ele>
        <time>2023-09-03T10:43:55Z</time>
      </trkpt>
      <trkpt lat="48.5799" lon="1.965">
        <ele>123</ele>
        <time>2023-09-03T10:43:58Z</time>
      </trkpt>
      <trkpt lat="48.57986" lon="1.96484">
        <ele>123.5</ele>
        <time>2023-09-03T10:44:01Z</time>
      </trkpt>
      <trkpt lat="48.57985" lon="1.96467">
        <ele>123.4</ele>
        <time>2023-09-03T10:44:04Z</time>
      </trkpt>
      <trkpt lat="48.57983" lon="1.96449">
        <ele>123</ele>
        <time>2023-09-03T10:44:07Z</time>
      </trkpt>
      <trkpt lat="48.57982" lon="1.96435">
        <ele>122.9</ele>
        <time>2023-09-03T10:44:09Z</time>
      </trkpt>
      <trkpt lat="48.57982" lon="1.96421">
        <ele>123</ele>
        <time>2023-09-03T10:44:11Z</time>
      </trkpt>
      <trkpt lat="48.5798" lon="1.96406">
        <ele>123.3</ele>
        <time>2023-09-03T10:44:13Z</time>
      </trkpt>
      <trkpt lat="48.57979" lon="1.96389">
        <ele>123.5</ele>
        <time>2023-09-03T10:44:15Z</time>
      </trkpt>
      <trkpt lat="48.57979" lon="1.96372">
        <ele>123.7</ele>
        <time>2023-09-03T10:44:17Z</time>
      </trkpt>
      <trkpt lat="48.57977" lon="1.96357">
        <ele>123.9</ele>
        <time>2023-09-03T10:44:19Z</time>
      </trkpt>
      <trkpt lat="48.57975" lon="1.96341">
        <ele>124</ele>
        <time>2023-09-03T10:44:21Z</time>
      </trkpt>
      <trkpt lat="48.57974" lon="1.96325">
        <ele>124</ele>
        <time>2023-09-03T10:44:23Z</time>
      </trkpt>
      <trkpt lat="48.57972" lon="1.96307">
        <ele>124</ele>
        <time>2023-09-03T10:44:26Z</time>
      </trkpt>
      <trkpt lat="48.57968" lon="1.96295">
        <ele>124</ele>
        <time>2023-09-03T10:44:28Z</time>
      </trkpt>
      <trkpt lat="48.57966" lon="1.96278">
        <ele>124</ele>
        <time>2023-09-03T10:44:31Z</time>
      </trkpt>
      <trkpt lat="48.57966" lon="1.9626">
        <ele>123.5</ele>
        <time>2023-09-03T10:44:35Z</time>
      </trkpt>
      <trkpt lat="48.57965" lon="1.96244">
        <ele>123.3</ele>
        <time>2023-09-03T10:44:38Z</time>
      </trkpt>
      <trkpt lat="48.57963" lon="1.96228">
        <ele>123.3</ele>
        <time>2023-09-03T10:44:41Z</time>
      </trkpt>
      <trkpt lat="48.57958" lon="1.96216">
        <ele>123.4</ele>
        <time>2023-09-03T10:44:43Z</time>
      </trkpt>
      <trkpt lat="48.57954" lon="1.96202">
        <ele>123.2</ele>
        <time>2023-09-03T10:44:46Z</time>
      </trkpt>
      <trkpt lat="48.57954" lon="1.96184">
        <ele>123</ele>
        <time>2023-09-03T10:44:49Z</time>
      </trkpt>
      <trkpt lat="48.57952" lon="1.96164">
        <ele>123</ele>
        <time>2023-09-03T10:44:52Z</time>
      </trkpt>
      <trkpt lat="48.57949" lon="1.96145">
        <ele>122.9</ele>
        <time>2023-09-03T10:44:55Z</time>
      </trkpt>
      <trkpt lat="48.57947" lon="1.96127">
        <ele>122.9</ele>
        <time>2023-09-03T10:44:58Z</time>
      </trkpt>
      <trkpt lat="48.57944" lon="1.96111">
        <ele>123</ele>
        <time>2023-09-03T10:45:02Z</time>
      </trkpt>
      <trkpt lat="48.57948" lon="1.96097">
        <ele>122.9</ele>
        <time>2023-09-03T10:45:08Z</time>
      </trkpt>
      <trkpt lat="48.57948" lon="1.9608">
        <ele>122.7</ele>
        <time>2023-09-03T10:45:12Z</time>
      </trkpt>
      <trkpt lat="48.57946" lon="1.96063">
        <ele>122.3</ele>
        <time>2023-09-03T10:45:15Z</time>
      </trkpt>
      <trkpt lat="48.57945" lon="1.96048">
        <ele>122</ele>
        <time>2023-09-03T10:45:17Z</time>
      </trkpt>
      <trkpt lat="48.57945" lon="1.96029">
        <ele>122</ele>
        <time>2023-09-03T10:45:20Z</time>
      </trkpt>
      <trkpt lat="48.57942" lon="1.96016">
        <ele>122.1</ele>
        <time>2023-09-03T10:45:22Z</time>
      </trkpt>
      <trkpt lat="48.57939" lon="1.95998">
        <ele>122.2</ele>
        <time>2023-09-03T10:45:25Z</time>
      </trkpt>
      <trkpt lat="48.57935" lon="1.95983">
        <ele>122.7</ele>
        <time>2023-09-03T10:45:27Z</time>
      </trkpt>
      <trkpt lat="48.57931" lon="1.95965">
        <ele>123</ele>
        <time>2023-09-03T10:45:30Z</time>
      </trkpt>
      <trkpt lat="48.57928" lon="1.95949">
        <ele>123</ele>
        <time>2023-09-03T10:45:33Z</time>
      </trkpt>
      <trkpt lat="48.57925" lon="1.9593">
        <ele>123.2</ele>
        <time>2023-09-03T10:45:36Z</time>
      </trkpt>
      <trkpt lat="48.57923" lon="1.95913">
        <ele>123.3</ele>
        <time>2023-09-03T10:45:39Z</time>
      </trkpt>
      <trkpt lat="48.57921" lon="1.95898">
        <ele>123.8</ele>
        <time>2023-09-03T10:45:42Z</time>
      </trkpt>
      <trkpt lat="48.57918" lon="1.9588">
        <ele>124.4</ele>
        <time>2023-09-03T10:45:46Z</time>
      </trkpt>
      <trkpt lat="48.57916" lon="1.95865">
        <ele>124.9</ele>
        <time>2023-09-03T10:45:49Z</time>
      </trkpt>
      <trkpt lat="48.57914" lon="1.95848">
        <ele>125.9</ele>
        <time>2023-09-03T10:45:52Z</time>
      </trkpt>
      <trkpt lat="48.57913" lon="1.95832">
        <ele>126.9</ele>
        <time>2023-09-03T10:45:55Z</time>
      </trkpt>
      <trkpt lat="48.57912" lon="1.95815">
        <ele>127.5</ele>
        <time>2023-09-03T10:45:58Z</time>
      </trkpt>
      <trkpt lat="48.5791" lon="1.95798">
        <ele>128</ele>
        <time>2023-09-03T10:46:01Z</time>
      </trkpt>
      <trkpt lat="48.57909" lon="1.95784">
        <ele>128.5</ele>
        <time>2023-09-03T10:46:04Z</time>
      </trkpt>
      <trkpt lat="48.57906" lon="1.95766">
        <ele>128.9</ele>
        <time>2023-09-03T10:46:08Z</time>
      </trkpt>
      <trkpt lat="48.57904" lon="1.9575">
        <ele>129.1</ele>
        <time>2023-09-03T10:46:11Z</time>
      </trkpt>
      <trkpt lat="48.57903" lon="1.9573">
        <ele>129.7</ele>
        <time>2023-09-03T10:46:14Z</time>
      </trkpt>
      <trkpt lat="48.579" lon="1.9571">
        <ele>129.8</ele>
        <time>2023-09-03T10:46:17Z</time>
      </trkpt>
      <trkpt lat="48.57896" lon="1.95693">
        <ele>129.5</ele>
        <time>2023-09-03T10:46:20Z</time>
      </trkpt>
      <trkpt lat="48.57893" lon="1.95679">
        <ele>129.3</ele>
        <time>2023-09-03T10:46:22Z</time>
      </trkpt>
      <trkpt lat="48.57892" lon="1.95664">
        <ele>129.3</ele>
        <time>2023-09-03T10:46:24Z</time>
      </trkpt>
      <trkpt lat="48.57889" lon="1.9565">
        <ele>129.6</ele>
        <time>2023-09-03T10:46:26Z</time>
      </trkpt>
      <trkpt lat="48.57887" lon="1.9563">
        <ele>129.9</ele>
        <time>2023-09-03T10:46:29Z</time>
      </trkpt>
      <trkpt lat="48.57885" lon="1.95614">
        <ele>129.8</ele>
        <time>2023-09-03T10:46:31Z</time>
      </trkpt>
      <trkpt lat="48.57882" lon="1.956">
        <ele>130</ele>
        <time>2023-09-03T10:46:33Z</time>
      </trkpt>
      <trkpt lat="48.5788" lon="1.95587">
        <ele>130.3</ele>
        <time>2023-09-03T10:46:35Z</time>
      </trkpt>
      <trkpt lat="48.57877" lon="1.95573">
        <ele>130.1</ele>
        <time>2023-09-03T10:46:37Z</time>
      </trkpt>
      <trkpt lat="48.57875" lon="1.95554">
        <ele>130</ele>
        <time>2023-09-03T10:46:40Z</time>
      </trkpt>
      <trkpt lat="48.57873" lon="1.9554">
        <ele>130.1</ele>
        <time>2023-09-03T10:46:42Z</time>
      </trkpt>
      <trkpt lat="48.57873" lon="1.9552">
        <ele>130.4</ele>
        <time>2023-09-03T10:46:45Z</time>
      </trkpt>
      <trkpt lat="48.57869" lon="1.95501">
        <ele>130.5</ele>
        <time>2023-09-03T10:46:48Z</time>
      </trkpt>
      <trkpt lat="48.57868" lon="1.95482">
        <ele>130.5</ele>
        <time>2023-09-03T10:46:51Z</time>
      </trkpt>
      <trkpt lat="48.57864" lon="1.95463">
        <ele>130.6</ele>
        <time>2023-09-03T10:46:54Z</time>
      </trkpt>
      <trkpt lat="48.57862" lon="1.95446">
        <ele>131</ele>
        <time>2023-09-03T10:46:57Z</time>
      </trkpt>
      <trkpt lat="48.5786" lon="1.95432">
        <ele>131.4</ele>
        <time>2023-09-03T10:46:59Z</time>
      </trkpt>
      <trkpt lat="48.57857" lon="1.95415">
        <ele>131.7</ele>
        <time>2023-09-03T10:47:02Z</time>
      </trkpt>
      <trkpt lat="48.57855" lon="1.95401">
        <ele>131.7</ele>
        <time>2023-09-03T10:47:04Z</time>
      </trkpt>
      <trkpt lat="48.57852" lon="1.95383">
        <ele>131.6</ele>
        <time>2023-09-03T10:47:07Z</time>
      </trkpt>
      <trkpt lat="48.5785" lon="1.95369">
        <ele>131.3</ele>
        <time>2023-09-03T10:47:09Z</time>
      </trkpt>
      <trkpt lat="48.57849" lon="1.9535">
        <ele>130.9</ele>
        <time>2023-09-03T10:47:12Z</time>
      </trkpt>
      <trkpt lat="48.57847" lon="1.95337">
        <ele>130.6</ele>
        <time>2023-09-03T10:47:14Z</time>
      </trkpt>
      <trkpt lat="48.57844" lon="1.95323">
        <ele>130</ele>
        <time>2023-09-03T10:47:16Z</time>
      </trkpt>
      <trkpt lat="48.57841" lon="1.9531">
        <ele>129.5</ele>
        <time>2023-09-03T10:47:18Z</time>
      </trkpt>
      <trkpt lat="48.57838" lon="1.95295">
        <ele>128.5</ele>
        <time>2023-09-03T10:47:20Z</time>
      </trkpt>
      <trkpt lat="48.57835" lon="1.95277">
        <ele>127.1</ele>
        <time>2023-09-03T10:47:23Z</time>
      </trkpt>
      <trkpt lat="48.57831" lon="1.95259">
        <ele>126.1</ele>
        <time>2023-09-03T10:47:26Z</time>
      </trkpt>
      <trkpt lat="48.57828" lon="1.95243">
        <ele>125.4</ele>
        <time>2023-09-03T10:47:29Z</time>
      </trkpt>
      <trkpt lat="48.57827" lon="1.95227">
        <ele>124.9</ele>
        <time>2023-09-03T10:47:31Z</time>
      </trkpt>
      <trkpt lat="48.57826" lon="1.95214">
        <ele>124.4</ele>
        <time>2023-09-03T10:47:33Z</time>
      </trkpt>
      <trkpt lat="48.57821" lon="1.95199">
        <ele>123.7</ele>
        <time>2023-09-03T10:47:35Z</time>
      </trkpt>
      <trkpt lat="48.57819" lon="1.95185">
        <ele>123.3</ele>
        <time>2023-09-03T10:47:37Z</time>
      </trkpt>
      <trkpt lat="48.57817" lon="1.9517">
        <ele>122.9</ele>
        <time>2023-09-03T10:47:39Z</time>
      </trkpt>
      <trkpt lat="48.57815" lon="1.95156">
        <ele>122.6</ele>
        <time>2023-09-03T10:47:41Z</time>
      </trkpt>
      <trkpt lat="48.57812" lon="1.95142">
        <ele>122.3</ele>
        <time>2023-09-03T10:47:43Z</time>
      </trkpt>
      <trkpt lat="48.5781" lon="1.95121">
        <ele>121.6</ele>
        <time>2023-09-03T10:47:46Z</time>
      </trkpt>
      <trkpt lat="48.57807" lon="1.95105">
        <ele>121.1</ele>
        <time>2023-09-03T10:47:49Z</time>
      </trkpt>
      <trkpt lat="48.57805" lon="1.95085">
        <ele>121</ele>
        <time>2023-09-03T10:47:52Z</time>
      </trkpt>
      <trkpt lat="48.57803" lon="1.95067">
        <ele>120.9</ele>
        <time>2023-09-03T10:47:55Z</time>
      </trkpt>
      <trkpt lat="48.57801" lon="1.95052">
        <ele>120.8</ele>
        <time>2023-09-03T10:47:57Z</time>
      </trkpt>
      <trkpt lat="48.57799" lon="1.95039">
        <ele>120.3</ele>
        <time>2023-09-03T10:47:59Z</time>
      </trkpt>
      <trkpt lat="48.57797" lon="1.95025">
        <ele>120</ele>
        <time>2023-09-03T10:48:01Z</time>
      </trkpt>
      <trkpt lat="48.57795" lon="1.95009">
        <ele>120</ele>
        <time>2023-09-03T10:48:04Z</time>
      </trkpt>
      <trkpt lat="48.57794" lon="1.94988">
        <ele>120</ele>
        <time>2023-09-03T10:48:07Z</time>
      </trkpt>
      <trkpt lat="48.57792" lon="1.94975">
        <ele>120</ele>
        <time>2023-09-03T10:48:09Z</time>
      </trkpt>
      <trkpt lat="48.57789" lon="1.94955">
        <ele>120.2</ele>
        <time>2023-09-03T10:48:12Z</time>
      </trkpt>
      <trkpt lat="48.57787" lon="1.94936">
        <ele>120.3</ele>
        <time>2023-09-03T10:48:15Z</time>
      </trkpt>
      <trkpt lat="48.57787" lon="1.94923">
        <ele>120.3</ele>
        <time>2023-09-03T10:48:17Z</time>
      </trkpt>
      <trkpt lat="48.57784" lon="1.94906">
        <ele>120.5</ele>
        <time>2023-09-03T10:48:20Z</time>
      </trkpt>
      <trkpt lat="48.57782" lon="1.94892">
        <ele>120.9</ele>
        <time>2023-09-03T10:48:24Z</time>
      </trkpt>
      <trkpt lat="48.57784" lon="1.94878">
        <ele>121</ele>
        <time>2023-09-03T10:48:27Z</time>
      </trkpt>
      <trkpt lat="48.57788" lon="1.9486">
        <ele>121</ele>
        <time>2023-09-03T10:48:30Z</time>
      </trkpt>
      <trkpt lat="48.57786" lon="1.94845">
        <ele>121.2</ele>
        <time>2023-09-03T10:48:33Z</time>
      </trkpt>
      <trkpt lat="48.57781" lon="1.94833">
        <ele>121.1</ele>
        <time>2023-09-03T10:48:36Z</time>
      </trkpt>
      <trkpt lat="48.57773" lon="1.94823">
        <ele>121.4</ele>
        <time>2023-09-03T10:48:39Z</time>
      </trkpt>
      <trkpt lat="48.57764" lon="1.94816">
        <ele>121.6</ele>
        <time>2023-09-03T10:48:42Z</time>
      </trkpt>
      <trkpt lat="48.57754" lon="1.94807">
        <ele>122</ele>
        <time>2023-09-03T10:48:45Z</time>
      </trkpt>
      <trkpt lat="48.57744" lon="1.94796">
        <ele>121.9</ele>
        <time>2023-09-03T10:48:48Z</time>
      </trkpt>
      <trkpt lat="48.57733" lon="1.94786">
        <ele>121.8</ele>
        <time>2023-09-03T10:48:51Z</time>
      </trkpt>
      <trkpt lat="48.57721" lon="1.94784">
        <ele>121.8</ele>
        <time>2023-09-03T10:48:54Z</time>
      </trkpt>
      <trkpt lat="48.5771" lon="1.94795">
        <ele>121.4</ele>
        <time>2023-09-03T10:48:57Z</time>
      </trkpt>
      <trkpt lat="48.57703" lon="1.94804">
        <ele>121</ele>
        <time>2023-09-03T10:48:59Z</time>
      </trkpt>
      <trkpt lat="48.57691" lon="1.94812">
        <ele>120.7</ele>
        <time>2023-09-03T10:49:01Z</time>
      </trkpt>
      <trkpt lat="48.57679" lon="1.94817">
        <ele>120.3</ele>
        <time>2023-09-03T10:49:03Z</time>
      </trkpt>
      <trkpt lat="48.57667" lon="1.94822">
        <ele>120</ele>
        <time>2023-09-03T10:49:05Z</time>
      </trkpt>
      <trkpt lat="48.57655" lon="1.94827">
        <ele>120</ele>
        <time>2023-09-03T10:49:07Z</time>
      </trkpt>
      <trkpt lat="48.57644" lon="1.94832">
        <ele>120</ele>
        <time>2023-09-03T10:49:09Z</time>
      </trkpt>
      <trkpt lat="48.57631" lon="1.94839">
        <ele>119.6</ele>
        <time>2023-09-03T10:49:11Z</time>
      </trkpt>
      <trkpt lat="48.5762" lon="1.94844">
        <ele>119.2</ele>
        <time>2023-09-03T10:49:13Z</time>
      </trkpt>
      <trkpt lat="48.57608" lon="1.9485">
        <ele>118.9</ele>
        <time>2023-09-03T10:49:15Z</time>
      </trkpt>
      <trkpt lat="48.57597" lon="1.94855">
        <ele>118.6</ele>
        <time>2023-09-03T10:49:17Z</time>
      </trkpt>
      <trkpt lat="48.57587" lon="1.9486">
        <ele>118.2</ele>
        <time>2023-09-03T10:49:19Z</time>
      </trkpt>
      <trkpt lat="48.57577" lon="1.94866">
        <ele>118</ele>
        <time>2023-09-03T10:49:21Z</time>
      </trkpt>
      <trkpt lat="48.57567" lon="1.94871">
        <ele>118</ele>
        <time>2023-09-03T10:49:23Z</time>
      </trkpt>
      <trkpt lat="48.57557" lon="1.94871">
        <ele>118</ele>
        <time>2023-09-03T10:49:25Z</time>
      </trkpt>
      <trkpt lat="48.57548" lon="1.94867">
        <ele>118</ele>
        <time>2023-09-03T10:49:27Z</time>
      </trkpt>
      <trkpt lat="48.57539" lon="1.94865">
        <ele>118</ele>
        <time>2023-09-03T10:49:29Z</time>
      </trkpt>
      <trkpt lat="48.5753" lon="1.9487">
        <ele>118</ele>
        <time>2023-09-03T10:49:31Z</time>
      </trkpt>
      <trkpt lat="48.57524" lon="1.94881">
        <ele>118</ele>
        <time>2023-09-03T10:49:33Z</time>
      </trkpt>
      <trkpt lat="48.57516" lon="1.94893">
        <ele>117.9</ele>
        <time>2023-09-03T10:49:35Z</time>
      </trkpt>
      <trkpt lat="48.57505" lon="1.94898">
        <ele>117.7</ele>
        <time>2023-09-03T10:49:37Z</time>
      </trkpt>
      <trkpt lat="48.57495" lon="1.94904">
        <ele>117.5</ele>
        <time>2023-09-03T10:49:39Z</time>
      </trkpt>
      <trkpt lat="48.57486" lon="1.94913">
        <ele>117.1</ele>
        <time>2023-09-03T10:49:41Z</time>
      </trkpt>
      <trkpt lat="48.57478" lon="1.94925">
        <ele>117</ele>
        <time>2023-09-03T10:49:43Z</time>
      </trkpt>
      <trkpt lat="48.57471" lon="1.94938">
        <ele>117.1</ele>
        <time>2023-09-03T10:49:45Z</time>
      </trkpt>
      <trkpt lat="48.57463" lon="1.94948">
        <ele>117.3</ele>
        <time>2023-09-03T10:49:47Z</time>
      </trkpt>
      <trkpt lat="48.57453" lon="1.94957">
        <ele>117.7</ele>
        <time>2023-09-03T10:49:50Z</time>
      </trkpt>
      <trkpt lat="48.57446" lon="1.94968">
        <ele>118</ele>
        <time>2023-09-03T10:50:52Z</time>
      </trkpt>
      <trkpt lat="48.57436" lon="1.94969">
        <ele>117.1</ele>
        <time>2023-09-03T10:50:56Z</time>
      </trkpt>
      <trkpt lat="48.57429" lon="1.94959">
        <ele>116.6</ele>
        <time>2023-09-03T10:50:59Z</time>
      </trkpt>
      <trkpt lat="48.57419" lon="1.9496">
        <ele>115.7</ele>
        <time>2023-09-03T10:51:03Z</time>
      </trkpt>
      <trkpt lat="48.57424" lon="1.94976">
        <ele>115.7</ele>
        <time>2023-09-03T10:51:06Z</time>
      </trkpt>
      <trkpt lat="48.5743" lon="1.94993">
        <ele>116.1</ele>
        <time>2023-09-03T10:51:09Z</time>
      </trkpt>
      <trkpt lat="48.57436" lon="1.9501">
        <ele>116</ele>
        <time>2023-09-03T10:51:12Z</time>
      </trkpt>
      <trkpt lat="48.57441" lon="1.95029">
        <ele>115.7</ele>
        <time>2023-09-03T10:51:15Z</time>
      </trkpt>
      <trkpt lat="48.57446" lon="1.95043">
        <ele>115.5</ele>
        <time>2023-09-03T10:51:17Z</time>
      </trkpt>
      <trkpt lat="48.57449" lon="1.95057">
        <ele>115</ele>
        <time>2023-09-03T10:51:19Z</time>
      </trkpt>
      <trkpt lat="48.57453" lon="1.95076">
        <ele>114.5</ele>
        <time>2023-09-03T10:51:22Z</time>
      </trkpt>
      <trkpt lat="48.57455" lon="1.95091">
        <ele>114</ele>
        <time>2023-09-03T10:51:25Z</time>
      </trkpt>
      <trkpt lat="48.5746" lon="1.95102">
        <ele>113.6</ele>
        <time>2023-09-03T10:51:29Z</time>
      </trkpt>
      <trkpt lat="48.57466" lon="1.95116">
        <ele>113.4</ele>
        <time>2023-09-03T10:51:32Z</time>
      </trkpt>
      <trkpt lat="48.57472" lon="1.95132">
        <ele>113.2</ele>
        <time>2023-09-03T10:51:35Z</time>
      </trkpt>
      <trkpt lat="48.57477" lon="1.95151">
        <ele>112.6</ele>
        <time>2023-09-03T10:51:38Z</time>
      </trkpt>
      <trkpt lat="48.57479" lon="1.95164">
        <ele>112.3</ele>
        <time>2023-09-03T10:51:40Z</time>
      </trkpt>
      <trkpt lat="48.57482" lon="1.95179">
        <ele>112.1</ele>
        <time>2023-09-03T10:51:42Z</time>
      </trkpt>
      <trkpt lat="48.57486" lon="1.95194">
        <ele>112</ele>
        <time>2023-09-03T10:51:44Z</time>
      </trkpt>
      <trkpt lat="48.57488" lon="1.95208">
        <ele>112.1</ele>
        <time>2023-09-03T10:51:46Z</time>
      </trkpt>
      <trkpt lat="48.57489" lon="1.95222">
        <ele>112.2</ele>
        <time>2023-09-03T10:51:52Z</time>
      </trkpt>
      <trkpt lat="48.57483" lon="1.95235">
        <ele>111.8</ele>
        <time>2023-09-03T10:51:57Z</time>
      </trkpt>
      <trkpt lat="48.57478" lon="1.95247">
        <ele>111.4</ele>
        <time>2023-09-03T10:52:01Z</time>
      </trkpt>
      <trkpt lat="48.57472" lon="1.9526">
        <ele>111</ele>
        <time>2023-09-03T10:52:05Z</time>
      </trkpt>
      <trkpt lat="48.57468" lon="1.95272">
        <ele>111</ele>
        <time>2023-09-03T10:52:17Z</time>
      </trkpt>
      <trkpt lat="48.57462" lon="1.95283">
        <ele>111</ele>
        <time>2023-09-03T10:52:54Z</time>
      </trkpt>
      <trkpt lat="48.57456" lon="1.95294">
        <ele>111</ele>
        <time>2023-09-03T10:53:03Z</time>
      </trkpt>
      <trkpt lat="48.57449" lon="1.95304">
        <ele>111</ele>
        <time>2023-09-03T10:53:31Z</time>
      </trkpt>
    </trkseg>
  </trk>
</gpx>